<?xml version="1.0" encoding="UTF-8" standalone="no" ?>
<gpx xmlns="http://www.topografix.com/GPX/1/1" xmlns:xsi="http://www.w3.org/2001/XMLSchema-instance" xsi:schemaLocation="http://www.topografix.com/GPX/1/1 http://www.topografix.com/GPX/1/1/gpx.xsd" version="1.1" creator="VisuGPX - https://www.visugpx.com">
  <metadata>
    <name>6000D </name>
    <desc><![CDATA[la 6000D avec des souci de genoux droit dur dur les descente mais je l\'ai fini]]></desc>
  </metadata>
  <trk>
    <name><![CDATA[6000D 27-07-13]]></name>
    <trkseg>
      <trkpt lat="45.55596" lon="6.65135">
        <ele>684</ele>
        <time>2013-07-27T04:00:24Z</time>
      </trkpt>
      <trkpt lat="45.55599" lon="6.65149">
        <ele>684</ele>
        <time>2013-07-27T04:00:35Z</time>
      </trkpt>
      <trkpt lat="45.55604" lon="6.65164">
        <ele>684</ele>
        <time>2013-07-27T04:00:40Z</time>
      </trkpt>
      <trkpt lat="45.55618" lon="6.65195">
        <ele>684</ele>
        <time>2013-07-27T04:00:51Z</time>
      </trkpt>
      <trkpt lat="45.55623" lon="6.65215">
        <ele>684</ele>
        <time>2013-07-27T04:00:57Z</time>
      </trkpt>
      <trkpt lat="45.55634" lon="6.65231">
        <ele>684</ele>
        <time>2013-07-27T04:01:03Z</time>
      </trkpt>
      <trkpt lat="45.55646" lon="6.65251">
        <ele>684</ele>
        <time>2013-07-27T04:01:10Z</time>
      </trkpt>
      <trkpt lat="45.55655" lon="6.65263">
        <ele>684</ele>
        <time>2013-07-27T04:01:15Z</time>
      </trkpt>
      <trkpt lat="45.55678" lon="6.65285">
        <ele>684.64271416034</ele>
        <time>2013-07-27T04:01:24Z</time>
      </trkpt>
      <trkpt lat="45.55691" lon="6.65298">
        <ele>688.13572590133</ele>
        <time>2013-07-27T04:01:29Z</time>
      </trkpt>
      <trkpt lat="45.55702" lon="6.65312">
        <ele>690.90982022273</ele>
        <time>2013-07-27T04:01:34Z</time>
      </trkpt>
      <trkpt lat="45.55714" lon="6.65332">
        <ele>690.30861743238</ele>
        <time>2013-07-27T04:01:40Z</time>
      </trkpt>
      <trkpt lat="45.55721" lon="6.65351">
        <ele>690.19900032</ele>
        <time>2013-07-27T04:01:45Z</time>
      </trkpt>
      <trkpt lat="45.55732" lon="6.65387">
        <ele>690.816</ele>
        <time>2013-07-27T04:01:54Z</time>
      </trkpt>
      <trkpt lat="45.55737" lon="6.65405">
        <ele>690.016</ele>
        <time>2013-07-27T04:01:58Z</time>
      </trkpt>
      <trkpt lat="45.55741" lon="6.65423">
        <ele>689.216</ele>
        <time>2013-07-27T04:02:02Z</time>
      </trkpt>
      <trkpt lat="45.55745" lon="6.65445">
        <ele>689</ele>
        <time>2013-07-27T04:02:07Z</time>
      </trkpt>
      <trkpt lat="45.5575" lon="6.65526">
        <ele>687.81154956465</ele>
        <time>2013-07-27T04:02:25Z</time>
      </trkpt>
      <trkpt lat="45.55747" lon="6.65549">
        <ele>687.30496411592</ele>
        <time>2013-07-27T04:02:30Z</time>
      </trkpt>
      <trkpt lat="45.55744" lon="6.65567">
        <ele>687</ele>
        <time>2013-07-27T04:02:34Z</time>
      </trkpt>
      <trkpt lat="45.55739" lon="6.65585">
        <ele>687</ele>
        <time>2013-07-27T04:02:38Z</time>
      </trkpt>
      <trkpt lat="45.55726" lon="6.65623">
        <ele>686.59699968</ele>
        <time>2013-07-27T04:02:47Z</time>
      </trkpt>
      <trkpt lat="45.5572" lon="6.6564">
        <ele>686.19699968</ele>
        <time>2013-07-27T04:02:51Z</time>
      </trkpt>
      <trkpt lat="45.55711" lon="6.6565">
        <ele>685.89000064</ele>
        <time>2013-07-27T04:02:54Z</time>
      </trkpt>
      <trkpt lat="45.55698" lon="6.6566">
        <ele>685.49000064</ele>
        <time>2013-07-27T04:02:58Z</time>
      </trkpt>
      <trkpt lat="45.55686" lon="6.6567">
        <ele>685.09000064</ele>
        <time>2013-07-27T04:03:02Z</time>
      </trkpt>
      <trkpt lat="45.55674" lon="6.65707">
        <ele>684.19161688886</ele>
        <time>2013-07-27T04:03:11Z</time>
      </trkpt>
      <trkpt lat="45.55672" lon="6.65721">
        <ele>683.69639394219</ele>
        <time>2013-07-27T04:03:14Z</time>
      </trkpt>
      <trkpt lat="45.5567" lon="6.65741">
        <ele>682.49098100779</ele>
        <time>2013-07-27T04:03:18Z</time>
      </trkpt>
      <trkpt lat="45.55668" lon="6.65761">
        <ele>681.29158586512</ele>
        <time>2013-07-27T04:03:22Z</time>
      </trkpt>
      <trkpt lat="45.55667" lon="6.65779">
        <ele>679.76247681436</ele>
        <time>2013-07-27T04:03:26Z</time>
      </trkpt>
      <trkpt lat="45.55661" lon="6.65824">
        <ele>676.69839730764</ele>
        <time>2013-07-27T04:03:36Z</time>
      </trkpt>
      <trkpt lat="45.55661" lon="6.65847">
        <ele>676.19739434235</ele>
        <time>2013-07-27T04:03:41Z</time>
      </trkpt>
      <trkpt lat="45.55662" lon="6.65871">
        <ele>675.69000064</ele>
        <time>2013-07-27T04:03:46Z</time>
      </trkpt>
      <trkpt lat="45.55661" lon="6.65893">
        <ele>675.19000064</ele>
        <time>2013-07-27T04:03:51Z</time>
      </trkpt>
      <trkpt lat="45.55663" lon="6.65918">
        <ele>674.07000192</ele>
        <time>2013-07-27T04:03:56Z</time>
      </trkpt>
      <trkpt lat="45.55655" lon="6.66">
        <ele>670.99699968</ele>
        <time>2013-07-27T04:04:13Z</time>
      </trkpt>
      <trkpt lat="45.5564" lon="6.66011">
        <ele>670.59699968</ele>
        <time>2013-07-27T04:04:17Z</time>
      </trkpt>
      <trkpt lat="45.55627" lon="6.66019">
        <ele>670.19500032</ele>
        <time>2013-07-27T04:04:21Z</time>
      </trkpt>
      <trkpt lat="45.55602" lon="6.66035">
        <ele>670</ele>
        <time>2013-07-27T04:04:29Z</time>
      </trkpt>
      <trkpt lat="45.55592" lon="6.66052">
        <ele>669.89879798073</ele>
        <time>2013-07-27T04:04:34Z</time>
      </trkpt>
      <trkpt lat="45.55585" lon="6.66074">
        <ele>669.39779501544</ele>
        <time>2013-07-27T04:04:39Z</time>
      </trkpt>
      <trkpt lat="45.5558" lon="6.66092">
        <ele>668.99000064</ele>
        <time>2013-07-27T04:04:43Z</time>
      </trkpt>
      <trkpt lat="45.55573" lon="6.66114">
        <ele>668.49000064</ele>
        <time>2013-07-27T04:04:48Z</time>
      </trkpt>
      <trkpt lat="45.55558" lon="6.66147">
        <ele>668</ele>
        <time>2013-07-27T04:04:56Z</time>
      </trkpt>
      <trkpt lat="45.55545" lon="6.66161">
        <ele>668</ele>
        <time>2013-07-27T04:05:01Z</time>
      </trkpt>
      <trkpt lat="45.55532" lon="6.66171">
        <ele>668</ele>
        <time>2013-07-27T04:05:05Z</time>
      </trkpt>
      <trkpt lat="45.55515" lon="6.66176">
        <ele>668</ele>
        <time>2013-07-27T04:05:10Z</time>
      </trkpt>
      <trkpt lat="45.55504" lon="6.66166">
        <ele>668.10299904</ele>
        <time>2013-07-27T04:05:14Z</time>
      </trkpt>
      <trkpt lat="45.55487" lon="6.66129">
        <ele>669.00892067676</ele>
        <time>2013-07-27T04:05:23Z</time>
      </trkpt>
      <trkpt lat="45.55484" lon="6.66106">
        <ele>670.49553775874</ele>
        <time>2013-07-27T04:05:28Z</time>
      </trkpt>
      <trkpt lat="45.55488" lon="6.66087">
        <ele>671.68483446893</ele>
        <time>2013-07-27T04:05:32Z</time>
      </trkpt>
      <trkpt lat="45.55492" lon="6.66068">
        <ele>672.30373318144</ele>
        <time>2013-07-27T04:05:36Z</time>
      </trkpt>
      <trkpt lat="45.55494" lon="6.66047">
        <ele>672.80827388633</ele>
        <time>2013-07-27T04:05:41Z</time>
      </trkpt>
      <trkpt lat="45.55489" lon="6.66013">
        <ele>672.39000064</ele>
        <time>2013-07-27T04:05:49Z</time>
      </trkpt>
      <trkpt lat="45.55467" lon="6.6595">
        <ele>671</ele>
        <time>2013-07-27T04:06:05Z</time>
      </trkpt>
      <trkpt lat="45.55461" lon="6.65929">
        <ele>671</ele>
        <time>2013-07-27T04:06:10Z</time>
      </trkpt>
      <trkpt lat="45.55454" lon="6.65891">
        <ele>671.58151098625</ele>
        <time>2013-07-27T04:06:19Z</time>
      </trkpt>
      <trkpt lat="45.5545" lon="6.65874">
        <ele>671.97912555332</ele>
        <time>2013-07-27T04:06:23Z</time>
      </trkpt>
      <trkpt lat="45.55448" lon="6.65856">
        <ele>672</ele>
        <time>2013-07-27T04:06:27Z</time>
      </trkpt>
      <trkpt lat="45.55448" lon="6.65839">
        <ele>672</ele>
        <time>2013-07-27T04:06:31Z</time>
      </trkpt>
      <trkpt lat="45.55447" lon="6.65821">
        <ele>672</ele>
        <time>2013-07-27T04:06:35Z</time>
      </trkpt>
      <trkpt lat="45.55446" lon="6.65783">
        <ele>672</ele>
        <time>2013-07-27T04:06:44Z</time>
      </trkpt>
      <trkpt lat="45.55443" lon="6.65766">
        <ele>672</ele>
        <time>2013-07-27T04:06:48Z</time>
      </trkpt>
      <trkpt lat="45.55438" lon="6.6575">
        <ele>672</ele>
        <time>2013-07-27T04:06:52Z</time>
      </trkpt>
      <trkpt lat="45.55431" lon="6.65734">
        <ele>672.30299904</ele>
        <time>2013-07-27T04:06:56Z</time>
      </trkpt>
      <trkpt lat="45.55418" lon="6.65723">
        <ele>672.80300032</ele>
        <time>2013-07-27T04:07:01Z</time>
      </trkpt>
      <trkpt lat="45.55394" lon="6.65716">
        <ele>674.00599808</ele>
        <time>2013-07-27T04:07:08Z</time>
      </trkpt>
      <trkpt lat="45.55381" lon="6.65704">
        <ele>675.00300032</ele>
        <time>2013-07-27T04:07:13Z</time>
      </trkpt>
      <trkpt lat="45.55372" lon="6.6569">
        <ele>675.40300032</ele>
        <time>2013-07-27T04:07:17Z</time>
      </trkpt>
      <trkpt lat="45.55364" lon="6.65676">
        <ele>675.80300032</ele>
        <time>2013-07-27T04:07:21Z</time>
      </trkpt>
      <trkpt lat="45.55357" lon="6.65662">
        <ele>675.79041966654</ele>
        <time>2013-07-27T04:07:25Z</time>
      </trkpt>
      <trkpt lat="45.55339" lon="6.65635">
        <ele>675</ele>
        <time>2013-07-27T04:07:33Z</time>
      </trkpt>
      <trkpt lat="45.55327" lon="6.65619">
        <ele>675</ele>
        <time>2013-07-27T04:07:38Z</time>
      </trkpt>
      <trkpt lat="45.55295" lon="6.65584">
        <ele>674.208</ele>
        <time>2013-07-27T04:07:51Z</time>
      </trkpt>
      <trkpt lat="45.55275" lon="6.65554">
        <ele>674</ele>
        <time>2013-07-27T04:08:00Z</time>
      </trkpt>
      <trkpt lat="45.55269" lon="6.65536">
        <ele>674</ele>
        <time>2013-07-27T04:08:04Z</time>
      </trkpt>
      <trkpt lat="45.55264" lon="6.6552">
        <ele>674</ele>
        <time>2013-07-27T04:08:08Z</time>
      </trkpt>
      <trkpt lat="45.55261" lon="6.65502">
        <ele>674</ele>
        <time>2013-07-27T04:08:12Z</time>
      </trkpt>
      <trkpt lat="45.55258" lon="6.65486">
        <ele>673.70099968</ele>
        <time>2013-07-27T04:08:16Z</time>
      </trkpt>
      <trkpt lat="45.55244" lon="6.65448">
        <ele>673</ele>
        <time>2013-07-27T04:08:27Z</time>
      </trkpt>
      <trkpt lat="45.55234" lon="6.65432">
        <ele>673</ele>
        <time>2013-07-27T04:08:33Z</time>
      </trkpt>
      <trkpt lat="45.55224" lon="6.65417">
        <ele>674</ele>
        <time>2013-07-27T04:08:53Z</time>
      </trkpt>
      <trkpt lat="45.55212" lon="6.65404">
        <ele>673.19475238918</ele>
        <time>2013-07-27T04:08:57Z</time>
      </trkpt>
      <trkpt lat="45.55202" lon="6.65389">
        <ele>672.38748726136</ele>
        <time>2013-07-27T04:09:01Z</time>
      </trkpt>
      <trkpt lat="45.55187" lon="6.65355">
        <ele>672</ele>
        <time>2013-07-27T04:09:10Z</time>
      </trkpt>
      <trkpt lat="45.55181" lon="6.65339">
        <ele>671.89000064</ele>
        <time>2013-07-27T04:09:14Z</time>
      </trkpt>
      <trkpt lat="45.55175" lon="6.65324">
        <ele>671.49000064</ele>
        <time>2013-07-27T04:09:18Z</time>
      </trkpt>
      <trkpt lat="45.55167" lon="6.65306">
        <ele>670.99002059243</ele>
        <time>2013-07-27T04:09:23Z</time>
      </trkpt>
      <trkpt lat="45.55161" lon="6.65289">
        <ele>670.59081874064</ele>
        <time>2013-07-27T04:09:27Z</time>
      </trkpt>
      <trkpt lat="45.55145" lon="6.65253">
        <ele>669.60599936</ele>
        <time>2013-07-27T04:09:37Z</time>
      </trkpt>
      <trkpt lat="45.5514" lon="6.65236">
        <ele>669.20599936</ele>
        <time>2013-07-27T04:09:41Z</time>
      </trkpt>
      <trkpt lat="45.55137" lon="6.65218">
        <ele>669</ele>
        <time>2013-07-27T04:09:45Z</time>
      </trkpt>
      <trkpt lat="45.5513" lon="6.65149">
        <ele>669</ele>
        <time>2013-07-27T04:10:03Z</time>
      </trkpt>
      <trkpt lat="45.55118" lon="6.65141">
        <ele>669</ele>
        <time>2013-07-27T04:10:07Z</time>
      </trkpt>
      <trkpt lat="45.55108" lon="6.65132">
        <ele>669</ele>
        <time>2013-07-27T04:10:11Z</time>
      </trkpt>
      <trkpt lat="45.55101" lon="6.65114">
        <ele>669</ele>
        <time>2013-07-27T04:10:16Z</time>
      </trkpt>
      <trkpt lat="45.55094" lon="6.65098">
        <ele>669</ele>
        <time>2013-07-27T04:10:21Z</time>
      </trkpt>
      <trkpt lat="45.55086" lon="6.65057">
        <ele>669</ele>
        <time>2013-07-27T04:10:31Z</time>
      </trkpt>
      <trkpt lat="45.55085" lon="6.65034">
        <ele>669</ele>
        <time>2013-07-27T04:10:36Z</time>
      </trkpt>
      <trkpt lat="45.55081" lon="6.65005">
        <ele>669</ele>
        <time>2013-07-27T04:10:43Z</time>
      </trkpt>
      <trkpt lat="45.55071" lon="6.64984">
        <ele>669</ele>
        <time>2013-07-27T04:10:49Z</time>
      </trkpt>
      <trkpt lat="45.55057" lon="6.64969">
        <ele>668.79699968</ele>
        <time>2013-07-27T04:10:55Z</time>
      </trkpt>
      <trkpt lat="45.55038" lon="6.64947">
        <ele>668</ele>
        <time>2013-07-27T04:11:03Z</time>
      </trkpt>
      <trkpt lat="45.55035" lon="6.64936">
        <ele>668</ele>
        <time>2013-07-27T04:11:06Z</time>
      </trkpt>
      <trkpt lat="45.55028" lon="6.64916">
        <ele>668</ele>
        <time>2013-07-27T04:11:11Z</time>
      </trkpt>
      <trkpt lat="45.55022" lon="6.64896">
        <ele>667.71603621131</ele>
        <time>2013-07-27T04:11:16Z</time>
      </trkpt>
      <trkpt lat="45.5502" lon="6.64881">
        <ele>667.40960117357</ele>
        <time>2013-07-27T04:11:19Z</time>
      </trkpt>
      <trkpt lat="45.55012" lon="6.64853">
        <ele>667</ele>
        <time>2013-07-27T04:11:26Z</time>
      </trkpt>
      <trkpt lat="45.55008" lon="6.64839">
        <ele>667</ele>
        <time>2013-07-27T04:11:29Z</time>
      </trkpt>
      <trkpt lat="45.55004" lon="6.64826">
        <ele>667</ele>
        <time>2013-07-27T04:11:32Z</time>
      </trkpt>
      <trkpt lat="45.54999" lon="6.64812">
        <ele>667</ele>
        <time>2013-07-27T04:11:35Z</time>
      </trkpt>
      <trkpt lat="45.54989" lon="6.64748">
        <ele>667</ele>
        <time>2013-07-27T04:11:49Z</time>
      </trkpt>
      <trkpt lat="45.54987" lon="6.64727">
        <ele>666.89700096</ele>
        <time>2013-07-27T04:11:54Z</time>
      </trkpt>
      <trkpt lat="45.54984" lon="6.64707">
        <ele>666.39699968</ele>
        <time>2013-07-27T04:11:59Z</time>
      </trkpt>
      <trkpt lat="45.5498" lon="6.64686">
        <ele>666.10763153511</ele>
        <time>2013-07-27T04:12:04Z</time>
      </trkpt>
      <trkpt lat="45.54978" lon="6.64635">
        <ele>667</ele>
        <time>2013-07-27T04:12:15Z</time>
      </trkpt>
      <trkpt lat="45.54979" lon="6.64608">
        <ele>667</ele>
        <time>2013-07-27T04:12:20Z</time>
      </trkpt>
      <trkpt lat="45.54977" lon="6.64587">
        <ele>666.9010985498</ele>
        <time>2013-07-27T04:12:24Z</time>
      </trkpt>
      <trkpt lat="45.54975" lon="6.6457">
        <ele>666.49150864863</ele>
        <time>2013-07-27T04:12:28Z</time>
      </trkpt>
      <trkpt lat="45.54973" lon="6.64553">
        <ele>666.09190812129</ele>
        <time>2013-07-27T04:12:32Z</time>
      </trkpt>
      <trkpt lat="45.5497" lon="6.64521">
        <ele>666</ele>
        <time>2013-07-27T04:12:40Z</time>
      </trkpt>
      <trkpt lat="45.54968" lon="6.64501">
        <ele>666</ele>
        <time>2013-07-27T04:12:44Z</time>
      </trkpt>
      <trkpt lat="45.54969" lon="6.64479">
        <ele>666</ele>
        <time>2013-07-27T04:12:49Z</time>
      </trkpt>
      <trkpt lat="45.54968" lon="6.64457">
        <ele>666</ele>
        <time>2013-07-27T04:12:54Z</time>
      </trkpt>
      <trkpt lat="45.54973" lon="6.64437">
        <ele>666</ele>
        <time>2013-07-27T04:12:59Z</time>
      </trkpt>
      <trkpt lat="45.54973" lon="6.64394">
        <ele>666</ele>
        <time>2013-07-27T04:13:10Z</time>
      </trkpt>
      <trkpt lat="45.54971" lon="6.64377">
        <ele>665.90355306862</ele>
        <time>2013-07-27T04:13:14Z</time>
      </trkpt>
      <trkpt lat="45.54968" lon="6.64357">
        <ele>665.39593935015</ele>
        <time>2013-07-27T04:13:19Z</time>
      </trkpt>
      <trkpt lat="45.54963" lon="6.64334">
        <ele>665</ele>
        <time>2013-07-27T04:13:24Z</time>
      </trkpt>
      <trkpt lat="45.54959" lon="6.64313">
        <ele>665</ele>
        <time>2013-07-27T04:13:28Z</time>
      </trkpt>
      <trkpt lat="45.54963" lon="6.64234">
        <ele>666</ele>
        <time>2013-07-27T04:13:45Z</time>
      </trkpt>
      <trkpt lat="45.54964" lon="6.64215">
        <ele>666</ele>
        <time>2013-07-27T04:13:50Z</time>
      </trkpt>
      <trkpt lat="45.54966" lon="6.6419">
        <ele>665.69908856767</ele>
        <time>2013-07-27T04:13:56Z</time>
      </trkpt>
      <trkpt lat="45.54959" lon="6.64154">
        <ele>665</ele>
        <time>2013-07-27T04:14:04Z</time>
      </trkpt>
      <trkpt lat="45.54955" lon="6.64135">
        <ele>665</ele>
        <time>2013-07-27T04:14:08Z</time>
      </trkpt>
      <trkpt lat="45.54954" lon="6.6412">
        <ele>665</ele>
        <time>2013-07-27T04:14:11Z</time>
      </trkpt>
      <trkpt lat="45.54953" lon="6.64102">
        <ele>664.79000064</ele>
        <time>2013-07-27T04:14:15Z</time>
      </trkpt>
      <trkpt lat="45.54953" lon="6.64081">
        <ele>664.29000064</ele>
        <time>2013-07-27T04:14:20Z</time>
      </trkpt>
      <trkpt lat="45.54968" lon="6.64034">
        <ele>664</ele>
        <time>2013-07-27T04:14:31Z</time>
      </trkpt>
      <trkpt lat="45.54978" lon="6.64017">
        <ele>664</ele>
        <time>2013-07-27T04:14:36Z</time>
      </trkpt>
      <trkpt lat="45.54986" lon="6.63998">
        <ele>664</ele>
        <time>2013-07-27T04:14:41Z</time>
      </trkpt>
      <trkpt lat="45.54989" lon="6.63977">
        <ele>664</ele>
        <time>2013-07-27T04:14:47Z</time>
      </trkpt>
      <trkpt lat="45.54986" lon="6.63951">
        <ele>664</ele>
        <time>2013-07-27T04:14:54Z</time>
      </trkpt>
      <trkpt lat="45.54979" lon="6.63897">
        <ele>664</ele>
        <time>2013-07-27T04:15:07Z</time>
      </trkpt>
      <trkpt lat="45.54978" lon="6.6387">
        <ele>664</ele>
        <time>2013-07-27T04:15:13Z</time>
      </trkpt>
      <trkpt lat="45.54975" lon="6.63845">
        <ele>664</ele>
        <time>2013-07-27T04:15:18Z</time>
      </trkpt>
      <trkpt lat="45.54972" lon="6.63822">
        <ele>664</ele>
        <time>2013-07-27T04:15:23Z</time>
      </trkpt>
      <trkpt lat="45.54969" lon="6.63801">
        <ele>663.51097771754</ele>
        <time>2013-07-27T04:15:28Z</time>
      </trkpt>
      <trkpt lat="45.54952" lon="6.6377">
        <ele>663</ele>
        <time>2013-07-27T04:15:36Z</time>
      </trkpt>
      <trkpt lat="45.54924" lon="6.63717">
        <ele>662.2024166614</ele>
        <time>2013-07-27T04:15:51Z</time>
      </trkpt>
      <trkpt lat="45.54917" lon="6.637">
        <ele>661.80080054429</ele>
        <time>2013-07-27T04:15:55Z</time>
      </trkpt>
      <trkpt lat="45.54893" lon="6.63677">
        <ele>661.00300032</ele>
        <time>2013-07-27T04:16:03Z</time>
      </trkpt>
      <trkpt lat="45.5488" lon="6.63661">
        <ele>661.60300032</ele>
        <time>2013-07-27T04:16:09Z</time>
      </trkpt>
      <trkpt lat="45.54868" lon="6.63639">
        <ele>662</ele>
        <time>2013-07-27T04:16:16Z</time>
      </trkpt>
      <trkpt lat="45.54856" lon="6.63617">
        <ele>662</ele>
        <time>2013-07-27T04:16:22Z</time>
      </trkpt>
      <trkpt lat="45.54847" lon="6.63594">
        <ele>662</ele>
        <time>2013-07-27T04:16:27Z</time>
      </trkpt>
      <trkpt lat="45.54833" lon="6.63546">
        <ele>662</ele>
        <time>2013-07-27T04:16:38Z</time>
      </trkpt>
      <trkpt lat="45.54834" lon="6.6352">
        <ele>662</ele>
        <time>2013-07-27T04:16:42Z</time>
      </trkpt>
      <trkpt lat="45.54841" lon="6.63495">
        <ele>661.49000064</ele>
        <time>2013-07-27T04:16:48Z</time>
      </trkpt>
      <trkpt lat="45.5485" lon="6.63469">
        <ele>660.89872264267</ele>
        <time>2013-07-27T04:16:54Z</time>
      </trkpt>
      <trkpt lat="45.54843" lon="6.63452">
        <ele>660.4070791448</ele>
        <time>2013-07-27T04:16:59Z</time>
      </trkpt>
      <trkpt lat="45.54827" lon="6.63433">
        <ele>660</ele>
        <time>2013-07-27T04:17:06Z</time>
      </trkpt>
      <trkpt lat="45.5482" lon="6.63424">
        <ele>660</ele>
        <time>2013-07-27T04:17:09Z</time>
      </trkpt>
      <trkpt lat="45.54813" lon="6.63416">
        <ele>660</ele>
        <time>2013-07-27T04:17:12Z</time>
      </trkpt>
      <trkpt lat="45.54806" lon="6.63406">
        <ele>660</ele>
        <time>2013-07-27T04:17:15Z</time>
      </trkpt>
      <trkpt lat="45.54798" lon="6.63397">
        <ele>660</ele>
        <time>2013-07-27T04:17:18Z</time>
      </trkpt>
      <trkpt lat="45.54783" lon="6.63377">
        <ele>660</ele>
        <time>2013-07-27T04:17:24Z</time>
      </trkpt>
      <trkpt lat="45.54774" lon="6.63366">
        <ele>660</ele>
        <time>2013-07-27T04:17:28Z</time>
      </trkpt>
      <trkpt lat="45.54753" lon="6.63343">
        <ele>660</ele>
        <time>2013-07-27T04:17:37Z</time>
      </trkpt>
      <trkpt lat="45.54732" lon="6.6332">
        <ele>660</ele>
        <time>2013-07-27T04:17:46Z</time>
      </trkpt>
      <trkpt lat="45.54715" lon="6.63307">
        <ele>660.30899712</ele>
        <time>2013-07-27T04:17:54Z</time>
      </trkpt>
      <trkpt lat="45.54696" lon="6.63296">
        <ele>663.00600064</ele>
        <time>2013-07-27T04:18:03Z</time>
      </trkpt>
      <trkpt lat="45.5468" lon="6.63284">
        <ele>664.80599808</ele>
        <time>2013-07-27T04:18:12Z</time>
      </trkpt>
      <trkpt lat="45.54663" lon="6.63271">
        <ele>666.61999872</ele>
        <time>2013-07-27T04:18:21Z</time>
      </trkpt>
      <trkpt lat="45.54639" lon="6.6323">
        <ele>671.10090555773</ele>
        <time>2013-07-27T04:18:40Z</time>
      </trkpt>
      <trkpt lat="45.54627" lon="6.63209">
        <ele>674.83999744</ele>
        <time>2013-07-27T04:18:50Z</time>
      </trkpt>
      <trkpt lat="45.54614" lon="6.6319">
        <ele>676.30999936</ele>
        <time>2013-07-27T04:18:56Z</time>
      </trkpt>
      <trkpt lat="45.54609" lon="6.63165">
        <ele>677.10299904</ele>
        <time>2013-07-27T04:19:04Z</time>
      </trkpt>
      <trkpt lat="45.54607" lon="6.63139">
        <ele>678.01999872</ele>
        <time>2013-07-27T04:19:13Z</time>
      </trkpt>
      <trkpt lat="45.54596" lon="6.63086">
        <ele>680.60179711093</ele>
        <time>2013-07-27T04:19:29Z</time>
      </trkpt>
      <trkpt lat="45.54588" lon="6.63059">
        <ele>682</ele>
        <time>2013-07-27T04:19:38Z</time>
      </trkpt>
      <trkpt lat="45.54587" lon="6.63033">
        <ele>683.92999808</ele>
        <time>2013-07-27T04:19:46Z</time>
      </trkpt>
      <trkpt lat="45.54579" lon="6.63008">
        <ele>686.41999872</ele>
        <time>2013-07-27T04:19:55Z</time>
      </trkpt>
      <trkpt lat="45.54572" lon="6.62983">
        <ele>687.81999872</ele>
        <time>2013-07-27T04:20:02Z</time>
      </trkpt>
      <trkpt lat="45.54558" lon="6.62933">
        <ele>691.6052113153</ele>
        <time>2013-07-27T04:20:21Z</time>
      </trkpt>
      <trkpt lat="45.54549" lon="6.6291">
        <ele>693.00399074107</ele>
        <time>2013-07-27T04:20:28Z</time>
      </trkpt>
      <trkpt lat="45.54543" lon="6.62895">
        <ele>694</ele>
        <time>2013-07-27T04:20:33Z</time>
      </trkpt>
      <trkpt lat="45.54512" lon="6.62802">
        <ele>700.32999808</ele>
        <time>2013-07-27T04:21:04Z</time>
      </trkpt>
      <trkpt lat="45.545" lon="6.62779">
        <ele>703.00600064</ele>
        <time>2013-07-27T04:21:13Z</time>
      </trkpt>
      <trkpt lat="45.54492" lon="6.62755">
        <ele>704.80599808</ele>
        <time>2013-07-27T04:21:22Z</time>
      </trkpt>
      <trkpt lat="45.54484" lon="6.62729">
        <ele>707.72455072227</ele>
        <time>2013-07-27T04:21:32Z</time>
      </trkpt>
      <trkpt lat="45.54473" lon="6.62706">
        <ele>709.19038128072</ele>
        <time>2013-07-27T04:21:39Z</time>
      </trkpt>
      <trkpt lat="45.54459" lon="6.62657">
        <ele>712.60599808</ele>
        <time>2013-07-27T04:21:56Z</time>
      </trkpt>
      <trkpt lat="45.54446" lon="6.62639">
        <ele>714.096</ele>
        <time>2013-07-27T04:22:04Z</time>
      </trkpt>
      <trkpt lat="45.54436" lon="6.62614">
        <ele>714.896</ele>
        <time>2013-07-27T04:22:12Z</time>
      </trkpt>
      <trkpt lat="45.54426" lon="6.62591">
        <ele>716.416</ele>
        <time>2013-07-27T04:22:20Z</time>
      </trkpt>
      <trkpt lat="45.54419" lon="6.62567">
        <ele>719.10778577743</ele>
        <time>2013-07-27T04:22:30Z</time>
      </trkpt>
      <trkpt lat="45.54401" lon="6.62519">
        <ele>724.21999872</ele>
        <time>2013-07-27T04:22:49Z</time>
      </trkpt>
      <trkpt lat="45.54389" lon="6.62496">
        <ele>726.80539133279</ele>
        <time>2013-07-27T04:22:59Z</time>
      </trkpt>
      <trkpt lat="45.54375" lon="6.62477">
        <ele>729.20440996912</ele>
        <time>2013-07-27T04:23:09Z</time>
      </trkpt>
      <trkpt lat="45.54363" lon="6.62455">
        <ele>731.20600064</ele>
        <time>2013-07-27T04:23:19Z</time>
      </trkpt>
      <trkpt lat="45.54353" lon="6.62434">
        <ele>733.49553775874</ele>
        <time>2013-07-27T04:23:28Z</time>
      </trkpt>
      <trkpt lat="45.54334" lon="6.62386">
        <ele>738.62999808</ele>
        <time>2013-07-27T04:23:45Z</time>
      </trkpt>
      <trkpt lat="45.54325" lon="6.62362">
        <ele>741</ele>
        <time>2013-07-27T04:23:54Z</time>
      </trkpt>
      <trkpt lat="45.54315" lon="6.62341">
        <ele>741.40600064</ele>
        <time>2013-07-27T04:24:05Z</time>
      </trkpt>
      <trkpt lat="45.54311" lon="6.62314">
        <ele>743.308</ele>
        <time>2013-07-27T04:24:16Z</time>
      </trkpt>
      <trkpt lat="45.54268" lon="6.6222">
        <ele>752.00600064</ele>
        <time>2013-07-27T04:24:53Z</time>
      </trkpt>
      <trkpt lat="45.54256" lon="6.62199">
        <ele>753.60600064</ele>
        <time>2013-07-27T04:25:01Z</time>
      </trkpt>
      <trkpt lat="45.54246" lon="6.62177">
        <ele>755.40599808</ele>
        <time>2013-07-27T04:25:10Z</time>
      </trkpt>
      <trkpt lat="45.54241" lon="6.62163">
        <ele>756.60900096</ele>
        <time>2013-07-27T04:25:15Z</time>
      </trkpt>
      <trkpt lat="45.54233" lon="6.62137">
        <ele>759.21955974104</ele>
        <time>2013-07-27T04:25:24Z</time>
      </trkpt>
      <trkpt lat="45.54226" lon="6.62123">
        <ele>760.41716529639</ele>
        <time>2013-07-27T04:25:30Z</time>
      </trkpt>
      <trkpt lat="45.54219" lon="6.62111">
        <ele>761.40280727676</ele>
        <time>2013-07-27T04:25:35Z</time>
      </trkpt>
      <trkpt lat="45.54203" lon="6.62095">
        <ele>763.10009882263</ele>
        <time>2013-07-27T04:25:44Z</time>
      </trkpt>
      <trkpt lat="45.5419" lon="6.62073">
        <ele>764</ele>
        <time>2013-07-27T04:25:53Z</time>
      </trkpt>
      <trkpt lat="45.54172" lon="6.62025">
        <ele>768.41999872</ele>
        <time>2013-07-27T04:26:10Z</time>
      </trkpt>
      <trkpt lat="45.54162" lon="6.62003">
        <ele>770.01898006601</ele>
        <time>2013-07-27T04:26:18Z</time>
      </trkpt>
      <trkpt lat="45.54155" lon="6.61986">
        <ele>771.59680664475</ele>
        <time>2013-07-27T04:26:26Z</time>
      </trkpt>
      <trkpt lat="45.54149" lon="6.61976">
        <ele>772.79441067024</ele>
        <time>2013-07-27T04:26:32Z</time>
      </trkpt>
      <trkpt lat="45.54146" lon="6.61965">
        <ele>774.47294491251</ele>
        <time>2013-07-27T04:26:38Z</time>
      </trkpt>
      <trkpt lat="45.54136" lon="6.61945">
        <ele>777.49700096</ele>
        <time>2013-07-27T04:26:48Z</time>
      </trkpt>
      <trkpt lat="45.54131" lon="6.61932">
        <ele>779.384</ele>
        <time>2013-07-27T04:26:55Z</time>
      </trkpt>
      <trkpt lat="45.5412" lon="6.6191">
        <ele>781.592</ele>
        <time>2013-07-27T04:27:09Z</time>
      </trkpt>
      <trkpt lat="45.54108" lon="6.61889">
        <ele>784.676</ele>
        <time>2013-07-27T04:27:22Z</time>
      </trkpt>
      <trkpt lat="45.54095" lon="6.61869">
        <ele>787.99101701173</ele>
        <time>2013-07-27T04:27:33Z</time>
      </trkpt>
      <trkpt lat="45.54096" lon="6.61846">
        <ele>795.10269093434</ele>
        <time>2013-07-27T04:28:24Z</time>
      </trkpt>
      <trkpt lat="45.54102" lon="6.61861">
        <ele>795.89032840986</ele>
        <time>2013-07-27T04:28:32Z</time>
      </trkpt>
      <trkpt lat="45.54105" lon="6.61876">
        <ele>797.17999872</ele>
        <time>2013-07-27T04:28:39Z</time>
      </trkpt>
      <trkpt lat="45.54113" lon="6.61901">
        <ele>799.18236420512</ele>
        <time>2013-07-27T04:28:49Z</time>
      </trkpt>
      <trkpt lat="45.54121" lon="6.61916">
        <ele>800.59700096</ele>
        <time>2013-07-27T04:28:55Z</time>
      </trkpt>
      <trkpt lat="45.54107" lon="6.61899">
        <ele>805.80280190501</ele>
        <time>2013-07-27T04:29:17Z</time>
      </trkpt>
      <trkpt lat="45.54093" lon="6.61878">
        <ele>807.60059293577</ele>
        <time>2013-07-27T04:29:26Z</time>
      </trkpt>
      <trkpt lat="45.54084" lon="6.61853">
        <ele>809.79355642894</ele>
        <time>2013-07-27T04:29:37Z</time>
      </trkpt>
      <trkpt lat="45.54079" lon="6.61801">
        <ele>813.61999872</ele>
        <time>2013-07-27T04:29:56Z</time>
      </trkpt>
      <trkpt lat="45.5407" lon="6.61776">
        <ele>815.41999872</ele>
        <time>2013-07-27T04:30:05Z</time>
      </trkpt>
      <trkpt lat="45.54065" lon="6.61756">
        <ele>816.81999872</ele>
        <time>2013-07-27T04:30:12Z</time>
      </trkpt>
      <trkpt lat="45.5406" lon="6.61732">
        <ele>819.42999808</ele>
        <time>2013-07-27T04:30:21Z</time>
      </trkpt>
      <trkpt lat="45.54056" lon="6.61712">
        <ele>820.81836251872</ele>
        <time>2013-07-27T04:30:27Z</time>
      </trkpt>
      <trkpt lat="45.54049" lon="6.61684">
        <ele>822.20140363838</ele>
        <time>2013-07-27T04:30:35Z</time>
      </trkpt>
      <trkpt lat="45.54045" lon="6.61674">
        <ele>822.50200336545</ele>
        <time>2013-07-27T04:30:38Z</time>
      </trkpt>
      <trkpt lat="45.54041" lon="6.61661">
        <ele>822.90280471163</ele>
        <time>2013-07-27T04:30:42Z</time>
      </trkpt>
      <trkpt lat="45.54038" lon="6.61649">
        <ele>823.60599808</ele>
        <time>2013-07-27T04:30:46Z</time>
      </trkpt>
      <trkpt lat="45.54033" lon="6.61635">
        <ele>824.60600064</ele>
        <time>2013-07-27T04:30:51Z</time>
      </trkpt>
      <trkpt lat="45.54022" lon="6.61607">
        <ele>828.63999744</ele>
        <time>2013-07-27T04:31:02Z</time>
      </trkpt>
      <trkpt lat="45.53991" lon="6.61578">
        <ele>831.70929029668</ele>
        <time>2013-07-27T04:31:20Z</time>
      </trkpt>
      <trkpt lat="45.5398" lon="6.61569">
        <ele>832.4167489797</ele>
        <time>2013-07-27T04:31:25Z</time>
      </trkpt>
      <trkpt lat="45.53954" lon="6.61546">
        <ele>835.40361253012</ele>
        <time>2013-07-27T04:31:40Z</time>
      </trkpt>
      <trkpt lat="45.53941" lon="6.61535">
        <ele>836.60599808</ele>
        <time>2013-07-27T04:31:46Z</time>
      </trkpt>
      <trkpt lat="45.53932" lon="6.61526">
        <ele>837.60600064</ele>
        <time>2013-07-27T04:31:51Z</time>
      </trkpt>
      <trkpt lat="45.53924" lon="6.61517">
        <ele>838.41999872</ele>
        <time>2013-07-27T04:31:55Z</time>
      </trkpt>
      <trkpt lat="45.53914" lon="6.6151">
        <ele>839.41999872</ele>
        <time>2013-07-27T04:32:00Z</time>
      </trkpt>
      <trkpt lat="45.53897" lon="6.61497">
        <ele>840.60999936</ele>
        <time>2013-07-27T04:32:09Z</time>
      </trkpt>
      <trkpt lat="45.53888" lon="6.61494">
        <ele>841.00999936</ele>
        <time>2013-07-27T04:32:13Z</time>
      </trkpt>
      <trkpt lat="45.53879" lon="6.61494">
        <ele>841.40999936</ele>
        <time>2013-07-27T04:32:17Z</time>
      </trkpt>
      <trkpt lat="45.5387" lon="6.61492">
        <ele>841.80999936</ele>
        <time>2013-07-27T04:32:21Z</time>
      </trkpt>
      <trkpt lat="45.53855" lon="6.61477">
        <ele>843.4089556725</ele>
        <time>2013-07-27T04:32:30Z</time>
      </trkpt>
      <trkpt lat="45.53836" lon="6.61456">
        <ele>846.00900096</ele>
        <time>2013-07-27T04:32:43Z</time>
      </trkpt>
      <trkpt lat="45.53821" lon="6.61438">
        <ele>849.10999936</ele>
        <time>2013-07-27T04:32:54Z</time>
      </trkpt>
      <trkpt lat="45.53811" lon="6.61439">
        <ele>850.992</ele>
        <time>2013-07-27T04:33:08Z</time>
      </trkpt>
      <trkpt lat="45.53807" lon="6.61454">
        <ele>854.12999808</ele>
        <time>2013-07-27T04:33:20Z</time>
      </trkpt>
      <trkpt lat="45.53809" lon="6.61477">
        <ele>860.10090555773</ele>
        <time>2013-07-27T04:33:40Z</time>
      </trkpt>
      <trkpt lat="45.53812" lon="6.61519">
        <ele>868.19800064</ele>
        <time>2013-07-27T04:34:09Z</time>
      </trkpt>
      <trkpt lat="45.53821" lon="6.61538">
        <ele>871.56603636881</ele>
        <time>2013-07-27T04:34:25Z</time>
      </trkpt>
      <trkpt lat="45.53845" lon="6.61596">
        <ele>879.676</ele>
        <time>2013-07-27T04:35:02Z</time>
      </trkpt>
      <trkpt lat="45.53865" lon="6.61637">
        <ele>885.79441067024</ele>
        <time>2013-07-27T04:35:32Z</time>
      </trkpt>
      <trkpt lat="45.53873" lon="6.61654">
        <ele>889.276</ele>
        <time>2013-07-27T04:35:44Z</time>
      </trkpt>
      <trkpt lat="45.53857" lon="6.61666">
        <ele>898.76400128</ele>
        <time>2013-07-27T04:36:15Z</time>
      </trkpt>
      <trkpt lat="45.53846" lon="6.61644">
        <ele>905.87174212216</ele>
        <time>2013-07-27T04:36:36Z</time>
      </trkpt>
      <trkpt lat="45.53831" lon="6.61629">
        <ele>911.852</ele>
        <time>2013-07-27T04:36:56Z</time>
      </trkpt>
      <trkpt lat="45.53807" lon="6.61596">
        <ele>919.49401197987</ele>
        <time>2013-07-27T04:37:28Z</time>
      </trkpt>
      <trkpt lat="45.53794" lon="6.61586">
        <ele>923.37474909804</ele>
        <time>2013-07-27T04:37:41Z</time>
      </trkpt>
      <trkpt lat="45.5378" lon="6.61585">
        <ele>927.876</ele>
        <time>2013-07-27T04:37:56Z</time>
      </trkpt>
      <trkpt lat="45.53763" lon="6.61586">
        <ele>931.584</ele>
        <time>2013-07-27T04:38:11Z</time>
      </trkpt>
      <trkpt lat="45.53746" lon="6.61597">
        <ele>935.47305295134</ele>
        <time>2013-07-27T04:38:28Z</time>
      </trkpt>
      <trkpt lat="45.5371" lon="6.61581">
        <ele>944.95238095238</ele>
        <time>2013-07-27T04:39:03Z</time>
      </trkpt>
      <trkpt lat="45.53693" lon="6.6158">
        <ele>948.16999936</ele>
        <time>2013-07-27T04:39:19Z</time>
      </trkpt>
      <trkpt lat="45.53674" lon="6.61578">
        <ele>951.73864888359</ele>
        <time>2013-07-27T04:39:35Z</time>
      </trkpt>
      <trkpt lat="45.53655" lon="6.6158">
        <ele>956.59599872</ele>
        <time>2013-07-27T04:39:51Z</time>
      </trkpt>
      <trkpt lat="45.53637" lon="6.61578">
        <ele>961.17234351733</ele>
        <time>2013-07-27T04:40:07Z</time>
      </trkpt>
      <trkpt lat="45.53623" lon="6.61591">
        <ele>969.79800064</ele>
        <time>2013-07-27T04:40:47Z</time>
      </trkpt>
      <trkpt lat="45.53632" lon="6.61611">
        <ele>973.39700096</ele>
        <time>2013-07-27T04:41:01Z</time>
      </trkpt>
      <trkpt lat="45.53646" lon="6.61623">
        <ele>976.58200064</ele>
        <time>2013-07-27T04:41:16Z</time>
      </trkpt>
      <trkpt lat="45.53697" lon="6.61672">
        <ele>988.54900096</ele>
        <time>2013-07-27T04:42:05Z</time>
      </trkpt>
      <trkpt lat="45.53697" lon="6.61695">
        <ele>992.97216825267</ele>
        <time>2013-07-27T04:42:23Z</time>
      </trkpt>
      <trkpt lat="45.53699" lon="6.61716">
        <ele>998.39321268298</ele>
        <time>2013-07-27T04:42:45Z</time>
      </trkpt>
      <trkpt lat="45.53705" lon="6.61733">
        <ele>1001.1623228296</ele>
        <time>2013-07-27T04:42:56Z</time>
      </trkpt>
      <trkpt lat="45.53715" lon="6.61746">
        <ele>1004.39900032</ele>
        <time>2013-07-27T04:43:07Z</time>
      </trkpt>
      <trkpt lat="45.53707" lon="6.61775">
        <ele>1016.49700096</ele>
        <time>2013-07-27T04:43:48Z</time>
      </trkpt>
      <trkpt lat="45.53699" lon="6.61795">
        <ele>1024.9553118712</ele>
        <time>2013-07-27T04:44:23Z</time>
      </trkpt>
      <trkpt lat="45.53708" lon="6.61813">
        <ele>1029.9679345686</ele>
        <time>2013-07-27T04:44:38Z</time>
      </trkpt>
      <trkpt lat="45.53717" lon="6.6183">
        <ele>1033.69700096</ele>
        <time>2013-07-27T04:44:52Z</time>
      </trkpt>
      <trkpt lat="45.53722" lon="6.61847">
        <ele>1037.9404158283</ele>
        <time>2013-07-27T04:45:03Z</time>
      </trkpt>
      <trkpt lat="45.53737" lon="6.61885">
        <ele>1043.5698716574</ele>
        <time>2013-07-27T04:45:31Z</time>
      </trkpt>
      <trkpt lat="45.53743" lon="6.61905">
        <ele>1046.356712373</ele>
        <time>2013-07-27T04:45:44Z</time>
      </trkpt>
      <trkpt lat="45.53752" lon="6.61923">
        <ele>1051.384</ele>
        <time>2013-07-27T04:46:00Z</time>
      </trkpt>
      <trkpt lat="45.53763" lon="6.61935">
        <ele>1053.784</ele>
        <time>2013-07-27T04:46:12Z</time>
      </trkpt>
      <trkpt lat="45.5377" lon="6.61953">
        <ele>1057.3924691829</ele>
        <time>2013-07-27T04:46:24Z</time>
      </trkpt>
      <trkpt lat="45.53773" lon="6.61991">
        <ele>1065.59800064</ele>
        <time>2013-07-27T04:46:51Z</time>
      </trkpt>
      <trkpt lat="45.53773" lon="6.62013">
        <ele>1068.384</ele>
        <time>2013-07-27T04:47:05Z</time>
      </trkpt>
      <trkpt lat="45.53781" lon="6.62031">
        <ele>1071.99600128</ele>
        <time>2013-07-27T04:47:18Z</time>
      </trkpt>
      <trkpt lat="45.53793" lon="6.62043">
        <ele>1077.2705393318</ele>
        <time>2013-07-27T04:47:34Z</time>
      </trkpt>
      <trkpt lat="45.53828" lon="6.62101">
        <ele>1092.0865687838</ele>
        <time>2013-07-27T04:48:30Z</time>
      </trkpt>
      <trkpt lat="45.53829" lon="6.62123">
        <ele>1097.292</ele>
        <time>2013-07-27T04:48:46Z</time>
      </trkpt>
      <trkpt lat="45.53834" lon="6.62143">
        <ele>1099.584</ele>
        <time>2013-07-27T04:49:01Z</time>
      </trkpt>
      <trkpt lat="45.53839" lon="6.62166">
        <ele>1101.1981987753</ele>
        <time>2013-07-27T04:49:14Z</time>
      </trkpt>
      <trkpt lat="45.53843" lon="6.62219">
        <ele>1113.20900096</ele>
        <time>2013-07-27T04:49:47Z</time>
      </trkpt>
      <trkpt lat="45.53848" lon="6.62246">
        <ele>1117.20599808</ele>
        <time>2013-07-27T04:50:04Z</time>
      </trkpt>
      <trkpt lat="45.53853" lon="6.6227">
        <ele>1120.21999872</ele>
        <time>2013-07-27T04:50:19Z</time>
      </trkpt>
      <trkpt lat="45.53859" lon="6.62296">
        <ele>1124.004009296</ele>
        <time>2013-07-27T04:50:33Z</time>
      </trkpt>
      <trkpt lat="45.53869" lon="6.62317">
        <ele>1125.8056094233</ele>
        <time>2013-07-27T04:50:42Z</time>
      </trkpt>
      <trkpt lat="45.53888" lon="6.62364">
        <ele>1128.708</ele>
        <time>2013-07-27T04:51:00Z</time>
      </trkpt>
      <trkpt lat="45.53899" lon="6.62388">
        <ele>1130.41999872</ele>
        <time>2013-07-27T04:51:10Z</time>
      </trkpt>
      <trkpt lat="45.53905" lon="6.6241">
        <ele>1132.0179634446</ele>
        <time>2013-07-27T04:51:18Z</time>
      </trkpt>
      <trkpt lat="45.53905" lon="6.6243">
        <ele>1134.50299904</ele>
        <time>2013-07-27T04:51:28Z</time>
      </trkpt>
      <trkpt lat="45.53905" lon="6.62445">
        <ele>1136.6042109151</ele>
        <time>2013-07-27T04:51:35Z</time>
      </trkpt>
      <trkpt lat="45.53902" lon="6.62475">
        <ele>1141.12999808</ele>
        <time>2013-07-27T04:51:50Z</time>
      </trkpt>
      <trkpt lat="45.53901" lon="6.62489">
        <ele>1142.81999872</ele>
        <time>2013-07-27T04:51:57Z</time>
      </trkpt>
      <trkpt lat="45.53901" lon="6.62508">
        <ele>1144.60599808</ele>
        <time>2013-07-27T04:52:06Z</time>
      </trkpt>
      <trkpt lat="45.53903" lon="6.62529">
        <ele>1146.30299904</ele>
        <time>2013-07-27T04:52:16Z</time>
      </trkpt>
      <trkpt lat="45.539" lon="6.62549">
        <ele>1147.4191606669</ele>
        <time>2013-07-27T04:52:25Z</time>
      </trkpt>
      <trkpt lat="45.53873" lon="6.62603">
        <ele>1152.5984021094</ele>
        <time>2013-07-27T04:52:47Z</time>
      </trkpt>
      <trkpt lat="45.5387" lon="6.62585">
        <ele>1154.9960052735</ele>
        <time>2013-07-27T04:52:53Z</time>
      </trkpt>
      <trkpt lat="45.5387" lon="6.62572">
        <ele>1156.1936132895</ele>
        <time>2013-07-27T04:52:56Z</time>
      </trkpt>
      <trkpt lat="45.53862" lon="6.62555">
        <ele>1159.002003368</ele>
        <time>2013-07-27T04:53:03Z</time>
      </trkpt>
      <trkpt lat="45.53855" lon="6.62555">
        <ele>1159.5951901212</ele>
        <time>2013-07-27T04:53:06Z</time>
      </trkpt>
      <trkpt lat="45.53852" lon="6.62558">
        <ele>1159.9959919814</ele>
        <time>2013-07-27T04:53:08Z</time>
      </trkpt>
      <trkpt lat="45.53849" lon="6.62565">
        <ele>1160.3967938416</ele>
        <time>2013-07-27T04:53:10Z</time>
      </trkpt>
      <trkpt lat="45.53847" lon="6.62574">
        <ele>1160.997996632</ele>
        <time>2013-07-27T04:53:13Z</time>
      </trkpt>
      <trkpt lat="45.53847" lon="6.62594">
        <ele>1161.5954281323</ele>
        <time>2013-07-27T04:53:19Z</time>
      </trkpt>
      <trkpt lat="45.53847" lon="6.62608">
        <ele>1161.9930426994</ele>
        <time>2013-07-27T04:53:23Z</time>
      </trkpt>
      <trkpt lat="45.53846" lon="6.62625">
        <ele>1162.9899604948</ele>
        <time>2013-07-27T04:53:28Z</time>
      </trkpt>
      <trkpt lat="45.53843" lon="6.62638">
        <ele>1163.793172314</ele>
        <time>2013-07-27T04:53:32Z</time>
      </trkpt>
      <trkpt lat="45.53836" lon="6.62647">
        <ele>1164.5811614148</ele>
        <time>2013-07-27T04:53:36Z</time>
      </trkpt>
      <trkpt lat="45.53814" lon="6.62666">
        <ele>1167.19700096</ele>
        <time>2013-07-27T04:53:47Z</time>
      </trkpt>
      <trkpt lat="45.53804" lon="6.62669">
        <ele>1168.39700096</ele>
        <time>2013-07-27T04:53:51Z</time>
      </trkpt>
      <trkpt lat="45.53787" lon="6.62674">
        <ele>1169.50300032</ele>
        <time>2013-07-27T04:53:58Z</time>
      </trkpt>
      <trkpt lat="45.53776" lon="6.6268">
        <ele>1169.89900032</ele>
        <time>2013-07-27T04:54:02Z</time>
      </trkpt>
      <trkpt lat="45.53768" lon="6.62684">
        <ele>1170</ele>
        <time>2013-07-27T04:54:05Z</time>
      </trkpt>
      <trkpt lat="45.53752" lon="6.62693">
        <ele>1170</ele>
        <time>2013-07-27T04:54:11Z</time>
      </trkpt>
      <trkpt lat="45.53722" lon="6.62726">
        <ele>1169.014041489</ele>
        <time>2013-07-27T04:54:23Z</time>
      </trkpt>
      <trkpt lat="45.53714" lon="6.62736">
        <ele>1168.21084246</ele>
        <time>2013-07-27T04:54:27Z</time>
      </trkpt>
      <trkpt lat="45.53717" lon="6.62766">
        <ele>1167</ele>
        <time>2013-07-27T04:54:35Z</time>
      </trkpt>
      <trkpt lat="45.53722" lon="6.62777">
        <ele>1167</ele>
        <time>2013-07-27T04:54:38Z</time>
      </trkpt>
      <trkpt lat="45.53726" lon="6.62792">
        <ele>1167</ele>
        <time>2013-07-27T04:54:42Z</time>
      </trkpt>
      <trkpt lat="45.53718" lon="6.62803">
        <ele>1167.29900032</ele>
        <time>2013-07-27T04:54:46Z</time>
      </trkpt>
      <trkpt lat="45.53709" lon="6.62808">
        <ele>1167.59900032</ele>
        <time>2013-07-27T04:54:49Z</time>
      </trkpt>
      <trkpt lat="45.5369" lon="6.6282">
        <ele>1169.19700096</ele>
        <time>2013-07-27T04:54:57Z</time>
      </trkpt>
      <trkpt lat="45.53679" lon="6.6282">
        <ele>1170.69700096</ele>
        <time>2013-07-27T04:55:02Z</time>
      </trkpt>
      <trkpt lat="45.5367" lon="6.62814">
        <ele>1171.59800064</ele>
        <time>2013-07-27T04:55:06Z</time>
      </trkpt>
      <trkpt lat="45.53662" lon="6.62808">
        <ele>1172.39800064</ele>
        <time>2013-07-27T04:55:10Z</time>
      </trkpt>
      <trkpt lat="45.5365" lon="6.62806">
        <ele>1173.39800064</ele>
        <time>2013-07-27T04:55:15Z</time>
      </trkpt>
      <trkpt lat="45.53634" lon="6.62827">
        <ele>1176.7724539577</ele>
        <time>2013-07-27T04:55:29Z</time>
      </trkpt>
      <trkpt lat="45.53639" lon="6.62847">
        <ele>1178.7675336385</ele>
        <time>2013-07-27T04:55:37Z</time>
      </trkpt>
      <trkpt lat="45.53643" lon="6.62863">
        <ele>1180.0990993877</ele>
        <time>2013-07-27T04:55:44Z</time>
      </trkpt>
      <trkpt lat="45.53646" lon="6.62873">
        <ele>1180.5995997279</ele>
        <time>2013-07-27T04:55:49Z</time>
      </trkpt>
      <trkpt lat="45.53648" lon="6.62887">
        <ele>1181.92999808</ele>
        <time>2013-07-27T04:55:56Z</time>
      </trkpt>
      <trkpt lat="45.53651" lon="6.62911">
        <ele>1185.01999872</ele>
        <time>2013-07-27T04:56:08Z</time>
      </trkpt>
      <trkpt lat="45.53653" lon="6.62924">
        <ele>1186.40600064</ele>
        <time>2013-07-27T04:56:15Z</time>
      </trkpt>
      <trkpt lat="45.53656" lon="6.62967">
        <ele>1191.2054129344</ele>
        <time>2013-07-27T04:56:37Z</time>
      </trkpt>
      <trkpt lat="45.5366" lon="6.63003">
        <ele>1194.3290109419</ele>
        <time>2013-07-27T04:56:54Z</time>
      </trkpt>
      <trkpt lat="45.53664" lon="6.63024">
        <ele>1197.0901797773</ele>
        <time>2013-07-27T04:57:04Z</time>
      </trkpt>
      <trkpt lat="45.53667" lon="6.63041">
        <ele>1197.8917834977</ele>
        <time>2013-07-27T04:57:12Z</time>
      </trkpt>
      <trkpt lat="45.5367" lon="6.63057">
        <ele>1199.39000064</ele>
        <time>2013-07-27T04:57:20Z</time>
      </trkpt>
      <trkpt lat="45.53675" lon="6.63072">
        <ele>1200.9752233024</ele>
        <time>2013-07-27T04:57:28Z</time>
      </trkpt>
      <trkpt lat="45.53683" lon="6.63104">
        <ele>1203.19800064</ele>
        <time>2013-07-27T04:57:44Z</time>
      </trkpt>
      <trkpt lat="45.53688" lon="6.63127">
        <ele>1205.79800064</ele>
        <time>2013-07-27T04:57:57Z</time>
      </trkpt>
      <trkpt lat="45.53694" lon="6.63149">
        <ele>1207.78599936</ele>
        <time>2013-07-27T04:58:07Z</time>
      </trkpt>
      <trkpt lat="45.53697" lon="6.63165">
        <ele>1209.1908549922</ele>
        <time>2013-07-27T04:58:15Z</time>
      </trkpt>
      <trkpt lat="45.53701" lon="6.63181">
        <ele>1209.9860841263</ele>
        <time>2013-07-27T04:58:23Z</time>
      </trkpt>
      <trkpt lat="45.53704" lon="6.6321">
        <ele>1213.3907811724</ele>
        <time>2013-07-27T04:58:37Z</time>
      </trkpt>
      <trkpt lat="45.53704" lon="6.63223">
        <ele>1213.9919839628</ele>
        <time>2013-07-27T04:58:43Z</time>
      </trkpt>
      <trkpt lat="45.53706" lon="6.63237">
        <ele>1215.39800064</ele>
        <time>2013-07-27T04:58:50Z</time>
      </trkpt>
      <trkpt lat="45.53708" lon="6.63254">
        <ele>1217.184</ele>
        <time>2013-07-27T04:58:59Z</time>
      </trkpt>
      <trkpt lat="45.53711" lon="6.63275">
        <ele>1219.184</ele>
        <time>2013-07-27T04:59:09Z</time>
      </trkpt>
      <trkpt lat="45.53718" lon="6.63315">
        <ele>1222.9890990649</ele>
        <time>2013-07-27T04:59:28Z</time>
      </trkpt>
      <trkpt lat="45.53715" lon="6.63334">
        <ele>1224.3864785028</ele>
        <time>2013-07-27T04:59:37Z</time>
      </trkpt>
      <trkpt lat="45.53707" lon="6.63325">
        <ele>1226.1956086575</ele>
        <time>2013-07-27T04:59:49Z</time>
      </trkpt>
      <trkpt lat="45.53695" lon="6.63269">
        <ele>1230.1841841252</ele>
        <time>2013-07-27T05:00:14Z</time>
      </trkpt>
      <trkpt lat="45.53689" lon="6.63254">
        <ele>1231.8058039461</ele>
        <time>2013-07-27T05:00:22Z</time>
      </trkpt>
      <trkpt lat="45.53681" lon="6.63243">
        <ele>1233.2175643705</ele>
        <time>2013-07-27T05:00:29Z</time>
      </trkpt>
      <trkpt lat="45.53675" lon="6.63234">
        <ele>1234.4028072768</ele>
        <time>2013-07-27T05:00:35Z</time>
      </trkpt>
      <trkpt lat="45.53667" lon="6.63227">
        <ele>1235.6052113153</ele>
        <time>2013-07-27T05:00:41Z</time>
      </trkpt>
      <trkpt lat="45.53651" lon="6.63214">
        <ele>1238.288</ele>
        <time>2013-07-27T05:00:54Z</time>
      </trkpt>
      <trkpt lat="45.53644" lon="6.63208">
        <ele>1240.088</ele>
        <time>2013-07-27T05:01:00Z</time>
      </trkpt>
      <trkpt lat="45.53637" lon="6.63203">
        <ele>1241.60599808</ele>
        <time>2013-07-27T05:01:06Z</time>
      </trkpt>
      <trkpt lat="45.53631" lon="6.63216">
        <ele>1243.41999872</ele>
        <time>2013-07-27T05:01:15Z</time>
      </trkpt>
      <trkpt lat="45.53628" lon="6.63229">
        <ele>1245.3293396116</ele>
        <time>2013-07-27T05:01:24Z</time>
      </trkpt>
      <trkpt lat="45.53624" lon="6.63256">
        <ele>1250.1072121156</ele>
        <time>2013-07-27T05:01:40Z</time>
      </trkpt>
      <trkpt lat="45.53621" lon="6.6327">
        <ele>1252.21999872</ele>
        <time>2013-07-27T05:01:49Z</time>
      </trkpt>
      <trkpt lat="45.53618" lon="6.63287">
        <ele>1255.10899712</ele>
        <time>2013-07-27T05:02:00Z</time>
      </trkpt>
      <trkpt lat="45.53613" lon="6.63302">
        <ele>1258.40900096</ele>
        <time>2013-07-27T05:02:11Z</time>
      </trkpt>
      <trkpt lat="45.53611" lon="6.63317">
        <ele>1260.81999872</ele>
        <time>2013-07-27T05:02:22Z</time>
      </trkpt>
      <trkpt lat="45.53603" lon="6.63342">
        <ele>1267.5080134618</ele>
        <time>2013-07-27T05:02:46Z</time>
      </trkpt>
      <trkpt lat="45.53597" lon="6.63349">
        <ele>1271.00600064</ele>
        <time>2013-07-27T05:02:53Z</time>
      </trkpt>
      <trkpt lat="45.53591" lon="6.63359">
        <ele>1272.40599808</ele>
        <time>2013-07-27T05:03:00Z</time>
      </trkpt>
      <trkpt lat="45.53588" lon="6.63369">
        <ele>1273.80600064</ele>
        <time>2013-07-27T05:03:07Z</time>
      </trkpt>
      <trkpt lat="45.53591" lon="6.63394">
        <ele>1275.80999936</ele>
        <time>2013-07-27T05:03:21Z</time>
      </trkpt>
      <trkpt lat="45.53592" lon="6.634">
        <ele>1276.215569</ele>
        <time>2013-07-27T05:03:24Z</time>
      </trkpt>
      <trkpt lat="45.53594" lon="6.63412">
        <ele>1277.4131745553</ele>
        <time>2013-07-27T05:03:30Z</time>
      </trkpt>
      <trkpt lat="45.53595" lon="6.63421">
        <ele>1278.4028072768</ele>
        <time>2013-07-27T05:03:35Z</time>
      </trkpt>
      <trkpt lat="45.53596" lon="6.63436">
        <ele>1280.00999936</ele>
        <time>2013-07-27T05:03:43Z</time>
      </trkpt>
      <trkpt lat="45.53597" lon="6.63444">
        <ele>1280.40999936</ele>
        <time>2013-07-27T05:03:47Z</time>
      </trkpt>
      <trkpt lat="45.53598" lon="6.6345">
        <ele>1280.70999936</ele>
        <time>2013-07-27T05:03:50Z</time>
      </trkpt>
      <trkpt lat="45.536" lon="6.63465">
        <ele>1281.80600064</ele>
        <time>2013-07-27T05:03:57Z</time>
      </trkpt>
      <trkpt lat="45.53601" lon="6.63478">
        <ele>1282.80599808</ele>
        <time>2013-07-27T05:04:02Z</time>
      </trkpt>
      <trkpt lat="45.53611" lon="6.6352">
        <ele>1285.50999936</ele>
        <time>2013-07-27T05:04:18Z</time>
      </trkpt>
      <trkpt lat="45.53616" lon="6.63546">
        <ele>1287.0179634446</ele>
        <time>2013-07-27T05:04:28Z</time>
      </trkpt>
      <trkpt lat="45.53619" lon="6.63566">
        <ele>1288</ele>
        <time>2013-07-27T05:04:34Z</time>
      </trkpt>
      <trkpt lat="45.5362" lon="6.63583">
        <ele>1288</ele>
        <time>2013-07-27T05:04:39Z</time>
      </trkpt>
      <trkpt lat="45.53623" lon="6.636">
        <ele>1288</ele>
        <time>2013-07-27T05:04:44Z</time>
      </trkpt>
      <trkpt lat="45.53629" lon="6.63628">
        <ele>1288</ele>
        <time>2013-07-27T05:04:52Z</time>
      </trkpt>
      <trkpt lat="45.53631" lon="6.63642">
        <ele>1288</ele>
        <time>2013-07-27T05:04:56Z</time>
      </trkpt>
      <trkpt lat="45.53635" lon="6.63657">
        <ele>1288</ele>
        <time>2013-07-27T05:05:01Z</time>
      </trkpt>
      <trkpt lat="45.53637" lon="6.63673">
        <ele>1288.30999936</ele>
        <time>2013-07-27T05:05:06Z</time>
      </trkpt>
      <trkpt lat="45.53641" lon="6.63692">
        <ele>1288.90999936</ele>
        <time>2013-07-27T05:05:12Z</time>
      </trkpt>
      <trkpt lat="45.53645" lon="6.6378">
        <ele>1294.9780213597</ele>
        <time>2013-07-27T05:05:43Z</time>
      </trkpt>
      <trkpt lat="45.53649" lon="6.63805">
        <ele>1296.3937567432</ele>
        <time>2013-07-27T05:05:50Z</time>
      </trkpt>
      <trkpt lat="45.53653" lon="6.63827">
        <ele>1297.292</ele>
        <time>2013-07-27T05:05:56Z</time>
      </trkpt>
      <trkpt lat="45.53654" lon="6.63862">
        <ele>1298</ele>
        <time>2013-07-27T05:06:06Z</time>
      </trkpt>
      <trkpt lat="45.53654" lon="6.63881">
        <ele>1298</ele>
        <time>2013-07-27T05:06:10Z</time>
      </trkpt>
      <trkpt lat="45.53654" lon="6.63906">
        <ele>1298</ele>
        <time>2013-07-27T05:06:17Z</time>
      </trkpt>
      <trkpt lat="45.53653" lon="6.63919">
        <ele>1298</ele>
        <time>2013-07-27T05:06:21Z</time>
      </trkpt>
      <trkpt lat="45.5365" lon="6.6394">
        <ele>1298.5978043288</ele>
        <time>2013-07-27T05:06:29Z</time>
      </trkpt>
      <trkpt lat="45.53636" lon="6.63932">
        <ele>1301.984</ele>
        <time>2013-07-27T05:06:48Z</time>
      </trkpt>
      <trkpt lat="45.53633" lon="6.63921">
        <ele>1303.276</ele>
        <time>2013-07-27T05:06:54Z</time>
      </trkpt>
      <trkpt lat="45.53628" lon="6.63907">
        <ele>1305.676</ele>
        <time>2013-07-27T05:07:02Z</time>
      </trkpt>
      <trkpt lat="45.53623" lon="6.63894">
        <ele>1307.39800064</ele>
        <time>2013-07-27T05:07:10Z</time>
      </trkpt>
      <trkpt lat="45.53619" lon="6.63882">
        <ele>1308.79800064</ele>
        <time>2013-07-27T05:07:17Z</time>
      </trkpt>
      <trkpt lat="45.5361" lon="6.63855">
        <ele>1311.7904173794</ele>
        <time>2013-07-27T05:07:32Z</time>
      </trkpt>
      <trkpt lat="45.53606" lon="6.63842">
        <ele>1313.1823642051</ele>
        <time>2013-07-27T05:07:39Z</time>
      </trkpt>
      <trkpt lat="45.53603" lon="6.63831">
        <ele>1314.576</ele>
        <time>2013-07-27T05:07:45Z</time>
      </trkpt>
      <trkpt lat="45.53599" lon="6.6382">
        <ele>1316.376</ele>
        <time>2013-07-27T05:07:51Z</time>
      </trkpt>
      <trkpt lat="45.53594" lon="6.63802">
        <ele>1318.1896725514</ele>
        <time>2013-07-27T05:07:59Z</time>
      </trkpt>
      <trkpt lat="45.53586" lon="6.63771">
        <ele>1319</ele>
        <time>2013-07-27T05:08:08Z</time>
      </trkpt>
      <trkpt lat="45.5358" lon="6.6374">
        <ele>1319</ele>
        <time>2013-07-27T05:08:17Z</time>
      </trkpt>
      <trkpt lat="45.53578" lon="6.63727">
        <ele>1319</ele>
        <time>2013-07-27T05:08:20Z</time>
      </trkpt>
      <trkpt lat="45.53578" lon="6.63702">
        <ele>1319</ele>
        <time>2013-07-27T05:08:26Z</time>
      </trkpt>
      <trkpt lat="45.53576" lon="6.63689">
        <ele>1319</ele>
        <time>2013-07-27T05:08:29Z</time>
      </trkpt>
      <trkpt lat="45.53575" lon="6.63672">
        <ele>1319</ele>
        <time>2013-07-27T05:08:33Z</time>
      </trkpt>
      <trkpt lat="45.53574" lon="6.6366">
        <ele>1319</ele>
        <time>2013-07-27T05:08:36Z</time>
      </trkpt>
      <trkpt lat="45.53572" lon="6.63648">
        <ele>1319</ele>
        <time>2013-07-27T05:08:39Z</time>
      </trkpt>
      <trkpt lat="45.53557" lon="6.63618">
        <ele>1320.184</ele>
        <time>2013-07-27T05:08:49Z</time>
      </trkpt>
      <trkpt lat="45.53548" lon="6.63606">
        <ele>1321.368</ele>
        <time>2013-07-27T05:08:54Z</time>
      </trkpt>
      <trkpt lat="45.53538" lon="6.63597">
        <ele>1323.384</ele>
        <time>2013-07-27T05:08:59Z</time>
      </trkpt>
      <trkpt lat="45.53533" lon="6.63608">
        <ele>1325.59700096</ele>
        <time>2013-07-27T05:09:05Z</time>
      </trkpt>
      <trkpt lat="45.53534" lon="6.63627">
        <ele>1327.09700096</ele>
        <time>2013-07-27T05:09:10Z</time>
      </trkpt>
      <trkpt lat="45.53518" lon="6.63598">
        <ele>1331.3952106059</ele>
        <time>2013-07-27T05:09:24Z</time>
      </trkpt>
      <trkpt lat="45.53514" lon="6.63589">
        <ele>1332.5928146313</ele>
        <time>2013-07-27T05:09:27Z</time>
      </trkpt>
      <trkpt lat="45.53506" lon="6.63578">
        <ele>1334.1896199986</ele>
        <time>2013-07-27T05:09:31Z</time>
      </trkpt>
      <trkpt lat="45.53491" lon="6.63577">
        <ele>1338.1663321307</ele>
        <time>2013-07-27T05:09:41Z</time>
      </trkpt>
      <trkpt lat="45.53493" lon="6.63596">
        <ele>1339.39900032</ele>
        <time>2013-07-27T05:09:47Z</time>
      </trkpt>
      <trkpt lat="45.53506" lon="6.63633">
        <ele>1339.60199936</ele>
        <time>2013-07-27T05:09:55Z</time>
      </trkpt>
      <trkpt lat="45.53512" lon="6.63657">
        <ele>1338.40199936</ele>
        <time>2013-07-27T05:10:01Z</time>
      </trkpt>
      <trkpt lat="45.53495" lon="6.63699">
        <ele>1341</ele>
        <time>2013-07-27T05:10:23Z</time>
      </trkpt>
      <trkpt lat="45.53483" lon="6.6372">
        <ele>1344.3807604847</ele>
        <time>2013-07-27T05:10:35Z</time>
      </trkpt>
      <trkpt lat="45.5348" lon="6.63725">
        <ele>1345.1823642051</ele>
        <time>2013-07-27T05:10:39Z</time>
      </trkpt>
      <trkpt lat="45.53476" lon="6.63733">
        <ele>1346.276</ele>
        <time>2013-07-27T05:10:44Z</time>
      </trkpt>
      <trkpt lat="45.53469" lon="6.63745">
        <ele>1349.4249984</ele>
        <time>2013-07-27T05:10:54Z</time>
      </trkpt>
      <trkpt lat="45.5346" lon="6.63755">
        <ele>1352.9249984</ele>
        <time>2013-07-27T05:11:01Z</time>
      </trkpt>
      <trkpt lat="45.53442" lon="6.6378">
        <ele>1358.3827651352</ele>
        <time>2013-07-27T05:11:20Z</time>
      </trkpt>
      <trkpt lat="45.53435" lon="6.63789">
        <ele>1359.78243463</ele>
        <time>2013-07-27T05:11:27Z</time>
      </trkpt>
      <trkpt lat="45.53428" lon="6.63799">
        <ele>1363.0741477029</ele>
        <time>2013-07-27T05:11:40Z</time>
      </trkpt>
      <trkpt lat="45.53419" lon="6.63808">
        <ele>1365.4831365079</ele>
        <time>2013-07-27T05:11:46Z</time>
      </trkpt>
      <trkpt lat="45.5341" lon="6.63814">
        <ele>1368.9553587302</ele>
        <time>2013-07-27T05:11:53Z</time>
      </trkpt>
      <trkpt lat="45.53394" lon="6.63836">
        <ele>1373.784</ele>
        <time>2013-07-27T05:12:12Z</time>
      </trkpt>
      <trkpt lat="45.53384" lon="6.63847">
        <ele>1375.79800064</ele>
        <time>2013-07-27T05:12:22Z</time>
      </trkpt>
      <trkpt lat="45.53376" lon="6.6386">
        <ele>1378.0928139926</ele>
        <time>2013-07-27T05:12:30Z</time>
      </trkpt>
      <trkpt lat="45.5337" lon="6.63871">
        <ele>1379.8717421222</ele>
        <time>2013-07-27T05:12:36Z</time>
      </trkpt>
      <trkpt lat="45.53364" lon="6.63882">
        <ele>1381.6753504932</ele>
        <time>2013-07-27T05:12:42Z</time>
      </trkpt>
      <trkpt lat="45.5335" lon="6.63903">
        <ele>1386.59800064</ele>
        <time>2013-07-27T05:12:56Z</time>
      </trkpt>
      <trkpt lat="45.53347" lon="6.6391">
        <ele>1387.39800064</ele>
        <time>2013-07-27T05:13:00Z</time>
      </trkpt>
      <trkpt lat="45.53344" lon="6.63916">
        <ele>1388.19800064</ele>
        <time>2013-07-27T05:13:04Z</time>
      </trkpt>
      <trkpt lat="45.5333" lon="6.63947">
        <ele>1390.89000064</ele>
        <time>2013-07-27T05:13:22Z</time>
      </trkpt>
      <trkpt lat="45.53327" lon="6.63956">
        <ele>1392.1946109735</ele>
        <time>2013-07-27T05:13:27Z</time>
      </trkpt>
      <trkpt lat="45.53323" lon="6.63965">
        <ele>1393.392214999</ele>
        <time>2013-07-27T05:13:31Z</time>
      </trkpt>
      <trkpt lat="45.53319" lon="6.63973">
        <ele>1394.0901797773</ele>
        <time>2013-07-27T05:13:34Z</time>
      </trkpt>
      <trkpt lat="45.53316" lon="6.63981">
        <ele>1394.3907811724</ele>
        <time>2013-07-27T05:13:37Z</time>
      </trkpt>
      <trkpt lat="45.53311" lon="6.63994">
        <ele>1394.8917834977</ele>
        <time>2013-07-27T05:13:42Z</time>
      </trkpt>
      <trkpt lat="45.53308" lon="6.64">
        <ele>1395.19800064</ele>
        <time>2013-07-27T05:13:44Z</time>
      </trkpt>
      <trkpt lat="45.53306" lon="6.64005">
        <ele>1395.59800064</ele>
        <time>2013-07-27T05:13:46Z</time>
      </trkpt>
      <trkpt lat="45.53303" lon="6.64012">
        <ele>1396.2</ele>
        <time>2013-07-27T05:13:49Z</time>
      </trkpt>
      <trkpt lat="45.533" lon="6.64019">
        <ele>1396.79800064</ele>
        <time>2013-07-27T05:13:52Z</time>
      </trkpt>
      <trkpt lat="45.5329" lon="6.64034">
        <ele>1399.7904186568</ele>
        <time>2013-07-27T05:14:00Z</time>
      </trkpt>
      <trkpt lat="45.53287" lon="6.64042">
        <ele>1400.9880226823</ele>
        <time>2013-07-27T05:14:03Z</time>
      </trkpt>
      <trkpt lat="45.53286" lon="6.64053">
        <ele>1401</ele>
        <time>2013-07-27T05:14:06Z</time>
      </trkpt>
      <trkpt lat="45.53285" lon="6.64064">
        <ele>1401</ele>
        <time>2013-07-27T05:14:09Z</time>
      </trkpt>
      <trkpt lat="45.53285" lon="6.64075">
        <ele>1401</ele>
        <time>2013-07-27T05:14:12Z</time>
      </trkpt>
      <trkpt lat="45.53285" lon="6.64103">
        <ele>1403.076</ele>
        <time>2013-07-27T05:14:20Z</time>
      </trkpt>
      <trkpt lat="45.53287" lon="6.64115">
        <ele>1404.0918163086</ele>
        <time>2013-07-27T05:14:24Z</time>
      </trkpt>
      <trkpt lat="45.53285" lon="6.64128">
        <ele>1404.4910176504</ele>
        <time>2013-07-27T05:14:28Z</time>
      </trkpt>
      <trkpt lat="45.53277" lon="6.64146">
        <ele>1405.0901797773</ele>
        <time>2013-07-27T05:14:34Z</time>
      </trkpt>
      <trkpt lat="45.53266" lon="6.64197">
        <ele>1407.19800064</ele>
        <time>2013-07-27T05:14:49Z</time>
      </trkpt>
      <trkpt lat="45.53264" lon="6.64208">
        <ele>1407.79800064</ele>
        <time>2013-07-27T05:14:52Z</time>
      </trkpt>
      <trkpt lat="45.53264" lon="6.64215">
        <ele>1407.90099968</ele>
        <time>2013-07-27T05:14:54Z</time>
      </trkpt>
      <trkpt lat="45.53264" lon="6.64222">
        <ele>1407.70099968</ele>
        <time>2013-07-27T05:14:56Z</time>
      </trkpt>
      <trkpt lat="45.53265" lon="6.64238">
        <ele>1407.30099968</ele>
        <time>2013-07-27T05:15:00Z</time>
      </trkpt>
      <trkpt lat="45.53266" lon="6.64246">
        <ele>1407.10099968</ele>
        <time>2013-07-27T05:15:02Z</time>
      </trkpt>
      <trkpt lat="45.53267" lon="6.64255">
        <ele>1407</ele>
        <time>2013-07-27T05:15:04Z</time>
      </trkpt>
      <trkpt lat="45.53266" lon="6.64263">
        <ele>1407</ele>
        <time>2013-07-27T05:15:06Z</time>
      </trkpt>
      <trkpt lat="45.53266" lon="6.64269">
        <ele>1407</ele>
        <time>2013-07-27T05:15:08Z</time>
      </trkpt>
      <trkpt lat="45.53261" lon="6.64282">
        <ele>1407.2532263744</ele>
        <time>2013-07-27T05:15:14Z</time>
      </trkpt>
      <trkpt lat="45.53259" lon="6.64288">
        <ele>1408.1469698838</ele>
        <time>2013-07-27T05:15:17Z</time>
      </trkpt>
      <trkpt lat="45.53256" lon="6.64292">
        <ele>1408.7427988901</ele>
        <time>2013-07-27T05:15:19Z</time>
      </trkpt>
      <trkpt lat="45.5325" lon="6.64298">
        <ele>1409.9344569027</ele>
        <time>2013-07-27T05:15:23Z</time>
      </trkpt>
      <trkpt lat="45.53246" lon="6.64304">
        <ele>1410.7879394451</ele>
        <time>2013-07-27T05:15:27Z</time>
      </trkpt>
      <trkpt lat="45.53234" lon="6.64319">
        <ele>1412.3907811724</ele>
        <time>2013-07-27T05:15:37Z</time>
      </trkpt>
      <trkpt lat="45.53228" lon="6.64325">
        <ele>1412.8917834977</ele>
        <time>2013-07-27T05:15:42Z</time>
      </trkpt>
      <trkpt lat="45.53221" lon="6.64332">
        <ele>1413.99800064</ele>
        <time>2013-07-27T05:15:48Z</time>
      </trkpt>
      <trkpt lat="45.53216" lon="6.6434">
        <ele>1415.4</ele>
        <time>2013-07-27T05:15:54Z</time>
      </trkpt>
      <trkpt lat="45.53209" lon="6.64349">
        <ele>1418.19600128</ele>
        <time>2013-07-27T05:16:01Z</time>
      </trkpt>
      <trkpt lat="45.53192" lon="6.64393">
        <ele>1421</ele>
        <time>2013-07-27T05:16:22Z</time>
      </trkpt>
      <trkpt lat="45.53189" lon="6.64405">
        <ele>1421.2981059069</ele>
        <time>2013-07-27T05:16:26Z</time>
      </trkpt>
      <trkpt lat="45.53185" lon="6.64418">
        <ele>1421.6969093689</ele>
        <time>2013-07-27T05:16:30Z</time>
      </trkpt>
      <trkpt lat="45.53176" lon="6.64443">
        <ele>1423.4714137521</ele>
        <time>2013-07-27T05:16:38Z</time>
      </trkpt>
      <trkpt lat="45.53172" lon="6.64452">
        <ele>1424.3741221662</ele>
        <time>2013-07-27T05:16:41Z</time>
      </trkpt>
      <trkpt lat="45.53168" lon="6.6446">
        <ele>1425.3952106059</ele>
        <time>2013-07-27T05:16:44Z</time>
      </trkpt>
      <trkpt lat="45.53164" lon="6.64466">
        <ele>1426.1936132895</ele>
        <time>2013-07-27T05:16:46Z</time>
      </trkpt>
      <trkpt lat="45.5316" lon="6.6447">
        <ele>1426.9960067091</ele>
        <time>2013-07-27T05:16:48Z</time>
      </trkpt>
      <trkpt lat="45.53145" lon="6.64479">
        <ele>1429.1803595545</ele>
        <time>2013-07-27T05:16:54Z</time>
      </trkpt>
      <trkpt lat="45.53138" lon="6.64482">
        <ele>1429.7835657129</ele>
        <time>2013-07-27T05:16:57Z</time>
      </trkpt>
      <trkpt lat="45.53131" lon="6.64486">
        <ele>1430.3827651352</ele>
        <time>2013-07-27T05:17:00Z</time>
      </trkpt>
      <trkpt lat="45.53125" lon="6.6449">
        <ele>1430.9839679256</ele>
        <time>2013-07-27T05:17:03Z</time>
      </trkpt>
      <trkpt lat="45.53117" lon="6.64496">
        <ele>1431.7924532139</ele>
        <time>2013-07-27T05:17:07Z</time>
      </trkpt>
      <trkpt lat="45.53104" lon="6.64506">
        <ele>1433.584</ele>
        <time>2013-07-27T05:17:16Z</time>
      </trkpt>
      <trkpt lat="45.53097" lon="6.6451">
        <ele>1434.184</ele>
        <time>2013-07-27T05:17:19Z</time>
      </trkpt>
      <trkpt lat="45.53089" lon="6.64514">
        <ele>1434.984</ele>
        <time>2013-07-27T05:17:23Z</time>
      </trkpt>
      <trkpt lat="45.53084" lon="6.64517">
        <ele>1435.9889444056</ele>
        <time>2013-07-27T05:17:28Z</time>
      </trkpt>
      <trkpt lat="45.53083" lon="6.64528">
        <ele>1437</ele>
        <time>2013-07-27T05:17:42Z</time>
      </trkpt>
      <trkpt lat="45.53078" lon="6.64562">
        <ele>1437.784</ele>
        <time>2013-07-27T05:17:57Z</time>
      </trkpt>
      <trkpt lat="45.53068" lon="6.64593">
        <ele>1441.0180173716</ele>
        <time>2013-07-27T05:18:13Z</time>
      </trkpt>
      <trkpt lat="45.53063" lon="6.64603">
        <ele>1442.219218188</ele>
        <time>2013-07-27T05:18:19Z</time>
      </trkpt>
      <trkpt lat="45.53055" lon="6.64623">
        <ele>1443.8183625187</ele>
        <time>2013-07-27T05:18:27Z</time>
      </trkpt>
      <trkpt lat="45.53053" lon="6.64637">
        <ele>1444.6167662223</ele>
        <time>2013-07-27T05:18:31Z</time>
      </trkpt>
      <trkpt lat="45.53051" lon="6.64651">
        <ele>1445.4024041954</ele>
        <time>2013-07-27T05:18:35Z</time>
      </trkpt>
      <trkpt lat="45.53049" lon="6.64667">
        <ele>1446.1831834448</ele>
        <time>2013-07-27T05:18:39Z</time>
      </trkpt>
      <trkpt lat="45.53047" lon="6.64678">
        <ele>1446.783783853</ele>
        <time>2013-07-27T05:18:42Z</time>
      </trkpt>
      <trkpt lat="45.53039" lon="6.64705">
        <ele>1448.39800064</ele>
        <time>2013-07-27T05:18:50Z</time>
      </trkpt>
      <trkpt lat="45.53033" lon="6.64718">
        <ele>1449</ele>
        <time>2013-07-27T05:18:54Z</time>
      </trkpt>
      <trkpt lat="45.53026" lon="6.64731">
        <ele>1449</ele>
        <time>2013-07-27T05:18:58Z</time>
      </trkpt>
      <trkpt lat="45.5302" lon="6.64744">
        <ele>1449</ele>
        <time>2013-07-27T05:19:02Z</time>
      </trkpt>
      <trkpt lat="45.53017" lon="6.64756">
        <ele>1449</ele>
        <time>2013-07-27T05:19:05Z</time>
      </trkpt>
      <trkpt lat="45.53011" lon="6.64785">
        <ele>1449</ele>
        <time>2013-07-27T05:19:13Z</time>
      </trkpt>
      <trkpt lat="45.53009" lon="6.64798">
        <ele>1448.70099968</ele>
        <time>2013-07-27T05:19:16Z</time>
      </trkpt>
      <trkpt lat="45.53007" lon="6.64821">
        <ele>1448.20099968</ele>
        <time>2013-07-27T05:19:21Z</time>
      </trkpt>
      <trkpt lat="45.53007" lon="6.64835">
        <ele>1447.8023946971</ele>
        <time>2013-07-27T05:19:24Z</time>
      </trkpt>
      <trkpt lat="45.53006" lon="6.64848">
        <ele>1447.2035926843</ele>
        <time>2013-07-27T05:19:27Z</time>
      </trkpt>
      <trkpt lat="45.53002" lon="6.64884">
        <ele>1445.6222674336</ele>
        <time>2013-07-27T05:19:35Z</time>
      </trkpt>
      <trkpt lat="45.52998" lon="6.64899">
        <ele>1445.0059661271</ele>
        <time>2013-07-27T05:19:38Z</time>
      </trkpt>
      <trkpt lat="45.5298" lon="6.64933">
        <ele>1444</ele>
        <time>2013-07-27T05:19:49Z</time>
      </trkpt>
      <trkpt lat="45.52964" lon="6.64942">
        <ele>1444.2014036384</ele>
        <time>2013-07-27T05:19:55Z</time>
      </trkpt>
      <trkpt lat="45.52955" lon="6.64943">
        <ele>1444.5020033655</ele>
        <time>2013-07-27T05:19:58Z</time>
      </trkpt>
      <trkpt lat="45.52946" lon="6.64943">
        <ele>1444.8026056577</ele>
        <time>2013-07-27T05:20:01Z</time>
      </trkpt>
      <trkpt lat="45.52938" lon="6.64945">
        <ele>1445.09399936</ele>
        <time>2013-07-27T05:20:04Z</time>
      </trkpt>
      <trkpt lat="45.52932" lon="6.64948">
        <ele>1445.29399936</ele>
        <time>2013-07-27T05:20:06Z</time>
      </trkpt>
      <trkpt lat="45.52923" lon="6.64959">
        <ele>1445.69399936</ele>
        <time>2013-07-27T05:20:10Z</time>
      </trkpt>
      <trkpt lat="45.52919" lon="6.64967">
        <ele>1445.89399936</ele>
        <time>2013-07-27T05:20:12Z</time>
      </trkpt>
      <trkpt lat="45.52916" lon="6.64979">
        <ele>1446.20999936</ele>
        <time>2013-07-27T05:20:15Z</time>
      </trkpt>
      <trkpt lat="45.52924" lon="6.64993">
        <ele>1446.70999936</ele>
        <time>2013-07-27T05:20:20Z</time>
      </trkpt>
      <trkpt lat="45.52934" lon="6.64998">
        <ele>1447.1097798705</ele>
        <time>2013-07-27T05:20:24Z</time>
      </trkpt>
      <trkpt lat="45.52955" lon="6.65012">
        <ele>1447.9081835741</ele>
        <time>2013-07-27T05:20:32Z</time>
      </trkpt>
      <trkpt lat="45.5296" lon="6.65019">
        <ele>1448.2224453884</ele>
        <time>2013-07-27T05:20:35Z</time>
      </trkpt>
      <trkpt lat="45.52962" lon="6.6503">
        <ele>1448.5020033655</ele>
        <time>2013-07-27T05:20:38Z</time>
      </trkpt>
      <trkpt lat="45.5296" lon="6.6505">
        <ele>1449.32999808</ele>
        <time>2013-07-27T05:20:44Z</time>
      </trkpt>
      <trkpt lat="45.52956" lon="6.6506">
        <ele>1450.22999808</ele>
        <time>2013-07-27T05:20:47Z</time>
      </trkpt>
      <trkpt lat="45.52944" lon="6.65073">
        <ele>1452.00300032</ele>
        <time>2013-07-27T05:20:53Z</time>
      </trkpt>
      <trkpt lat="45.52937" lon="6.65078">
        <ele>1452.30299904</ele>
        <time>2013-07-27T05:20:56Z</time>
      </trkpt>
      <trkpt lat="45.5293" lon="6.65085">
        <ele>1452.60300032</ele>
        <time>2013-07-27T05:20:59Z</time>
      </trkpt>
      <trkpt lat="45.52911" lon="6.65115">
        <ele>1454.61999872</ele>
        <time>2013-07-27T05:21:11Z</time>
      </trkpt>
      <trkpt lat="45.52905" lon="6.65122">
        <ele>1455.10999936</ele>
        <time>2013-07-27T05:21:14Z</time>
      </trkpt>
      <trkpt lat="45.52899" lon="6.65129">
        <ele>1455.40999936</ele>
        <time>2013-07-27T05:21:17Z</time>
      </trkpt>
      <trkpt lat="45.52892" lon="6.65136">
        <ele>1455.70999936</ele>
        <time>2013-07-27T05:21:20Z</time>
      </trkpt>
      <trkpt lat="45.52885" lon="6.65141">
        <ele>1456.0099101716</ele>
        <time>2013-07-27T05:21:23Z</time>
      </trkpt>
      <trkpt lat="45.5287" lon="6.65155">
        <ele>1456.6045585267</ele>
        <time>2013-07-27T05:21:29Z</time>
      </trkpt>
      <trkpt lat="45.52866" lon="6.65165">
        <ele>1456.9018827043</ele>
        <time>2013-07-27T05:21:32Z</time>
      </trkpt>
      <trkpt lat="45.52865" lon="6.65181">
        <ele>1457.2966692887</ele>
        <time>2013-07-27T05:21:36Z</time>
      </trkpt>
      <trkpt lat="45.52869" lon="6.65194">
        <ele>1457.7003018526</ele>
        <time>2013-07-27T05:21:40Z</time>
      </trkpt>
      <trkpt lat="45.52876" lon="6.65207">
        <ele>1458.40600064</ele>
        <time>2013-07-27T05:21:45Z</time>
      </trkpt>
      <trkpt lat="45.52891" lon="6.65233">
        <ele>1460.50299904</ele>
        <time>2013-07-27T05:21:58Z</time>
      </trkpt>
      <trkpt lat="45.52898" lon="6.65246">
        <ele>1461.588</ele>
        <time>2013-07-27T05:22:05Z</time>
      </trkpt>
      <trkpt lat="45.52905" lon="6.65261">
        <ele>1464.40600064</ele>
        <time>2013-07-27T05:22:15Z</time>
      </trkpt>
      <trkpt lat="45.52916" lon="6.65284">
        <ele>1467.0159349801</ele>
        <time>2013-07-27T05:22:28Z</time>
      </trkpt>
      <trkpt lat="45.52923" lon="6.65302">
        <ele>1469.1887550201</ele>
        <time>2013-07-27T05:22:39Z</time>
      </trkpt>
      <trkpt lat="45.52917" lon="6.65337">
        <ele>1473.61999872</ele>
        <time>2013-07-27T05:23:01Z</time>
      </trkpt>
      <trkpt lat="45.52904" lon="6.65344">
        <ele>1475.41999872</ele>
        <time>2013-07-27T05:23:10Z</time>
      </trkpt>
      <trkpt lat="45.52894" lon="6.65349">
        <ele>1476.92999808</ele>
        <time>2013-07-27T05:23:16Z</time>
      </trkpt>
      <trkpt lat="45.52885" lon="6.65353">
        <ele>1478.72999808</ele>
        <time>2013-07-27T05:23:22Z</time>
      </trkpt>
      <trkpt lat="45.52898" lon="6.65402">
        <ele>1487.00599808</ele>
        <time>2013-07-27T05:23:58Z</time>
      </trkpt>
      <trkpt lat="45.52901" lon="6.65416">
        <ele>1488.60599808</ele>
        <time>2013-07-27T05:24:06Z</time>
      </trkpt>
      <trkpt lat="45.52897" lon="6.6543">
        <ele>1490.00900096</ele>
        <time>2013-07-27T05:24:13Z</time>
      </trkpt>
      <trkpt lat="45.52891" lon="6.65438">
        <ele>1491.80900096</ele>
        <time>2013-07-27T05:24:19Z</time>
      </trkpt>
      <trkpt lat="45.52879" lon="6.65452">
        <ele>1494.2091170534</ele>
        <time>2013-07-27T05:24:29Z</time>
      </trkpt>
      <trkpt lat="45.5287" lon="6.65465">
        <ele>1495.9969711412</ele>
        <time>2013-07-27T05:24:38Z</time>
      </trkpt>
      <trkpt lat="45.52866" lon="6.65481">
        <ele>1496.99699968</ele>
        <time>2013-07-27T05:24:43Z</time>
      </trkpt>
      <trkpt lat="45.52865" lon="6.65494">
        <ele>1496.69700096</ele>
        <time>2013-07-27T05:24:46Z</time>
      </trkpt>
      <trkpt lat="45.52864" lon="6.65513">
        <ele>1496.19699968</ele>
        <time>2013-07-27T05:24:51Z</time>
      </trkpt>
      <trkpt lat="45.52872" lon="6.65556">
        <ele>1495.09000064</ele>
        <time>2013-07-27T05:25:02Z</time>
      </trkpt>
      <trkpt lat="45.52879" lon="6.65572">
        <ele>1494.69000064</ele>
        <time>2013-07-27T05:25:06Z</time>
      </trkpt>
      <trkpt lat="45.52884" lon="6.65591">
        <ele>1494.29000064</ele>
        <time>2013-07-27T05:25:10Z</time>
      </trkpt>
      <trkpt lat="45.5289" lon="6.65605">
        <ele>1493.6788898883</ele>
        <time>2013-07-27T05:25:14Z</time>
      </trkpt>
      <trkpt lat="45.52896" lon="6.65627">
        <ele>1491.894944823</ele>
        <time>2013-07-27T05:25:20Z</time>
      </trkpt>
      <trkpt lat="45.52904" lon="6.65671">
        <ele>1491.80099968</ele>
        <time>2013-07-27T05:25:31Z</time>
      </trkpt>
      <trkpt lat="45.52906" lon="6.65692">
        <ele>1492.38004</ele>
        <time>2013-07-27T05:25:37Z</time>
      </trkpt>
      <trkpt lat="45.52903" lon="6.65712">
        <ele>1492.8840722581</ele>
        <time>2013-07-27T05:25:42Z</time>
      </trkpt>
      <trkpt lat="45.52898" lon="6.65727">
        <ele>1493</ele>
        <time>2013-07-27T05:25:45Z</time>
      </trkpt>
      <trkpt lat="45.52892" lon="6.65745">
        <ele>1493</ele>
        <time>2013-07-27T05:25:50Z</time>
      </trkpt>
      <trkpt lat="45.52883" lon="6.65824">
        <ele>1492</ele>
        <time>2013-07-27T05:26:09Z</time>
      </trkpt>
      <trkpt lat="45.52881" lon="6.6584">
        <ele>1492</ele>
        <time>2013-07-27T05:26:13Z</time>
      </trkpt>
      <trkpt lat="45.52881" lon="6.65854">
        <ele>1491.20199936</ele>
        <time>2013-07-27T05:26:17Z</time>
      </trkpt>
      <trkpt lat="45.52879" lon="6.65889">
        <ele>1489.2118804202</ele>
        <time>2013-07-27T05:26:25Z</time>
      </trkpt>
      <trkpt lat="45.52875" lon="6.65905">
        <ele>1487.6277230082</ele>
        <time>2013-07-27T05:26:29Z</time>
      </trkpt>
      <trkpt lat="45.52871" lon="6.65921">
        <ele>1486.0435655962</ele>
        <time>2013-07-27T05:26:33Z</time>
      </trkpt>
      <trkpt lat="45.52869" lon="6.65939">
        <ele>1484.0662005428</ele>
        <time>2013-07-27T05:26:38Z</time>
      </trkpt>
      <trkpt lat="45.52874" lon="6.65959">
        <ele>1482.0601818448</ele>
        <time>2013-07-27T05:26:43Z</time>
      </trkpt>
      <trkpt lat="45.52865" lon="6.65992">
        <ele>1482</ele>
        <time>2013-07-27T05:26:52Z</time>
      </trkpt>
      <trkpt lat="45.5286" lon="6.66006">
        <ele>1482.59800064</ele>
        <time>2013-07-27T05:26:56Z</time>
      </trkpt>
      <trkpt lat="45.52858" lon="6.66018">
        <ele>1483.39800064</ele>
        <time>2013-07-27T05:27:00Z</time>
      </trkpt>
      <trkpt lat="45.52851" lon="6.66028">
        <ele>1484.29900032</ele>
        <time>2013-07-27T05:27:06Z</time>
      </trkpt>
      <trkpt lat="45.52843" lon="6.66037">
        <ele>1485.3952338764</ele>
        <time>2013-07-27T05:27:15Z</time>
      </trkpt>
      <trkpt lat="45.52825" lon="6.66062">
        <ele>1491.7735463077</ele>
        <time>2013-07-27T05:27:39Z</time>
      </trkpt>
      <trkpt lat="45.52816" lon="6.66079">
        <ele>1494.59800064</ele>
        <time>2013-07-27T05:27:51Z</time>
      </trkpt>
      <trkpt lat="45.52808" lon="6.66092">
        <ele>1496.39800064</ele>
        <time>2013-07-27T05:28:00Z</time>
      </trkpt>
      <trkpt lat="45.52801" lon="6.66108">
        <ele>1497.9960079866</ele>
        <time>2013-07-27T05:28:08Z</time>
      </trkpt>
      <trkpt lat="45.52795" lon="6.66117">
        <ele>1499.1803595545</ele>
        <time>2013-07-27T05:28:14Z</time>
      </trkpt>
      <trkpt lat="45.52789" lon="6.66136">
        <ele>1501.2964079544</ele>
        <time>2013-07-27T05:28:24Z</time>
      </trkpt>
      <trkpt lat="45.52782" lon="6.66158">
        <ele>1504.5811614148</ele>
        <time>2013-07-27T05:28:36Z</time>
      </trkpt>
      <trkpt lat="45.5278" lon="6.66166">
        <ele>1505.3847685033</ele>
        <time>2013-07-27T05:28:40Z</time>
      </trkpt>
      <trkpt lat="45.52767" lon="6.66195">
        <ele>1509.47000192</ele>
        <time>2013-07-27T05:28:58Z</time>
      </trkpt>
      <trkpt lat="45.52759" lon="6.66208">
        <ele>1511.292</ele>
        <time>2013-07-27T05:29:06Z</time>
      </trkpt>
      <trkpt lat="45.5275" lon="6.66222">
        <ele>1512.79800064</ele>
        <time>2013-07-27T05:29:17Z</time>
      </trkpt>
      <trkpt lat="45.52743" lon="6.66237">
        <ele>1516.3502969419</ele>
        <time>2013-07-27T05:29:31Z</time>
      </trkpt>
      <trkpt lat="45.52736" lon="6.66251">
        <ele>1518.170147079</ele>
        <time>2013-07-27T05:29:39Z</time>
      </trkpt>
      <trkpt lat="45.52723" lon="6.66265">
        <ele>1520.5951666772</ele>
        <time>2013-07-27T05:29:51Z</time>
      </trkpt>
      <trkpt lat="45.52716" lon="6.66276">
        <ele>1522.49700096</ele>
        <time>2013-07-27T05:29:58Z</time>
      </trkpt>
      <trkpt lat="45.52711" lon="6.66292">
        <ele>1524.184</ele>
        <time>2013-07-27T05:30:04Z</time>
      </trkpt>
      <trkpt lat="45.52708" lon="6.66307">
        <ele>1525.384</ele>
        <time>2013-07-27T05:30:10Z</time>
      </trkpt>
      <trkpt lat="45.52703" lon="6.66326">
        <ele>1526.49000064</ele>
        <time>2013-07-27T05:30:18Z</time>
      </trkpt>
      <trkpt lat="45.52685" lon="6.66361">
        <ele>1528.566864628</ele>
        <time>2013-07-27T05:30:31Z</time>
      </trkpt>
      <trkpt lat="45.5268" lon="6.66378">
        <ele>1529.2905807074</ele>
        <time>2013-07-27T05:30:36Z</time>
      </trkpt>
      <trkpt lat="45.52672" lon="6.66398">
        <ele>1530</ele>
        <time>2013-07-27T05:30:44Z</time>
      </trkpt>
      <trkpt lat="45.52664" lon="6.66414">
        <ele>1530</ele>
        <time>2013-07-27T05:30:50Z</time>
      </trkpt>
      <trkpt lat="45.52658" lon="6.66435">
        <ele>1530.3852299336</ele>
        <time>2013-07-27T05:30:57Z</time>
      </trkpt>
      <trkpt lat="45.52637" lon="6.66471">
        <ele>1531.8917834977</ele>
        <time>2013-07-27T05:31:12Z</time>
      </trkpt>
      <trkpt lat="45.52625" lon="6.66489">
        <ele>1532.59900032</ele>
        <time>2013-07-27T05:31:19Z</time>
      </trkpt>
      <trkpt lat="45.52594" lon="6.66529">
        <ele>1532.8116244083</ele>
        <time>2013-07-27T05:31:35Z</time>
      </trkpt>
      <trkpt lat="45.52579" lon="6.66552">
        <ele>1532.79800064</ele>
        <time>2013-07-27T05:31:47Z</time>
      </trkpt>
      <trkpt lat="45.52571" lon="6.66559">
        <ele>1533.59800064</ele>
        <time>2013-07-27T05:31:51Z</time>
      </trkpt>
      <trkpt lat="45.52563" lon="6.66569">
        <ele>1534.39800064</ele>
        <time>2013-07-27T05:31:55Z</time>
      </trkpt>
      <trkpt lat="45.52555" lon="6.66579">
        <ele>1535.39800064</ele>
        <time>2013-07-27T05:32:00Z</time>
      </trkpt>
      <trkpt lat="45.52545" lon="6.66587">
        <ele>1536.19900032</ele>
        <time>2013-07-27T05:32:05Z</time>
      </trkpt>
      <trkpt lat="45.52567" lon="6.66583">
        <ele>1535</ele>
        <time>2013-07-27T05:32:25Z</time>
      </trkpt>
      <trkpt lat="45.52577" lon="6.66593">
        <ele>1535</ele>
        <time>2013-07-27T05:32:29Z</time>
      </trkpt>
      <trkpt lat="45.52583" lon="6.66606">
        <ele>1535</ele>
        <time>2013-07-27T05:32:33Z</time>
      </trkpt>
      <trkpt lat="45.52592" lon="6.66626">
        <ele>1536.5831660654</ele>
        <time>2013-07-27T05:32:41Z</time>
      </trkpt>
      <trkpt lat="45.52592" lon="6.66647">
        <ele>1537.2937132927</ele>
        <time>2013-07-27T05:32:46Z</time>
      </trkpt>
      <trkpt lat="45.52593" lon="6.66679">
        <ele>1538</ele>
        <time>2013-07-27T05:32:56Z</time>
      </trkpt>
      <trkpt lat="45.52592" lon="6.66693">
        <ele>1538</ele>
        <time>2013-07-27T05:33:00Z</time>
      </trkpt>
      <trkpt lat="45.52593" lon="6.66707">
        <ele>1538</ele>
        <time>2013-07-27T05:33:04Z</time>
      </trkpt>
      <trkpt lat="45.52593" lon="6.6672">
        <ele>1538</ele>
        <time>2013-07-27T05:33:08Z</time>
      </trkpt>
      <trkpt lat="45.52588" lon="6.66741">
        <ele>1538.4890659175</ele>
        <time>2013-07-27T05:33:18Z</time>
      </trkpt>
      <trkpt lat="45.52579" lon="6.66769">
        <ele>1540.1867461054</ele>
        <time>2013-07-27T05:33:29Z</time>
      </trkpt>
      <trkpt lat="45.52573" lon="6.66782">
        <ele>1541.8717421222</ele>
        <time>2013-07-27T05:33:36Z</time>
      </trkpt>
      <trkpt lat="45.52567" lon="6.66795">
        <ele>1543.6753504932</ele>
        <time>2013-07-27T05:33:42Z</time>
      </trkpt>
      <trkpt lat="45.52534" lon="6.66858">
        <ele>1550.59399936</ele>
        <time>2013-07-27T05:34:11Z</time>
      </trkpt>
      <trkpt lat="45.52529" lon="6.66873">
        <ele>1551.692</ele>
        <time>2013-07-27T05:34:20Z</time>
      </trkpt>
      <trkpt lat="45.52524" lon="6.66884">
        <ele>1552.1916166441</ele>
        <time>2013-07-27T05:34:25Z</time>
      </trkpt>
      <trkpt lat="45.5252" lon="6.66895">
        <ele>1552.6906183214</ele>
        <time>2013-07-27T05:34:30Z</time>
      </trkpt>
      <trkpt lat="45.52516" lon="6.6691">
        <ele>1553</ele>
        <time>2013-07-27T05:34:36Z</time>
      </trkpt>
      <trkpt lat="45.52511" lon="6.66936">
        <ele>1556.808</ele>
        <time>2013-07-27T05:35:05Z</time>
      </trkpt>
      <trkpt lat="45.52509" lon="6.66949">
        <ele>1556.508</ele>
        <time>2013-07-27T05:35:08Z</time>
      </trkpt>
      <trkpt lat="45.52508" lon="6.66962">
        <ele>1556.208</ele>
        <time>2013-07-27T05:35:11Z</time>
      </trkpt>
      <trkpt lat="45.52507" lon="6.66976">
        <ele>1555.7455101027</ele>
        <time>2013-07-27T05:35:14Z</time>
      </trkpt>
      <trkpt lat="45.52504" lon="6.6699">
        <ele>1554.8473070836</ele>
        <time>2013-07-27T05:35:17Z</time>
      </trkpt>
      <trkpt lat="45.52497" lon="6.67015">
        <ele>1553.0509010453</ele>
        <time>2013-07-27T05:35:23Z</time>
      </trkpt>
      <trkpt lat="45.52495" lon="6.67028">
        <ele>1550.949705057</ele>
        <time>2013-07-27T05:35:26Z</time>
      </trkpt>
      <trkpt lat="45.52492" lon="6.6704">
        <ele>1548.8786978327</ele>
        <time>2013-07-27T05:35:29Z</time>
      </trkpt>
      <trkpt lat="45.52489" lon="6.67058">
        <ele>1546.117354867</ele>
        <time>2013-07-27T05:35:33Z</time>
      </trkpt>
      <trkpt lat="45.52487" lon="6.67072">
        <ele>1544.8455284553</ele>
        <time>2013-07-27T05:35:36Z</time>
      </trkpt>
      <trkpt lat="45.52479" lon="6.67096">
        <ele>1542.4105678049</ele>
        <time>2013-07-27T05:35:42Z</time>
      </trkpt>
      <trkpt lat="45.52477" lon="6.6711">
        <ele>1541.6051580952</ele>
        <time>2013-07-27T05:35:45Z</time>
      </trkpt>
      <trkpt lat="45.52478" lon="6.67123">
        <ele>1541.00992</ele>
        <time>2013-07-27T05:35:48Z</time>
      </trkpt>
      <trkpt lat="45.52488" lon="6.6714">
        <ele>1540.0178565079</ele>
        <time>2013-07-27T05:35:53Z</time>
      </trkpt>
      <trkpt lat="45.52515" lon="6.67221">
        <ele>1531.016</ele>
        <time>2013-07-27T05:36:13Z</time>
      </trkpt>
      <trkpt lat="45.5252" lon="6.67243">
        <ele>1530.5045315624</ele>
        <time>2013-07-27T05:36:18Z</time>
      </trkpt>
      <trkpt lat="45.52521" lon="6.67256">
        <ele>1530.2024166614</ele>
        <time>2013-07-27T05:36:21Z</time>
      </trkpt>
      <trkpt lat="45.5252" lon="6.6727">
        <ele>1529.8013970131</ele>
        <time>2013-07-27T05:36:25Z</time>
      </trkpt>
      <trkpt lat="45.52533" lon="6.67297">
        <ele>1529.6192395153</ele>
        <time>2013-07-27T05:36:45Z</time>
      </trkpt>
      <trkpt lat="45.52538" lon="6.67305">
        <ele>1529.2184376551</ele>
        <time>2013-07-27T05:36:47Z</time>
      </trkpt>
      <trkpt lat="45.52543" lon="6.67313">
        <ele>1528.8176357949</ele>
        <time>2013-07-27T05:36:49Z</time>
      </trkpt>
      <trkpt lat="45.52546" lon="6.67322">
        <ele>1528.4168339346</ele>
        <time>2013-07-27T05:36:51Z</time>
      </trkpt>
      <trkpt lat="45.5255" lon="6.67336">
        <ele>1527.70299904</ele>
        <time>2013-07-27T05:36:54Z</time>
      </trkpt>
      <trkpt lat="45.52555" lon="6.67358">
        <ele>1526.20299904</ele>
        <time>2013-07-27T05:36:59Z</time>
      </trkpt>
      <trkpt lat="45.52554" lon="6.67366">
        <ele>1525.60299904</ele>
        <time>2013-07-27T05:37:01Z</time>
      </trkpt>
      <trkpt lat="45.52544" lon="6.67384">
        <ele>1525.876</ele>
        <time>2013-07-27T05:37:06Z</time>
      </trkpt>
      <trkpt lat="45.52532" lon="6.67397">
        <ele>1527.376</ele>
        <time>2013-07-27T05:37:11Z</time>
      </trkpt>
      <trkpt lat="45.52521" lon="6.67402">
        <ele>1528.39800064</ele>
        <time>2013-07-27T05:37:15Z</time>
      </trkpt>
      <trkpt lat="45.52503" lon="6.67419">
        <ele>1530.2943518872</ele>
        <time>2013-07-27T05:37:24Z</time>
      </trkpt>
      <trkpt lat="45.52497" lon="6.6743">
        <ele>1531.7809727749</ele>
        <time>2013-07-27T05:37:29Z</time>
      </trkpt>
      <trkpt lat="45.52493" lon="6.67444">
        <ele>1533.7870847912</ele>
        <time>2013-07-27T05:37:37Z</time>
      </trkpt>
      <trkpt lat="45.52487" lon="6.67452">
        <ele>1534.997982483</ele>
        <time>2013-07-27T05:37:43Z</time>
      </trkpt>
      <trkpt lat="45.52478" lon="6.6746">
        <ele>1536.19800064</ele>
        <time>2013-07-27T05:37:49Z</time>
      </trkpt>
      <trkpt lat="45.5244" lon="6.67506">
        <ele>1542.5880047474</ele>
        <time>2013-07-27T05:38:26Z</time>
      </trkpt>
      <trkpt lat="45.52431" lon="6.67512">
        <ele>1543.9646030174</ele>
        <time>2013-07-27T05:38:33Z</time>
      </trkpt>
      <trkpt lat="45.52424" lon="6.6752">
        <ele>1548.81200128</ele>
        <time>2013-07-27T05:38:45Z</time>
      </trkpt>
      <trkpt lat="45.52405" lon="6.67533">
        <ele>1552.40300032</ele>
        <time>2013-07-27T05:38:57Z</time>
      </trkpt>
      <trkpt lat="45.52396" lon="6.67541">
        <ele>1552.80300032</ele>
        <time>2013-07-27T05:39:01Z</time>
      </trkpt>
      <trkpt lat="45.52388" lon="6.67546">
        <ele>1553.41999872</ele>
        <time>2013-07-27T05:39:05Z</time>
      </trkpt>
      <trkpt lat="45.5238" lon="6.67553">
        <ele>1554.21999872</ele>
        <time>2013-07-27T05:39:09Z</time>
      </trkpt>
      <trkpt lat="45.5237" lon="6.67563">
        <ele>1555.20599808</ele>
        <time>2013-07-27T05:39:14Z</time>
      </trkpt>
      <trkpt lat="45.5235" lon="6.67572">
        <ele>1556.80599808</ele>
        <time>2013-07-27T05:39:22Z</time>
      </trkpt>
      <trkpt lat="45.52341" lon="6.6757">
        <ele>1557.9253715185</ele>
        <time>2013-07-27T05:39:26Z</time>
      </trkpt>
      <trkpt lat="45.52332" lon="6.67573">
        <ele>1559.1194017495</ele>
        <time>2013-07-27T05:39:30Z</time>
      </trkpt>
      <trkpt lat="45.5234" lon="6.67577">
        <ele>1561.7690756627</ele>
        <time>2013-07-27T05:39:42Z</time>
      </trkpt>
      <trkpt lat="45.52348" lon="6.67571">
        <ele>1562.29900032</ele>
        <time>2013-07-27T05:39:46Z</time>
      </trkpt>
      <trkpt lat="45.52359" lon="6.67561">
        <ele>1562.89900032</ele>
        <time>2013-07-27T05:39:52Z</time>
      </trkpt>
      <trkpt lat="45.52364" lon="6.67554">
        <ele>1563.19900032</ele>
        <time>2013-07-27T05:39:55Z</time>
      </trkpt>
      <trkpt lat="45.52369" lon="6.67544">
        <ele>1563.59900032</ele>
        <time>2013-07-27T05:39:59Z</time>
      </trkpt>
      <trkpt lat="45.52371" lon="6.67529">
        <ele>1564.18899968</ele>
        <time>2013-07-27T05:40:05Z</time>
      </trkpt>
      <trkpt lat="45.5237" lon="6.67514">
        <ele>1564.68899968</ele>
        <time>2013-07-27T05:40:10Z</time>
      </trkpt>
      <trkpt lat="45.52351" lon="6.67501">
        <ele>1566.39800064</ele>
        <time>2013-07-27T05:40:20Z</time>
      </trkpt>
      <trkpt lat="45.52321" lon="6.67522">
        <ele>1569.5811614148</ele>
        <time>2013-07-27T05:40:36Z</time>
      </trkpt>
      <trkpt lat="45.52316" lon="6.6753">
        <ele>1570.1823642051</ele>
        <time>2013-07-27T05:40:39Z</time>
      </trkpt>
      <trkpt lat="45.52297" lon="6.6756">
        <ele>1571</ele>
        <time>2013-07-27T05:40:51Z</time>
      </trkpt>
      <trkpt lat="45.52291" lon="6.67568">
        <ele>1571</ele>
        <time>2013-07-27T05:40:55Z</time>
      </trkpt>
      <trkpt lat="45.52283" lon="6.67587">
        <ele>1571</ele>
        <time>2013-07-27T05:41:02Z</time>
      </trkpt>
      <trkpt lat="45.52281" lon="6.67604">
        <ele>1571.39900032</ele>
        <time>2013-07-27T05:41:07Z</time>
      </trkpt>
      <trkpt lat="45.52283" lon="6.67629">
        <ele>1572.092</ele>
        <time>2013-07-27T05:41:14Z</time>
      </trkpt>
      <trkpt lat="45.52291" lon="6.67669">
        <ele>1573.3982036578</ele>
        <time>2013-07-27T05:41:27Z</time>
      </trkpt>
      <trkpt lat="45.52302" lon="6.67689">
        <ele>1574</ele>
        <time>2013-07-27T05:41:34Z</time>
      </trkpt>
      <trkpt lat="45.52314" lon="6.677">
        <ele>1574</ele>
        <time>2013-07-27T05:41:40Z</time>
      </trkpt>
      <trkpt lat="45.52327" lon="6.67709">
        <ele>1574.292</ele>
        <time>2013-07-27T05:41:46Z</time>
      </trkpt>
      <trkpt lat="45.52333" lon="6.67714">
        <ele>1574.592</ele>
        <time>2013-07-27T05:41:49Z</time>
      </trkpt>
      <trkpt lat="45.52351" lon="6.67738">
        <ele>1573.60199936</ele>
        <time>2013-07-27T05:42:00Z</time>
      </trkpt>
      <trkpt lat="45.52347" lon="6.67761">
        <ele>1573.49900032</ele>
        <time>2013-07-27T05:42:08Z</time>
      </trkpt>
      <trkpt lat="45.52335" lon="6.67773">
        <ele>1574.1962345915</ele>
        <time>2013-07-27T05:42:14Z</time>
      </trkpt>
      <trkpt lat="45.52316" lon="6.67769">
        <ele>1576.3826796703</ele>
        <time>2013-07-27T05:42:25Z</time>
      </trkpt>
      <trkpt lat="45.52302" lon="6.6775">
        <ele>1578.0825861358</ele>
        <time>2013-07-27T05:42:34Z</time>
      </trkpt>
      <trkpt lat="45.52278" lon="6.67722">
        <ele>1578.978108809</ele>
        <time>2013-07-27T05:42:43Z</time>
      </trkpt>
      <trkpt lat="45.52266" lon="6.67719">
        <ele>1580.1923468092</ele>
        <time>2013-07-27T05:42:49Z</time>
      </trkpt>
      <trkpt lat="45.52246" lon="6.67776">
        <ele>1586.784</ele>
        <time>2013-07-27T05:43:17Z</time>
      </trkpt>
      <trkpt lat="45.52241" lon="6.678">
        <ele>1590.0928139926</ele>
        <time>2013-07-27T05:43:30Z</time>
      </trkpt>
      <trkpt lat="45.52234" lon="6.67808">
        <ele>1592.4729449125</ele>
        <time>2013-07-27T05:43:38Z</time>
      </trkpt>
      <trkpt lat="45.52222" lon="6.67821">
        <ele>1594.292</ele>
        <time>2013-07-27T05:43:46Z</time>
      </trkpt>
      <trkpt lat="45.52215" lon="6.67829">
        <ele>1594.892</ele>
        <time>2013-07-27T05:43:52Z</time>
      </trkpt>
      <trkpt lat="45.52207" lon="6.67832">
        <ele>1596.49700096</ele>
        <time>2013-07-27T05:43:58Z</time>
      </trkpt>
      <trkpt lat="45.5219" lon="6.67842">
        <ele>1599.808</ele>
        <time>2013-07-27T05:44:12Z</time>
      </trkpt>
      <trkpt lat="45.52184" lon="6.67853">
        <ele>1601.39800064</ele>
        <time>2013-07-27T05:44:20Z</time>
      </trkpt>
      <trkpt lat="45.52178" lon="6.67871">
        <ele>1602.9752233024</ele>
        <time>2013-07-27T05:44:28Z</time>
      </trkpt>
      <trkpt lat="45.52173" lon="6.67885">
        <ele>1604.9747732877</ele>
        <time>2013-07-27T05:44:38Z</time>
      </trkpt>
      <trkpt lat="45.52168" lon="6.67894">
        <ele>1606.276</ele>
        <time>2013-07-27T05:44:44Z</time>
      </trkpt>
      <trkpt lat="45.52143" lon="6.67905">
        <ele>1610.79800064</ele>
        <time>2013-07-27T05:45:02Z</time>
      </trkpt>
      <trkpt lat="45.52135" lon="6.67892">
        <ele>1612.1956086575</ele>
        <time>2013-07-27T05:45:09Z</time>
      </trkpt>
      <trkpt lat="45.52133" lon="6.67873">
        <ele>1613.3807604847</ele>
        <time>2013-07-27T05:45:15Z</time>
      </trkpt>
      <trkpt lat="45.52135" lon="6.67857">
        <ele>1614.3827651352</ele>
        <time>2013-07-27T05:45:20Z</time>
      </trkpt>
      <trkpt lat="45.52138" lon="6.67843">
        <ele>1615.0988026515</ele>
        <time>2013-07-27T05:45:24Z</time>
      </trkpt>
      <trkpt lat="45.52142" lon="6.67817">
        <ele>1615.8972053351</ele>
        <time>2013-07-27T05:45:32Z</time>
      </trkpt>
      <trkpt lat="45.52142" lon="6.67803">
        <ele>1616</ele>
        <time>2013-07-27T05:45:36Z</time>
      </trkpt>
      <trkpt lat="45.52141" lon="6.6779">
        <ele>1616</ele>
        <time>2013-07-27T05:45:39Z</time>
      </trkpt>
      <trkpt lat="45.52131" lon="6.67745">
        <ele>1617.7977985032</ele>
        <time>2013-07-27T05:45:52Z</time>
      </trkpt>
      <trkpt lat="45.52123" lon="6.67737">
        <ele>1618.29900032</ele>
        <time>2013-07-27T05:45:56Z</time>
      </trkpt>
      <trkpt lat="45.52114" lon="6.67734">
        <ele>1618.69900032</ele>
        <time>2013-07-27T05:46:00Z</time>
      </trkpt>
      <trkpt lat="45.52104" lon="6.67741">
        <ele>1619.19900032</ele>
        <time>2013-07-27T05:46:05Z</time>
      </trkpt>
      <trkpt lat="45.52099" lon="6.67766">
        <ele>1619.99900032</ele>
        <time>2013-07-27T05:46:13Z</time>
      </trkpt>
      <trkpt lat="45.52101" lon="6.67803">
        <ele>1624.367263957</ele>
        <time>2013-07-27T05:46:30Z</time>
      </trkpt>
      <trkpt lat="45.521" lon="6.67821">
        <ele>1625.7807802498</ele>
        <time>2013-07-27T05:46:37Z</time>
      </trkpt>
      <trkpt lat="45.52099" lon="6.67835">
        <ele>1626.5815818201</ele>
        <time>2013-07-27T05:46:41Z</time>
      </trkpt>
      <trkpt lat="45.52096" lon="6.67847">
        <ele>1627.3963975507</ele>
        <time>2013-07-27T05:46:45Z</time>
      </trkpt>
      <trkpt lat="45.52094" lon="6.6786">
        <ele>1628.3973982311</ele>
        <time>2013-07-27T05:46:50Z</time>
      </trkpt>
      <trkpt lat="45.52092" lon="6.67899">
        <ele>1631.96600064</ele>
        <time>2013-07-27T05:47:08Z</time>
      </trkpt>
      <trkpt lat="45.52091" lon="6.67914">
        <ele>1633.584</ele>
        <time>2013-07-27T05:47:16Z</time>
      </trkpt>
      <trkpt lat="45.5209" lon="6.67926">
        <ele>1634.784</ele>
        <time>2013-07-27T05:47:22Z</time>
      </trkpt>
      <trkpt lat="45.52088" lon="6.67939">
        <ele>1635.9680626152</ele>
        <time>2013-07-27T05:47:28Z</time>
      </trkpt>
      <trkpt lat="45.52085" lon="6.67951">
        <ele>1637.5805798572</ele>
        <time>2013-07-27T05:47:36Z</time>
      </trkpt>
      <trkpt lat="45.52075" lon="6.67974">
        <ele>1640.5975983671</ele>
        <time>2013-07-27T05:47:51Z</time>
      </trkpt>
      <trkpt lat="45.52063" lon="6.67977">
        <ele>1641.6976046642</ele>
        <time>2013-07-27T05:48:00Z</time>
      </trkpt>
      <trkpt lat="45.52058" lon="6.67956">
        <ele>1643.7835669955</ele>
        <time>2013-07-27T05:48:12Z</time>
      </trkpt>
      <trkpt lat="45.52058" lon="6.67944">
        <ele>1645.1804750646</ele>
        <time>2013-07-27T05:48:17Z</time>
      </trkpt>
      <trkpt lat="45.52051" lon="6.67888">
        <ele>1652.584</ele>
        <time>2013-07-27T05:48:51Z</time>
      </trkpt>
      <trkpt lat="45.52049" lon="6.67872">
        <ele>1653.99800064</ele>
        <time>2013-07-27T05:48:58Z</time>
      </trkpt>
      <trkpt lat="45.52049" lon="6.67861">
        <ele>1654.99800064</ele>
        <time>2013-07-27T05:49:03Z</time>
      </trkpt>
      <trkpt lat="45.52046" lon="6.67848">
        <ele>1656.1873151833</ele>
        <time>2013-07-27T05:49:09Z</time>
      </trkpt>
      <trkpt lat="45.52043" lon="6.67818">
        <ele>1657.7870847912</ele>
        <time>2013-07-27T05:49:17Z</time>
      </trkpt>
      <trkpt lat="45.52041" lon="6.67804">
        <ele>1658.5943499191</ele>
        <time>2013-07-27T05:49:21Z</time>
      </trkpt>
      <trkpt lat="45.52038" lon="6.6779">
        <ele>1659.3692606025</ele>
        <time>2013-07-27T05:49:25Z</time>
      </trkpt>
      <trkpt lat="45.52028" lon="6.67781">
        <ele>1660.367263957</ele>
        <time>2013-07-27T05:49:30Z</time>
      </trkpt>
      <trkpt lat="45.52018" lon="6.67779">
        <ele>1661.5701465696</ele>
        <time>2013-07-27T05:49:35Z</time>
      </trkpt>
      <trkpt lat="45.52018" lon="6.67825">
        <ele>1665.1923468092</ele>
        <time>2013-07-27T05:49:49Z</time>
      </trkpt>
      <trkpt lat="45.52024" lon="6.67847">
        <ele>1666.56999936</ele>
        <time>2013-07-27T05:49:56Z</time>
      </trkpt>
      <trkpt lat="45.52027" lon="6.67859">
        <ele>1667.36999936</ele>
        <time>2013-07-27T05:50:00Z</time>
      </trkpt>
      <trkpt lat="45.52028" lon="6.67871">
        <ele>1668.184</ele>
        <time>2013-07-27T05:50:04Z</time>
      </trkpt>
      <trkpt lat="45.52027" lon="6.67882">
        <ele>1668.984</ele>
        <time>2013-07-27T05:50:08Z</time>
      </trkpt>
      <trkpt lat="45.52019" lon="6.67919">
        <ele>1671.0918163086</ele>
        <time>2013-07-27T05:50:24Z</time>
      </trkpt>
      <trkpt lat="45.52012" lon="6.67937">
        <ele>1672.1610332635</ele>
        <time>2013-07-27T05:50:34Z</time>
      </trkpt>
      <trkpt lat="45.52005" lon="6.67957">
        <ele>1673.9502988153</ele>
        <time>2013-07-27T05:50:43Z</time>
      </trkpt>
      <trkpt lat="45.51998" lon="6.67975">
        <ele>1675.3806204613</ele>
        <time>2013-07-27T05:50:50Z</time>
      </trkpt>
      <trkpt lat="45.51994" lon="6.67998">
        <ele>1677.1342690922</ele>
        <time>2013-07-27T05:50:56Z</time>
      </trkpt>
      <trkpt lat="45.51987" lon="6.68083">
        <ele>1683</ele>
        <time>2013-07-27T05:51:21Z</time>
      </trkpt>
      <trkpt lat="45.51984" lon="6.68085">
        <ele>1683</ele>
        <time>2013-07-27T05:51:45Z</time>
      </trkpt>
      <trkpt lat="45.51973" lon="6.68083">
        <ele>1684</ele>
        <time>2013-07-27T05:52:18Z</time>
      </trkpt>
      <trkpt lat="45.51966" lon="6.68055">
        <ele>1683.9011973485</ele>
        <time>2013-07-27T05:52:24Z</time>
      </trkpt>
      <trkpt lat="45.5197" lon="6.68035">
        <ele>1683.5019960067</ele>
        <time>2013-07-27T05:52:28Z</time>
      </trkpt>
      <trkpt lat="45.51975" lon="6.68018">
        <ele>1683.1017969809</ele>
        <time>2013-07-27T05:52:32Z</time>
      </trkpt>
      <trkpt lat="45.51978" lon="6.67999">
        <ele>1682.7094192926</ele>
        <time>2013-07-27T05:52:36Z</time>
      </trkpt>
      <trkpt lat="45.51981" lon="6.6798">
        <ele>1682.3086174324</ele>
        <time>2013-07-27T05:52:40Z</time>
      </trkpt>
      <trkpt lat="45.5199" lon="6.67941">
        <ele>1680.5119265285</ele>
        <time>2013-07-27T05:52:48Z</time>
      </trkpt>
      <trkpt lat="45.51995" lon="6.67923">
        <ele>1679.3190828272</ele>
        <time>2013-07-27T05:52:52Z</time>
      </trkpt>
      <trkpt lat="45.51999" lon="6.67896">
        <ele>1677.9869086934</ele>
        <time>2013-07-27T05:52:58Z</time>
      </trkpt>
      <trkpt lat="45.52003" lon="6.6787">
        <ele>1676.79400192</ele>
        <time>2013-07-27T05:53:04Z</time>
      </trkpt>
      <trkpt lat="45.52002" lon="6.67853">
        <ele>1675.99400192</ele>
        <time>2013-07-27T05:53:08Z</time>
      </trkpt>
      <trkpt lat="45.51997" lon="6.67821">
        <ele>1674.58000128</ele>
        <time>2013-07-27T05:53:15Z</time>
      </trkpt>
      <trkpt lat="45.51998" lon="6.67805">
        <ele>1673.98000128</ele>
        <time>2013-07-27T05:53:18Z</time>
      </trkpt>
      <trkpt lat="45.52" lon="6.6779">
        <ele>1673.38000128</ele>
        <time>2013-07-27T05:53:21Z</time>
      </trkpt>
      <trkpt lat="45.52002" lon="6.67771">
        <ele>1672.5808393331</ele>
        <time>2013-07-27T05:53:25Z</time>
      </trkpt>
      <trkpt lat="45.52004" lon="6.67758">
        <ele>1671.9820365554</ele>
        <time>2013-07-27T05:53:28Z</time>
      </trkpt>
      <trkpt lat="45.5201" lon="6.67723">
        <ele>1670.69900032</ele>
        <time>2013-07-27T05:53:36Z</time>
      </trkpt>
      <trkpt lat="45.52011" lon="6.67678">
        <ele>1670</ele>
        <time>2013-07-27T05:53:46Z</time>
      </trkpt>
      <trkpt lat="45.5201" lon="6.67662">
        <ele>1670</ele>
        <time>2013-07-27T05:53:50Z</time>
      </trkpt>
      <trkpt lat="45.52002" lon="6.67634">
        <ele>1669.18000128</ele>
        <time>2013-07-27T05:53:57Z</time>
      </trkpt>
      <trkpt lat="45.51995" lon="6.67624">
        <ele>1668.57800192</ele>
        <time>2013-07-27T05:54:00Z</time>
      </trkpt>
      <trkpt lat="45.51986" lon="6.67618">
        <ele>1667.99699968</ele>
        <time>2013-07-27T05:54:03Z</time>
      </trkpt>
      <trkpt lat="45.51979" lon="6.67603">
        <ele>1667.59699968</ele>
        <time>2013-07-27T05:54:07Z</time>
      </trkpt>
      <trkpt lat="45.51981" lon="6.67583">
        <ele>1667.19699968</ele>
        <time>2013-07-27T05:54:11Z</time>
      </trkpt>
      <trkpt lat="45.52" lon="6.67554">
        <ele>1666.29000064</ele>
        <time>2013-07-27T05:54:20Z</time>
      </trkpt>
      <trkpt lat="45.52014" lon="6.67544">
        <ele>1666</ele>
        <time>2013-07-27T05:54:25Z</time>
      </trkpt>
      <trkpt lat="45.52025" lon="6.6754">
        <ele>1666</ele>
        <time>2013-07-27T05:54:28Z</time>
      </trkpt>
      <trkpt lat="45.52034" lon="6.67535">
        <ele>1666</ele>
        <time>2013-07-27T05:54:31Z</time>
      </trkpt>
      <trkpt lat="45.52045" lon="6.67527">
        <ele>1665.7985963616</ele>
        <time>2013-07-27T05:54:35Z</time>
      </trkpt>
      <trkpt lat="45.52068" lon="6.675">
        <ele>1664.67000192</ele>
        <time>2013-07-27T05:54:44Z</time>
      </trkpt>
      <trkpt lat="45.52073" lon="6.67487">
        <ele>1663.752</ele>
        <time>2013-07-27T05:54:47Z</time>
      </trkpt>
      <trkpt lat="45.52079" lon="6.67477">
        <ele>1662.87000192</ele>
        <time>2013-07-27T05:54:50Z</time>
      </trkpt>
      <trkpt lat="45.52089" lon="6.67459">
        <ele>1661.39099904</ele>
        <time>2013-07-27T05:54:55Z</time>
      </trkpt>
      <trkpt lat="45.521" lon="6.67438">
        <ele>1659.59099904</ele>
        <time>2013-07-27T05:55:01Z</time>
      </trkpt>
      <trkpt lat="45.5213" lon="6.67397">
        <ele>1656.99000064</ele>
        <time>2013-07-27T05:55:13Z</time>
      </trkpt>
      <trkpt lat="45.52142" lon="6.67376">
        <ele>1656.39000064</ele>
        <time>2013-07-27T05:55:19Z</time>
      </trkpt>
      <trkpt lat="45.52159" lon="6.67329">
        <ele>1655.1972253549</ele>
        <time>2013-07-27T05:55:31Z</time>
      </trkpt>
      <trkpt lat="45.52173" lon="6.67284">
        <ele>1654.00199936</ele>
        <time>2013-07-27T05:55:43Z</time>
      </trkpt>
      <trkpt lat="45.52182" lon="6.67262">
        <ele>1655.40199936</ele>
        <time>2013-07-27T05:55:50Z</time>
      </trkpt>
      <trkpt lat="45.52195" lon="6.67241">
        <ele>1656</ele>
        <time>2013-07-27T05:55:58Z</time>
      </trkpt>
      <trkpt lat="45.52207" lon="6.67229">
        <ele>1656.0029559831</ele>
        <time>2013-07-27T05:56:03Z</time>
      </trkpt>
      <trkpt lat="45.52215" lon="6.67221">
        <ele>1656.298521504</ele>
        <time>2013-07-27T05:56:06Z</time>
      </trkpt>
      <trkpt lat="45.52229" lon="6.67203">
        <ele>1657</ele>
        <time>2013-07-27T05:56:13Z</time>
      </trkpt>
      <trkpt lat="45.52235" lon="6.67196">
        <ele>1657.3005073213</ele>
        <time>2013-07-27T05:56:16Z</time>
      </trkpt>
      <trkpt lat="45.5224" lon="6.67192">
        <ele>1657.5025379062</ele>
        <time>2013-07-27T05:56:18Z</time>
      </trkpt>
      <trkpt lat="45.52246" lon="6.67187">
        <ele>1657.8071061372</ele>
        <time>2013-07-27T05:56:21Z</time>
      </trkpt>
      <trkpt lat="45.52253" lon="6.67181">
        <ele>1658.2191222311</ele>
        <time>2013-07-27T05:56:24Z</time>
      </trkpt>
      <trkpt lat="45.52276" lon="6.67161">
        <ele>1660.1997995181</ele>
        <time>2013-07-27T05:56:35Z</time>
      </trkpt>
      <trkpt lat="45.52283" lon="6.67147">
        <ele>1660.7018062651</ele>
        <time>2013-07-27T05:56:40Z</time>
      </trkpt>
      <trkpt lat="45.52285" lon="6.67137">
        <ele>1661.00999936</ele>
        <time>2013-07-27T05:56:43Z</time>
      </trkpt>
      <trkpt lat="45.52286" lon="6.67126">
        <ele>1661.30999936</ele>
        <time>2013-07-27T05:56:46Z</time>
      </trkpt>
      <trkpt lat="45.52289" lon="6.67115">
        <ele>1661.60999936</ele>
        <time>2013-07-27T05:56:49Z</time>
      </trkpt>
      <trkpt lat="45.52294" lon="6.67101">
        <ele>1662.00600064</ele>
        <time>2013-07-27T05:56:53Z</time>
      </trkpt>
      <trkpt lat="45.52297" lon="6.6709">
        <ele>1662.60599808</ele>
        <time>2013-07-27T05:56:56Z</time>
      </trkpt>
      <trkpt lat="45.52299" lon="6.6708">
        <ele>1663.20600064</ele>
        <time>2013-07-27T05:56:59Z</time>
      </trkpt>
      <trkpt lat="45.523" lon="6.67032">
        <ele>1666.10999936</ele>
        <time>2013-07-27T05:57:14Z</time>
      </trkpt>
      <trkpt lat="45.52301" lon="6.67015">
        <ele>1666.60999936</ele>
        <time>2013-07-27T05:57:19Z</time>
      </trkpt>
      <trkpt lat="45.52299" lon="6.66999">
        <ele>1667.219559741</ele>
        <time>2013-07-27T05:57:24Z</time>
      </trkpt>
      <trkpt lat="45.52297" lon="6.66983">
        <ele>1668.2175643705</ele>
        <time>2013-07-27T05:57:29Z</time>
      </trkpt>
      <trkpt lat="45.52295" lon="6.66966">
        <ele>1669.1012020193</ele>
        <time>2013-07-27T05:57:34Z</time>
      </trkpt>
      <trkpt lat="45.52291" lon="6.66933">
        <ele>1670.20599808</ele>
        <time>2013-07-27T05:57:44Z</time>
      </trkpt>
      <trkpt lat="45.52292" lon="6.66918">
        <ele>1671.00599808</ele>
        <time>2013-07-27T05:57:48Z</time>
      </trkpt>
      <trkpt lat="45.52296" lon="6.66907">
        <ele>1671.60600064</ele>
        <time>2013-07-27T05:57:51Z</time>
      </trkpt>
      <trkpt lat="45.52299" lon="6.66897">
        <ele>1672.10299904</ele>
        <time>2013-07-27T05:57:54Z</time>
      </trkpt>
      <trkpt lat="45.52303" lon="6.66888">
        <ele>1672.50299904</ele>
        <time>2013-07-27T05:57:58Z</time>
      </trkpt>
      <trkpt lat="45.52307" lon="6.66864">
        <ele>1673</ele>
        <time>2013-07-27T05:58:17Z</time>
      </trkpt>
      <trkpt lat="45.52312" lon="6.66847">
        <ele>1673</ele>
        <time>2013-07-27T05:58:22Z</time>
      </trkpt>
      <trkpt lat="45.52314" lon="6.66827">
        <ele>1673</ele>
        <time>2013-07-27T05:58:28Z</time>
      </trkpt>
      <trkpt lat="45.52314" lon="6.66806">
        <ele>1673.100299651</ele>
        <time>2013-07-27T05:58:34Z</time>
      </trkpt>
      <trkpt lat="45.52313" lon="6.66786">
        <ele>1673.7021052605</ele>
        <time>2013-07-27T05:58:40Z</time>
      </trkpt>
      <trkpt lat="45.52315" lon="6.66737">
        <ele>1675.10299904</ele>
        <time>2013-07-27T05:58:54Z</time>
      </trkpt>
      <trkpt lat="45.52313" lon="6.66717">
        <ele>1675.60300032</ele>
        <time>2013-07-27T05:58:59Z</time>
      </trkpt>
      <trkpt lat="45.52312" lon="6.66697">
        <ele>1676.20599808</ele>
        <time>2013-07-27T05:59:04Z</time>
      </trkpt>
      <trkpt lat="45.52305" lon="6.6668">
        <ele>1677.16599808</ele>
        <time>2013-07-27T05:59:09Z</time>
      </trkpt>
      <trkpt lat="45.52284" lon="6.6664">
        <ele>1678</ele>
        <time>2013-07-27T05:59:22Z</time>
      </trkpt>
      <trkpt lat="45.5228" lon="6.66631">
        <ele>1678</ele>
        <time>2013-07-27T05:59:25Z</time>
      </trkpt>
      <trkpt lat="45.52275" lon="6.66624">
        <ele>1678</ele>
        <time>2013-07-27T05:59:28Z</time>
      </trkpt>
      <trkpt lat="45.5227" lon="6.66617">
        <ele>1678</ele>
        <time>2013-07-27T05:59:31Z</time>
      </trkpt>
      <trkpt lat="45.5226" lon="6.66603">
        <ele>1678.7753471334</ele>
        <time>2013-07-27T05:59:37Z</time>
      </trkpt>
      <trkpt lat="45.52254" lon="6.66595">
        <ele>1679.371768984</ele>
        <time>2013-07-27T05:59:40Z</time>
      </trkpt>
      <trkpt lat="45.5225" lon="6.66587">
        <ele>1679.9681908346</ele>
        <time>2013-07-27T05:59:43Z</time>
      </trkpt>
      <trkpt lat="45.52247" lon="6.66574">
        <ele>1680.7883070968</ele>
        <time>2013-07-27T05:59:47Z</time>
      </trkpt>
      <trkpt lat="45.52242" lon="6.66562">
        <ele>1681.5947587097</ele>
        <time>2013-07-27T05:59:51Z</time>
      </trkpt>
      <trkpt lat="45.52228" lon="6.66548">
        <ele>1682.49699968</ele>
        <time>2013-07-27T05:59:58Z</time>
      </trkpt>
      <trkpt lat="45.52222" lon="6.66542">
        <ele>1682.79699968</ele>
        <time>2013-07-27T06:00:01Z</time>
      </trkpt>
      <trkpt lat="45.52216" lon="6.66536">
        <ele>1683.19800064</ele>
        <time>2013-07-27T06:00:04Z</time>
      </trkpt>
      <trkpt lat="45.5221" lon="6.6653">
        <ele>1683.79800064</ele>
        <time>2013-07-27T06:00:07Z</time>
      </trkpt>
      <trkpt lat="45.52205" lon="6.66523">
        <ele>1684.39800064</ele>
        <time>2013-07-27T06:00:10Z</time>
      </trkpt>
      <trkpt lat="45.52193" lon="6.66511">
        <ele>1685</ele>
        <time>2013-07-27T06:00:16Z</time>
      </trkpt>
      <trkpt lat="45.52186" lon="6.66506">
        <ele>1685</ele>
        <time>2013-07-27T06:00:19Z</time>
      </trkpt>
      <trkpt lat="45.5218" lon="6.66503">
        <ele>1685</ele>
        <time>2013-07-27T06:00:22Z</time>
      </trkpt>
      <trkpt lat="45.52173" lon="6.66499">
        <ele>1685.1986029869</ele>
        <time>2013-07-27T06:00:25Z</time>
      </trkpt>
      <trkpt lat="45.52165" lon="6.6649">
        <ele>1685.5978043288</ele>
        <time>2013-07-27T06:00:29Z</time>
      </trkpt>
      <trkpt lat="45.52149" lon="6.66451">
        <ele>1689.292</ele>
        <time>2013-07-27T06:00:56Z</time>
      </trkpt>
      <trkpt lat="45.52145" lon="6.66442">
        <ele>1689.992</ele>
        <time>2013-07-27T06:01:03Z</time>
      </trkpt>
      <trkpt lat="45.52141" lon="6.66436">
        <ele>1690.79800064</ele>
        <time>2013-07-27T06:01:07Z</time>
      </trkpt>
      <trkpt lat="45.52133" lon="6.66421">
        <ele>1692.79800064</ele>
        <time>2013-07-27T06:01:17Z</time>
      </trkpt>
      <trkpt lat="45.52128" lon="6.66415">
        <ele>1693.79800064</ele>
        <time>2013-07-27T06:01:22Z</time>
      </trkpt>
      <trkpt lat="45.52122" lon="6.66407">
        <ele>1694.5908179859</ele>
        <time>2013-07-27T06:01:29Z</time>
      </trkpt>
      <trkpt lat="45.52118" lon="6.66405">
        <ele>1694.8902189923</ele>
        <time>2013-07-27T06:01:32Z</time>
      </trkpt>
      <trkpt lat="45.52111" lon="6.664">
        <ele>1695.4844525527</ele>
        <time>2013-07-27T06:01:38Z</time>
      </trkpt>
      <trkpt lat="45.52102" lon="6.66395">
        <ele>1696.9990013184</ele>
        <time>2013-07-27T06:01:48Z</time>
      </trkpt>
      <trkpt lat="45.52094" lon="6.66392">
        <ele>1698.09000064</ele>
        <time>2013-07-27T06:01:54Z</time>
      </trkpt>
      <trkpt lat="45.52087" lon="6.6639">
        <ele>1698.69000064</ele>
        <time>2013-07-27T06:02:00Z</time>
      </trkpt>
      <trkpt lat="45.5208" lon="6.6639">
        <ele>1699.2984033224</ele>
        <time>2013-07-27T06:02:06Z</time>
      </trkpt>
      <trkpt lat="45.52073" lon="6.66387">
        <ele>1699.8972053351</ele>
        <time>2013-07-27T06:02:12Z</time>
      </trkpt>
      <trkpt lat="45.52061" lon="6.66382">
        <ele>1701.9839679256</ele>
        <time>2013-07-27T06:02:23Z</time>
      </trkpt>
      <trkpt lat="45.52056" lon="6.66378">
        <ele>1702.9960079866</ele>
        <time>2013-07-27T06:02:28Z</time>
      </trkpt>
      <trkpt lat="45.52051" lon="6.66375">
        <ele>1703.7944106702</ele>
        <time>2013-07-27T06:02:32Z</time>
      </trkpt>
      <trkpt lat="45.52047" lon="6.66371">
        <ele>1704.8657320181</ele>
        <time>2013-07-27T06:02:36Z</time>
      </trkpt>
      <trkpt lat="45.52043" lon="6.66366">
        <ele>1706.0681375988</ele>
        <time>2013-07-27T06:02:40Z</time>
      </trkpt>
      <trkpt lat="45.52035" lon="6.66355">
        <ele>1709.376</ele>
        <time>2013-07-27T06:02:51Z</time>
      </trkpt>
      <trkpt lat="45.52017" lon="6.66337">
        <ele>1714.59800064</ele>
        <time>2013-07-27T06:03:11Z</time>
      </trkpt>
      <trkpt lat="45.52009" lon="6.6633">
        <ele>1716.38000128</ele>
        <time>2013-07-27T06:03:20Z</time>
      </trkpt>
      <trkpt lat="45.51992" lon="6.66327">
        <ele>1720.7622845375</ele>
        <time>2013-07-27T06:03:35Z</time>
      </trkpt>
      <trkpt lat="45.51979" lon="6.66323">
        <ele>1724.60900096</ele>
        <time>2013-07-27T06:03:45Z</time>
      </trkpt>
      <trkpt lat="45.5197" lon="6.66322">
        <ele>1727.30899712</ele>
        <time>2013-07-27T06:03:54Z</time>
      </trkpt>
      <trkpt lat="45.5196" lon="6.6632">
        <ele>1730.32999808</ele>
        <time>2013-07-27T06:04:04Z</time>
      </trkpt>
      <trkpt lat="45.51951" lon="6.6632">
        <ele>1732.66999808</ele>
        <time>2013-07-27T06:04:12Z</time>
      </trkpt>
      <trkpt lat="45.51933" lon="6.66316">
        <ele>1735.957384486</ele>
        <time>2013-07-27T06:04:28Z</time>
      </trkpt>
      <trkpt lat="45.51921" lon="6.66314">
        <ele>1738.1584241668</ele>
        <time>2013-07-27T06:04:39Z</time>
      </trkpt>
      <trkpt lat="45.51913" lon="6.66305">
        <ele>1739.60599808</ele>
        <time>2013-07-27T06:04:46Z</time>
      </trkpt>
      <trkpt lat="45.51907" lon="6.66298">
        <ele>1740.76600064</ele>
        <time>2013-07-27T06:04:52Z</time>
      </trkpt>
      <trkpt lat="45.51898" lon="6.66291">
        <ele>1744.190427696</ele>
        <time>2013-07-27T06:05:01Z</time>
      </trkpt>
      <trkpt lat="45.51889" lon="6.66272">
        <ele>1746.5831660654</ele>
        <time>2013-07-27T06:05:11Z</time>
      </trkpt>
      <trkpt lat="45.51883" lon="6.66264">
        <ele>1748.19800064</ele>
        <time>2013-07-27T06:05:19Z</time>
      </trkpt>
      <trkpt lat="45.51878" lon="6.66246">
        <ele>1750.3855313017</ele>
        <time>2013-07-27T06:05:30Z</time>
      </trkpt>
      <trkpt lat="45.51876" lon="6.66238">
        <ele>1751.2512622398</ele>
        <time>2013-07-27T06:05:34Z</time>
      </trkpt>
      <trkpt lat="45.51869" lon="6.66228">
        <ele>1753.3703332003</ele>
        <time>2013-07-27T06:05:41Z</time>
      </trkpt>
      <trkpt lat="45.51856" lon="6.66214">
        <ele>1755.79800064</ele>
        <time>2013-07-27T06:05:52Z</time>
      </trkpt>
      <trkpt lat="45.51849" lon="6.66205">
        <ele>1758.1291274862</ele>
        <time>2013-07-27T06:06:00Z</time>
      </trkpt>
      <trkpt lat="45.51829" lon="6.66179">
        <ele>1762.01999872</ele>
        <time>2013-07-27T06:06:18Z</time>
      </trkpt>
      <trkpt lat="45.51818" lon="6.66158">
        <ele>1765.0020059306</ele>
        <time>2013-07-27T06:06:33Z</time>
      </trkpt>
      <trkpt lat="45.51811" lon="6.66149">
        <ele>1766.8056094233</ele>
        <time>2013-07-27T06:06:42Z</time>
      </trkpt>
      <trkpt lat="45.51803" lon="6.66145">
        <ele>1768.01999872</ele>
        <time>2013-07-27T06:06:48Z</time>
      </trkpt>
      <trkpt lat="45.51794" lon="6.66141">
        <ele>1769.40600064</ele>
        <time>2013-07-27T06:06:55Z</time>
      </trkpt>
      <trkpt lat="45.51788" lon="6.66132">
        <ele>1770.80599808</ele>
        <time>2013-07-27T06:07:02Z</time>
      </trkpt>
      <trkpt lat="45.51775" lon="6.66113">
        <ele>1772.0199588151</ele>
        <time>2013-07-27T06:07:13Z</time>
      </trkpt>
      <trkpt lat="45.51768" lon="6.66104">
        <ele>1773.2175643705</ele>
        <time>2013-07-27T06:07:19Z</time>
      </trkpt>
      <trkpt lat="45.51762" lon="6.66096">
        <ele>1774.391608016</ele>
        <time>2013-07-27T06:07:25Z</time>
      </trkpt>
      <trkpt lat="45.51757" lon="6.66087">
        <ele>1775.7922079915</ele>
        <time>2013-07-27T06:07:32Z</time>
      </trkpt>
      <trkpt lat="45.51753" lon="6.6608">
        <ele>1776.981963275</ele>
        <time>2013-07-27T06:07:38Z</time>
      </trkpt>
      <trkpt lat="45.51746" lon="6.66063">
        <ele>1780.0718549641</ele>
        <time>2013-07-27T06:07:50Z</time>
      </trkpt>
      <trkpt lat="45.51743" lon="6.66055">
        <ele>1781.36417731</ele>
        <time>2013-07-27T06:07:55Z</time>
      </trkpt>
      <trkpt lat="45.51738" lon="6.66047">
        <ele>1782.9562176179</ele>
        <time>2013-07-27T06:08:03Z</time>
      </trkpt>
      <trkpt lat="45.51736" lon="6.66041">
        <ele>1783.8770141935</ele>
        <time>2013-07-27T06:08:06Z</time>
      </trkpt>
      <trkpt lat="45.51733" lon="6.66035">
        <ele>1784.7842722581</ele>
        <time>2013-07-27T06:08:09Z</time>
      </trkpt>
      <trkpt lat="45.51725" lon="6.66021">
        <ele>1787</ele>
        <time>2013-07-27T06:08:24Z</time>
      </trkpt>
      <trkpt lat="45.5172" lon="6.66015">
        <ele>1787</ele>
        <time>2013-07-27T06:08:29Z</time>
      </trkpt>
      <trkpt lat="45.51712" lon="6.6601">
        <ele>1787.0901797773</ele>
        <time>2013-07-27T06:08:34Z</time>
      </trkpt>
      <trkpt lat="45.51685" lon="6.65992">
        <ele>1791.23999744</ele>
        <time>2013-07-27T06:08:56Z</time>
      </trkpt>
      <trkpt lat="45.5168" lon="6.65991">
        <ele>1793.23999744</ele>
        <time>2013-07-27T06:09:01Z</time>
      </trkpt>
      <trkpt lat="45.51672" lon="6.65992">
        <ele>1794.61999872</ele>
        <time>2013-07-27T06:09:06Z</time>
      </trkpt>
      <trkpt lat="45.51667" lon="6.65991">
        <ele>1795.21999872</ele>
        <time>2013-07-27T06:09:09Z</time>
      </trkpt>
      <trkpt lat="45.5166" lon="6.6599">
        <ele>1797.00599808</ele>
        <time>2013-07-27T06:09:18Z</time>
      </trkpt>
      <trkpt lat="45.51645" lon="6.65981">
        <ele>1803.3987979807</ele>
        <time>2013-07-27T06:09:37Z</time>
      </trkpt>
      <trkpt lat="45.51636" lon="6.65978">
        <ele>1807.60599808</ele>
        <time>2013-07-27T06:09:46Z</time>
      </trkpt>
      <trkpt lat="45.51628" lon="6.65977">
        <ele>1809.792</ele>
        <time>2013-07-27T06:09:57Z</time>
      </trkpt>
      <trkpt lat="45.51622" lon="6.65976">
        <ele>1811.6150780952</ele>
        <time>2013-07-27T06:10:06Z</time>
      </trkpt>
      <trkpt lat="45.51615" lon="6.65976">
        <ele>1812.9841269841</ele>
        <time>2013-07-27T06:10:13Z</time>
      </trkpt>
      <trkpt lat="45.51611" lon="6.65992">
        <ele>1815.5538909037</ele>
        <time>2013-07-27T06:10:25Z</time>
      </trkpt>
      <trkpt lat="45.51611" lon="6.66011">
        <ele>1820.06999808</ele>
        <time>2013-07-27T06:10:40Z</time>
      </trkpt>
      <trkpt lat="45.51613" lon="6.66026">
        <ele>1823.374749098</ele>
        <time>2013-07-27T06:10:51Z</time>
      </trkpt>
      <trkpt lat="45.51614" lon="6.66039">
        <ele>1825.39800064</ele>
        <time>2013-07-27T06:11:00Z</time>
      </trkpt>
      <trkpt lat="45.51613" lon="6.6605">
        <ele>1828.076</ele>
        <time>2013-07-27T06:11:10Z</time>
      </trkpt>
      <trkpt lat="45.51612" lon="6.66072">
        <ele>1832.8952099671</ele>
        <time>2013-07-27T06:11:26Z</time>
      </trkpt>
      <trkpt lat="45.5161" lon="6.66082">
        <ele>1835.1803595545</ele>
        <time>2013-07-27T06:11:34Z</time>
      </trkpt>
      <trkpt lat="45.51607" lon="6.66094">
        <ele>1837.1801814038</ele>
        <time>2013-07-27T06:11:44Z</time>
      </trkpt>
      <trkpt lat="45.51606" lon="6.66105">
        <ele>1838.5815797937</ele>
        <time>2013-07-27T06:11:51Z</time>
      </trkpt>
      <trkpt lat="45.51608" lon="6.66176">
        <ele>1852.4048080771</ele>
        <time>2013-07-27T06:12:40Z</time>
      </trkpt>
      <trkpt lat="45.51613" lon="6.66193">
        <ele>1858.584</ele>
        <time>2013-07-27T06:12:57Z</time>
      </trkpt>
      <trkpt lat="45.51616" lon="6.66208">
        <ele>1862.024</ele>
        <time>2013-07-27T06:13:13Z</time>
      </trkpt>
      <trkpt lat="45.51619" lon="6.66219">
        <ele>1865.8159193842</ele>
        <time>2013-07-27T06:13:27Z</time>
      </trkpt>
      <trkpt lat="45.51619" lon="6.66256">
        <ele>1872.80600064</ele>
        <time>2013-07-27T06:13:57Z</time>
      </trkpt>
      <trkpt lat="45.51622" lon="6.66265">
        <ele>1874.16600064</ele>
        <time>2013-07-27T06:14:04Z</time>
      </trkpt>
      <trkpt lat="45.51624" lon="6.66273">
        <ele>1875.60600064</ele>
        <time>2013-07-27T06:14:11Z</time>
      </trkpt>
      <trkpt lat="45.51627" lon="6.66278">
        <ele>1876.41999872</ele>
        <time>2013-07-27T06:14:15Z</time>
      </trkpt>
      <trkpt lat="45.51629" lon="6.66283">
        <ele>1877.21999872</ele>
        <time>2013-07-27T06:14:19Z</time>
      </trkpt>
      <trkpt lat="45.51635" lon="6.66292">
        <ele>1878.6144686983</ele>
        <time>2013-07-27T06:14:26Z</time>
      </trkpt>
      <trkpt lat="45.51638" lon="6.66299">
        <ele>1879.4093146987</ele>
        <time>2013-07-27T06:14:30Z</time>
      </trkpt>
      <trkpt lat="45.51639" lon="6.66307">
        <ele>1880.5529779042</ele>
        <time>2013-07-27T06:14:36Z</time>
      </trkpt>
      <trkpt lat="45.51642" lon="6.66314">
        <ele>1881.6024225704</ele>
        <time>2013-07-27T06:14:41Z</time>
      </trkpt>
      <trkpt lat="45.51644" lon="6.66322">
        <ele>1882.41999872</ele>
        <time>2013-07-27T06:14:45Z</time>
      </trkpt>
      <trkpt lat="45.51645" lon="6.66361">
        <ele>1885.80600064</ele>
        <time>2013-07-27T06:15:07Z</time>
      </trkpt>
      <trkpt lat="45.5165" lon="6.66379">
        <ele>1887.81799936</ele>
        <time>2013-07-27T06:15:17Z</time>
      </trkpt>
      <trkpt lat="45.51651" lon="6.66397">
        <ele>1889.76446963</ele>
        <time>2013-07-27T06:15:27Z</time>
      </trkpt>
      <trkpt lat="45.51652" lon="6.66415">
        <ele>1891.8036086229</ele>
        <time>2013-07-27T06:15:37Z</time>
      </trkpt>
      <trkpt lat="45.51651" lon="6.66432">
        <ele>1893.38999936</ele>
        <time>2013-07-27T06:15:47Z</time>
      </trkpt>
      <trkpt lat="45.51649" lon="6.66501">
        <ele>1901.1411383939</ele>
        <time>2013-07-27T06:16:27Z</time>
      </trkpt>
      <trkpt lat="45.5165" lon="6.6652">
        <ele>1904.4458937421</ele>
        <time>2013-07-27T06:16:38Z</time>
      </trkpt>
      <trkpt lat="45.5165" lon="6.66534">
        <ele>1906.2767230455</ele>
        <time>2013-07-27T06:16:46Z</time>
      </trkpt>
      <trkpt lat="45.51644" lon="6.66567">
        <ele>1909.584</ele>
        <time>2013-07-27T06:17:06Z</time>
      </trkpt>
      <trkpt lat="45.51643" lon="6.66586">
        <ele>1912.476</ele>
        <time>2013-07-27T06:17:18Z</time>
      </trkpt>
      <trkpt lat="45.51639" lon="6.66597">
        <ele>1914.5958089608</ele>
        <time>2013-07-27T06:17:25Z</time>
      </trkpt>
      <trkpt lat="45.51634" lon="6.66606">
        <ele>1916.6916160053</ele>
        <time>2013-07-27T06:17:32Z</time>
      </trkpt>
      <trkpt lat="45.51624" lon="6.66611">
        <ele>1919.3899509098</ele>
        <time>2013-07-27T06:17:45Z</time>
      </trkpt>
      <trkpt lat="45.51606" lon="6.66634">
        <ele>1927.76999936</ele>
        <time>2013-07-27T06:18:17Z</time>
      </trkpt>
      <trkpt lat="45.51595" lon="6.66648">
        <ele>1932.5811614148</ele>
        <time>2013-07-27T06:18:36Z</time>
      </trkpt>
      <trkpt lat="45.51585" lon="6.66661">
        <ele>1937.276</ele>
        <time>2013-07-27T06:18:54Z</time>
      </trkpt>
      <trkpt lat="45.51575" lon="6.66677">
        <ele>1942.6646708729</ele>
        <time>2013-07-27T06:19:12Z</time>
      </trkpt>
      <trkpt lat="45.51573" lon="6.66685">
        <ele>1945.6753504932</ele>
        <time>2013-07-27T06:19:22Z</time>
      </trkpt>
      <trkpt lat="45.51561" lon="6.66706">
        <ele>1952.87300096</ele>
        <time>2013-07-27T06:19:46Z</time>
      </trkpt>
      <trkpt lat="45.51552" lon="6.66718">
        <ele>1958.381330564</ele>
        <time>2013-07-27T06:20:05Z</time>
      </trkpt>
      <trkpt lat="45.51549" lon="6.66724">
        <ele>1959.9702079141</ele>
        <time>2013-07-27T06:20:13Z</time>
      </trkpt>
      <trkpt lat="45.51546" lon="6.6673">
        <ele>1961.3937567432</ele>
        <time>2013-07-27T06:20:20Z</time>
      </trkpt>
      <trkpt lat="45.51543" lon="6.66735">
        <ele>1963.173651945</ele>
        <time>2013-07-27T06:20:27Z</time>
      </trkpt>
      <trkpt lat="45.51533" lon="6.66751">
        <ele>1968.78599936</ele>
        <time>2013-07-27T06:20:52Z</time>
      </trkpt>
      <trkpt lat="45.51513" lon="6.66765">
        <ele>1979.6916160053</ele>
        <time>2013-07-27T06:21:32Z</time>
      </trkpt>
      <trkpt lat="45.51505" lon="6.66764">
        <ele>1982.6543074336</ele>
        <time>2013-07-27T06:21:42Z</time>
      </trkpt>
      <trkpt lat="45.51495" lon="6.66752">
        <ele>1984.0988026515</ele>
        <time>2013-07-27T06:21:54Z</time>
      </trkpt>
      <trkpt lat="45.51491" lon="6.66745">
        <ele>1984.6976046642</ele>
        <time>2013-07-27T06:22:00Z</time>
      </trkpt>
      <trkpt lat="45.51487" lon="6.66739">
        <ele>1985.5671327084</ele>
        <time>2013-07-27T06:22:06Z</time>
      </trkpt>
      <trkpt lat="45.51483" lon="6.66734">
        <ele>1986.7695382891</ele>
        <time>2013-07-27T06:22:12Z</time>
      </trkpt>
      <trkpt lat="45.51477" lon="6.66728">
        <ele>1989.09700096</ele>
        <time>2013-07-27T06:22:20Z</time>
      </trkpt>
      <trkpt lat="45.51469" lon="6.66714">
        <ele>1993.5671327084</ele>
        <time>2013-07-27T06:22:36Z</time>
      </trkpt>
      <trkpt lat="45.51465" lon="6.66707">
        <ele>1995.384</ele>
        <time>2013-07-27T06:22:45Z</time>
      </trkpt>
      <trkpt lat="45.5146" lon="6.667">
        <ele>1996.984</ele>
        <time>2013-07-27T06:22:53Z</time>
      </trkpt>
      <trkpt lat="45.51456" lon="6.66692">
        <ele>1999.3946071192</ele>
        <time>2013-07-27T06:23:01Z</time>
      </trkpt>
      <trkpt lat="45.51452" lon="6.66686">
        <ele>2001.4954969384</ele>
        <time>2013-07-27T06:23:08Z</time>
      </trkpt>
      <trkpt lat="45.51442" lon="6.66671">
        <ele>2005.676</ele>
        <time>2013-07-27T06:23:22Z</time>
      </trkpt>
      <trkpt lat="45.51438" lon="6.66663">
        <ele>2007.3716555391</ele>
        <time>2013-07-27T06:23:30Z</time>
      </trkpt>
      <trkpt lat="45.51433" lon="6.66655">
        <ele>2009.9495465753</ele>
        <time>2013-07-27T06:23:38Z</time>
      </trkpt>
      <trkpt lat="45.51429" lon="6.66647">
        <ele>2013.168</ele>
        <time>2013-07-27T06:23:46Z</time>
      </trkpt>
      <trkpt lat="45.51424" lon="6.66639">
        <ele>2016.29700096</ele>
        <time>2013-07-27T06:23:54Z</time>
      </trkpt>
      <trkpt lat="45.51414" lon="6.66626">
        <ele>2020.476</ele>
        <time>2013-07-27T06:24:08Z</time>
      </trkpt>
      <trkpt lat="45.51409" lon="6.66617">
        <ele>2023.5849064278</ele>
        <time>2013-07-27T06:24:17Z</time>
      </trkpt>
      <trkpt lat="45.51395" lon="6.66598">
        <ele>2029.3667317783</ele>
        <time>2013-07-27T06:24:35Z</time>
      </trkpt>
      <trkpt lat="45.51387" lon="6.66587">
        <ele>2031.5898190245</ele>
        <time>2013-07-27T06:24:45Z</time>
      </trkpt>
      <trkpt lat="45.51382" lon="6.66581">
        <ele>2033.3862250627</ele>
        <time>2013-07-27T06:24:51Z</time>
      </trkpt>
      <trkpt lat="45.51377" lon="6.66574">
        <ele>2034.3907811724</ele>
        <time>2013-07-27T06:24:57Z</time>
      </trkpt>
      <trkpt lat="45.51373" lon="6.66567">
        <ele>2034.9919839628</ele>
        <time>2013-07-27T06:25:03Z</time>
      </trkpt>
      <trkpt lat="45.5137" lon="6.6656">
        <ele>2036.19800064</ele>
        <time>2013-07-27T06:25:09Z</time>
      </trkpt>
      <trkpt lat="45.51362" lon="6.66547">
        <ele>2039.076</ele>
        <time>2013-07-27T06:25:20Z</time>
      </trkpt>
      <trkpt lat="45.51359" lon="6.66541">
        <ele>2040.5748499322</ele>
        <time>2013-07-27T06:25:25Z</time>
      </trkpt>
      <trkpt lat="45.51355" lon="6.66535">
        <ele>2042.3712559705</ele>
        <time>2013-07-27T06:25:31Z</time>
      </trkpt>
      <trkpt lat="45.51351" lon="6.6653">
        <ele>2043.7761183765</ele>
        <time>2013-07-27T06:25:37Z</time>
      </trkpt>
      <trkpt lat="45.51347" lon="6.66523">
        <ele>2044.9701486074</ele>
        <time>2013-07-27T06:25:43Z</time>
      </trkpt>
      <trkpt lat="45.51339" lon="6.66513">
        <ele>2047.2762761878</ele>
        <time>2013-07-27T06:25:54Z</time>
      </trkpt>
      <trkpt lat="45.51335" lon="6.66509">
        <ele>2048.7777772083</ele>
        <time>2013-07-27T06:25:59Z</time>
      </trkpt>
      <trkpt lat="45.51332" lon="6.66504">
        <ele>2050.08300032</ele>
        <time>2013-07-27T06:26:04Z</time>
      </trkpt>
      <trkpt lat="45.51327" lon="6.665">
        <ele>2050.68300032</ele>
        <time>2013-07-27T06:26:10Z</time>
      </trkpt>
      <trkpt lat="45.51324" lon="6.66496">
        <ele>2051.36599808</ele>
        <time>2013-07-27T06:26:15Z</time>
      </trkpt>
      <trkpt lat="45.51317" lon="6.66486">
        <ele>2054.1455600732</ele>
        <time>2013-07-27T06:26:27Z</time>
      </trkpt>
      <trkpt lat="45.51313" lon="6.66481">
        <ele>2055.6410768842</ele>
        <time>2013-07-27T06:26:32Z</time>
      </trkpt>
      <trkpt lat="45.51309" lon="6.66477">
        <ele>2057.1434268063</ele>
        <time>2013-07-27T06:26:37Z</time>
      </trkpt>
      <trkpt lat="45.51291" lon="6.66468">
        <ele>2061.68300032</ele>
        <time>2013-07-27T06:27:00Z</time>
      </trkpt>
      <trkpt lat="45.51286" lon="6.66466">
        <ele>2062.57999872</ele>
        <time>2013-07-27T06:27:06Z</time>
      </trkpt>
      <trkpt lat="45.51281" lon="6.66463">
        <ele>2063.77999872</ele>
        <time>2013-07-27T06:27:12Z</time>
      </trkpt>
      <trkpt lat="45.51276" lon="6.6646">
        <ele>2065.74899712</ele>
        <time>2013-07-27T06:27:19Z</time>
      </trkpt>
      <trkpt lat="45.5127" lon="6.66458">
        <ele>2067.5473548802</ele>
        <time>2013-07-27T06:27:25Z</time>
      </trkpt>
      <trkpt lat="45.5126" lon="6.66453">
        <ele>2070.28</ele>
        <time>2013-07-27T06:27:36Z</time>
      </trkpt>
      <trkpt lat="45.51254" lon="6.66449">
        <ele>2070.88</ele>
        <time>2013-07-27T06:27:42Z</time>
      </trkpt>
      <trkpt lat="45.51248" lon="6.66446">
        <ele>2072.1634882772</ele>
        <time>2013-07-27T06:27:49Z</time>
      </trkpt>
      <trkpt lat="45.51241" lon="6.66443">
        <ele>2073.36599808</ele>
        <time>2013-07-27T06:27:55Z</time>
      </trkpt>
      <trkpt lat="45.51235" lon="6.66439">
        <ele>2074.56599808</ele>
        <time>2013-07-27T06:28:01Z</time>
      </trkpt>
      <trkpt lat="45.51221" lon="6.66433">
        <ele>2075.988</ele>
        <time>2013-07-27T06:28:13Z</time>
      </trkpt>
      <trkpt lat="45.51214" lon="6.6643">
        <ele>2077.37999872</ele>
        <time>2013-07-27T06:28:20Z</time>
      </trkpt>
      <trkpt lat="45.51205" lon="6.66427">
        <ele>2080.0428716912</ele>
        <time>2013-07-27T06:28:30Z</time>
      </trkpt>
      <trkpt lat="45.51199" lon="6.66428">
        <ele>2082.1434268063</ele>
        <time>2013-07-27T06:28:37Z</time>
      </trkpt>
      <trkpt lat="45.51192" lon="6.66432">
        <ele>2084.37999872</ele>
        <time>2013-07-27T06:28:45Z</time>
      </trkpt>
      <trkpt lat="45.51178" lon="6.66432">
        <ele>2087.164</ele>
        <time>2013-07-27T06:28:57Z</time>
      </trkpt>
      <trkpt lat="45.51168" lon="6.66435">
        <ele>2089.24900096</ele>
        <time>2013-07-27T06:29:04Z</time>
      </trkpt>
      <trkpt lat="45.51158" lon="6.6644">
        <ele>2092.18299904</ele>
        <time>2013-07-27T06:29:15Z</time>
      </trkpt>
      <trkpt lat="45.51153" lon="6.66451">
        <ele>2092.78299904</ele>
        <time>2013-07-27T06:29:21Z</time>
      </trkpt>
      <trkpt lat="45.51128" lon="6.66475">
        <ele>2094.3741269251</ele>
        <time>2013-07-27T06:29:35Z</time>
      </trkpt>
      <trkpt lat="45.51122" lon="6.66478">
        <ele>2095.170147079</ele>
        <time>2013-07-27T06:29:39Z</time>
      </trkpt>
      <trkpt lat="45.51113" lon="6.66481">
        <ele>2095.966167233</ele>
        <time>2013-07-27T06:29:43Z</time>
      </trkpt>
      <trkpt lat="45.51105" lon="6.66483">
        <ele>2096.5881170072</ele>
        <time>2013-07-27T06:29:46Z</time>
      </trkpt>
      <trkpt lat="45.51085" lon="6.66496">
        <ele>2097.70099968</ele>
        <time>2013-07-27T06:29:56Z</time>
      </trkpt>
      <trkpt lat="45.51076" lon="6.66505">
        <ele>2097.20099968</ele>
        <time>2013-07-27T06:30:01Z</time>
      </trkpt>
      <trkpt lat="45.51068" lon="6.66514">
        <ele>2097.1972253549</ele>
        <time>2013-07-27T06:30:05Z</time>
      </trkpt>
      <trkpt lat="45.5106" lon="6.66526">
        <ele>2097.5936575916</ele>
        <time>2013-07-27T06:30:09Z</time>
      </trkpt>
      <trkpt lat="45.51053" lon="6.66539">
        <ele>2097.9900898284</ele>
        <time>2013-07-27T06:30:13Z</time>
      </trkpt>
      <trkpt lat="45.5104" lon="6.66562">
        <ele>2096.4056500809</ele>
        <time>2013-07-27T06:30:21Z</time>
      </trkpt>
      <trkpt lat="45.51033" lon="6.66575">
        <ele>2095.4094947863</ele>
        <time>2013-07-27T06:30:25Z</time>
      </trkpt>
      <trkpt lat="45.51026" lon="6.66588">
        <ele>2094.2225515418</ele>
        <time>2013-07-27T06:30:29Z</time>
      </trkpt>
      <trkpt lat="45.51019" lon="6.66601">
        <ele>2093.0356082973</ele>
        <time>2013-07-27T06:30:33Z</time>
      </trkpt>
      <trkpt lat="45.5101" lon="6.66612">
        <ele>2091.0384220145</ele>
        <time>2013-07-27T06:30:37Z</time>
      </trkpt>
      <trkpt lat="45.50989" lon="6.66625">
        <ele>2087.70299904</ele>
        <time>2013-07-27T06:30:44Z</time>
      </trkpt>
      <trkpt lat="45.50978" lon="6.66633">
        <ele>2086.50299904</ele>
        <time>2013-07-27T06:30:48Z</time>
      </trkpt>
      <trkpt lat="45.50967" lon="6.66646">
        <ele>2085.30299904</ele>
        <time>2013-07-27T06:30:52Z</time>
      </trkpt>
      <trkpt lat="45.50961" lon="6.66656">
        <ele>2084.20399872</ele>
        <time>2013-07-27T06:30:55Z</time>
      </trkpt>
      <trkpt lat="45.50954" lon="6.66665">
        <ele>2083.00399872</ele>
        <time>2013-07-27T06:30:58Z</time>
      </trkpt>
      <trkpt lat="45.50926" lon="6.66694">
        <ele>2081</ele>
        <time>2013-07-27T06:31:09Z</time>
      </trkpt>
      <trkpt lat="45.50919" lon="6.66695">
        <ele>2081</ele>
        <time>2013-07-27T06:31:11Z</time>
      </trkpt>
      <trkpt lat="45.5091" lon="6.667">
        <ele>2080.80199936</ele>
        <time>2013-07-27T06:31:14Z</time>
      </trkpt>
      <trkpt lat="45.50896" lon="6.6671">
        <ele>2079.80199936</ele>
        <time>2013-07-27T06:31:19Z</time>
      </trkpt>
      <trkpt lat="45.5089" lon="6.66714">
        <ele>2079.40199936</ele>
        <time>2013-07-27T06:31:21Z</time>
      </trkpt>
      <trkpt lat="45.5088" lon="6.6672">
        <ele>2078.6047893941</ele>
        <time>2013-07-27T06:31:24Z</time>
      </trkpt>
      <trkpt lat="45.50872" lon="6.66727">
        <ele>2077.4071853687</ele>
        <time>2013-07-27T06:31:27Z</time>
      </trkpt>
      <trkpt lat="45.50867" lon="6.66733">
        <ele>2076.608782685</ele>
        <time>2013-07-27T06:31:29Z</time>
      </trkpt>
      <trkpt lat="45.50864" lon="6.66741">
        <ele>2075.8063892654</ele>
        <time>2013-07-27T06:31:31Z</time>
      </trkpt>
      <trkpt lat="45.50862" lon="6.66749">
        <ele>2075.0119773177</ele>
        <time>2013-07-27T06:31:33Z</time>
      </trkpt>
      <trkpt lat="45.50861" lon="6.66754">
        <ele>2074.7294606682</ele>
        <time>2013-07-27T06:31:34Z</time>
      </trkpt>
      <trkpt lat="45.50859" lon="6.66758">
        <ele>2074.428859273</ele>
        <time>2013-07-27T06:31:35Z</time>
      </trkpt>
      <trkpt lat="45.50858" lon="6.66766">
        <ele>2073.8276564827</ele>
        <time>2013-07-27T06:31:37Z</time>
      </trkpt>
      <trkpt lat="45.50849" lon="6.66781">
        <ele>2072.3246495068</ele>
        <time>2013-07-27T06:31:42Z</time>
      </trkpt>
      <trkpt lat="45.50842" lon="6.66795">
        <ele>2071.70099968</ele>
        <time>2013-07-27T06:31:46Z</time>
      </trkpt>
      <trkpt lat="45.50832" lon="6.6681">
        <ele>2071.20099968</ele>
        <time>2013-07-27T06:31:51Z</time>
      </trkpt>
      <trkpt lat="45.50823" lon="6.66815">
        <ele>2070.632</ele>
        <time>2013-07-27T06:31:54Z</time>
      </trkpt>
      <trkpt lat="45.50814" lon="6.66823">
        <ele>2069.432</ele>
        <time>2013-07-27T06:31:57Z</time>
      </trkpt>
      <trkpt lat="45.50798" lon="6.66854">
        <ele>2066.70099968</ele>
        <time>2013-07-27T06:32:06Z</time>
      </trkpt>
      <trkpt lat="45.50792" lon="6.66894">
        <ele>2064.5049984</ele>
        <time>2013-07-27T06:32:16Z</time>
      </trkpt>
      <trkpt lat="45.50789" lon="6.66908">
        <ele>2062.5049984</ele>
        <time>2013-07-27T06:32:20Z</time>
      </trkpt>
      <trkpt lat="45.50768" lon="6.66931">
        <ele>2055.6197610413</ele>
        <time>2013-07-27T06:32:29Z</time>
      </trkpt>
      <trkpt lat="45.5076" lon="6.66939">
        <ele>2052.9251519839</ele>
        <time>2013-07-27T06:32:32Z</time>
      </trkpt>
      <trkpt lat="45.50753" lon="6.66949">
        <ele>2051.6232488165</ele>
        <time>2013-07-27T06:32:35Z</time>
      </trkpt>
      <trkpt lat="45.50745" lon="6.66957">
        <ele>2051.022043461</ele>
        <time>2013-07-27T06:32:38Z</time>
      </trkpt>
      <trkpt lat="45.50736" lon="6.66963">
        <ele>2050.4208432358</ele>
        <time>2013-07-27T06:32:41Z</time>
      </trkpt>
      <trkpt lat="45.50719" lon="6.66968">
        <ele>2049.10299904</ele>
        <time>2013-07-27T06:32:46Z</time>
      </trkpt>
      <trkpt lat="45.50713" lon="6.66968">
        <ele>2048.50299904</ele>
        <time>2013-07-27T06:32:48Z</time>
      </trkpt>
      <trkpt lat="45.507" lon="6.66968">
        <ele>2047.30299904</ele>
        <time>2013-07-27T06:32:52Z</time>
      </trkpt>
      <trkpt lat="45.50688" lon="6.66968">
        <ele>2046.124</ele>
        <time>2013-07-27T06:32:56Z</time>
      </trkpt>
      <trkpt lat="45.50676" lon="6.66968">
        <ele>2044.924</ele>
        <time>2013-07-27T06:33:00Z</time>
      </trkpt>
      <trkpt lat="45.50664" lon="6.66969">
        <ele>2043.9016878962</ele>
        <time>2013-07-27T06:33:04Z</time>
      </trkpt>
      <trkpt lat="45.50652" lon="6.66974">
        <ele>2043.5044685587</ele>
        <time>2013-07-27T06:33:08Z</time>
      </trkpt>
      <trkpt lat="45.50639" lon="6.66985">
        <ele>2043.0079443868</ele>
        <time>2013-07-27T06:33:13Z</time>
      </trkpt>
      <trkpt lat="45.50626" lon="6.66996">
        <ele>2042.0110555944</ele>
        <time>2013-07-27T06:33:18Z</time>
      </trkpt>
      <trkpt lat="45.50613" lon="6.67003">
        <ele>2041.006030792</ele>
        <time>2013-07-27T06:33:23Z</time>
      </trkpt>
      <trkpt lat="45.50597" lon="6.67015">
        <ele>2039.22000128</ele>
        <time>2013-07-27T06:33:32Z</time>
      </trkpt>
      <trkpt lat="45.50589" lon="6.67031">
        <ele>2035.482969448</ele>
        <time>2013-07-27T06:33:37Z</time>
      </trkpt>
      <trkpt lat="45.50579" lon="6.6706">
        <ele>2028.2202361905</ele>
        <time>2013-07-27T06:33:46Z</time>
      </trkpt>
      <trkpt lat="45.50572" lon="6.67083">
        <ele>2024.0535695238</ele>
        <time>2013-07-27T06:33:53Z</time>
      </trkpt>
      <trkpt lat="45.50568" lon="6.67096">
        <ele>2021.2409251613</ele>
        <time>2013-07-27T06:33:57Z</time>
      </trkpt>
      <trkpt lat="45.50564" lon="6.67108">
        <ele>2019.1239896774</ele>
        <time>2013-07-27T06:34:00Z</time>
      </trkpt>
      <trkpt lat="45.50559" lon="6.67122">
        <ele>2016.70299904</ele>
        <time>2013-07-27T06:34:04Z</time>
      </trkpt>
      <trkpt lat="45.50556" lon="6.67132">
        <ele>2015.80299904</ele>
        <time>2013-07-27T06:34:07Z</time>
      </trkpt>
      <trkpt lat="45.50548" lon="6.67155">
        <ele>2013.5045030616</ele>
        <time>2013-07-27T06:34:14Z</time>
      </trkpt>
      <trkpt lat="45.50543" lon="6.67167">
        <ele>2011.5525549381</ele>
        <time>2013-07-27T06:34:18Z</time>
      </trkpt>
      <trkpt lat="45.50539" lon="6.67175">
        <ele>2010.0510539176</ele>
        <time>2013-07-27T06:34:21Z</time>
      </trkpt>
      <trkpt lat="45.50535" lon="6.67181">
        <ele>2009.0500532372</ele>
        <time>2013-07-27T06:34:23Z</time>
      </trkpt>
      <trkpt lat="45.50531" lon="6.67186">
        <ele>2008.4317069809</ele>
        <time>2013-07-27T06:34:25Z</time>
      </trkpt>
      <trkpt lat="45.5052" lon="6.67201">
        <ele>2006.9361939984</ele>
        <time>2013-07-27T06:34:30Z</time>
      </trkpt>
      <trkpt lat="45.50514" lon="6.67209">
        <ele>2006.0388862089</ele>
        <time>2013-07-27T06:34:33Z</time>
      </trkpt>
      <trkpt lat="45.50509" lon="6.67217">
        <ele>2004.8766295291</ele>
        <time>2013-07-27T06:34:36Z</time>
      </trkpt>
      <trkpt lat="45.5051" lon="6.67234">
        <ele>2002.8706159665</ele>
        <time>2013-07-27T06:34:41Z</time>
      </trkpt>
      <trkpt lat="45.50513" lon="6.67247">
        <ele>2001.5500032</ele>
        <time>2013-07-27T06:34:44Z</time>
      </trkpt>
      <trkpt lat="45.50515" lon="6.67271">
        <ele>1998.5500032</ele>
        <time>2013-07-27T06:34:50Z</time>
      </trkpt>
      <trkpt lat="45.50514" lon="6.67287">
        <ele>1996.5504526035</ele>
        <time>2013-07-27T06:34:54Z</time>
      </trkpt>
      <trkpt lat="45.50511" lon="6.67302">
        <ele>1994.5524499668</ele>
        <time>2013-07-27T06:34:58Z</time>
      </trkpt>
      <trkpt lat="45.50506" lon="6.6736">
        <ele>1990.0200212949</ele>
        <time>2013-07-27T06:35:13Z</time>
      </trkpt>
      <trkpt lat="45.50499" lon="6.67371">
        <ele>1989.71000064</ele>
        <time>2013-07-27T06:35:16Z</time>
      </trkpt>
      <trkpt lat="45.50495" lon="6.67383">
        <ele>1989.41000064</ele>
        <time>2013-07-27T06:35:19Z</time>
      </trkpt>
      <trkpt lat="45.50494" lon="6.67396">
        <ele>1989.11000064</ele>
        <time>2013-07-27T06:35:22Z</time>
      </trkpt>
      <trkpt lat="45.50496" lon="6.67408">
        <ele>1988.6350967465</ele>
        <time>2013-07-27T06:35:25Z</time>
      </trkpt>
      <trkpt lat="45.50502" lon="6.67434">
        <ele>1987.4386863605</ele>
        <time>2013-07-27T06:35:31Z</time>
      </trkpt>
      <trkpt lat="45.50503" lon="6.67447">
        <ele>1986.9197592521</ele>
        <time>2013-07-27T06:35:34Z</time>
      </trkpt>
      <trkpt lat="45.50505" lon="6.6746">
        <ele>1986.6188577312</ele>
        <time>2013-07-27T06:35:37Z</time>
      </trkpt>
      <trkpt lat="45.50508" lon="6.67473">
        <ele>1986.3179536427</ele>
        <time>2013-07-27T06:35:40Z</time>
      </trkpt>
      <trkpt lat="45.50511" lon="6.6748">
        <ele>1986.1173517729</ele>
        <time>2013-07-27T06:35:42Z</time>
      </trkpt>
      <trkpt lat="45.50515" lon="6.67498">
        <ele>1985.7172823072</ele>
        <time>2013-07-27T06:35:46Z</time>
      </trkpt>
      <trkpt lat="45.50518" lon="6.6751">
        <ele>1985.4175831904</ele>
        <time>2013-07-27T06:35:49Z</time>
      </trkpt>
      <trkpt lat="45.50522" lon="6.6752">
        <ele>1985.1178815162</ele>
        <time>2013-07-27T06:35:52Z</time>
      </trkpt>
      <trkpt lat="45.50527" lon="6.6753">
        <ele>1984.6216223835</ele>
        <time>2013-07-27T06:35:55Z</time>
      </trkpt>
      <trkpt lat="45.5053" lon="6.67538">
        <ele>1984.2212221113</ele>
        <time>2013-07-27T06:35:57Z</time>
      </trkpt>
      <trkpt lat="45.50537" lon="6.67554">
        <ele>1983.420421567</ele>
        <time>2013-07-27T06:36:01Z</time>
      </trkpt>
      <trkpt lat="45.50545" lon="6.67575">
        <ele>1983</ele>
        <time>2013-07-27T06:36:06Z</time>
      </trkpt>
      <trkpt lat="45.5055" lon="6.67599">
        <ele>1983</ele>
        <time>2013-07-27T06:36:11Z</time>
      </trkpt>
      <trkpt lat="45.50555" lon="6.67617">
        <ele>1982.6569727284</ele>
        <time>2013-07-27T06:36:15Z</time>
      </trkpt>
      <trkpt lat="45.50575" lon="6.67677">
        <ele>1980.0149256963</ele>
        <time>2013-07-27T06:36:33Z</time>
      </trkpt>
      <trkpt lat="45.50577" lon="6.6769">
        <ele>1979.3185925407</ele>
        <time>2013-07-27T06:36:40Z</time>
      </trkpt>
      <trkpt lat="45.50579" lon="6.67697">
        <ele>1979.676</ele>
        <time>2013-07-27T06:36:50Z</time>
      </trkpt>
      <trkpt lat="45.50575" lon="6.67702">
        <ele>1980</ele>
        <time>2013-07-27T06:38:05Z</time>
      </trkpt>
      <trkpt lat="45.50558" lon="6.67718">
        <ele>1981.6781370041</ele>
        <time>2013-07-27T06:39:40Z</time>
      </trkpt>
      <trkpt lat="45.50553" lon="6.67729">
        <ele>1982.3669341935</ele>
        <time>2013-07-27T06:39:45Z</time>
      </trkpt>
      <trkpt lat="45.50549" lon="6.67737">
        <ele>1983.3749987097</ele>
        <time>2013-07-27T06:39:50Z</time>
      </trkpt>
      <trkpt lat="45.50546" lon="6.67746">
        <ele>1983.9798374193</ele>
        <time>2013-07-27T06:39:53Z</time>
      </trkpt>
      <trkpt lat="45.50542" lon="6.67756">
        <ele>1985.176</ele>
        <time>2013-07-27T06:39:59Z</time>
      </trkpt>
      <trkpt lat="45.50532" lon="6.67771">
        <ele>1986.58999936</ele>
        <time>2013-07-27T06:40:09Z</time>
      </trkpt>
      <trkpt lat="45.50528" lon="6.67776">
        <ele>1986.98999936</ele>
        <time>2013-07-27T06:40:13Z</time>
      </trkpt>
      <trkpt lat="45.50522" lon="6.6778">
        <ele>1987</ele>
        <time>2013-07-27T06:40:17Z</time>
      </trkpt>
      <trkpt lat="45.50515" lon="6.67782">
        <ele>1987</ele>
        <time>2013-07-27T06:40:22Z</time>
      </trkpt>
      <trkpt lat="45.50509" lon="6.67784">
        <ele>1987.3888327374</ele>
        <time>2013-07-27T06:40:27Z</time>
      </trkpt>
      <trkpt lat="45.50499" lon="6.67788">
        <ele>1988.3430272716</ele>
        <time>2013-07-27T06:40:35Z</time>
      </trkpt>
      <trkpt lat="45.50494" lon="6.67792">
        <ele>1989.1454347508</ele>
        <time>2013-07-27T06:40:39Z</time>
      </trkpt>
      <trkpt lat="45.50488" lon="6.67796">
        <ele>1990.37999872</ele>
        <time>2013-07-27T06:40:45Z</time>
      </trkpt>
      <trkpt lat="45.50482" lon="6.67802">
        <ele>1991.77999872</ele>
        <time>2013-07-27T06:40:52Z</time>
      </trkpt>
      <trkpt lat="45.50475" lon="6.67807">
        <ele>1994.35999744</ele>
        <time>2013-07-27T06:40:59Z</time>
      </trkpt>
      <trkpt lat="45.5045" lon="6.67823">
        <ele>1997</ele>
        <time>2013-07-27T06:41:17Z</time>
      </trkpt>
      <trkpt lat="45.50444" lon="6.67826">
        <ele>1997</ele>
        <time>2013-07-27T06:41:21Z</time>
      </trkpt>
      <trkpt lat="45.50438" lon="6.67827">
        <ele>1997.3649032535</ele>
        <time>2013-07-27T06:41:25Z</time>
      </trkpt>
      <trkpt lat="45.50427" lon="6.6783">
        <ele>1998.5613136395</ele>
        <time>2013-07-27T06:41:31Z</time>
      </trkpt>
      <trkpt lat="45.50422" lon="6.67831">
        <ele>1999.5205608892</ele>
        <time>2013-07-27T06:41:35Z</time>
      </trkpt>
      <trkpt lat="45.50412" lon="6.67835">
        <ele>2001.3259777175</ele>
        <time>2013-07-27T06:41:41Z</time>
      </trkpt>
      <trkpt lat="45.50402" lon="6.67841">
        <ele>2002.9770672057</ele>
        <time>2013-07-27T06:41:48Z</time>
      </trkpt>
      <trkpt lat="45.50393" lon="6.67847">
        <ele>2004.3610807979</ele>
        <time>2013-07-27T06:41:55Z</time>
      </trkpt>
      <trkpt lat="45.50382" lon="6.67871">
        <ele>2007.17999872</ele>
        <time>2013-07-27T06:42:09Z</time>
      </trkpt>
      <trkpt lat="45.50382" lon="6.67884">
        <ele>2008.84900096</ele>
        <time>2013-07-27T06:42:16Z</time>
      </trkpt>
      <trkpt lat="45.50383" lon="6.67894">
        <ele>2010.64900096</ele>
        <time>2013-07-27T06:42:22Z</time>
      </trkpt>
      <trkpt lat="45.50383" lon="6.67906">
        <ele>2012.7437652662</ele>
        <time>2013-07-27T06:42:29Z</time>
      </trkpt>
      <trkpt lat="45.50386" lon="6.67922">
        <ele>2015.9257779501</ele>
        <time>2013-07-27T06:42:38Z</time>
      </trkpt>
      <trkpt lat="45.504" lon="6.67946">
        <ele>2019.7312651289</ele>
        <time>2013-07-27T06:42:55Z</time>
      </trkpt>
      <trkpt lat="45.50409" lon="6.67954">
        <ele>2022.9280693476</ele>
        <time>2013-07-27T06:43:03Z</time>
      </trkpt>
      <trkpt lat="45.50416" lon="6.67961">
        <ele>2023</ele>
        <time>2013-07-27T06:43:10Z</time>
      </trkpt>
      <trkpt lat="45.50427" lon="6.67969">
        <ele>2023.97999872</ele>
        <time>2013-07-27T06:43:18Z</time>
      </trkpt>
      <trkpt lat="45.50438" lon="6.67978">
        <ele>2025.7576635386</ele>
        <time>2013-07-27T06:43:27Z</time>
      </trkpt>
      <trkpt lat="45.50454" lon="6.68005">
        <ele>2030.56600064</ele>
        <time>2013-07-27T06:43:46Z</time>
      </trkpt>
      <trkpt lat="45.50467" lon="6.68048">
        <ele>2037.0624980645</ele>
        <time>2013-07-27T06:44:10Z</time>
      </trkpt>
      <trkpt lat="45.50472" lon="6.68059">
        <ele>2038.56600064</ele>
        <time>2013-07-27T06:44:16Z</time>
      </trkpt>
      <trkpt lat="45.50479" lon="6.68081">
        <ele>2040</ele>
        <time>2013-07-27T06:44:28Z</time>
      </trkpt>
      <trkpt lat="45.50483" lon="6.68097">
        <ele>2040.84</ele>
        <time>2013-07-27T06:44:36Z</time>
      </trkpt>
      <trkpt lat="45.50485" lon="6.68112">
        <ele>2042.93999616</ele>
        <time>2013-07-27T06:44:43Z</time>
      </trkpt>
      <trkpt lat="45.50487" lon="6.68129">
        <ele>2045.6479446814</ele>
        <time>2013-07-27T06:44:52Z</time>
      </trkpt>
      <trkpt lat="45.50497" lon="6.68149">
        <ele>2047.36599808</ele>
        <time>2013-07-27T06:45:05Z</time>
      </trkpt>
      <trkpt lat="45.50514" lon="6.68178">
        <ele>2052.2675898569</ele>
        <time>2013-07-27T06:45:24Z</time>
      </trkpt>
      <trkpt lat="45.50518" lon="6.68187">
        <ele>2053.7542107447</ele>
        <time>2013-07-27T06:45:29Z</time>
      </trkpt>
      <trkpt lat="45.50523" lon="6.68198">
        <ele>2055.1493453403</ele>
        <time>2013-07-27T06:45:34Z</time>
      </trkpt>
      <trkpt lat="45.5053" lon="6.68208">
        <ele>2056.360243032</ele>
        <time>2013-07-27T06:45:40Z</time>
      </trkpt>
      <trkpt lat="45.50536" lon="6.68221">
        <ele>2057</ele>
        <time>2013-07-27T06:45:47Z</time>
      </trkpt>
      <trkpt lat="45.50539" lon="6.68243">
        <ele>2058.46999808</ele>
        <time>2013-07-27T06:45:58Z</time>
      </trkpt>
      <trkpt lat="45.50534" lon="6.68252">
        <ele>2060.56600064</ele>
        <time>2013-07-27T06:46:06Z</time>
      </trkpt>
      <trkpt lat="45.50529" lon="6.6826">
        <ele>2061.56599808</ele>
        <time>2013-07-27T06:46:11Z</time>
      </trkpt>
      <trkpt lat="45.50527" lon="6.68264">
        <ele>2062.16600064</ele>
        <time>2013-07-27T06:46:14Z</time>
      </trkpt>
      <trkpt lat="45.50525" lon="6.68274">
        <ele>2063.36600064</ele>
        <time>2013-07-27T06:46:20Z</time>
      </trkpt>
      <trkpt lat="45.50526" lon="6.68293">
        <ele>2066.0638060016</ele>
        <time>2013-07-27T06:46:30Z</time>
      </trkpt>
      <trkpt lat="45.50523" lon="6.68308">
        <ele>2067.3811422688</ele>
        <time>2013-07-27T06:46:37Z</time>
      </trkpt>
      <trkpt lat="45.50509" lon="6.68333">
        <ele>2069.36599808</ele>
        <time>2013-07-27T06:46:55Z</time>
      </trkpt>
      <trkpt lat="45.50503" lon="6.68315">
        <ele>2071.84900096</ele>
        <time>2013-07-27T06:47:06Z</time>
      </trkpt>
      <trkpt lat="45.50499" lon="6.68307">
        <ele>2073.34899712</ele>
        <time>2013-07-27T06:47:11Z</time>
      </trkpt>
      <trkpt lat="45.50494" lon="6.68303">
        <ele>2074.56600064</ele>
        <time>2013-07-27T06:47:16Z</time>
      </trkpt>
      <trkpt lat="45.50489" lon="6.68305">
        <ele>2075.36600064</ele>
        <time>2013-07-27T06:47:20Z</time>
      </trkpt>
      <trkpt lat="45.50483" lon="6.68311">
        <ele>2076.3781082995</ele>
        <time>2013-07-27T06:47:25Z</time>
      </trkpt>
      <trkpt lat="45.50468" lon="6.68326">
        <ele>2079.7427110777</ele>
        <time>2013-07-27T06:47:39Z</time>
      </trkpt>
      <trkpt lat="45.50463" lon="6.68337">
        <ele>2081.86999808</ele>
        <time>2013-07-27T06:47:46Z</time>
      </trkpt>
      <trkpt lat="45.50461" lon="6.68344">
        <ele>2083.06999808</ele>
        <time>2013-07-27T06:47:50Z</time>
      </trkpt>
      <trkpt lat="45.50457" lon="6.68351">
        <ele>2084.28300032</ele>
        <time>2013-07-27T06:47:56Z</time>
      </trkpt>
      <trkpt lat="45.50453" lon="6.6836">
        <ele>2084.98299904</ele>
        <time>2013-07-27T06:48:03Z</time>
      </trkpt>
      <trkpt lat="45.50445" lon="6.68376">
        <ele>2091.75999744</ele>
        <time>2013-07-27T06:48:20Z</time>
      </trkpt>
      <trkpt lat="45.50438" lon="6.68386">
        <ele>2095.2705393318</ele>
        <time>2013-07-27T06:48:34Z</time>
      </trkpt>
      <trkpt lat="45.50432" lon="6.68397">
        <ele>2098.276</ele>
        <time>2013-07-27T06:48:44Z</time>
      </trkpt>
      <trkpt lat="45.50427" lon="6.68405">
        <ele>2102.7657664814</ele>
        <time>2013-07-27T06:49:02Z</time>
      </trkpt>
      <trkpt lat="45.50423" lon="6.68412">
        <ele>2103</ele>
        <time>2013-07-27T06:49:13Z</time>
      </trkpt>
      <trkpt lat="45.50421" lon="6.68432">
        <ele>2105.2691904226</ele>
        <time>2013-07-27T06:49:24Z</time>
      </trkpt>
      <trkpt lat="45.5042" lon="6.68442">
        <ele>2106.7647034051</ele>
        <time>2013-07-27T06:49:29Z</time>
      </trkpt>
      <trkpt lat="45.50419" lon="6.68447">
        <ele>2107.6620111946</ele>
        <time>2013-07-27T06:49:32Z</time>
      </trkpt>
      <trkpt lat="45.50408" lon="6.68487">
        <ele>2109.98999936</ele>
        <time>2013-07-27T06:49:53Z</time>
      </trkpt>
      <trkpt lat="45.50405" lon="6.68499">
        <ele>2110.58999936</ele>
        <time>2013-07-27T06:49:59Z</time>
      </trkpt>
      <trkpt lat="45.504" lon="6.6851">
        <ele>2111.18299904</ele>
        <time>2013-07-27T06:50:05Z</time>
      </trkpt>
      <trkpt lat="45.50395" lon="6.6852">
        <ele>2111.78299904</ele>
        <time>2013-07-27T06:50:11Z</time>
      </trkpt>
      <trkpt lat="45.50392" lon="6.68532">
        <ele>2112.4856288557</ele>
        <time>2013-07-27T06:50:18Z</time>
      </trkpt>
      <trkpt lat="45.50386" lon="6.68556">
        <ele>2115.6133874488</ele>
        <time>2013-07-27T06:50:32Z</time>
      </trkpt>
      <trkpt lat="45.50382" lon="6.68568">
        <ele>2117.7363615442</ele>
        <time>2013-07-27T06:50:39Z</time>
      </trkpt>
      <trkpt lat="45.50377" lon="6.68577">
        <ele>2119.36599808</ele>
        <time>2013-07-27T06:50:45Z</time>
      </trkpt>
      <trkpt lat="45.50371" lon="6.68585">
        <ele>2120.36600064</ele>
        <time>2013-07-27T06:50:50Z</time>
      </trkpt>
      <trkpt lat="45.50365" lon="6.68593">
        <ele>2121.28300032</ele>
        <time>2013-07-27T06:50:56Z</time>
      </trkpt>
      <trkpt lat="45.50356" lon="6.68615">
        <ele>2122.68999936</ele>
        <time>2013-07-27T06:51:10Z</time>
      </trkpt>
      <trkpt lat="45.50354" lon="6.68625">
        <ele>2123.3796192223</ele>
        <time>2013-07-27T06:51:15Z</time>
      </trkpt>
      <trkpt lat="45.50355" lon="6.68637">
        <ele>2124.5784208043</ele>
        <time>2013-07-27T06:51:21Z</time>
      </trkpt>
      <trkpt lat="45.50355" lon="6.68649">
        <ele>2125.392214999</ele>
        <time>2013-07-27T06:51:27Z</time>
      </trkpt>
      <trkpt lat="45.50355" lon="6.68661">
        <ele>2125.9870249983</ele>
        <time>2013-07-27T06:51:33Z</time>
      </trkpt>
      <trkpt lat="45.50354" lon="6.68689">
        <ele>2127.96199936</ele>
        <time>2013-07-27T06:51:48Z</time>
      </trkpt>
      <trkpt lat="45.50353" lon="6.68701">
        <ele>2129.17999872</ele>
        <time>2013-07-27T06:51:54Z</time>
      </trkpt>
      <trkpt lat="45.50352" lon="6.68716">
        <ele>2130.97999872</ele>
        <time>2013-07-27T06:52:03Z</time>
      </trkpt>
      <trkpt lat="45.50347" lon="6.68728">
        <ele>2133.83999744</ele>
        <time>2013-07-27T06:52:10Z</time>
      </trkpt>
      <trkpt lat="45.50338" lon="6.68775">
        <ele>2140</ele>
        <time>2013-07-27T06:52:35Z</time>
      </trkpt>
      <trkpt lat="45.50334" lon="6.68786">
        <ele>2140</ele>
        <time>2013-07-27T06:52:41Z</time>
      </trkpt>
      <trkpt lat="45.50328" lon="6.68795">
        <ele>2140.784</ele>
        <time>2013-07-27T06:52:47Z</time>
      </trkpt>
      <trkpt lat="45.50322" lon="6.68803">
        <ele>2141.784</ele>
        <time>2013-07-27T06:52:52Z</time>
      </trkpt>
      <trkpt lat="45.50309" lon="6.68821">
        <ele>2144</ele>
        <time>2013-07-27T06:53:04Z</time>
      </trkpt>
      <trkpt lat="45.50304" lon="6.6883">
        <ele>2144</ele>
        <time>2013-07-27T06:53:09Z</time>
      </trkpt>
      <trkpt lat="45.50301" lon="6.68838">
        <ele>2144</ele>
        <time>2013-07-27T06:53:13Z</time>
      </trkpt>
      <trkpt lat="45.50298" lon="6.68851">
        <ele>2144.4909816375</ele>
        <time>2013-07-27T06:53:18Z</time>
      </trkpt>
      <trkpt lat="45.50296" lon="6.68864">
        <ele>2144.8917834977</ele>
        <time>2013-07-27T06:53:22Z</time>
      </trkpt>
      <trkpt lat="45.50291" lon="6.68894">
        <ele>2146.5948099993</ele>
        <time>2013-07-27T06:53:31Z</time>
      </trkpt>
      <trkpt lat="45.50291" lon="6.68908">
        <ele>2147.1888662832</ele>
        <time>2013-07-27T06:53:35Z</time>
      </trkpt>
      <trkpt lat="45.5029" lon="6.68922">
        <ele>2147.5864808503</ele>
        <time>2013-07-27T06:53:39Z</time>
      </trkpt>
      <trkpt lat="45.50287" lon="6.68936">
        <ele>2147.9840954173</ele>
        <time>2013-07-27T06:53:43Z</time>
      </trkpt>
      <trkpt lat="45.50285" lon="6.68946">
        <ele>2148</ele>
        <time>2013-07-27T06:53:46Z</time>
      </trkpt>
      <trkpt lat="45.50279" lon="6.68973">
        <ele>2148.092</ele>
        <time>2013-07-27T06:53:54Z</time>
      </trkpt>
      <trkpt lat="45.50277" lon="6.68983">
        <ele>2148.392</ele>
        <time>2013-07-27T06:53:57Z</time>
      </trkpt>
      <trkpt lat="45.50276" lon="6.68993">
        <ele>2148.692</ele>
        <time>2013-07-27T06:54:00Z</time>
      </trkpt>
      <trkpt lat="45.50277" lon="6.69003">
        <ele>2148.992</ele>
        <time>2013-07-27T06:54:03Z</time>
      </trkpt>
      <trkpt lat="45.50278" lon="6.69013">
        <ele>2149.29900032</ele>
        <time>2013-07-27T06:54:06Z</time>
      </trkpt>
      <trkpt lat="45.50287" lon="6.69076">
        <ele>2150</ele>
        <time>2013-07-27T06:54:24Z</time>
      </trkpt>
      <trkpt lat="45.50287" lon="6.69086">
        <ele>2150</ele>
        <time>2013-07-27T06:54:27Z</time>
      </trkpt>
      <trkpt lat="45.50288" lon="6.69096">
        <ele>2150</ele>
        <time>2013-07-27T06:54:30Z</time>
      </trkpt>
      <trkpt lat="45.50291" lon="6.69122">
        <ele>2150</ele>
        <time>2013-07-27T06:54:37Z</time>
      </trkpt>
      <trkpt lat="45.50293" lon="6.69136">
        <ele>2150</ele>
        <time>2013-07-27T06:54:41Z</time>
      </trkpt>
      <trkpt lat="45.50298" lon="6.69153">
        <ele>2150</ele>
        <time>2013-07-27T06:54:46Z</time>
      </trkpt>
      <trkpt lat="45.50303" lon="6.69171">
        <ele>2150</ele>
        <time>2013-07-27T06:54:51Z</time>
      </trkpt>
      <trkpt lat="45.50305" lon="6.69187">
        <ele>2150</ele>
        <time>2013-07-27T06:54:55Z</time>
      </trkpt>
      <trkpt lat="45.5031" lon="6.69216">
        <ele>2150</ele>
        <time>2013-07-27T06:55:03Z</time>
      </trkpt>
      <trkpt lat="45.50315" lon="6.6923">
        <ele>2150</ele>
        <time>2013-07-27T06:55:07Z</time>
      </trkpt>
      <trkpt lat="45.50321" lon="6.69242">
        <ele>2150</ele>
        <time>2013-07-27T06:55:11Z</time>
      </trkpt>
      <trkpt lat="45.50331" lon="6.69254">
        <ele>2150.28899968</ele>
        <time>2013-07-27T06:55:16Z</time>
      </trkpt>
      <trkpt lat="45.50341" lon="6.69266">
        <ele>2150.78899968</ele>
        <time>2013-07-27T06:55:21Z</time>
      </trkpt>
      <trkpt lat="45.50351" lon="6.69291">
        <ele>2151</ele>
        <time>2013-07-27T06:55:29Z</time>
      </trkpt>
      <trkpt lat="45.50354" lon="6.69306">
        <ele>2151</ele>
        <time>2013-07-27T06:55:33Z</time>
      </trkpt>
      <trkpt lat="45.50355" lon="6.69322">
        <ele>2150.6155403058</ele>
        <time>2013-07-27T06:55:37Z</time>
      </trkpt>
      <trkpt lat="45.50356" lon="6.69334">
        <ele>2150.3128145912</ele>
        <time>2013-07-27T06:55:40Z</time>
      </trkpt>
      <trkpt lat="45.50354" lon="6.6935">
        <ele>2150</ele>
        <time>2013-07-27T06:55:44Z</time>
      </trkpt>
      <trkpt lat="45.50345" lon="6.6938">
        <ele>2150</ele>
        <time>2013-07-27T06:55:52Z</time>
      </trkpt>
      <trkpt lat="45.5032" lon="6.69399">
        <ele>2150.989108601</ele>
        <time>2013-07-27T06:56:03Z</time>
      </trkpt>
      <trkpt lat="45.50315" lon="6.69401">
        <ele>2151</ele>
        <time>2013-07-27T06:56:05Z</time>
      </trkpt>
      <trkpt lat="45.50306" lon="6.69407">
        <ele>2151</ele>
        <time>2013-07-27T06:56:09Z</time>
      </trkpt>
      <trkpt lat="45.50296" lon="6.6942">
        <ele>2151</ele>
        <time>2013-07-27T06:56:14Z</time>
      </trkpt>
      <trkpt lat="45.50292" lon="6.69436">
        <ele>2151</ele>
        <time>2013-07-27T06:56:19Z</time>
      </trkpt>
      <trkpt lat="45.50289" lon="6.69446">
        <ele>2151</ele>
        <time>2013-07-27T06:56:22Z</time>
      </trkpt>
      <trkpt lat="45.50281" lon="6.69453">
        <ele>2151</ele>
        <time>2013-07-27T06:56:26Z</time>
      </trkpt>
      <trkpt lat="45.50264" lon="6.69455">
        <ele>2151</ele>
        <time>2013-07-27T06:56:34Z</time>
      </trkpt>
      <trkpt lat="45.50256" lon="6.6946">
        <ele>2151</ele>
        <time>2013-07-27T06:56:38Z</time>
      </trkpt>
      <trkpt lat="45.5025" lon="6.69465">
        <ele>2151</ele>
        <time>2013-07-27T06:56:41Z</time>
      </trkpt>
      <trkpt lat="45.50241" lon="6.6947">
        <ele>2151.19900032</ele>
        <time>2013-07-27T06:56:45Z</time>
      </trkpt>
      <trkpt lat="45.50232" lon="6.69472">
        <ele>2151.59900032</ele>
        <time>2013-07-27T06:56:49Z</time>
      </trkpt>
      <trkpt lat="45.50217" lon="6.69475">
        <ele>2152.19900032</ele>
        <time>2013-07-27T06:56:55Z</time>
      </trkpt>
      <trkpt lat="45.50209" lon="6.69479">
        <ele>2152.49900032</ele>
        <time>2013-07-27T06:56:58Z</time>
      </trkpt>
      <trkpt lat="45.50202" lon="6.69483">
        <ele>2152.79900032</ele>
        <time>2013-07-27T06:57:01Z</time>
      </trkpt>
      <trkpt lat="45.50195" lon="6.69488">
        <ele>2153</ele>
        <time>2013-07-27T06:57:04Z</time>
      </trkpt>
      <trkpt lat="45.50188" lon="6.69495">
        <ele>2153</ele>
        <time>2013-07-27T06:57:07Z</time>
      </trkpt>
      <trkpt lat="45.50177" lon="6.69516">
        <ele>2152.90300032</ele>
        <time>2013-07-27T06:57:14Z</time>
      </trkpt>
      <trkpt lat="45.50173" lon="6.69521">
        <ele>2152.70300032</ele>
        <time>2013-07-27T06:57:16Z</time>
      </trkpt>
      <trkpt lat="45.50149" lon="6.6954">
        <ele>2152.3982036578</ele>
        <time>2013-07-27T06:57:27Z</time>
      </trkpt>
      <trkpt lat="45.50133" lon="6.69569">
        <ele>2153</ele>
        <time>2013-07-27T06:57:37Z</time>
      </trkpt>
      <trkpt lat="45.50126" lon="6.69584">
        <ele>2153</ele>
        <time>2013-07-27T06:57:42Z</time>
      </trkpt>
      <trkpt lat="45.5012" lon="6.696">
        <ele>2153.79800064</ele>
        <time>2013-07-27T06:57:47Z</time>
      </trkpt>
      <trkpt lat="45.50113" lon="6.69614">
        <ele>2154.79800064</ele>
        <time>2013-07-27T06:57:52Z</time>
      </trkpt>
      <trkpt lat="45.50107" lon="6.6963">
        <ele>2155</ele>
        <time>2013-07-27T06:57:57Z</time>
      </trkpt>
      <trkpt lat="45.50102" lon="6.69662">
        <ele>2155.292</ele>
        <time>2013-07-27T06:58:06Z</time>
      </trkpt>
      <trkpt lat="45.50101" lon="6.69678">
        <ele>2155.792</ele>
        <time>2013-07-27T06:58:11Z</time>
      </trkpt>
      <trkpt lat="45.501" lon="6.69695">
        <ele>2156.29900032</ele>
        <time>2013-07-27T06:58:16Z</time>
      </trkpt>
      <trkpt lat="45.501" lon="6.69712">
        <ele>2156.79900032</ele>
        <time>2013-07-27T06:58:21Z</time>
      </trkpt>
      <trkpt lat="45.50101" lon="6.69729">
        <ele>2157.2914169795</ele>
        <time>2013-07-27T06:58:26Z</time>
      </trkpt>
      <trkpt lat="45.50098" lon="6.69765">
        <ele>2158.3880591882</ele>
        <time>2013-07-27T06:58:37Z</time>
      </trkpt>
      <trkpt lat="45.50091" lon="6.69781">
        <ele>2158.9850743037</ele>
        <time>2013-07-27T06:58:43Z</time>
      </trkpt>
      <trkpt lat="45.50087" lon="6.69789">
        <ele>2159.594974683</ele>
        <time>2013-07-27T06:58:49Z</time>
      </trkpt>
      <trkpt lat="45.50089" lon="6.69803">
        <ele>2160.39399936</ele>
        <time>2013-07-27T06:59:15Z</time>
      </trkpt>
      <trkpt lat="45.50087" lon="6.6982">
        <ele>2161.79399936</ele>
        <time>2013-07-27T06:59:22Z</time>
      </trkpt>
      <trkpt lat="45.50078" lon="6.69849">
        <ele>2162.8902189923</ele>
        <time>2013-07-27T06:59:32Z</time>
      </trkpt>
      <trkpt lat="45.50075" lon="6.69866">
        <ele>2163</ele>
        <time>2013-07-27T06:59:41Z</time>
      </trkpt>
      <trkpt lat="45.50075" lon="6.69879">
        <ele>2164.49700096</ele>
        <time>2013-07-27T06:59:48Z</time>
      </trkpt>
      <trkpt lat="45.50063" lon="6.69924">
        <ele>2166.79800064</ele>
        <time>2013-07-27T07:00:12Z</time>
      </trkpt>
      <trkpt lat="45.50056" lon="6.69929">
        <ele>2167</ele>
        <time>2013-07-27T07:00:17Z</time>
      </trkpt>
      <trkpt lat="45.50049" lon="6.69934">
        <ele>2167</ele>
        <time>2013-07-27T07:00:23Z</time>
      </trkpt>
      <trkpt lat="45.50042" lon="6.69941">
        <ele>2168.3812366427</ele>
        <time>2013-07-27T07:00:30Z</time>
      </trkpt>
      <trkpt lat="45.50036" lon="6.69947">
        <ele>2169.5771546787</ele>
        <time>2013-07-27T07:00:36Z</time>
      </trkpt>
      <trkpt lat="45.50022" lon="6.69959">
        <ele>2172.59800064</ele>
        <time>2013-07-27T07:00:51Z</time>
      </trkpt>
      <trkpt lat="45.50018" lon="6.69965">
        <ele>2173.99800064</ele>
        <time>2013-07-27T07:00:58Z</time>
      </trkpt>
      <trkpt lat="45.50011" lon="6.69972">
        <ele>2175.3836165062</ele>
        <time>2013-07-27T07:01:05Z</time>
      </trkpt>
      <trkpt lat="45.50006" lon="6.6998">
        <ele>2176.782218352</ele>
        <time>2013-07-27T07:01:12Z</time>
      </trkpt>
      <trkpt lat="45.49999" lon="6.6999">
        <ele>2177.5915917224</ele>
        <time>2013-07-27T07:01:19Z</time>
      </trkpt>
      <trkpt lat="45.49985" lon="6.70009">
        <ele>2179.16599808</ele>
        <time>2013-07-27T07:01:34Z</time>
      </trkpt>
      <trkpt lat="45.49977" lon="6.70021">
        <ele>2181.2705393318</ele>
        <time>2013-07-27T07:01:44Z</time>
      </trkpt>
      <trkpt lat="45.49971" lon="6.70028">
        <ele>2183.0741477029</ele>
        <time>2013-07-27T07:01:50Z</time>
      </trkpt>
      <trkpt lat="45.49963" lon="6.7004">
        <ele>2186.076</ele>
        <time>2013-07-27T07:02:00Z</time>
      </trkpt>
      <trkpt lat="45.49956" lon="6.70049">
        <ele>2188.75499904</ele>
        <time>2013-07-27T07:02:09Z</time>
      </trkpt>
      <trkpt lat="45.49944" lon="6.7006">
        <ele>2190.792</ele>
        <time>2013-07-27T07:02:21Z</time>
      </trkpt>
      <trkpt lat="45.49939" lon="6.70064">
        <ele>2191.1986029869</ele>
        <time>2013-07-27T07:02:25Z</time>
      </trkpt>
      <trkpt lat="45.49934" lon="6.70069">
        <ele>2191.5978043288</ele>
        <time>2013-07-27T07:02:29Z</time>
      </trkpt>
      <trkpt lat="45.4993" lon="6.70073">
        <ele>2191.9970056706</ele>
        <time>2013-07-27T07:02:33Z</time>
      </trkpt>
      <trkpt lat="45.49911" lon="6.70099">
        <ele>2198.192</ele>
        <time>2013-07-27T07:02:55Z</time>
      </trkpt>
      <trkpt lat="45.49908" lon="6.70106">
        <ele>2198.692</ele>
        <time>2013-07-27T07:03:00Z</time>
      </trkpt>
      <trkpt lat="45.49905" lon="6.70115">
        <ele>2199</ele>
        <time>2013-07-27T07:03:05Z</time>
      </trkpt>
      <trkpt lat="45.49902" lon="6.70123">
        <ele>2199</ele>
        <time>2013-07-27T07:03:10Z</time>
      </trkpt>
      <trkpt lat="45.49895" lon="6.7014">
        <ele>2201.376</ele>
        <time>2013-07-27T07:03:21Z</time>
      </trkpt>
      <trkpt lat="45.49893" lon="6.70148">
        <ele>2202.3940597899</ele>
        <time>2013-07-27T07:03:25Z</time>
      </trkpt>
      <trkpt lat="45.4989" lon="6.70155">
        <ele>2203.1861384959</ele>
        <time>2013-07-27T07:03:29Z</time>
      </trkpt>
      <trkpt lat="45.49886" lon="6.70164">
        <ele>2204.0828276899</ele>
        <time>2013-07-27T07:03:34Z</time>
      </trkpt>
      <trkpt lat="45.49883" lon="6.70173">
        <ele>2204.5878785215</ele>
        <time>2013-07-27T07:03:39Z</time>
      </trkpt>
      <trkpt lat="45.49877" lon="6.70191">
        <ele>2205.592</ele>
        <time>2013-07-27T07:03:49Z</time>
      </trkpt>
      <trkpt lat="45.49882" lon="6.70202">
        <ele>2207.4513278903</ele>
        <time>2013-07-27T07:03:58Z</time>
      </trkpt>
      <trkpt lat="45.49886" lon="6.7021">
        <ele>2208.9262546081</ele>
        <time>2013-07-27T07:04:03Z</time>
      </trkpt>
      <trkpt lat="45.49886" lon="6.70218">
        <ele>2209.9806723969</ele>
        <time>2013-07-27T07:04:08Z</time>
      </trkpt>
      <trkpt lat="45.49884" lon="6.70228">
        <ele>2211.384</ele>
        <time>2013-07-27T07:04:15Z</time>
      </trkpt>
      <trkpt lat="45.4988" lon="6.70245">
        <ele>2214.985076851</ele>
        <time>2013-07-27T07:04:27Z</time>
      </trkpt>
      <trkpt lat="45.49878" lon="6.70253">
        <ele>2217.4726398321</ele>
        <time>2013-07-27T07:04:32Z</time>
      </trkpt>
      <trkpt lat="45.49875" lon="6.70261">
        <ele>2219.4683422011</ele>
        <time>2013-07-27T07:04:38Z</time>
      </trkpt>
      <trkpt lat="45.49874" lon="6.7027">
        <ele>2221.59700096</ele>
        <time>2013-07-27T07:04:45Z</time>
      </trkpt>
      <trkpt lat="45.49871" lon="6.70281">
        <ele>2223.69700096</ele>
        <time>2013-07-27T07:04:52Z</time>
      </trkpt>
      <trkpt lat="45.4987" lon="6.7032">
        <ele>2228.79800064</ele>
        <time>2013-07-27T07:05:22Z</time>
      </trkpt>
      <trkpt lat="45.49867" lon="6.70328">
        <ele>2229.7964073157</ele>
        <time>2013-07-27T07:05:27Z</time>
      </trkpt>
      <trkpt lat="45.49865" lon="6.70334">
        <ele>2230.5948099993</ele>
        <time>2013-07-27T07:05:31Z</time>
      </trkpt>
      <trkpt lat="45.49863" lon="6.70363">
        <ele>2234.584</ele>
        <time>2013-07-27T07:05:51Z</time>
      </trkpt>
      <trkpt lat="45.49858" lon="6.7038">
        <ele>2235</ele>
        <time>2013-07-27T07:05:57Z</time>
      </trkpt>
      <trkpt lat="45.4985" lon="6.70395">
        <ele>2235</ele>
        <time>2013-07-27T07:06:03Z</time>
      </trkpt>
      <trkpt lat="45.49847" lon="6.70403">
        <ele>2235.2940585036</ele>
        <time>2013-07-27T07:06:06Z</time>
      </trkpt>
      <trkpt lat="45.49843" lon="6.7041">
        <ele>2235.5961734046</ele>
        <time>2013-07-27T07:06:09Z</time>
      </trkpt>
      <trkpt lat="45.49829" lon="6.70428">
        <ele>2236.49900032</ele>
        <time>2013-07-27T07:06:18Z</time>
      </trkpt>
      <trkpt lat="45.4982" lon="6.70439">
        <ele>2237.3692606025</ele>
        <time>2013-07-27T07:06:25Z</time>
      </trkpt>
      <trkpt lat="45.49811" lon="6.70451">
        <ele>2239.1803595545</ele>
        <time>2013-07-27T07:06:34Z</time>
      </trkpt>
      <trkpt lat="45.49804" lon="6.7046">
        <ele>2240.5831660654</ele>
        <time>2013-07-27T07:06:41Z</time>
      </trkpt>
      <trkpt lat="45.49799" lon="6.70465">
        <ele>2241.5938435451</ele>
        <time>2013-07-27T07:06:46Z</time>
      </trkpt>
      <trkpt lat="45.4978" lon="6.70475">
        <ele>2243.3927487268</ele>
        <time>2013-07-27T07:06:57Z</time>
      </trkpt>
      <trkpt lat="45.49771" lon="6.70476">
        <ele>2243.7955685947</ele>
        <time>2013-07-27T07:07:01Z</time>
      </trkpt>
      <trkpt lat="45.49761" lon="6.70476">
        <ele>2244</ele>
        <time>2013-07-27T07:07:05Z</time>
      </trkpt>
      <trkpt lat="45.49752" lon="6.70482">
        <ele>2244</ele>
        <time>2013-07-27T07:07:09Z</time>
      </trkpt>
      <trkpt lat="45.49741" lon="6.70489">
        <ele>2244</ele>
        <time>2013-07-27T07:07:14Z</time>
      </trkpt>
      <trkpt lat="45.49723" lon="6.70503">
        <ele>2244.38299904</ele>
        <time>2013-07-27T07:07:27Z</time>
      </trkpt>
      <trkpt lat="45.49695" lon="6.70527">
        <ele>2248.39800064</ele>
        <time>2013-07-27T07:07:50Z</time>
      </trkpt>
      <trkpt lat="45.49685" lon="6.70535">
        <ele>2250.16999936</ele>
        <time>2013-07-27T07:07:59Z</time>
      </trkpt>
      <trkpt lat="45.49664" lon="6.70551">
        <ele>2252.984</ele>
        <time>2013-07-27T07:08:13Z</time>
      </trkpt>
      <trkpt lat="45.49652" lon="6.70553">
        <ele>2253.69900032</ele>
        <time>2013-07-27T07:08:20Z</time>
      </trkpt>
      <trkpt lat="45.49641" lon="6.70558">
        <ele>2254</ele>
        <time>2013-07-27T07:08:28Z</time>
      </trkpt>
      <trkpt lat="45.4963" lon="6.7056">
        <ele>2254.3807604847</ele>
        <time>2013-07-27T07:08:35Z</time>
      </trkpt>
      <trkpt lat="45.4962" lon="6.70561">
        <ele>2255.7835669955</ele>
        <time>2013-07-27T07:08:42Z</time>
      </trkpt>
      <trkpt lat="45.49601" lon="6.7056">
        <ele>2256.384</ele>
        <time>2013-07-27T07:08:55Z</time>
      </trkpt>
      <trkpt lat="45.49591" lon="6.7056">
        <ele>2257.984</ele>
        <time>2013-07-27T07:09:03Z</time>
      </trkpt>
      <trkpt lat="45.49581" lon="6.70566">
        <ele>2258.79900032</ele>
        <time>2013-07-27T07:09:11Z</time>
      </trkpt>
      <trkpt lat="45.49577" lon="6.70572">
        <ele>2259</ele>
        <time>2013-07-27T07:09:15Z</time>
      </trkpt>
      <trkpt lat="45.49572" lon="6.70579">
        <ele>2259</ele>
        <time>2013-07-27T07:09:19Z</time>
      </trkpt>
      <trkpt lat="45.49565" lon="6.70593">
        <ele>2259</ele>
        <time>2013-07-27T07:09:25Z</time>
      </trkpt>
      <trkpt lat="45.49561" lon="6.70602">
        <ele>2259</ele>
        <time>2013-07-27T07:09:28Z</time>
      </trkpt>
      <trkpt lat="45.49552" lon="6.70614">
        <ele>2259</ele>
        <time>2013-07-27T07:09:33Z</time>
      </trkpt>
      <trkpt lat="45.49548" lon="6.70618">
        <ele>2259</ele>
        <time>2013-07-27T07:09:35Z</time>
      </trkpt>
      <trkpt lat="45.49543" lon="6.70622">
        <ele>2259</ele>
        <time>2013-07-27T07:09:38Z</time>
      </trkpt>
      <trkpt lat="45.49533" lon="6.70631">
        <ele>2259.584</ele>
        <time>2013-07-27T07:09:46Z</time>
      </trkpt>
      <trkpt lat="45.49523" lon="6.70637">
        <ele>2261.19800064</ele>
        <time>2013-07-27T07:09:54Z</time>
      </trkpt>
      <trkpt lat="45.49499" lon="6.70658">
        <ele>2264.2905807074</ele>
        <time>2013-07-27T07:10:16Z</time>
      </trkpt>
      <trkpt lat="45.49478" lon="6.70677">
        <ele>2267.8567110856</ele>
        <time>2013-07-27T07:10:36Z</time>
      </trkpt>
      <trkpt lat="45.49469" lon="6.70687">
        <ele>2270.492</ele>
        <time>2013-07-27T07:10:48Z</time>
      </trkpt>
      <trkpt lat="45.4946" lon="6.70697">
        <ele>2272.176</ele>
        <time>2013-07-27T07:10:57Z</time>
      </trkpt>
      <trkpt lat="45.49453" lon="6.70708">
        <ele>2274.38599936</ele>
        <time>2013-07-27T07:11:05Z</time>
      </trkpt>
      <trkpt lat="45.49443" lon="6.70714">
        <ele>2276.89700096</ele>
        <time>2013-07-27T07:11:16Z</time>
      </trkpt>
      <trkpt lat="45.49425" lon="6.70721">
        <ele>2280.9762611351</ele>
        <time>2013-07-27T07:11:33Z</time>
      </trkpt>
      <trkpt lat="45.4942" lon="6.70724">
        <ele>2282.4590490464</ele>
        <time>2013-07-27T07:11:38Z</time>
      </trkpt>
      <trkpt lat="45.49414" lon="6.70727">
        <ele>2284.1825396825</ele>
        <time>2013-07-27T07:11:44Z</time>
      </trkpt>
      <trkpt lat="45.49405" lon="6.70728">
        <ele>2285.9682539682</ele>
        <time>2013-07-27T07:11:53Z</time>
      </trkpt>
      <trkpt lat="45.49397" lon="6.70728">
        <ele>2288.3649174194</ele>
        <time>2013-07-27T07:12:01Z</time>
      </trkpt>
      <trkpt lat="45.4939" lon="6.70728">
        <ele>2289.79800064</ele>
        <time>2013-07-27T07:12:07Z</time>
      </trkpt>
      <trkpt lat="45.49385" lon="6.7073">
        <ele>2290.79800064</ele>
        <time>2013-07-27T07:12:12Z</time>
      </trkpt>
      <trkpt lat="45.49379" lon="6.70731">
        <ele>2291.984</ele>
        <time>2013-07-27T07:12:18Z</time>
      </trkpt>
      <trkpt lat="45.49374" lon="6.70732">
        <ele>2292.984</ele>
        <time>2013-07-27T07:12:23Z</time>
      </trkpt>
      <trkpt lat="45.49368" lon="6.70732">
        <ele>2295.7904186568</ele>
        <time>2013-07-27T07:12:30Z</time>
      </trkpt>
      <trkpt lat="45.49356" lon="6.70737">
        <ele>2299.6753504932</ele>
        <time>2013-07-27T07:12:42Z</time>
      </trkpt>
      <trkpt lat="45.4935" lon="6.70738">
        <ele>2300.9910628827</ele>
        <time>2013-07-27T07:12:48Z</time>
      </trkpt>
      <trkpt lat="45.49343" lon="6.70738">
        <ele>2301.9841112265</ele>
        <time>2013-07-27T07:12:53Z</time>
      </trkpt>
      <trkpt lat="45.49321" lon="6.70741">
        <ele>2305.7820384155</ele>
        <time>2013-07-27T07:13:12Z</time>
      </trkpt>
      <trkpt lat="45.49316" lon="6.70741">
        <ele>2306.2966273016</ele>
        <time>2013-07-27T07:13:16Z</time>
      </trkpt>
      <trkpt lat="45.49309" lon="6.70743">
        <ele>2306.991071746</ele>
        <time>2013-07-27T07:13:23Z</time>
      </trkpt>
      <trkpt lat="45.49304" lon="6.70743">
        <ele>2308.4818913598</ele>
        <time>2013-07-27T07:13:28Z</time>
      </trkpt>
      <trkpt lat="45.49299" lon="6.70745">
        <ele>2310.1803595545</ele>
        <time>2013-07-27T07:13:34Z</time>
      </trkpt>
      <trkpt lat="45.49286" lon="6.70748">
        <ele>2312.36999936</ele>
        <time>2013-07-27T07:13:45Z</time>
      </trkpt>
      <trkpt lat="45.4928" lon="6.70747">
        <ele>2313.16999936</ele>
        <time>2013-07-27T07:13:49Z</time>
      </trkpt>
      <trkpt lat="45.49275" lon="6.7075">
        <ele>2314.184</ele>
        <time>2013-07-27T07:13:54Z</time>
      </trkpt>
      <trkpt lat="45.4927" lon="6.70752">
        <ele>2314.984</ele>
        <time>2013-07-27T07:13:58Z</time>
      </trkpt>
      <trkpt lat="45.49263" lon="6.70755">
        <ele>2316.092</ele>
        <time>2013-07-27T07:14:04Z</time>
      </trkpt>
      <trkpt lat="45.49253" lon="6.70763">
        <ele>2317.36999936</ele>
        <time>2013-07-27T07:14:15Z</time>
      </trkpt>
      <trkpt lat="45.49248" lon="6.70769">
        <ele>2318.96999936</ele>
        <time>2013-07-27T07:14:23Z</time>
      </trkpt>
      <trkpt lat="45.49243" lon="6.70774">
        <ele>2321.9536523573</ele>
        <time>2013-07-27T07:14:29Z</time>
      </trkpt>
      <trkpt lat="45.49236" lon="6.70782">
        <ele>2325.5334701608</ele>
        <time>2013-07-27T07:14:37Z</time>
      </trkpt>
      <trkpt lat="45.49229" lon="6.70788">
        <ele>2328.37799936</ele>
        <time>2013-07-27T07:14:45Z</time>
      </trkpt>
      <trkpt lat="45.49221" lon="6.70801">
        <ele>2331.39800064</ele>
        <time>2013-07-27T07:15:00Z</time>
      </trkpt>
      <trkpt lat="45.49219" lon="6.70809">
        <ele>2332.984</ele>
        <time>2013-07-27T07:15:08Z</time>
      </trkpt>
      <trkpt lat="45.49221" lon="6.70823">
        <ele>2336.08500096</ele>
        <time>2013-07-27T07:15:20Z</time>
      </trkpt>
      <trkpt lat="45.49222" lon="6.70832">
        <ele>2338.1816359718</ele>
        <time>2013-07-27T07:15:29Z</time>
      </trkpt>
      <trkpt lat="45.49227" lon="6.70872">
        <ele>2351.796166201</ele>
        <time>2013-07-27T07:16:12Z</time>
      </trkpt>
      <trkpt lat="45.49231" lon="6.70882">
        <ele>2353.9841112265</ele>
        <time>2013-07-27T07:16:23Z</time>
      </trkpt>
      <trkpt lat="45.49236" lon="6.70893">
        <ele>2357.2705393318</ele>
        <time>2013-07-27T07:16:34Z</time>
      </trkpt>
      <trkpt lat="45.49239" lon="6.70902">
        <ele>2359.6753504932</ele>
        <time>2013-07-27T07:16:42Z</time>
      </trkpt>
      <trkpt lat="45.49237" lon="6.7092">
        <ele>2361.392</ele>
        <time>2013-07-27T07:16:57Z</time>
      </trkpt>
      <trkpt lat="45.49233" lon="6.70925">
        <ele>2361.892</ele>
        <time>2013-07-27T07:17:02Z</time>
      </trkpt>
      <trkpt lat="45.49229" lon="6.70928">
        <ele>2362.5785777526</ele>
        <time>2013-07-27T07:17:06Z</time>
      </trkpt>
      <trkpt lat="45.49223" lon="6.70932">
        <ele>2363.579578433</ele>
        <time>2013-07-27T07:17:11Z</time>
      </trkpt>
      <trkpt lat="45.49217" lon="6.70934">
        <ele>2364.28999936</ele>
        <time>2013-07-27T07:17:16Z</time>
      </trkpt>
      <trkpt lat="45.49205" lon="6.7094">
        <ele>2365.5413747425</ele>
        <time>2013-07-27T07:17:25Z</time>
      </trkpt>
      <trkpt lat="45.49199" lon="6.70945">
        <ele>2367.0967082443</ele>
        <time>2013-07-27T07:17:30Z</time>
      </trkpt>
      <trkpt lat="45.49193" lon="6.70954">
        <ele>2368.4814444875</ele>
        <time>2013-07-27T07:17:38Z</time>
      </trkpt>
      <trkpt lat="45.49188" lon="6.70964">
        <ele>2368.8826482271</ele>
        <time>2013-07-27T07:17:42Z</time>
      </trkpt>
      <trkpt lat="45.49178" lon="6.70973">
        <ele>2368.71000064</ele>
        <time>2013-07-27T07:17:46Z</time>
      </trkpt>
      <trkpt lat="45.49163" lon="6.70983">
        <ele>2368.11000064</ele>
        <time>2013-07-27T07:17:52Z</time>
      </trkpt>
      <trkpt lat="45.49152" lon="6.70986">
        <ele>2366.86799872</ele>
        <time>2013-07-27T07:17:56Z</time>
      </trkpt>
      <trkpt lat="45.49141" lon="6.70992">
        <ele>2365.26799872</ele>
        <time>2013-07-27T07:18:00Z</time>
      </trkpt>
      <trkpt lat="45.4913" lon="6.70999">
        <ele>2363.8201810414</ele>
        <time>2013-07-27T07:18:04Z</time>
      </trkpt>
      <trkpt lat="45.4912" lon="6.71006">
        <ele>2363.0009986816</ele>
        <time>2013-07-27T07:18:08Z</time>
      </trkpt>
      <trkpt lat="45.49098" lon="6.71042">
        <ele>2361.0079443867</ele>
        <time>2013-07-27T07:18:23Z</time>
      </trkpt>
      <trkpt lat="45.49097" lon="6.7105">
        <ele>2361.9889444056</ele>
        <time>2013-07-27T07:18:28Z</time>
      </trkpt>
      <trkpt lat="45.49098" lon="6.71058">
        <ele>2362.7929642475</ele>
        <time>2013-07-27T07:18:32Z</time>
      </trkpt>
      <trkpt lat="45.49099" lon="6.71075">
        <ele>2363</ele>
        <time>2013-07-27T07:18:40Z</time>
      </trkpt>
      <trkpt lat="45.49098" lon="6.71084">
        <ele>2363</ele>
        <time>2013-07-27T07:18:43Z</time>
      </trkpt>
      <trkpt lat="45.49096" lon="6.71095">
        <ele>2363</ele>
        <time>2013-07-27T07:18:46Z</time>
      </trkpt>
      <trkpt lat="45.49094" lon="6.71102">
        <ele>2363</ele>
        <time>2013-07-27T07:18:48Z</time>
      </trkpt>
      <trkpt lat="45.49092" lon="6.71108">
        <ele>2363</ele>
        <time>2013-07-27T07:18:50Z</time>
      </trkpt>
      <trkpt lat="45.49084" lon="6.71149">
        <ele>2363</ele>
        <time>2013-07-27T07:19:02Z</time>
      </trkpt>
      <trkpt lat="45.49082" lon="6.71167">
        <ele>2363.3958336508</ele>
        <time>2013-07-27T07:19:07Z</time>
      </trkpt>
      <trkpt lat="45.49081" lon="6.71178">
        <ele>2363.6934526984</ele>
        <time>2013-07-27T07:19:10Z</time>
      </trkpt>
      <trkpt lat="45.4908" lon="6.71189">
        <ele>2363.991071746</ele>
        <time>2013-07-27T07:19:13Z</time>
      </trkpt>
      <trkpt lat="45.49079" lon="6.712">
        <ele>2364</ele>
        <time>2013-07-27T07:19:16Z</time>
      </trkpt>
      <trkpt lat="45.49081" lon="6.71222">
        <ele>2364</ele>
        <time>2013-07-27T07:19:22Z</time>
      </trkpt>
      <trkpt lat="45.49082" lon="6.71232">
        <ele>2364.3944507098</ele>
        <time>2013-07-27T07:19:25Z</time>
      </trkpt>
      <trkpt lat="45.49084" lon="6.71241">
        <ele>2364.9890990649</ele>
        <time>2013-07-27T07:19:28Z</time>
      </trkpt>
      <trkpt lat="45.49085" lon="6.7125">
        <ele>2365.58374742</ele>
        <time>2013-07-27T07:19:31Z</time>
      </trkpt>
      <trkpt lat="45.49087" lon="6.71257">
        <ele>2366.3693244418</ele>
        <time>2013-07-27T07:19:35Z</time>
      </trkpt>
      <trkpt lat="45.4909" lon="6.71277">
        <ele>2368.19900032</ele>
        <time>2013-07-27T07:19:45Z</time>
      </trkpt>
      <trkpt lat="45.4909" lon="6.71307">
        <ele>2371.784</ele>
        <time>2013-07-27T07:20:07Z</time>
      </trkpt>
      <trkpt lat="45.49091" lon="6.71321">
        <ele>2374.776</ele>
        <time>2013-07-27T07:20:19Z</time>
      </trkpt>
      <trkpt lat="45.4909" lon="6.71349">
        <ele>2382.6181801256</ele>
        <time>2013-07-27T07:20:42Z</time>
      </trkpt>
      <trkpt lat="45.49088" lon="6.7136">
        <ele>2383.68300032</ele>
        <time>2013-07-27T07:20:50Z</time>
      </trkpt>
      <trkpt lat="45.49086" lon="6.71372">
        <ele>2384</ele>
        <time>2013-07-27T07:21:02Z</time>
      </trkpt>
      <trkpt lat="45.49086" lon="6.71383">
        <ele>2385.37999872</ele>
        <time>2013-07-27T07:21:10Z</time>
      </trkpt>
      <trkpt lat="45.49087" lon="6.71395">
        <ele>2386.76199936</ele>
        <time>2013-07-27T07:21:17Z</time>
      </trkpt>
      <trkpt lat="45.49087" lon="6.7142">
        <ele>2390.48300032</ele>
        <time>2013-07-27T07:21:48Z</time>
      </trkpt>
      <trkpt lat="45.49087" lon="6.71432">
        <ele>2391.73199616</ele>
        <time>2013-07-27T07:21:55Z</time>
      </trkpt>
      <trkpt lat="45.49088" lon="6.71444">
        <ele>2394.53200128</ele>
        <time>2013-07-27T07:22:02Z</time>
      </trkpt>
      <trkpt lat="45.49093" lon="6.71465">
        <ele>2395.16600064</ele>
        <time>2013-07-27T07:22:14Z</time>
      </trkpt>
      <trkpt lat="45.49099" lon="6.7149">
        <ele>2399.2351777334</ele>
        <time>2013-07-27T07:22:34Z</time>
      </trkpt>
      <trkpt lat="45.49118" lon="6.71529">
        <ele>2407.3653662093</ele>
        <time>2013-07-27T07:23:10Z</time>
      </trkpt>
      <trkpt lat="45.49107" lon="6.71528">
        <ele>2412.3280454559</ele>
        <time>2013-07-27T07:23:31Z</time>
      </trkpt>
      <trkpt lat="45.49098" lon="6.71522">
        <ele>2415.639756968</ele>
        <time>2013-07-27T07:23:42Z</time>
      </trkpt>
      <trkpt lat="45.49089" lon="6.71517">
        <ele>2419.33200128</ele>
        <time>2013-07-27T07:23:54Z</time>
      </trkpt>
      <trkpt lat="45.49087" lon="6.71522">
        <ele>2421.33199616</ele>
        <time>2013-07-27T07:23:59Z</time>
      </trkpt>
      <trkpt lat="45.49101" lon="6.71545">
        <ele>2422.21700096</ele>
        <time>2013-07-27T07:24:11Z</time>
      </trkpt>
      <trkpt lat="45.49107" lon="6.71552">
        <ele>2422.1794602817</ele>
        <time>2013-07-27T07:24:14Z</time>
      </trkpt>
      <trkpt lat="45.49126" lon="6.71574">
        <ele>2425.15999744</ele>
        <time>2013-07-27T07:24:29Z</time>
      </trkpt>
      <trkpt lat="45.49135" lon="6.71592">
        <ele>2426.5817441386</ele>
        <time>2013-07-27T07:24:39Z</time>
      </trkpt>
      <trkpt lat="45.49138" lon="6.71601">
        <ele>2426.9829478782</ele>
        <time>2013-07-27T07:24:43Z</time>
      </trkpt>
      <trkpt lat="45.49141" lon="6.71611">
        <ele>2428.46999808</ele>
        <time>2013-07-27T07:24:48Z</time>
      </trkpt>
      <trkpt lat="45.49145" lon="6.71621">
        <ele>2429.96999808</ele>
        <time>2013-07-27T07:24:53Z</time>
      </trkpt>
      <trkpt lat="45.49149" lon="6.71631">
        <ele>2430</ele>
        <time>2013-07-27T07:24:58Z</time>
      </trkpt>
      <trkpt lat="45.49159" lon="6.71644">
        <ele>2430</ele>
        <time>2013-07-27T07:25:05Z</time>
      </trkpt>
      <trkpt lat="45.49164" lon="6.71654">
        <ele>2430</ele>
        <time>2013-07-27T07:25:10Z</time>
      </trkpt>
      <trkpt lat="45.4917" lon="6.71665">
        <ele>2430.18299904</ele>
        <time>2013-07-27T07:25:15Z</time>
      </trkpt>
      <trkpt lat="45.49176" lon="6.71674">
        <ele>2430.58299904</ele>
        <time>2013-07-27T07:25:19Z</time>
      </trkpt>
      <trkpt lat="45.49179" lon="6.71684">
        <ele>2430.98299904</ele>
        <time>2013-07-27T07:25:23Z</time>
      </trkpt>
      <trkpt lat="45.49183" lon="6.71702">
        <ele>2431.589231158</ele>
        <time>2013-07-27T07:25:29Z</time>
      </trkpt>
      <trkpt lat="45.49184" lon="6.71711">
        <ele>2431.8873370649</ele>
        <time>2013-07-27T07:25:32Z</time>
      </trkpt>
      <trkpt lat="45.49186" lon="6.71724">
        <ele>2432.2788359571</ele>
        <time>2013-07-27T07:25:36Z</time>
      </trkpt>
      <trkpt lat="45.49187" lon="6.71736">
        <ele>2432.6800396967</ele>
        <time>2013-07-27T07:25:40Z</time>
      </trkpt>
      <trkpt lat="45.49187" lon="6.71746">
        <ele>2432.9809425014</ele>
        <time>2013-07-27T07:25:43Z</time>
      </trkpt>
      <trkpt lat="45.49185" lon="6.71765">
        <ele>2433.58999936</ele>
        <time>2013-07-27T07:25:49Z</time>
      </trkpt>
      <trkpt lat="45.49184" lon="6.71775">
        <ele>2433.88999936</ele>
        <time>2013-07-27T07:25:52Z</time>
      </trkpt>
      <trkpt lat="45.49183" lon="6.71785">
        <ele>2434.18299904</ele>
        <time>2013-07-27T07:25:55Z</time>
      </trkpt>
      <trkpt lat="45.49188" lon="6.71854">
        <ele>2435.2821537684</ele>
        <time>2013-07-27T07:26:26Z</time>
      </trkpt>
      <trkpt lat="45.49187" lon="6.71873">
        <ele>2436.5616852355</ele>
        <time>2013-07-27T07:26:36Z</time>
      </trkpt>
      <trkpt lat="45.49187" lon="6.71889">
        <ele>2438.28300032</ele>
        <time>2013-07-27T07:26:46Z</time>
      </trkpt>
      <trkpt lat="45.49191" lon="6.719">
        <ele>2438.98299904</ele>
        <time>2013-07-27T07:26:53Z</time>
      </trkpt>
      <trkpt lat="45.49194" lon="6.7191">
        <ele>2440.176</ele>
        <time>2013-07-27T07:26:59Z</time>
      </trkpt>
      <trkpt lat="45.49203" lon="6.71926">
        <ele>2442.5613136395</ele>
        <time>2013-07-27T07:27:11Z</time>
      </trkpt>
      <trkpt lat="45.4921" lon="6.71937">
        <ele>2443.5817441386</ele>
        <time>2013-07-27T07:27:19Z</time>
      </trkpt>
      <trkpt lat="45.49216" lon="6.71949">
        <ele>2444.9770672057</ele>
        <time>2013-07-27T07:27:28Z</time>
      </trkpt>
      <trkpt lat="45.4922" lon="6.7196">
        <ele>2446</ele>
        <time>2013-07-27T07:27:34Z</time>
      </trkpt>
      <trkpt lat="45.49225" lon="6.71972">
        <ele>2446</ele>
        <time>2013-07-27T07:27:41Z</time>
      </trkpt>
      <trkpt lat="45.49235" lon="6.71997">
        <ele>2448.276</ele>
        <time>2013-07-27T07:27:56Z</time>
      </trkpt>
      <trkpt lat="45.49241" lon="6.72007">
        <ele>2448.876</ele>
        <time>2013-07-27T07:28:02Z</time>
      </trkpt>
      <trkpt lat="45.49247" lon="6.72023">
        <ele>2450.78200064</ele>
        <time>2013-07-27T07:28:12Z</time>
      </trkpt>
      <trkpt lat="45.49248" lon="6.72038">
        <ele>2451.68999936</ele>
        <time>2013-07-27T07:28:20Z</time>
      </trkpt>
      <trkpt lat="45.49246" lon="6.72054">
        <ele>2452</ele>
        <time>2013-07-27T07:28:28Z</time>
      </trkpt>
      <trkpt lat="45.49243" lon="6.72081">
        <ele>2453.7652964543</ele>
        <time>2013-07-27T07:28:42Z</time>
      </trkpt>
      <trkpt lat="45.4924" lon="6.72093">
        <ele>2455.16599808</ele>
        <time>2013-07-27T07:28:49Z</time>
      </trkpt>
      <trkpt lat="45.49237" lon="6.72104">
        <ele>2457.104</ele>
        <time>2013-07-27T07:28:56Z</time>
      </trkpt>
      <trkpt lat="45.49235" lon="6.72113">
        <ele>2459.504</ele>
        <time>2013-07-27T07:29:02Z</time>
      </trkpt>
      <trkpt lat="45.49229" lon="6.72146">
        <ele>2462.76600064</ele>
        <time>2013-07-27T07:29:22Z</time>
      </trkpt>
      <trkpt lat="45.49228" lon="6.72155">
        <ele>2463.7776654747</ele>
        <time>2013-07-27T07:29:27Z</time>
      </trkpt>
      <trkpt lat="45.49227" lon="6.72163">
        <ele>2464.7746741297</ele>
        <time>2013-07-27T07:29:32Z</time>
      </trkpt>
      <trkpt lat="45.49225" lon="6.7217">
        <ele>2465.5616852355</ele>
        <time>2013-07-27T07:29:36Z</time>
      </trkpt>
      <trkpt lat="45.49221" lon="6.7219">
        <ele>2467.38299904</ele>
        <time>2013-07-27T07:29:47Z</time>
      </trkpt>
      <trkpt lat="45.4922" lon="6.72198">
        <ele>2467.88300032</ele>
        <time>2013-07-27T07:29:52Z</time>
      </trkpt>
      <trkpt lat="45.49218" lon="6.72205">
        <ele>2468.8673956156</ele>
        <time>2013-07-27T07:29:56Z</time>
      </trkpt>
      <trkpt lat="45.49217" lon="6.72212">
        <ele>2470.0638060016</ele>
        <time>2013-07-27T07:30:00Z</time>
      </trkpt>
      <trkpt lat="45.49215" lon="6.7222">
        <ele>2471.0802407479</ele>
        <time>2013-07-27T07:30:04Z</time>
      </trkpt>
      <trkpt lat="45.49212" lon="6.72236">
        <ele>2472.179103261</ele>
        <time>2013-07-27T07:30:14Z</time>
      </trkpt>
      <trkpt lat="45.49211" lon="6.72244">
        <ele>2472.975123415</ele>
        <time>2013-07-27T07:30:18Z</time>
      </trkpt>
      <trkpt lat="45.4921" lon="6.72253">
        <ele>2473.9701486074</ele>
        <time>2013-07-27T07:30:23Z</time>
      </trkpt>
      <trkpt lat="45.49209" lon="6.7226">
        <ele>2474.76999936</ele>
        <time>2013-07-27T07:30:27Z</time>
      </trkpt>
      <trkpt lat="45.49208" lon="6.72269">
        <ele>2475.76999936</ele>
        <time>2013-07-27T07:30:32Z</time>
      </trkpt>
      <trkpt lat="45.49204" lon="6.72286">
        <ele>2477.7648248394</ele>
        <time>2013-07-27T07:30:42Z</time>
      </trkpt>
      <trkpt lat="45.49203" lon="6.72293">
        <ele>2478.57999872</ele>
        <time>2013-07-27T07:30:46Z</time>
      </trkpt>
      <trkpt lat="45.492" lon="6.72299">
        <ele>2479.57999872</ele>
        <time>2013-07-27T07:30:51Z</time>
      </trkpt>
      <trkpt lat="45.49193" lon="6.72304">
        <ele>2480.38999936</ele>
        <time>2013-07-27T07:30:57Z</time>
      </trkpt>
      <trkpt lat="45.49187" lon="6.72308">
        <ele>2480.90999936</ele>
        <time>2013-07-27T07:31:02Z</time>
      </trkpt>
      <trkpt lat="45.49177" lon="6.72329">
        <ele>2482.76999808</ele>
        <time>2013-07-27T07:31:19Z</time>
      </trkpt>
      <trkpt lat="45.49176" lon="6.72334">
        <ele>2483.66999808</ele>
        <time>2013-07-27T07:31:22Z</time>
      </trkpt>
      <trkpt lat="45.49175" lon="6.72339">
        <ele>2484</ele>
        <time>2013-07-27T07:31:25Z</time>
      </trkpt>
      <trkpt lat="45.49175" lon="6.72353">
        <ele>2484</ele>
        <time>2013-07-27T07:31:33Z</time>
      </trkpt>
      <trkpt lat="45.49176" lon="6.72361">
        <ele>2484.7622845375</ele>
        <time>2013-07-27T07:31:37Z</time>
      </trkpt>
      <trkpt lat="45.49178" lon="6.72369">
        <ele>2485.5646920168</ele>
        <time>2013-07-27T07:31:41Z</time>
      </trkpt>
      <trkpt lat="45.49179" lon="6.72377">
        <ele>2486</ele>
        <time>2013-07-27T07:31:45Z</time>
      </trkpt>
      <trkpt lat="45.4918" lon="6.72385">
        <ele>2486</ele>
        <time>2013-07-27T07:31:49Z</time>
      </trkpt>
      <trkpt lat="45.4918" lon="6.72404">
        <ele>2486.96600064</ele>
        <time>2013-07-27T07:31:58Z</time>
      </trkpt>
      <trkpt lat="45.49178" lon="6.72412">
        <ele>2487.76600064</ele>
        <time>2013-07-27T07:32:02Z</time>
      </trkpt>
      <trkpt lat="45.49177" lon="6.7242">
        <ele>2488.28300032</ele>
        <time>2013-07-27T07:32:06Z</time>
      </trkpt>
      <trkpt lat="45.49174" lon="6.72426">
        <ele>2488.58299904</ele>
        <time>2013-07-27T07:32:09Z</time>
      </trkpt>
      <trkpt lat="45.49171" lon="6.72434">
        <ele>2488.98299904</ele>
        <time>2013-07-27T07:32:13Z</time>
      </trkpt>
      <trkpt lat="45.49163" lon="6.72449">
        <ele>2489.78999936</ele>
        <time>2013-07-27T07:32:21Z</time>
      </trkpt>
      <trkpt lat="45.49159" lon="6.72456">
        <ele>2490</ele>
        <time>2013-07-27T07:32:24Z</time>
      </trkpt>
      <trkpt lat="45.49154" lon="6.72463">
        <ele>2490</ele>
        <time>2013-07-27T07:32:27Z</time>
      </trkpt>
      <trkpt lat="45.49149" lon="6.7247">
        <ele>2490</ele>
        <time>2013-07-27T07:32:30Z</time>
      </trkpt>
      <trkpt lat="45.49145" lon="6.72475">
        <ele>2490</ele>
        <time>2013-07-27T07:32:32Z</time>
      </trkpt>
      <trkpt lat="45.49135" lon="6.72494">
        <ele>2491.1634882772</ele>
        <time>2013-07-27T07:32:39Z</time>
      </trkpt>
      <trkpt lat="45.49129" lon="6.72528">
        <ele>2492</ele>
        <time>2013-07-27T07:33:08Z</time>
      </trkpt>
      <trkpt lat="45.49128" lon="6.72543">
        <ele>2492.56</ele>
        <time>2013-07-27T07:33:16Z</time>
      </trkpt>
      <trkpt lat="45.49129" lon="6.72567">
        <ele>2494</ele>
        <time>2013-07-27T07:33:29Z</time>
      </trkpt>
      <trkpt lat="45.49133" lon="6.72585">
        <ele>2495.7452324157</ele>
        <time>2013-07-27T07:33:39Z</time>
      </trkpt>
      <trkpt lat="45.49138" lon="6.72602">
        <ele>2497.688</ele>
        <time>2013-07-27T07:33:50Z</time>
      </trkpt>
      <trkpt lat="45.49143" lon="6.72616">
        <ele>2500.34899712</ele>
        <time>2013-07-27T07:34:01Z</time>
      </trkpt>
      <trkpt lat="45.49153" lon="6.72631">
        <ele>2501.17999872</ele>
        <time>2013-07-27T07:34:14Z</time>
      </trkpt>
      <trkpt lat="45.4916" lon="6.72665">
        <ele>2505.5793169478</ele>
        <time>2013-07-27T07:34:39Z</time>
      </trkpt>
      <trkpt lat="45.49162" lon="6.72681">
        <ele>2507.352</ele>
        <time>2013-07-27T07:34:50Z</time>
      </trkpt>
      <trkpt lat="45.49162" lon="6.72699">
        <ele>2510.94899712</ele>
        <time>2013-07-27T07:35:03Z</time>
      </trkpt>
      <trkpt lat="45.4916" lon="6.72719">
        <ele>2514.69900032</ele>
        <time>2013-07-27T07:35:20Z</time>
      </trkpt>
      <trkpt lat="45.49166" lon="6.72732">
        <ele>2518.9248256618</ele>
        <time>2013-07-27T07:35:33Z</time>
      </trkpt>
      <trkpt lat="45.49169" lon="6.72753">
        <ele>2522.2862903226</ele>
        <time>2013-07-27T07:35:46Z</time>
      </trkpt>
      <trkpt lat="45.4917" lon="6.72762">
        <ele>2523.184</ele>
        <time>2013-07-27T07:35:54Z</time>
      </trkpt>
      <trkpt lat="45.49171" lon="6.72781">
        <ele>2525.39800064</ele>
        <time>2013-07-27T07:36:05Z</time>
      </trkpt>
      <trkpt lat="45.49171" lon="6.72796">
        <ele>2527.09900032</ele>
        <time>2013-07-27T07:36:14Z</time>
      </trkpt>
      <trkpt lat="45.49169" lon="6.72808">
        <ele>2528.1836326172</ele>
        <time>2013-07-27T07:36:24Z</time>
      </trkpt>
      <trkpt lat="45.49168" lon="6.72842">
        <ele>2535.7717692823</ele>
        <time>2013-07-27T07:36:49Z</time>
      </trkpt>
      <trkpt lat="45.49164" lon="6.72859">
        <ele>2539.6763235728</ele>
        <time>2013-07-27T07:37:02Z</time>
      </trkpt>
      <trkpt lat="45.49144" lon="6.7289">
        <ele>2544</ele>
        <time>2013-07-27T07:37:30Z</time>
      </trkpt>
      <trkpt lat="45.49137" lon="6.72917">
        <ele>2546.584</ele>
        <time>2013-07-27T07:37:46Z</time>
      </trkpt>
      <trkpt lat="45.49134" lon="6.72933">
        <ele>2548.19900032</ele>
        <time>2013-07-27T07:37:55Z</time>
      </trkpt>
      <trkpt lat="45.49129" lon="6.72953">
        <ele>2549.5985990475</ele>
        <time>2013-07-27T07:38:06Z</time>
      </trkpt>
      <trkpt lat="45.49126" lon="6.72968">
        <ele>2551.54899712</ele>
        <time>2013-07-27T07:38:15Z</time>
      </trkpt>
      <trkpt lat="45.49127" lon="6.72985">
        <ele>2554</ele>
        <time>2013-07-27T07:38:24Z</time>
      </trkpt>
      <trkpt lat="45.4914" lon="6.73018">
        <ele>2556</ele>
        <time>2013-07-27T07:38:45Z</time>
      </trkpt>
      <trkpt lat="45.4915" lon="6.73036">
        <ele>2557.164</ele>
        <time>2013-07-27T07:38:57Z</time>
      </trkpt>
      <trkpt lat="45.49155" lon="6.73058">
        <ele>2559.4925073303</ele>
        <time>2013-07-27T07:39:08Z</time>
      </trkpt>
      <trkpt lat="45.49152" lon="6.73079">
        <ele>2561.184</ele>
        <time>2013-07-27T07:39:19Z</time>
      </trkpt>
      <trkpt lat="45.49153" lon="6.73097">
        <ele>2563.4730529513</ele>
        <time>2013-07-27T07:39:28Z</time>
      </trkpt>
      <trkpt lat="45.49171" lon="6.73128">
        <ele>2567.184</ele>
        <time>2013-07-27T07:39:49Z</time>
      </trkpt>
      <trkpt lat="45.4918" lon="6.73136">
        <ele>2569.176</ele>
        <time>2013-07-27T07:39:57Z</time>
      </trkpt>
      <trkpt lat="45.4919" lon="6.73141">
        <ele>2571.384</ele>
        <time>2013-07-27T07:40:05Z</time>
      </trkpt>
      <trkpt lat="45.49198" lon="6.73146">
        <ele>2572.584</ele>
        <time>2013-07-27T07:40:11Z</time>
      </trkpt>
      <trkpt lat="45.49204" lon="6.73149">
        <ele>2573.292</ele>
        <time>2013-07-27T07:40:16Z</time>
      </trkpt>
      <trkpt lat="45.49216" lon="6.73156">
        <ele>2574.2963334141</ele>
        <time>2013-07-27T07:40:26Z</time>
      </trkpt>
      <trkpt lat="45.49222" lon="6.73159">
        <ele>2574.79187371</ele>
        <time>2013-07-27T07:40:31Z</time>
      </trkpt>
      <trkpt lat="45.49232" lon="6.7316">
        <ele>2575.9555568772</ele>
        <time>2013-07-27T07:40:38Z</time>
      </trkpt>
      <trkpt lat="45.49265" lon="6.73158">
        <ele>2578.8821184838</ele>
        <time>2013-07-27T07:41:02Z</time>
      </trkpt>
      <trkpt lat="45.49273" lon="6.73158">
        <ele>2579.5025017009</ele>
        <time>2013-07-27T07:41:08Z</time>
      </trkpt>
      <trkpt lat="45.49282" lon="6.73161">
        <ele>2580.3589205634</ele>
        <time>2013-07-27T07:41:14Z</time>
      </trkpt>
      <trkpt lat="45.4929" lon="6.73161">
        <ele>2582.7517413354</ele>
        <time>2013-07-27T07:41:20Z</time>
      </trkpt>
      <trkpt lat="45.49299" lon="6.7316">
        <ele>2584.7539657143</ele>
        <time>2013-07-27T07:41:27Z</time>
      </trkpt>
      <trkpt lat="45.49313" lon="6.73157">
        <ele>2586</ele>
        <time>2013-07-27T07:41:37Z</time>
      </trkpt>
      <trkpt lat="45.49322" lon="6.73156">
        <ele>2586</ele>
        <time>2013-07-27T07:41:43Z</time>
      </trkpt>
      <trkpt lat="45.49331" lon="6.73155">
        <ele>2587.3937567432</ele>
        <time>2013-07-27T07:41:50Z</time>
      </trkpt>
      <trkpt lat="45.4934" lon="6.73154">
        <ele>2588.291708385</ele>
        <time>2013-07-27T07:41:56Z</time>
      </trkpt>
      <trkpt lat="45.49349" lon="6.73156">
        <ele>2588.9910093078</ele>
        <time>2013-07-27T07:42:03Z</time>
      </trkpt>
      <trkpt lat="45.49366" lon="6.73158">
        <ele>2592.2899701164</ele>
        <time>2013-07-27T07:42:16Z</time>
      </trkpt>
      <trkpt lat="45.49375" lon="6.73158">
        <ele>2592.9851039571</ele>
        <time>2013-07-27T07:42:23Z</time>
      </trkpt>
      <trkpt lat="45.49384" lon="6.73158">
        <ele>2594.3812384072</ele>
        <time>2013-07-27T07:42:30Z</time>
      </trkpt>
      <trkpt lat="45.49392" lon="6.73157">
        <ele>2595</ele>
        <time>2013-07-27T07:42:36Z</time>
      </trkpt>
      <trkpt lat="45.494" lon="6.73157">
        <ele>2595</ele>
        <time>2013-07-27T07:42:42Z</time>
      </trkpt>
      <trkpt lat="45.49416" lon="6.73161">
        <ele>2599.192</ele>
        <time>2013-07-27T07:42:55Z</time>
      </trkpt>
      <trkpt lat="45.49422" lon="6.73164">
        <ele>2599.692</ele>
        <time>2013-07-27T07:43:00Z</time>
      </trkpt>
      <trkpt lat="45.49428" lon="6.73169">
        <ele>2600.192</ele>
        <time>2013-07-27T07:43:05Z</time>
      </trkpt>
      <trkpt lat="45.49434" lon="6.73175">
        <ele>2600.792</ele>
        <time>2013-07-27T07:43:11Z</time>
      </trkpt>
      <trkpt lat="45.49463" lon="6.73196">
        <ele>2605.3807604847</ele>
        <time>2013-07-27T07:43:35Z</time>
      </trkpt>
      <trkpt lat="45.49471" lon="6.73199">
        <ele>2606.5831660654</ele>
        <time>2013-07-27T07:43:41Z</time>
      </trkpt>
      <trkpt lat="45.49479" lon="6.73201">
        <ele>2607.79800064</ele>
        <time>2013-07-27T07:43:47Z</time>
      </trkpt>
      <trkpt lat="45.49485" lon="6.73202">
        <ele>2608.79800064</ele>
        <time>2013-07-27T07:43:52Z</time>
      </trkpt>
      <trkpt lat="45.49499" lon="6.73204">
        <ele>2609.892</ele>
        <time>2013-07-27T07:44:02Z</time>
      </trkpt>
      <trkpt lat="45.49505" lon="6.73205">
        <ele>2611.1863244198</ele>
        <time>2013-07-27T07:44:07Z</time>
      </trkpt>
      <trkpt lat="45.49511" lon="6.73206">
        <ele>2612.6729453076</ele>
        <time>2013-07-27T07:44:12Z</time>
      </trkpt>
      <trkpt lat="45.49517" lon="6.73207">
        <ele>2613.3864785028</ele>
        <time>2013-07-27T07:44:17Z</time>
      </trkpt>
      <trkpt lat="45.49526" lon="6.73207">
        <ele>2614.5958089608</ele>
        <time>2013-07-27T07:44:25Z</time>
      </trkpt>
      <trkpt lat="45.49545" lon="6.73211">
        <ele>2617.6913825676</ele>
        <time>2013-07-27T07:44:40Z</time>
      </trkpt>
      <trkpt lat="45.49553" lon="6.73214">
        <ele>2618.59800064</ele>
        <time>2013-07-27T07:44:46Z</time>
      </trkpt>
      <trkpt lat="45.49561" lon="6.73217">
        <ele>2619.79800064</ele>
        <time>2013-07-27T07:44:52Z</time>
      </trkpt>
      <trkpt lat="45.49568" lon="6.7322">
        <ele>2620.99800064</ele>
        <time>2013-07-27T07:44:58Z</time>
      </trkpt>
      <trkpt lat="45.49576" lon="6.73223">
        <ele>2622.092</ele>
        <time>2013-07-27T07:45:04Z</time>
      </trkpt>
      <trkpt lat="45.49592" lon="6.73232">
        <ele>2624.1815466667</ele>
        <time>2013-07-27T07:45:17Z</time>
      </trkpt>
      <trkpt lat="45.49599" lon="6.73236">
        <ele>2625.9672609524</ele>
        <time>2013-07-27T07:45:23Z</time>
      </trkpt>
      <trkpt lat="45.49607" lon="6.73241">
        <ele>2626.6951709005</ele>
        <time>2013-07-27T07:45:30Z</time>
      </trkpt>
      <trkpt lat="45.49615" lon="6.73247">
        <ele>2627.7815623449</ele>
        <time>2013-07-27T07:45:37Z</time>
      </trkpt>
      <trkpt lat="45.49622" lon="6.73252">
        <ele>2629.184</ele>
        <time>2013-07-27T07:45:44Z</time>
      </trkpt>
      <trkpt lat="45.49616" lon="6.73278">
        <ele>2634.9553118712</ele>
        <time>2013-07-27T07:46:13Z</time>
      </trkpt>
      <trkpt lat="45.49607" lon="6.73277">
        <ele>2637.7875134864</ele>
        <time>2013-07-27T07:46:20Z</time>
      </trkpt>
      <trkpt lat="45.49601" lon="6.73275">
        <ele>2639.3972059738</ele>
        <time>2013-07-27T07:46:25Z</time>
      </trkpt>
      <trkpt lat="45.49589" lon="6.73272">
        <ele>2641.0901797773</ele>
        <time>2013-07-27T07:46:34Z</time>
      </trkpt>
      <trkpt lat="45.49585" lon="6.73272">
        <ele>2641.3907811724</ele>
        <time>2013-07-27T07:46:37Z</time>
      </trkpt>
      <trkpt lat="45.4958" lon="6.73271">
        <ele>2641.7925847167</ele>
        <time>2013-07-27T07:46:41Z</time>
      </trkpt>
      <trkpt lat="45.49576" lon="6.7327">
        <ele>2642.092</ele>
        <time>2013-07-27T07:46:44Z</time>
      </trkpt>
      <trkpt lat="45.49571" lon="6.73269">
        <ele>2642.492</ele>
        <time>2013-07-27T07:46:48Z</time>
      </trkpt>
      <trkpt lat="45.49561" lon="6.7327">
        <ele>2643.8952099671</ele>
        <time>2013-07-27T07:46:56Z</time>
      </trkpt>
      <trkpt lat="45.49555" lon="6.7327">
        <ele>2645.0928139926</ele>
        <time>2013-07-27T07:47:00Z</time>
      </trkpt>
      <trkpt lat="45.4955" lon="6.7327">
        <ele>2646.1803595545</ele>
        <time>2013-07-27T07:47:04Z</time>
      </trkpt>
      <trkpt lat="45.49545" lon="6.73271">
        <ele>2646.981963275</ele>
        <time>2013-07-27T07:47:08Z</time>
      </trkpt>
      <trkpt lat="45.49535" lon="6.73273">
        <ele>2648</ele>
        <time>2013-07-27T07:47:16Z</time>
      </trkpt>
      <trkpt lat="45.49515" lon="6.73277">
        <ele>2650.6866118059</ele>
        <time>2013-07-27T07:47:32Z</time>
      </trkpt>
      <trkpt lat="45.49508" lon="6.73279">
        <ele>2651.981963275</ele>
        <time>2013-07-27T07:47:38Z</time>
      </trkpt>
      <trkpt lat="45.495" lon="6.73283">
        <ele>2653.3925058099</ele>
        <time>2013-07-27T07:47:45Z</time>
      </trkpt>
      <trkpt lat="45.49492" lon="6.73287">
        <ele>2654.970416076</ele>
        <time>2013-07-27T07:47:53Z</time>
      </trkpt>
      <trkpt lat="45.49481" lon="6.73291">
        <ele>2655.7961465015</ele>
        <time>2013-07-27T07:48:01Z</time>
      </trkpt>
      <trkpt lat="45.49462" lon="6.73301">
        <ele>2658.492</ele>
        <time>2013-07-27T07:48:18Z</time>
      </trkpt>
      <trkpt lat="45.49436" lon="6.73314">
        <ele>2661.6913825676</ele>
        <time>2013-07-27T07:48:40Z</time>
      </trkpt>
      <trkpt lat="45.49429" lon="6.73314">
        <ele>2662.384</ele>
        <time>2013-07-27T07:48:45Z</time>
      </trkpt>
      <trkpt lat="45.49413" lon="6.73315">
        <ele>2664.58000128</ele>
        <time>2013-07-27T07:48:56Z</time>
      </trkpt>
      <trkpt lat="45.49406" lon="6.73316">
        <ele>2665.57999872</ele>
        <time>2013-07-27T07:49:01Z</time>
      </trkpt>
      <trkpt lat="45.49399" lon="6.73319">
        <ele>2666.392</ele>
        <time>2013-07-27T07:49:07Z</time>
      </trkpt>
      <trkpt lat="45.49391" lon="6.73322">
        <ele>2666.992</ele>
        <time>2013-07-27T07:49:13Z</time>
      </trkpt>
      <trkpt lat="45.49384" lon="6.73323">
        <ele>2668.19800064</ele>
        <time>2013-07-27T07:49:19Z</time>
      </trkpt>
      <trkpt lat="45.49368" lon="6.73332">
        <ele>2669</ele>
        <time>2013-07-27T07:49:33Z</time>
      </trkpt>
      <trkpt lat="45.49358" lon="6.73336">
        <ele>2670.5757560086</ele>
        <time>2013-07-27T07:49:41Z</time>
      </trkpt>
      <trkpt lat="45.49349" lon="6.73339">
        <ele>2671.9890990649</ele>
        <time>2013-07-27T07:49:48Z</time>
      </trkpt>
      <trkpt lat="45.4934" lon="6.73343">
        <ele>2673.1846622209</ele>
        <time>2013-07-27T07:49:55Z</time>
      </trkpt>
      <trkpt lat="45.49331" lon="6.7335">
        <ele>2673.9919273487</ele>
        <time>2013-07-27T07:50:03Z</time>
      </trkpt>
      <trkpt lat="45.49312" lon="6.7336">
        <ele>2677.69900032</ele>
        <time>2013-07-27T07:50:20Z</time>
      </trkpt>
      <trkpt lat="45.49294" lon="6.7337">
        <ele>2679.5811614148</ele>
        <time>2013-07-27T07:50:36Z</time>
      </trkpt>
      <trkpt lat="45.49277" lon="6.73375">
        <ele>2681.784</ele>
        <time>2013-07-27T07:50:47Z</time>
      </trkpt>
      <trkpt lat="45.4926" lon="6.73385">
        <ele>2684.59800064</ele>
        <time>2013-07-27T07:51:01Z</time>
      </trkpt>
      <trkpt lat="45.49248" lon="6.73395">
        <ele>2687.69700096</ele>
        <time>2013-07-27T07:51:12Z</time>
      </trkpt>
      <trkpt lat="45.49232" lon="6.73417">
        <ele>2691.3812366427</ele>
        <time>2013-07-27T07:51:30Z</time>
      </trkpt>
      <trkpt lat="45.49234" lon="6.73434">
        <ele>2694.0741477029</ele>
        <time>2013-07-27T07:51:40Z</time>
      </trkpt>
      <trkpt lat="45.49246" lon="6.73472">
        <ele>2696.308</ele>
        <time>2013-07-27T07:52:00Z</time>
      </trkpt>
      <trkpt lat="45.49256" lon="6.7349">
        <ele>2695.70099968</ele>
        <time>2013-07-27T07:52:06Z</time>
      </trkpt>
      <trkpt lat="45.4926" lon="6.73498">
        <ele>2695.39900032</ele>
        <time>2013-07-27T07:52:09Z</time>
      </trkpt>
      <trkpt lat="45.49264" lon="6.73515">
        <ele>2694.68500096</ele>
        <time>2013-07-27T07:52:14Z</time>
      </trkpt>
      <trkpt lat="45.49246" lon="6.73519">
        <ele>2692.60299904</ele>
        <time>2013-07-27T07:52:21Z</time>
      </trkpt>
      <trkpt lat="45.49239" lon="6.73499">
        <ele>2691.1377579822</ele>
        <time>2013-07-27T07:52:26Z</time>
      </trkpt>
      <trkpt lat="45.49227" lon="6.73473">
        <ele>2688.72999808</ele>
        <time>2013-07-27T07:52:34Z</time>
      </trkpt>
      <trkpt lat="45.49222" lon="6.73463">
        <ele>2687.82999808</ele>
        <time>2013-07-27T07:52:37Z</time>
      </trkpt>
      <trkpt lat="45.49213" lon="6.73446">
        <ele>2686.32999808</ele>
        <time>2013-07-27T07:52:42Z</time>
      </trkpt>
      <trkpt lat="45.49207" lon="6.73433">
        <ele>2686</ele>
        <time>2013-07-27T07:52:46Z</time>
      </trkpt>
      <trkpt lat="45.49201" lon="6.73423">
        <ele>2686</ele>
        <time>2013-07-27T07:52:49Z</time>
      </trkpt>
      <trkpt lat="45.49189" lon="6.73406">
        <ele>2685.24000256</ele>
        <time>2013-07-27T07:52:55Z</time>
      </trkpt>
      <trkpt lat="45.49179" lon="6.73395">
        <ele>2683.24000256</ele>
        <time>2013-07-27T07:53:00Z</time>
      </trkpt>
      <trkpt lat="45.49168" lon="6.73384">
        <ele>2681.43000192</ele>
        <time>2013-07-27T07:53:05Z</time>
      </trkpt>
      <trkpt lat="45.49156" lon="6.73375">
        <ele>2679.93000192</ele>
        <time>2013-07-27T07:53:10Z</time>
      </trkpt>
      <trkpt lat="45.49149" lon="6.73369">
        <ele>2679.03000192</ele>
        <time>2013-07-27T07:53:13Z</time>
      </trkpt>
      <trkpt lat="45.49136" lon="6.73359">
        <ele>2677.04000256</ele>
        <time>2013-07-27T07:53:18Z</time>
      </trkpt>
      <trkpt lat="45.49129" lon="6.73353">
        <ele>2675.84000256</ele>
        <time>2013-07-27T07:53:21Z</time>
      </trkpt>
      <trkpt lat="45.49118" lon="6.73348">
        <ele>2674.0877418663</ele>
        <time>2013-07-27T07:53:25Z</time>
      </trkpt>
      <trkpt lat="45.49073" lon="6.73315">
        <ele>2666.6403620828</ele>
        <time>2013-07-27T07:53:44Z</time>
      </trkpt>
      <trkpt lat="45.49058" lon="6.73303">
        <ele>2664.2427589188</ele>
        <time>2013-07-27T07:53:50Z</time>
      </trkpt>
      <trkpt lat="45.49046" lon="6.73295">
        <ele>2662.60199936</ele>
        <time>2013-07-27T07:53:55Z</time>
      </trkpt>
      <trkpt lat="45.49032" lon="6.73288">
        <ele>2661.60199936</ele>
        <time>2013-07-27T07:54:00Z</time>
      </trkpt>
      <trkpt lat="45.49019" lon="6.73282">
        <ele>2660.60199936</ele>
        <time>2013-07-27T07:54:05Z</time>
      </trkpt>
      <trkpt lat="45.48994" lon="6.73273">
        <ele>2658.26000128</ele>
        <time>2013-07-27T07:54:15Z</time>
      </trkpt>
      <trkpt lat="45.48981" lon="6.73268">
        <ele>2656.26000128</ele>
        <time>2013-07-27T07:54:20Z</time>
      </trkpt>
      <trkpt lat="45.48969" lon="6.73265">
        <ele>2654.2335334237</ele>
        <time>2013-07-27T07:54:25Z</time>
      </trkpt>
      <trkpt lat="45.48963" lon="6.7327">
        <ele>2651</ele>
        <time>2013-07-27T07:54:44Z</time>
      </trkpt>
      <trkpt lat="45.48976" lon="6.73278">
        <ele>2651</ele>
        <time>2013-07-27T07:54:52Z</time>
      </trkpt>
      <trkpt lat="45.49004" lon="6.73299">
        <ele>2647.066927874</ele>
        <time>2013-07-27T07:55:03Z</time>
      </trkpt>
      <trkpt lat="45.49018" lon="6.7331">
        <ele>2645.81504</ele>
        <time>2013-07-27T07:55:09Z</time>
      </trkpt>
      <trkpt lat="45.49006" lon="6.73325">
        <ele>2641.8968966096</ele>
        <time>2013-07-27T07:55:21Z</time>
      </trkpt>
      <trkpt lat="45.48993" lon="6.73321">
        <ele>2639.0288528649</ele>
        <time>2013-07-27T07:55:26Z</time>
      </trkpt>
      <trkpt lat="45.48978" lon="6.73321">
        <ele>2634.8497470566</ele>
        <time>2013-07-27T07:55:32Z</time>
      </trkpt>
      <trkpt lat="45.48999" lon="6.73351">
        <ele>2627.0623761369</ele>
        <time>2013-07-27T07:55:49Z</time>
      </trkpt>
      <trkpt lat="45.49012" lon="6.73363">
        <ele>2624.26800384</ele>
        <time>2013-07-27T07:55:55Z</time>
      </trkpt>
      <trkpt lat="45.49025" lon="6.73375">
        <ele>2621.86800384</ele>
        <time>2013-07-27T07:56:01Z</time>
      </trkpt>
      <trkpt lat="45.49038" lon="6.73389">
        <ele>2620.22000128</ele>
        <time>2013-07-27T07:56:07Z</time>
      </trkpt>
      <trkpt lat="45.49082" lon="6.73424">
        <ele>2612.8514869554</ele>
        <time>2013-07-27T07:56:26Z</time>
      </trkpt>
      <trkpt lat="45.4909" lon="6.73433">
        <ele>2611.2673275357</ele>
        <time>2013-07-27T07:56:30Z</time>
      </trkpt>
      <trkpt lat="45.49098" lon="6.73442">
        <ele>2609.9262617042</ele>
        <time>2013-07-27T07:56:34Z</time>
      </trkpt>
      <trkpt lat="45.49106" lon="6.73453">
        <ele>2609.5222215614</ele>
        <time>2013-07-27T07:56:38Z</time>
      </trkpt>
      <trkpt lat="45.49118" lon="6.73475">
        <ele>2609</ele>
        <time>2013-07-27T07:56:45Z</time>
      </trkpt>
      <trkpt lat="45.49126" lon="6.73498">
        <ele>2609</ele>
        <time>2013-07-27T07:56:52Z</time>
      </trkpt>
      <trkpt lat="45.49129" lon="6.73526">
        <ele>2608.31000064</ele>
        <time>2013-07-27T07:57:00Z</time>
      </trkpt>
      <trkpt lat="45.4913" lon="6.73537">
        <ele>2608.01000064</ele>
        <time>2013-07-27T07:57:03Z</time>
      </trkpt>
      <trkpt lat="45.49134" lon="6.7356">
        <ele>2608</ele>
        <time>2013-07-27T07:57:09Z</time>
      </trkpt>
      <trkpt lat="45.49139" lon="6.73615">
        <ele>2608</ele>
        <time>2013-07-27T07:57:23Z</time>
      </trkpt>
      <trkpt lat="45.49137" lon="6.73643">
        <ele>2606.6241293323</ele>
        <time>2013-07-27T07:57:30Z</time>
      </trkpt>
      <trkpt lat="45.49129" lon="6.7367">
        <ele>2605.2377154625</ele>
        <time>2013-07-27T07:57:37Z</time>
      </trkpt>
      <trkpt lat="45.49123" lon="6.73696">
        <ele>2603.7305406662</ele>
        <time>2013-07-27T07:57:44Z</time>
      </trkpt>
      <trkpt lat="45.49114" lon="6.7372">
        <ele>2601.6347309443</ele>
        <time>2013-07-27T07:57:51Z</time>
      </trkpt>
      <trkpt lat="45.49091" lon="6.73745">
        <ele>2597.8416853921</ele>
        <time>2013-07-27T07:58:01Z</time>
      </trkpt>
      <trkpt lat="45.49076" lon="6.7376">
        <ele>2596.51699968</ele>
        <time>2013-07-27T07:58:08Z</time>
      </trkpt>
      <trkpt lat="45.49063" lon="6.73776">
        <ele>2595.8344959252</ele>
        <time>2013-07-27T07:58:14Z</time>
      </trkpt>
      <trkpt lat="45.49055" lon="6.73786">
        <ele>2595.0368890012</ele>
        <time>2013-07-27T07:58:18Z</time>
      </trkpt>
      <trkpt lat="45.49042" lon="6.73795">
        <ele>2594.0398828985</ele>
        <time>2013-07-27T07:58:23Z</time>
      </trkpt>
      <trkpt lat="45.48987" lon="6.73825">
        <ele>2589.91699968</ele>
        <time>2013-07-27T07:58:44Z</time>
      </trkpt>
      <trkpt lat="45.48973" lon="6.73821">
        <ele>2589.41700096</ele>
        <time>2013-07-27T07:58:49Z</time>
      </trkpt>
      <trkpt lat="45.4896" lon="6.73815">
        <ele>2588.73000192</ele>
        <time>2013-07-27T07:58:54Z</time>
      </trkpt>
      <trkpt lat="45.48934" lon="6.73819">
        <ele>2585.772</ele>
        <time>2013-07-27T07:59:04Z</time>
      </trkpt>
      <trkpt lat="45.48924" lon="6.73834">
        <ele>2584.272</ele>
        <time>2013-07-27T07:59:09Z</time>
      </trkpt>
      <trkpt lat="45.48918" lon="6.73846">
        <ele>2583.072</ele>
        <time>2013-07-27T07:59:13Z</time>
      </trkpt>
      <trkpt lat="45.48914" lon="6.73866">
        <ele>2580.0500032</ele>
        <time>2013-07-27T07:59:19Z</time>
      </trkpt>
      <trkpt lat="45.48916" lon="6.7388">
        <ele>2578.0500032</ele>
        <time>2013-07-27T07:59:23Z</time>
      </trkpt>
      <trkpt lat="45.48913" lon="6.73909">
        <ele>2574.7696945102</ele>
        <time>2013-07-27T07:59:31Z</time>
      </trkpt>
      <trkpt lat="45.4891" lon="6.73923">
        <ele>2573.1323985179</ele>
        <time>2013-07-27T07:59:35Z</time>
      </trkpt>
      <trkpt lat="45.48909" lon="6.73933">
        <ele>2571.6278844944</ele>
        <time>2013-07-27T07:59:38Z</time>
      </trkpt>
      <trkpt lat="45.48907" lon="6.73944">
        <ele>2570.1233704709</ele>
        <time>2013-07-27T07:59:41Z</time>
      </trkpt>
      <trkpt lat="45.48902" lon="6.73966">
        <ele>2567.0500032</ele>
        <time>2013-07-27T07:59:47Z</time>
      </trkpt>
      <trkpt lat="45.48896" lon="6.74005">
        <ele>2563.2286277399</ele>
        <time>2013-07-27T07:59:57Z</time>
      </trkpt>
      <trkpt lat="45.48896" lon="6.74027">
        <ele>2562.0357840387</ele>
        <time>2013-07-27T08:00:03Z</time>
      </trkpt>
      <trkpt lat="45.48888" lon="6.7405">
        <ele>2561.3118716704</ele>
        <time>2013-07-27T08:00:10Z</time>
      </trkpt>
      <trkpt lat="45.48877" lon="6.74066">
        <ele>2559.5849984</ele>
        <time>2013-07-27T08:00:16Z</time>
      </trkpt>
      <trkpt lat="45.48864" lon="6.74078">
        <ele>2556.5849984</ele>
        <time>2013-07-27T08:00:22Z</time>
      </trkpt>
      <trkpt lat="45.48837" lon="6.741">
        <ele>2547.8455372022</ele>
        <time>2013-07-27T08:00:34Z</time>
      </trkpt>
      <trkpt lat="45.48796" lon="6.74119">
        <ele>2543.9530453396</ele>
        <time>2013-07-27T08:00:50Z</time>
      </trkpt>
      <trkpt lat="45.48781" lon="6.74133">
        <ele>2542.2390450996</ele>
        <time>2013-07-27T08:00:57Z</time>
      </trkpt>
      <trkpt lat="45.48758" lon="6.7416">
        <ele>2540.4138283519</ele>
        <time>2013-07-27T08:01:09Z</time>
      </trkpt>
      <trkpt lat="45.48746" lon="6.74168">
        <ele>2539.7592777562</ele>
        <time>2013-07-27T08:01:14Z</time>
      </trkpt>
      <trkpt lat="45.48736" lon="6.74174">
        <ele>2538.5556665374</ele>
        <time>2013-07-27T08:01:18Z</time>
      </trkpt>
      <trkpt lat="45.48727" lon="6.7418">
        <ele>2537.3520553186</ele>
        <time>2013-07-27T08:01:22Z</time>
      </trkpt>
      <trkpt lat="45.48715" lon="6.7419">
        <ele>2536.2223345253</ele>
        <time>2013-07-27T08:01:27Z</time>
      </trkpt>
      <trkpt lat="45.48689" lon="6.74208">
        <ele>2534.0511537978</ele>
        <time>2013-07-27T08:01:38Z</time>
      </trkpt>
      <trkpt lat="45.48677" lon="6.74215">
        <ele>2533.0481444488</ele>
        <time>2013-07-27T08:01:43Z</time>
      </trkpt>
      <trkpt lat="45.48668" lon="6.74223">
        <ele>2532.61000064</ele>
        <time>2013-07-27T08:01:47Z</time>
      </trkpt>
      <trkpt lat="45.48659" lon="6.74236">
        <ele>2532.11000064</ele>
        <time>2013-07-27T08:01:52Z</time>
      </trkpt>
      <trkpt lat="45.48647" lon="6.74247">
        <ele>2531.23400192</ele>
        <time>2013-07-27T08:01:57Z</time>
      </trkpt>
      <trkpt lat="45.48624" lon="6.74259">
        <ele>2529.710290257</ele>
        <time>2013-07-27T08:02:06Z</time>
      </trkpt>
      <trkpt lat="45.48611" lon="6.74262">
        <ele>2529.2107895979</ele>
        <time>2013-07-27T08:02:11Z</time>
      </trkpt>
      <trkpt lat="45.48599" lon="6.74266">
        <ele>2528.4324335752</ele>
        <time>2013-07-27T08:02:15Z</time>
      </trkpt>
      <trkpt lat="45.48594" lon="6.7427">
        <ele>2527.831833167</ele>
        <time>2013-07-27T08:02:17Z</time>
      </trkpt>
      <trkpt lat="45.4859" lon="6.74275">
        <ele>2527.2312327588</ele>
        <time>2013-07-27T08:02:19Z</time>
      </trkpt>
      <trkpt lat="45.48601" lon="6.74311">
        <ele>2521.4985107083</ele>
        <time>2013-07-27T08:02:32Z</time>
      </trkpt>
      <trkpt lat="45.48617" lon="6.74314">
        <ele>2518.5927775624</ele>
        <time>2013-07-27T08:02:38Z</time>
      </trkpt>
      <trkpt lat="45.48661" lon="6.74321">
        <ele>2513.03000192</ele>
        <time>2013-07-27T08:02:53Z</time>
      </trkpt>
      <trkpt lat="45.48694" lon="6.74323">
        <ele>2511</ele>
        <time>2013-07-27T08:03:04Z</time>
      </trkpt>
      <trkpt lat="45.48705" lon="6.74321">
        <ele>2511</ele>
        <time>2013-07-27T08:03:08Z</time>
      </trkpt>
      <trkpt lat="45.48724" lon="6.74313">
        <ele>2510.81700096</ele>
        <time>2013-07-27T08:03:15Z</time>
      </trkpt>
      <trkpt lat="45.48743" lon="6.74304">
        <ele>2510.11699968</ele>
        <time>2013-07-27T08:03:22Z</time>
      </trkpt>
      <trkpt lat="45.48755" lon="6.74303">
        <ele>2509.7108681281</ele>
        <time>2013-07-27T08:03:26Z</time>
      </trkpt>
      <trkpt lat="45.48779" lon="6.74288">
        <ele>2508.7191573823</ele>
        <time>2013-07-27T08:03:36Z</time>
      </trkpt>
      <trkpt lat="45.48795" lon="6.74277">
        <ele>2508.0170521218</ele>
        <time>2013-07-27T08:03:43Z</time>
      </trkpt>
      <trkpt lat="45.48808" lon="6.74271">
        <ele>2508.4895100066</ele>
        <time>2013-07-27T08:03:48Z</time>
      </trkpt>
      <trkpt lat="45.48819" lon="6.74263">
        <ele>2508.9990013184</ele>
        <time>2013-07-27T08:03:53Z</time>
      </trkpt>
      <trkpt lat="45.48828" lon="6.74254">
        <ele>2509</ele>
        <time>2013-07-27T08:04:01Z</time>
      </trkpt>
      <trkpt lat="45.48847" lon="6.74264">
        <ele>2509</ele>
        <time>2013-07-27T08:04:26Z</time>
      </trkpt>
      <trkpt lat="45.48856" lon="6.74267">
        <ele>2509</ele>
        <time>2013-07-27T08:04:30Z</time>
      </trkpt>
      <trkpt lat="45.48867" lon="6.74268">
        <ele>2508.9108219067</ele>
        <time>2013-07-27T08:04:34Z</time>
      </trkpt>
      <trkpt lat="45.48877" lon="6.74269">
        <ele>2508.5110217305</ele>
        <time>2013-07-27T08:04:38Z</time>
      </trkpt>
      <trkpt lat="45.48885" lon="6.7428">
        <ele>2508.1102198703</ele>
        <time>2013-07-27T08:04:42Z</time>
      </trkpt>
      <trkpt lat="45.48882" lon="6.74316">
        <ele>2508.892</ele>
        <time>2013-07-27T08:04:52Z</time>
      </trkpt>
      <trkpt lat="45.48889" lon="6.74332">
        <ele>2509</ele>
        <time>2013-07-27T08:04:58Z</time>
      </trkpt>
      <trkpt lat="45.48902" lon="6.74339">
        <ele>2509</ele>
        <time>2013-07-27T08:05:03Z</time>
      </trkpt>
      <trkpt lat="45.4895" lon="6.74348">
        <ele>2508.2026206452</ele>
        <time>2013-07-27T08:05:21Z</time>
      </trkpt>
      <trkpt lat="45.48955" lon="6.74355">
        <ele>2508.1976053029</ele>
        <time>2013-07-27T08:05:24Z</time>
      </trkpt>
      <trkpt lat="45.48957" lon="6.74366">
        <ele>2508.7964073157</ele>
        <time>2013-07-27T08:05:27Z</time>
      </trkpt>
      <trkpt lat="45.48962" lon="6.74385">
        <ele>2509.9940113411</ele>
        <time>2013-07-27T08:05:33Z</time>
      </trkpt>
      <trkpt lat="45.48968" lon="6.74401">
        <ele>2510</ele>
        <time>2013-07-27T08:05:38Z</time>
      </trkpt>
      <trkpt lat="45.48983" lon="6.74419">
        <ele>2509.7066529032</ele>
        <time>2013-07-27T08:05:46Z</time>
      </trkpt>
      <trkpt lat="45.48994" lon="6.74427">
        <ele>2509.2026206452</ele>
        <time>2013-07-27T08:05:51Z</time>
      </trkpt>
      <trkpt lat="45.49007" lon="6.74433">
        <ele>2508.7012982861</ele>
        <time>2013-07-27T08:05:56Z</time>
      </trkpt>
      <trkpt lat="45.49014" lon="6.74436">
        <ele>2508.4015978906</ele>
        <time>2013-07-27T08:05:59Z</time>
      </trkpt>
      <trkpt lat="45.49021" lon="6.74441">
        <ele>2508.1018974951</ele>
        <time>2013-07-27T08:06:02Z</time>
      </trkpt>
      <trkpt lat="45.49033" lon="6.74458">
        <ele>2508</ele>
        <time>2013-07-27T08:06:08Z</time>
      </trkpt>
      <trkpt lat="45.49037" lon="6.74464">
        <ele>2508</ele>
        <time>2013-07-27T08:06:10Z</time>
      </trkpt>
      <trkpt lat="45.49042" lon="6.74472">
        <ele>2508</ele>
        <time>2013-07-27T08:06:13Z</time>
      </trkpt>
      <trkpt lat="45.49047" lon="6.74478">
        <ele>2508</ele>
        <time>2013-07-27T08:06:15Z</time>
      </trkpt>
      <trkpt lat="45.49052" lon="6.74483">
        <ele>2508</ele>
        <time>2013-07-27T08:06:17Z</time>
      </trkpt>
      <trkpt lat="45.49072" lon="6.74497">
        <ele>2507.8013970131</ele>
        <time>2013-07-27T08:06:25Z</time>
      </trkpt>
      <trkpt lat="45.49084" lon="6.74506">
        <ele>2507.3023953358</ele>
        <time>2013-07-27T08:06:30Z</time>
      </trkpt>
      <trkpt lat="45.49093" lon="6.7452">
        <ele>2507</ele>
        <time>2013-07-27T08:06:35Z</time>
      </trkpt>
      <trkpt lat="45.491" lon="6.74536">
        <ele>2507</ele>
        <time>2013-07-27T08:06:40Z</time>
      </trkpt>
      <trkpt lat="45.49124" lon="6.74603">
        <ele>2506.4182558614</ele>
        <time>2013-07-27T08:06:59Z</time>
      </trkpt>
      <trkpt lat="45.49127" lon="6.74609">
        <ele>2506.2176539916</ele>
        <time>2013-07-27T08:07:01Z</time>
      </trkpt>
      <trkpt lat="45.49131" lon="6.74616">
        <ele>2506.0170521218</ele>
        <time>2013-07-27T08:07:03Z</time>
      </trkpt>
      <trkpt lat="45.49135" lon="6.74625">
        <ele>2505.42000128</ele>
        <time>2013-07-27T08:07:06Z</time>
      </trkpt>
      <trkpt lat="45.49143" lon="6.74636">
        <ele>2503.7172823072</ele>
        <time>2013-07-27T08:07:16Z</time>
      </trkpt>
      <trkpt lat="45.49145" lon="6.74645">
        <ele>2503</ele>
        <time>2013-07-27T08:07:29Z</time>
      </trkpt>
      <trkpt lat="45.49147" lon="6.74656">
        <ele>2503</ele>
        <time>2013-07-27T08:07:36Z</time>
      </trkpt>
      <trkpt lat="45.49151" lon="6.74664">
        <ele>2503</ele>
        <time>2013-07-27T08:08:42Z</time>
      </trkpt>
      <trkpt lat="45.49147" lon="6.74676">
        <ele>2503.58299904</ele>
        <time>2013-07-27T08:09:09Z</time>
      </trkpt>
      <trkpt lat="45.49138" lon="6.74694">
        <ele>2504.889110534</ele>
        <time>2013-07-27T08:09:22Z</time>
      </trkpt>
      <trkpt lat="45.49135" lon="6.74703">
        <ele>2505.4980039933</ele>
        <time>2013-07-27T08:09:28Z</time>
      </trkpt>
      <trkpt lat="45.49131" lon="6.74714">
        <ele>2506.77999872</ele>
        <time>2013-07-27T08:09:37Z</time>
      </trkpt>
      <trkpt lat="45.49128" lon="6.74726">
        <ele>2508.1903802423</ele>
        <time>2013-07-27T08:09:45Z</time>
      </trkpt>
      <trkpt lat="45.49125" lon="6.74737">
        <ele>2508.8917834977</ele>
        <time>2013-07-27T08:09:52Z</time>
      </trkpt>
      <trkpt lat="45.49125" lon="6.74755">
        <ele>2510.99800064</ele>
        <time>2013-07-27T08:10:03Z</time>
      </trkpt>
      <trkpt lat="45.49126" lon="6.74768">
        <ele>2511</ele>
        <time>2013-07-27T08:10:11Z</time>
      </trkpt>
      <trkpt lat="45.49127" lon="6.74781">
        <ele>2512.19800064</ele>
        <time>2013-07-27T08:10:19Z</time>
      </trkpt>
      <trkpt lat="45.49124" lon="6.74792">
        <ele>2513.3832332882</ele>
        <time>2013-07-27T08:10:25Z</time>
      </trkpt>
      <trkpt lat="45.49121" lon="6.74802">
        <ele>2514.7824333525</ele>
        <time>2013-07-27T08:10:32Z</time>
      </trkpt>
      <trkpt lat="45.49108" lon="6.74843">
        <ele>2519.39800064</ele>
        <time>2013-07-27T08:11:00Z</time>
      </trkpt>
      <trkpt lat="45.49105" lon="6.74851">
        <ele>2520.39800064</ele>
        <time>2013-07-27T08:11:05Z</time>
      </trkpt>
      <trkpt lat="45.49102" lon="6.7486">
        <ele>2521.39800064</ele>
        <time>2013-07-27T08:11:10Z</time>
      </trkpt>
      <trkpt lat="45.491" lon="6.74879">
        <ele>2522</ele>
        <time>2013-07-27T08:11:20Z</time>
      </trkpt>
      <trkpt lat="45.49101" lon="6.74886">
        <ele>2522.2754489259</ele>
        <time>2013-07-27T08:11:24Z</time>
      </trkpt>
      <trkpt lat="45.49104" lon="6.74895">
        <ele>2523.7724539577</ele>
        <time>2013-07-27T08:11:29Z</time>
      </trkpt>
      <trkpt lat="45.49105" lon="6.74902">
        <ele>2524.9700579832</ele>
        <time>2013-07-27T08:11:33Z</time>
      </trkpt>
      <trkpt lat="45.49109" lon="6.74914">
        <ele>2525.5860695199</ele>
        <time>2013-07-27T08:11:39Z</time>
      </trkpt>
      <trkpt lat="45.49112" lon="6.74928">
        <ele>2526.3947634706</ele>
        <time>2013-07-27T08:11:47Z</time>
      </trkpt>
      <trkpt lat="45.49117" lon="6.74937">
        <ele>2527.0913604476</ele>
        <time>2013-07-27T08:11:54Z</time>
      </trkpt>
      <trkpt lat="45.49122" lon="6.74952">
        <ele>2527.9851039571</ele>
        <time>2013-07-27T08:12:03Z</time>
      </trkpt>
      <trkpt lat="45.49127" lon="6.74965">
        <ele>2529.5951666772</ele>
        <time>2013-07-27T08:12:11Z</time>
      </trkpt>
      <trkpt lat="45.4913" lon="6.74975">
        <ele>2530</ele>
        <time>2013-07-27T08:12:18Z</time>
      </trkpt>
      <trkpt lat="45.49148" lon="6.74995">
        <ele>2532.4894474004</ele>
        <time>2013-07-27T08:12:38Z</time>
      </trkpt>
      <trkpt lat="45.49154" lon="6.75008">
        <ele>2533.784</ele>
        <time>2013-07-27T08:12:47Z</time>
      </trkpt>
      <trkpt lat="45.49155" lon="6.75027">
        <ele>2536.476</ele>
        <time>2013-07-27T08:12:58Z</time>
      </trkpt>
      <trkpt lat="45.49155" lon="6.75043">
        <ele>2539.79700096</ele>
        <time>2013-07-27T08:13:09Z</time>
      </trkpt>
      <trkpt lat="45.49155" lon="6.7506">
        <ele>2542.36999936</ele>
        <time>2013-07-27T08:13:20Z</time>
      </trkpt>
      <trkpt lat="45.49158" lon="6.7509">
        <ele>2544.5911821026</ele>
        <time>2013-07-27T08:13:39Z</time>
      </trkpt>
      <trkpt lat="45.49161" lon="6.75134">
        <ele>2551.14899712</ele>
        <time>2013-07-27T08:14:07Z</time>
      </trkpt>
      <trkpt lat="45.49162" lon="6.75147">
        <ele>2553</ele>
        <time>2013-07-27T08:14:16Z</time>
      </trkpt>
      <trkpt lat="45.49158" lon="6.75175">
        <ele>2556.1634882772</ele>
        <time>2013-07-27T08:14:39Z</time>
      </trkpt>
      <trkpt lat="45.49156" lon="6.75191">
        <ele>2560.36599808</ele>
        <time>2013-07-27T08:14:55Z</time>
      </trkpt>
      <trkpt lat="45.49154" lon="6.75208">
        <ele>2562.48300032</ele>
        <time>2013-07-27T08:15:08Z</time>
      </trkpt>
      <trkpt lat="45.49149" lon="6.75224">
        <ele>2565.6201387453</ele>
        <time>2013-07-27T08:15:22Z</time>
      </trkpt>
      <trkpt lat="45.49146" lon="6.75242">
        <ele>2570.1813622885</ele>
        <time>2013-07-27T08:15:35Z</time>
      </trkpt>
      <trkpt lat="45.49142" lon="6.75275">
        <ele>2573.36599808</ele>
        <time>2013-07-27T08:15:55Z</time>
      </trkpt>
      <trkpt lat="45.49142" lon="6.75292">
        <ele>2575.18299904</ele>
        <time>2013-07-27T08:16:05Z</time>
      </trkpt>
      <trkpt lat="45.4914" lon="6.75307">
        <ele>2576.192</ele>
        <time>2013-07-27T08:16:14Z</time>
      </trkpt>
      <trkpt lat="45.4914" lon="6.75322">
        <ele>2577.952</ele>
        <time>2013-07-27T08:16:23Z</time>
      </trkpt>
      <trkpt lat="45.4914" lon="6.75339">
        <ele>2579.7746741297</ele>
        <time>2013-07-27T08:16:32Z</time>
      </trkpt>
      <trkpt lat="45.49141" lon="6.75369">
        <ele>2581</ele>
        <time>2013-07-27T08:16:50Z</time>
      </trkpt>
      <trkpt lat="45.49141" lon="6.75385">
        <ele>2583.10899712</ele>
        <time>2013-07-27T08:17:00Z</time>
      </trkpt>
      <trkpt lat="45.49142" lon="6.75404">
        <ele>2585.56599808</ele>
        <time>2013-07-27T08:17:11Z</time>
      </trkpt>
      <trkpt lat="45.49145" lon="6.75416">
        <ele>2586.48999936</ele>
        <time>2013-07-27T08:17:18Z</time>
      </trkpt>
      <trkpt lat="45.49148" lon="6.75425">
        <ele>2587.1655040748</ele>
        <time>2013-07-27T08:17:24Z</time>
      </trkpt>
      <trkpt lat="45.49155" lon="6.75439">
        <ele>2588.9601171015</ele>
        <time>2013-07-27T08:17:33Z</time>
      </trkpt>
      <trkpt lat="45.49159" lon="6.75446">
        <ele>2589.4804405153</ele>
        <time>2013-07-27T08:17:38Z</time>
      </trkpt>
      <trkpt lat="45.49165" lon="6.7547">
        <ele>2591.97999872</ele>
        <time>2013-07-27T08:17:53Z</time>
      </trkpt>
      <trkpt lat="45.49168" lon="6.75489">
        <ele>2594</ele>
        <time>2013-07-27T08:18:04Z</time>
      </trkpt>
      <trkpt lat="45.49168" lon="6.75499">
        <ele>2594</ele>
        <time>2013-07-27T08:18:10Z</time>
      </trkpt>
      <trkpt lat="45.49169" lon="6.7551">
        <ele>2594.7622845375</ele>
        <time>2013-07-27T08:18:17Z</time>
      </trkpt>
      <trkpt lat="45.49169" lon="6.7552">
        <ele>2595.9658957564</ele>
        <time>2013-07-27T08:18:23Z</time>
      </trkpt>
      <trkpt lat="45.4917" lon="6.75529">
        <ele>2597.1764689367</ele>
        <time>2013-07-27T08:18:29Z</time>
      </trkpt>
      <trkpt lat="45.49176" lon="6.75548">
        <ele>2599.9520957778</ele>
        <time>2013-07-27T08:18:43Z</time>
      </trkpt>
      <trkpt lat="45.49176" lon="6.75559">
        <ele>2601.5763045783</ele>
        <time>2013-07-27T08:18:51Z</time>
      </trkpt>
      <trkpt lat="45.49177" lon="6.75571">
        <ele>2605.1311275656</ele>
        <time>2013-07-27T08:19:01Z</time>
      </trkpt>
      <trkpt lat="45.4918" lon="6.75583">
        <ele>2607.36600064</ele>
        <time>2013-07-27T08:19:10Z</time>
      </trkpt>
      <trkpt lat="45.49182" lon="6.75597">
        <ele>2609.77999872</ele>
        <time>2013-07-27T08:19:22Z</time>
      </trkpt>
      <trkpt lat="45.49188" lon="6.75625">
        <ele>2615.46999808</ele>
        <time>2013-07-27T08:19:48Z</time>
      </trkpt>
      <trkpt lat="45.4919" lon="6.75641">
        <ele>2620.228</ele>
        <time>2013-07-27T08:20:04Z</time>
      </trkpt>
      <trkpt lat="45.49191" lon="6.75657">
        <ele>2623.38299904</ele>
        <time>2013-07-27T08:20:17Z</time>
      </trkpt>
      <trkpt lat="45.49193" lon="6.75671">
        <ele>2625.205384421</ele>
        <time>2013-07-27T08:20:27Z</time>
      </trkpt>
      <trkpt lat="45.49192" lon="6.75685">
        <ele>2627.5877628366</ele>
        <time>2013-07-27T08:20:36Z</time>
      </trkpt>
      <trkpt lat="45.49188" lon="6.75717">
        <ele>2630.0827520374</ele>
        <time>2013-07-27T08:20:54Z</time>
      </trkpt>
      <trkpt lat="45.49185" lon="6.75732">
        <ele>2630.8803589614</ele>
        <time>2013-07-27T08:21:02Z</time>
      </trkpt>
      <trkpt lat="45.49182" lon="6.75746">
        <ele>2631.6813631624</ele>
        <time>2013-07-27T08:21:10Z</time>
      </trkpt>
      <trkpt lat="45.49168" lon="6.75793">
        <ele>2632</ele>
        <time>2013-07-27T08:21:32Z</time>
      </trkpt>
      <trkpt lat="45.49163" lon="6.75805">
        <ele>2632</ele>
        <time>2013-07-27T08:21:36Z</time>
      </trkpt>
      <trkpt lat="45.4916" lon="6.75819">
        <ele>2632</ele>
        <time>2013-07-27T08:21:40Z</time>
      </trkpt>
      <trkpt lat="45.49159" lon="6.75832">
        <ele>2632</ele>
        <time>2013-07-27T08:21:44Z</time>
      </trkpt>
      <trkpt lat="45.4916" lon="6.75844">
        <ele>2632</ele>
        <time>2013-07-27T08:21:53Z</time>
      </trkpt>
      <trkpt lat="45.49166" lon="6.75864">
        <ele>2633</ele>
        <time>2013-07-27T08:22:08Z</time>
      </trkpt>
      <trkpt lat="45.49168" lon="6.75875">
        <ele>2633.18299904</ele>
        <time>2013-07-27T08:22:15Z</time>
      </trkpt>
      <trkpt lat="45.49172" lon="6.75886">
        <ele>2633.78299904</ele>
        <time>2013-07-27T08:22:21Z</time>
      </trkpt>
      <trkpt lat="45.49175" lon="6.75895">
        <ele>2634.7776654747</ele>
        <time>2013-07-27T08:22:27Z</time>
      </trkpt>
      <trkpt lat="45.49178" lon="6.75904">
        <ele>2635.7746741297</ele>
        <time>2013-07-27T08:22:32Z</time>
      </trkpt>
      <trkpt lat="45.49184" lon="6.75919">
        <ele>2637.7512536815</ele>
        <time>2013-07-27T08:22:42Z</time>
      </trkpt>
      <trkpt lat="45.49186" lon="6.75927">
        <ele>2638.38299904</ele>
        <time>2013-07-27T08:22:47Z</time>
      </trkpt>
      <trkpt lat="45.49189" lon="6.75937">
        <ele>2638.98299904</ele>
        <time>2013-07-27T08:22:53Z</time>
      </trkpt>
      <trkpt lat="45.49191" lon="6.75945">
        <ele>2638.51000064</ele>
        <time>2013-07-27T08:22:58Z</time>
      </trkpt>
      <trkpt lat="45.49194" lon="6.75955">
        <ele>2638.30899712</ele>
        <time>2013-07-27T08:23:04Z</time>
      </trkpt>
      <trkpt lat="45.49197" lon="6.75973">
        <ele>2641.08999936</ele>
        <time>2013-07-27T08:23:14Z</time>
      </trkpt>
      <trkpt lat="45.49198" lon="6.75982">
        <ele>2641.58999936</ele>
        <time>2013-07-27T08:23:19Z</time>
      </trkpt>
      <trkpt lat="45.49199" lon="6.75992">
        <ele>2642.1824516267</ele>
        <time>2013-07-27T08:23:25Z</time>
      </trkpt>
      <trkpt lat="45.492" lon="6.76">
        <ele>2642.6809572304</ele>
        <time>2013-07-27T08:23:30Z</time>
      </trkpt>
      <trkpt lat="45.49209" lon="6.76038">
        <ele>2648.36599808</ele>
        <time>2013-07-27T08:24:05Z</time>
      </trkpt>
      <trkpt lat="45.49207" lon="6.7605">
        <ele>2651.93200128</ele>
        <time>2013-07-27T08:24:18Z</time>
      </trkpt>
      <trkpt lat="45.49205" lon="6.7606">
        <ele>2655.1724821783</ele>
        <time>2013-07-27T08:24:29Z</time>
      </trkpt>
      <trkpt lat="45.49203" lon="6.76073">
        <ele>2658.36599808</ele>
        <time>2013-07-27T08:24:45Z</time>
      </trkpt>
      <trkpt lat="45.49194" lon="6.76097">
        <ele>2666.17999872</ele>
        <time>2013-07-27T08:25:14Z</time>
      </trkpt>
      <trkpt lat="45.49188" lon="6.76108">
        <ele>2670.8003995347</ele>
        <time>2013-07-27T08:25:37Z</time>
      </trkpt>
      <trkpt lat="45.49185" lon="6.76121">
        <ele>2673.56599808</ele>
        <time>2013-07-27T08:25:51Z</time>
      </trkpt>
      <trkpt lat="45.4918" lon="6.76134">
        <ele>2679.57999872</ele>
        <time>2013-07-27T08:26:11Z</time>
      </trkpt>
      <trkpt lat="45.49174" lon="6.76149">
        <ele>2683.3818533577</ele>
        <time>2013-07-27T08:26:30Z</time>
      </trkpt>
      <trkpt lat="45.49163" lon="6.76172">
        <ele>2686.35999744</ele>
        <time>2013-07-27T08:26:54Z</time>
      </trkpt>
      <trkpt lat="45.4916" lon="6.76184">
        <ele>2690.58299904</ele>
        <time>2013-07-27T08:27:09Z</time>
      </trkpt>
      <trkpt lat="45.49155" lon="6.76196">
        <ele>2692.57999872</ele>
        <time>2013-07-27T08:27:21Z</time>
      </trkpt>
      <trkpt lat="45.49153" lon="6.76208">
        <ele>2695.2377103271</ele>
        <time>2013-07-27T08:27:34Z</time>
      </trkpt>
      <trkpt lat="45.49151" lon="6.7622">
        <ele>2698.28300032</ele>
        <time>2013-07-27T08:27:46Z</time>
      </trkpt>
      <trkpt lat="45.49146" lon="6.7624">
        <ele>2702.40300032</ele>
        <time>2013-07-27T08:28:07Z</time>
      </trkpt>
      <trkpt lat="45.49139" lon="6.76242">
        <ele>2703.288</ele>
        <time>2013-07-27T08:28:16Z</time>
      </trkpt>
      <trkpt lat="45.49129" lon="6.76249">
        <ele>2704.9491522396</ele>
        <time>2013-07-27T08:28:28Z</time>
      </trkpt>
      <trkpt lat="45.49123" lon="6.76254">
        <ele>2706.1890541498</ele>
        <time>2013-07-27T08:28:35Z</time>
      </trkpt>
      <trkpt lat="45.49116" lon="6.76255">
        <ele>2706.9850743037</ele>
        <time>2013-07-27T08:28:43Z</time>
      </trkpt>
      <trkpt lat="45.49087" lon="6.76271">
        <ele>2714.3986018457</ele>
        <time>2013-07-27T08:29:20Z</time>
      </trkpt>
      <trkpt lat="45.49078" lon="6.76279">
        <ele>2715.588645737</ele>
        <time>2013-07-27T08:29:29Z</time>
      </trkpt>
      <trkpt lat="45.49071" lon="6.7629">
        <ele>2717.3795187149</ele>
        <time>2013-07-27T08:29:40Z</time>
      </trkpt>
      <trkpt lat="45.49065" lon="6.76315">
        <ele>2722.38200064</ele>
        <time>2013-07-27T08:30:05Z</time>
      </trkpt>
      <trkpt lat="45.49062" lon="6.76328">
        <ele>2724.29900032</ele>
        <time>2013-07-27T08:30:16Z</time>
      </trkpt>
      <trkpt lat="45.49061" lon="6.76339">
        <ele>2725.5538909037</ele>
        <time>2013-07-27T08:30:25Z</time>
      </trkpt>
      <trkpt lat="45.49061" lon="6.76348">
        <ele>2727.3502969419</ele>
        <time>2013-07-27T08:30:31Z</time>
      </trkpt>
      <trkpt lat="45.49061" lon="6.76355">
        <ele>2728.1893785583</ele>
        <time>2013-07-27T08:30:35Z</time>
      </trkpt>
      <trkpt lat="45.49057" lon="6.76369">
        <ele>2729.0910913822</ele>
        <time>2013-07-27T08:30:44Z</time>
      </trkpt>
      <trkpt lat="45.49052" lon="6.76373">
        <ele>2729.6916917905</ele>
        <time>2013-07-27T08:30:50Z</time>
      </trkpt>
      <trkpt lat="45.49047" lon="6.76378">
        <ele>2730.38999936</ele>
        <time>2013-07-27T08:30:57Z</time>
      </trkpt>
      <trkpt lat="45.49042" lon="6.76381">
        <ele>2730.88999936</ele>
        <time>2013-07-27T08:31:02Z</time>
      </trkpt>
      <trkpt lat="45.49037" lon="6.76385">
        <ele>2731</ele>
        <time>2013-07-27T08:31:07Z</time>
      </trkpt>
      <trkpt lat="45.49026" lon="6.76393">
        <ele>2731.38999936</ele>
        <time>2013-07-27T08:31:17Z</time>
      </trkpt>
      <trkpt lat="45.49022" lon="6.76397">
        <ele>2731.88999936</ele>
        <time>2013-07-27T08:31:22Z</time>
      </trkpt>
      <trkpt lat="45.49016" lon="6.76402">
        <ele>2733.2163492829</ele>
        <time>2013-07-27T08:31:29Z</time>
      </trkpt>
      <trkpt lat="45.49011" lon="6.76408">
        <ele>2734</ele>
        <time>2013-07-27T08:31:36Z</time>
      </trkpt>
      <trkpt lat="45.49006" lon="6.76415">
        <ele>2734</ele>
        <time>2013-07-27T08:31:42Z</time>
      </trkpt>
      <trkpt lat="45.48994" lon="6.76431">
        <ele>2736.78200064</ele>
        <time>2013-07-27T08:31:57Z</time>
      </trkpt>
      <trkpt lat="45.48979" lon="6.7645">
        <ele>2739.1377225468</ele>
        <time>2013-07-27T08:32:16Z</time>
      </trkpt>
      <trkpt lat="45.48976" lon="6.76454">
        <ele>2740.7345279141</ele>
        <time>2013-07-27T08:32:20Z</time>
      </trkpt>
      <trkpt lat="45.48969" lon="6.76467">
        <ele>2743.37799936</ele>
        <time>2013-07-27T08:32:30Z</time>
      </trkpt>
      <trkpt lat="45.48965" lon="6.76472">
        <ele>2744.3787571166</ele>
        <time>2013-07-27T08:32:35Z</time>
      </trkpt>
      <trkpt lat="45.4896" lon="6.76478">
        <ele>2745.5811626973</ele>
        <time>2013-07-27T08:32:41Z</time>
      </trkpt>
      <trkpt lat="45.48954" lon="6.76485">
        <ele>2746.49900032</ele>
        <time>2013-07-27T08:32:48Z</time>
      </trkpt>
      <trkpt lat="45.48946" lon="6.76492">
        <ele>2747.38999936</ele>
        <time>2013-07-27T08:32:57Z</time>
      </trkpt>
      <trkpt lat="45.48929" lon="6.76503">
        <ele>2749.3670628571</ele>
        <time>2013-07-27T08:33:15Z</time>
      </trkpt>
      <trkpt lat="45.48921" lon="6.76506">
        <ele>2750.9543644444</ele>
        <time>2013-07-27T08:33:23Z</time>
      </trkpt>
      <trkpt lat="45.48913" lon="6.76509">
        <ele>2753.3873233723</ele>
        <time>2013-07-27T08:33:31Z</time>
      </trkpt>
      <trkpt lat="45.48907" lon="6.76513">
        <ele>2754.3897794884</ele>
        <time>2013-07-27T08:33:37Z</time>
      </trkpt>
      <trkpt lat="45.489" lon="6.76516">
        <ele>2755.19800064</ele>
        <time>2013-07-27T08:33:44Z</time>
      </trkpt>
      <trkpt lat="45.48888" lon="6.76524">
        <ele>2757.99800064</ele>
        <time>2013-07-27T08:33:58Z</time>
      </trkpt>
      <trkpt lat="45.48882" lon="6.7653">
        <ele>2759.39100032</ele>
        <time>2013-07-27T08:34:07Z</time>
      </trkpt>
      <trkpt lat="45.48877" lon="6.76536">
        <ele>2760.55499904</ele>
        <time>2013-07-27T08:34:15Z</time>
      </trkpt>
      <trkpt lat="45.48872" lon="6.76541">
        <ele>2762.65499904</ele>
        <time>2013-07-27T08:34:22Z</time>
      </trkpt>
      <trkpt lat="45.48868" lon="6.76546">
        <ele>2764.3792412747</ele>
        <time>2013-07-27T08:34:30Z</time>
      </trkpt>
      <trkpt lat="45.48858" lon="6.76558">
        <ele>2769.19800064</ele>
        <time>2013-07-27T08:34:49Z</time>
      </trkpt>
      <trkpt lat="45.48854" lon="6.76564">
        <ele>2770.49100032</ele>
        <time>2013-07-27T08:34:58Z</time>
      </trkpt>
      <trkpt lat="45.48841" lon="6.76581">
        <ele>2775.5898203019</ele>
        <time>2013-07-27T08:35:29Z</time>
      </trkpt>
      <trkpt lat="45.48838" lon="6.76597">
        <ele>2782.39100032</ele>
        <time>2013-07-27T08:35:57Z</time>
      </trkpt>
      <trkpt lat="45.48837" lon="6.76608">
        <ele>2785.78200064</ele>
        <time>2013-07-27T08:36:17Z</time>
      </trkpt>
      <trkpt lat="45.48834" lon="6.76616">
        <ele>2787.8892213083</ele>
        <time>2013-07-27T08:36:32Z</time>
      </trkpt>
      <trkpt lat="45.48835" lon="6.76626">
        <ele>2793.36400128</ele>
        <time>2013-07-27T08:36:49Z</time>
      </trkpt>
      <trkpt lat="45.48834" lon="6.76635">
        <ele>2797.368</ele>
        <time>2013-07-27T08:37:10Z</time>
      </trkpt>
      <trkpt lat="45.48835" lon="6.76654">
        <ele>2805.79800064</ele>
        <time>2013-07-27T08:37:47Z</time>
      </trkpt>
      <trkpt lat="45.48835" lon="6.76663">
        <ele>2807.7894209728</ele>
        <time>2013-07-27T08:38:01Z</time>
      </trkpt>
      <trkpt lat="45.48838" lon="6.76672">
        <ele>2810.9829833088</ele>
        <time>2013-07-27T08:38:18Z</time>
      </trkpt>
      <trkpt lat="45.48838" lon="6.76682">
        <ele>2813.9780651715</ele>
        <time>2013-07-27T08:38:33Z</time>
      </trkpt>
      <trkpt lat="45.48839" lon="6.76688">
        <ele>2816.79800064</ele>
        <time>2013-07-27T08:38:47Z</time>
      </trkpt>
      <trkpt lat="45.48838" lon="6.76701">
        <ele>2820.568</ele>
        <time>2013-07-27T08:39:06Z</time>
      </trkpt>
      <trkpt lat="45.4884" lon="6.76708">
        <ele>2822.58200064</ele>
        <time>2013-07-27T08:39:16Z</time>
      </trkpt>
      <trkpt lat="45.4884" lon="6.76717">
        <ele>2824.8952099671</ele>
        <time>2013-07-27T08:39:26Z</time>
      </trkpt>
      <trkpt lat="45.48837" lon="6.76725">
        <ele>2828.4488968009</ele>
        <time>2013-07-27T08:39:38Z</time>
      </trkpt>
      <trkpt lat="45.48837" lon="6.76736">
        <ele>2831.79800064</ele>
        <time>2013-07-27T08:39:52Z</time>
      </trkpt>
      <trkpt lat="45.48838" lon="6.7676">
        <ele>2838.1816372492</ele>
        <time>2013-07-27T08:40:24Z</time>
      </trkpt>
      <trkpt lat="45.48837" lon="6.76766">
        <ele>2839.9780432875</ele>
        <time>2013-07-27T08:40:33Z</time>
      </trkpt>
      <trkpt lat="45.48837" lon="6.76773">
        <ele>2842.5808385911</ele>
        <time>2013-07-27T08:40:46Z</time>
      </trkpt>
      <trkpt lat="45.48836" lon="6.76802">
        <ele>2850.9900180503</ele>
        <time>2013-07-27T08:41:33Z</time>
      </trkpt>
      <trkpt lat="45.48839" lon="6.76809">
        <ele>2853.77300096</ele>
        <time>2013-07-27T08:41:49Z</time>
      </trkpt>
      <trkpt lat="45.48842" lon="6.76812">
        <ele>2856.38200064</ele>
        <time>2013-07-27T08:42:00Z</time>
      </trkpt>
      <trkpt lat="45.48844" lon="6.76816">
        <ele>2859.99800064</ele>
        <time>2013-07-27T08:42:18Z</time>
      </trkpt>
      <trkpt lat="45.48846" lon="6.76822">
        <ele>2863.1833658891</ele>
        <time>2013-07-27T08:42:35Z</time>
      </trkpt>
      <trkpt lat="45.4885" lon="6.7684">
        <ele>2871</ele>
        <time>2013-07-27T08:43:08Z</time>
      </trkpt>
      <trkpt lat="45.48851" lon="6.76853">
        <ele>2874.7795589769</ele>
        <time>2013-07-27T08:43:47Z</time>
      </trkpt>
      <trkpt lat="45.48851" lon="6.7686">
        <ele>2877.55999744</ele>
        <time>2013-07-27T08:43:57Z</time>
      </trkpt>
      <trkpt lat="45.48852" lon="6.76868">
        <ele>2881.78200064</ele>
        <time>2013-07-27T08:44:12Z</time>
      </trkpt>
      <trkpt lat="45.48854" lon="6.76878">
        <ele>2884.9950152758</ele>
        <time>2013-07-27T08:44:28Z</time>
      </trkpt>
      <trkpt lat="45.48857" lon="6.7689">
        <ele>2891.56999936</ele>
        <time>2013-07-27T08:45:01Z</time>
      </trkpt>
      <trkpt lat="45.48856" lon="6.76897">
        <ele>2894.19800064</ele>
        <time>2013-07-27T08:45:14Z</time>
      </trkpt>
      <trkpt lat="45.48856" lon="6.76905">
        <ele>2898</ele>
        <time>2013-07-27T08:45:35Z</time>
      </trkpt>
      <trkpt lat="45.48854" lon="6.76912">
        <ele>2901.22599936</ele>
        <time>2013-07-27T08:45:59Z</time>
      </trkpt>
      <trkpt lat="45.48852" lon="6.76921">
        <ele>2905.70099968</ele>
        <time>2013-07-27T08:46:20Z</time>
      </trkpt>
      <trkpt lat="45.4885" lon="6.76935">
        <ele>2909.60399872</ele>
        <time>2013-07-27T08:46:46Z</time>
      </trkpt>
      <trkpt lat="45.4885" lon="6.7694">
        <ele>2911.296</ele>
        <time>2013-07-27T08:46:56Z</time>
      </trkpt>
      <trkpt lat="45.48847" lon="6.76943">
        <ele>2912.40199936</ele>
        <time>2013-07-27T08:47:05Z</time>
      </trkpt>
      <trkpt lat="45.48843" lon="6.76946">
        <ele>2913.80199936</ele>
        <time>2013-07-27T08:47:12Z</time>
      </trkpt>
      <trkpt lat="45.48833" lon="6.76971">
        <ele>2925.10199936</ele>
        <time>2013-07-27T08:48:04Z</time>
      </trkpt>
      <trkpt lat="45.48831" lon="6.76975">
        <ele>2925.70199936</ele>
        <time>2013-07-27T08:48:10Z</time>
      </trkpt>
      <trkpt lat="45.48829" lon="6.7698">
        <ele>2927.22999808</ele>
        <time>2013-07-27T08:48:17Z</time>
      </trkpt>
      <trkpt lat="45.48826" lon="6.76983">
        <ele>2928.72999808</ele>
        <time>2013-07-27T08:48:22Z</time>
      </trkpt>
      <trkpt lat="45.48824" lon="6.76993">
        <ele>2931.1893785583</ele>
        <time>2013-07-27T08:48:35Z</time>
      </trkpt>
      <trkpt lat="45.48825" lon="6.76997">
        <ele>2931.7905813487</ele>
        <time>2013-07-27T08:48:41Z</time>
      </trkpt>
      <trkpt lat="45.48825" lon="6.77007">
        <ele>2934.38200064</ele>
        <time>2013-07-27T08:48:55Z</time>
      </trkpt>
      <trkpt lat="45.48825" lon="6.77016">
        <ele>2936.59100032</ele>
        <time>2013-07-27T08:49:09Z</time>
      </trkpt>
      <trkpt lat="45.48826" lon="6.77025">
        <ele>2940.37799936</ele>
        <time>2013-07-27T08:49:30Z</time>
      </trkpt>
      <trkpt lat="45.48827" lon="6.7704">
        <ele>2947</ele>
        <time>2013-07-27T08:50:05Z</time>
      </trkpt>
      <trkpt lat="45.48828" lon="6.77051">
        <ele>2950.0039907411</ele>
        <time>2013-07-27T08:50:23Z</time>
      </trkpt>
      <trkpt lat="45.48831" lon="6.77061">
        <ele>2953.00399872</ele>
        <time>2013-07-27T08:50:43Z</time>
      </trkpt>
      <trkpt lat="45.48836" lon="6.77065">
        <ele>2958.81999872</ele>
        <time>2013-07-27T08:51:12Z</time>
      </trkpt>
      <trkpt lat="45.4884" lon="6.77072">
        <ele>2963.8024049115</ele>
        <time>2013-07-27T08:51:39Z</time>
      </trkpt>
      <trkpt lat="45.48853" lon="6.7708">
        <ele>2973.1236265209</ele>
        <time>2013-07-27T08:52:30Z</time>
      </trkpt>
      <trkpt lat="45.4886" lon="6.77075">
        <ele>2977.6068177675</ele>
        <time>2013-07-27T08:52:42Z</time>
      </trkpt>
      <trkpt lat="45.48863" lon="6.77084">
        <ele>2979.78200064</ele>
        <time>2013-07-27T08:52:57Z</time>
      </trkpt>
      <trkpt lat="45.48867" lon="6.77091">
        <ele>2982.18200064</ele>
        <time>2013-07-27T08:53:09Z</time>
      </trkpt>
      <trkpt lat="45.48874" lon="6.77093">
        <ele>2983.79800064</ele>
        <time>2013-07-27T08:53:17Z</time>
      </trkpt>
      <trkpt lat="45.48906" lon="6.77098">
        <ele>2989.19900032</ele>
        <time>2013-07-27T08:53:55Z</time>
      </trkpt>
      <trkpt lat="45.48913" lon="6.77103">
        <ele>2990.09100032</ele>
        <time>2013-07-27T08:54:04Z</time>
      </trkpt>
      <trkpt lat="45.4892" lon="6.77108">
        <ele>2991.16999936</ele>
        <time>2013-07-27T08:54:14Z</time>
      </trkpt>
      <trkpt lat="45.48934" lon="6.77118">
        <ele>2994.5791580467</ele>
        <time>2013-07-27T08:54:36Z</time>
      </trkpt>
      <trkpt lat="45.48938" lon="6.77126">
        <ele>2997.79700096</ele>
        <time>2013-07-27T08:54:49Z</time>
      </trkpt>
      <trkpt lat="45.48942" lon="6.77133">
        <ele>2997.4211580544</ele>
        <time>2013-07-27T08:55:01Z</time>
      </trkpt>
      <trkpt lat="45.48941" lon="6.77145">
        <ele>2997.7971749595</ele>
        <time>2013-07-27T08:55:41Z</time>
      </trkpt>
      <trkpt lat="45.48942" lon="6.77156">
        <ele>2998.5932546032</ele>
        <time>2013-07-27T08:55:46Z</time>
      </trkpt>
      <trkpt lat="45.48945" lon="6.77181">
        <ele>3000</ele>
        <time>2013-07-27T08:56:00Z</time>
      </trkpt>
      <trkpt lat="45.48946" lon="6.77193">
        <ele>3000.99100032</ele>
        <time>2013-07-27T08:56:13Z</time>
      </trkpt>
      <trkpt lat="45.48947" lon="6.77205">
        <ele>3002.59800064</ele>
        <time>2013-07-27T08:56:21Z</time>
      </trkpt>
      <trkpt lat="45.48949" lon="6.77214">
        <ele>3003</ele>
        <time>2013-07-27T08:56:28Z</time>
      </trkpt>
      <trkpt lat="45.48952" lon="6.77223">
        <ele>3003.1893785583</ele>
        <time>2013-07-27T08:56:35Z</time>
      </trkpt>
      <trkpt lat="45.48954" lon="6.77242">
        <ele>3004.7934459445</ele>
        <time>2013-07-27T08:56:51Z</time>
      </trkpt>
      <trkpt lat="45.48955" lon="6.7725">
        <ele>3005.4954684376</ele>
        <time>2013-07-27T08:56:58Z</time>
      </trkpt>
      <trkpt lat="45.48956" lon="6.77258">
        <ele>3006.2867060317</ele>
        <time>2013-07-27T08:57:06Z</time>
      </trkpt>
      <trkpt lat="45.48957" lon="6.77265">
        <ele>3006.9811504762</ele>
        <time>2013-07-27T08:57:13Z</time>
      </trkpt>
      <trkpt lat="45.48959" lon="6.77275">
        <ele>3009.6945574194</ele>
        <time>2013-07-27T08:57:22Z</time>
      </trkpt>
      <trkpt lat="45.48961" lon="6.77296">
        <ele>3012.7815636275</ele>
        <time>2013-07-27T08:57:42Z</time>
      </trkpt>
      <trkpt lat="45.48966" lon="6.77325">
        <ele>3016</ele>
        <time>2013-07-27T08:58:11Z</time>
      </trkpt>
      <trkpt lat="45.48968" lon="6.77335">
        <ele>3016</ele>
        <time>2013-07-27T08:58:18Z</time>
      </trkpt>
      <trkpt lat="45.4897" lon="6.77355">
        <ele>3016.8972053351</ele>
        <time>2013-07-27T08:58:32Z</time>
      </trkpt>
      <trkpt lat="45.48972" lon="6.77367">
        <ele>3017</ele>
        <time>2013-07-27T08:58:41Z</time>
      </trkpt>
      <trkpt lat="45.48974" lon="6.77378">
        <ele>3017.59100032</ele>
        <time>2013-07-27T08:58:49Z</time>
      </trkpt>
      <trkpt lat="45.48975" lon="6.77387">
        <ele>3018.29100032</ele>
        <time>2013-07-27T08:58:56Z</time>
      </trkpt>
      <trkpt lat="45.48976" lon="6.77397">
        <ele>3018.89100032</ele>
        <time>2013-07-27T08:59:02Z</time>
      </trkpt>
      <trkpt lat="45.48978" lon="6.77412">
        <ele>3019.99900032</ele>
        <time>2013-07-27T08:59:13Z</time>
      </trkpt>
      <trkpt lat="45.48979" lon="6.77418">
        <ele>3020</ele>
        <time>2013-07-27T08:59:18Z</time>
      </trkpt>
      <trkpt lat="45.48981" lon="6.77425">
        <ele>3020</ele>
        <time>2013-07-27T08:59:23Z</time>
      </trkpt>
      <trkpt lat="45.48987" lon="6.77437">
        <ele>3020.9969815714</ele>
        <time>2013-07-27T08:59:33Z</time>
      </trkpt>
      <trkpt lat="45.48994" lon="6.77443">
        <ele>3021.8907818137</ele>
        <time>2013-07-27T08:59:42Z</time>
      </trkpt>
      <trkpt lat="45.49012" lon="6.77452">
        <ele>3025.58200064</ele>
        <time>2013-07-27T09:00:01Z</time>
      </trkpt>
      <trkpt lat="45.4902" lon="6.77456">
        <ele>3027.09100032</ele>
        <time>2013-07-27T09:00:14Z</time>
      </trkpt>
      <trkpt lat="45.49029" lon="6.77463">
        <ele>3029.1714578938</ele>
        <time>2013-07-27T09:00:29Z</time>
      </trkpt>
      <trkpt lat="45.49038" lon="6.7747">
        <ele>3031.3006010096</ele>
        <time>2013-07-27T09:00:46Z</time>
      </trkpt>
      <trkpt lat="45.49046" lon="6.77477">
        <ele>3033.00199936</ele>
        <time>2013-07-27T09:01:03Z</time>
      </trkpt>
      <trkpt lat="45.49058" lon="6.77495">
        <ele>3036.8970283704</ele>
        <time>2013-07-27T09:01:26Z</time>
      </trkpt>
      <trkpt lat="45.49065" lon="6.77506">
        <ele>3039.9727557707</ele>
        <time>2013-07-27T09:01:38Z</time>
      </trkpt>
      <trkpt lat="45.49088" lon="6.7754">
        <ele>3049</ele>
        <time>2013-07-27T09:02:26Z</time>
      </trkpt>
      <trkpt lat="45.491" lon="6.77564">
        <ele>3053.98200064</ele>
        <time>2013-07-27T09:02:58Z</time>
      </trkpt>
      <trkpt lat="45.49107" lon="6.77577">
        <ele>3056.1807354341</ele>
        <time>2013-07-27T09:03:14Z</time>
      </trkpt>
      <trkpt lat="45.49112" lon="6.77581">
        <ele>3057.968222453</ele>
        <time>2013-07-27T09:03:23Z</time>
      </trkpt>
      <trkpt lat="45.49117" lon="6.77581">
        <ele>3058.5937815346</ele>
        <time>2013-07-27T09:03:29Z</time>
      </trkpt>
      <trkpt lat="45.49123" lon="6.77583">
        <ele>3059</ele>
        <time>2013-07-27T09:03:34Z</time>
      </trkpt>
      <trkpt lat="45.49146" lon="6.77585">
        <ele>3059</ele>
        <time>2013-07-27T09:03:49Z</time>
      </trkpt>
      <trkpt lat="45.49155" lon="6.77583">
        <ele>3058.916</ele>
        <time>2013-07-27T09:03:54Z</time>
      </trkpt>
      <trkpt lat="45.49163" lon="6.7758">
        <ele>3058.516</ele>
        <time>2013-07-27T09:03:58Z</time>
      </trkpt>
      <trkpt lat="45.49168" lon="6.77579">
        <ele>3058.216</ele>
        <time>2013-07-27T09:04:01Z</time>
      </trkpt>
      <trkpt lat="45.49172" lon="6.77577">
        <ele>3058.016</ele>
        <time>2013-07-27T09:04:03Z</time>
      </trkpt>
      <trkpt lat="45.49187" lon="6.7757">
        <ele>3057.2102107835</ele>
        <time>2013-07-27T09:04:11Z</time>
      </trkpt>
      <trkpt lat="45.49192" lon="6.77566">
        <ele>3056.7302715621</ele>
        <time>2013-07-27T09:04:14Z</time>
      </trkpt>
      <trkpt lat="45.49195" lon="6.77562">
        <ele>3056.070930692</ele>
        <time>2013-07-27T09:04:16Z</time>
      </trkpt>
      <trkpt lat="45.49198" lon="6.77556">
        <ele>3055.2317695846</ele>
        <time>2013-07-27T09:04:19Z</time>
      </trkpt>
      <trkpt lat="45.49204" lon="6.77536">
        <ele>3052.6247520161</ele>
        <time>2013-07-27T09:04:30Z</time>
      </trkpt>
      <trkpt lat="45.4921" lon="6.77509">
        <ele>3050.51000064</ele>
        <time>2013-07-27T09:04:48Z</time>
      </trkpt>
      <trkpt lat="45.49212" lon="6.77504">
        <ele>3050.09000064</ele>
        <time>2013-07-27T09:04:52Z</time>
      </trkpt>
      <trkpt lat="45.49217" lon="6.77491">
        <ele>3050</ele>
        <time>2013-07-27T09:05:03Z</time>
      </trkpt>
      <trkpt lat="45.49226" lon="6.77431">
        <ele>3052</ele>
        <time>2013-07-27T09:05:41Z</time>
      </trkpt>
      <trkpt lat="45.49229" lon="6.77419">
        <ele>3052</ele>
        <time>2013-07-27T09:05:50Z</time>
      </trkpt>
      <trkpt lat="45.49232" lon="6.7741">
        <ele>3052.81999872</ele>
        <time>2013-07-27T09:05:57Z</time>
      </trkpt>
      <trkpt lat="45.49236" lon="6.77399">
        <ele>3054.56399872</ele>
        <time>2013-07-27T09:06:06Z</time>
      </trkpt>
      <trkpt lat="45.49236" lon="6.77391">
        <ele>3055.60399872</ele>
        <time>2013-07-27T09:06:11Z</time>
      </trkpt>
      <trkpt lat="45.49236" lon="6.77358">
        <ele>3057.5548826861</ele>
        <time>2013-07-27T09:06:31Z</time>
      </trkpt>
      <trkpt lat="45.49233" lon="6.77335">
        <ele>3059.40199936</ele>
        <time>2013-07-27T09:06:47Z</time>
      </trkpt>
      <trkpt lat="45.49231" lon="6.77329">
        <ele>3060</ele>
        <time>2013-07-27T09:06:53Z</time>
      </trkpt>
      <trkpt lat="45.4923" lon="6.77319">
        <ele>3062.08499712</ele>
        <time>2013-07-27T09:07:00Z</time>
      </trkpt>
      <trkpt lat="45.49236" lon="6.77307">
        <ele>3064.6127754812</ele>
        <time>2013-07-27T09:07:11Z</time>
      </trkpt>
      <trkpt lat="45.49251" lon="6.77309">
        <ele>3066</ele>
        <time>2013-07-27T09:08:01Z</time>
      </trkpt>
      <trkpt lat="45.49255" lon="6.77314">
        <ele>3066</ele>
        <time>2013-07-27T09:08:04Z</time>
      </trkpt>
      <trkpt lat="45.49262" lon="6.77319">
        <ele>3066</ele>
        <time>2013-07-27T09:08:07Z</time>
      </trkpt>
      <trkpt lat="45.49266" lon="6.77322">
        <ele>3066</ele>
        <time>2013-07-27T09:08:09Z</time>
      </trkpt>
      <trkpt lat="45.49273" lon="6.77324">
        <ele>3066</ele>
        <time>2013-07-27T09:08:12Z</time>
      </trkpt>
      <trkpt lat="45.49286" lon="6.77327">
        <ele>3065.39800064</ele>
        <time>2013-07-27T09:08:19Z</time>
      </trkpt>
      <trkpt lat="45.49296" lon="6.77327">
        <ele>3063.8246813163</ele>
        <time>2013-07-27T09:08:39Z</time>
      </trkpt>
      <trkpt lat="45.49306" lon="6.77326">
        <ele>3063</ele>
        <time>2013-07-27T09:08:43Z</time>
      </trkpt>
      <trkpt lat="45.49318" lon="6.77326">
        <ele>3062.5122692762</ele>
        <time>2013-07-27T09:08:48Z</time>
      </trkpt>
      <trkpt lat="45.49358" lon="6.77322">
        <ele>3056.8013970131</ele>
        <time>2013-07-27T09:09:05Z</time>
      </trkpt>
      <trkpt lat="45.49366" lon="6.7732">
        <ele>3056.4021956712</ele>
        <time>2013-07-27T09:09:09Z</time>
      </trkpt>
      <trkpt lat="45.49379" lon="6.77315">
        <ele>3055.431864325</ele>
        <time>2013-07-27T09:09:15Z</time>
      </trkpt>
      <trkpt lat="45.49392" lon="6.77308">
        <ele>3053.628255954</ele>
        <time>2013-07-27T09:09:21Z</time>
      </trkpt>
      <trkpt lat="45.4942" lon="6.77295">
        <ele>3048.0544569952</ele>
        <time>2013-07-27T09:09:33Z</time>
      </trkpt>
      <trkpt lat="45.49432" lon="6.77287">
        <ele>3046.0565656931</ele>
        <time>2013-07-27T09:09:38Z</time>
      </trkpt>
      <trkpt lat="45.49443" lon="6.77279">
        <ele>3044.0363623669</ele>
        <time>2013-07-27T09:09:43Z</time>
      </trkpt>
      <trkpt lat="45.49455" lon="6.77273">
        <ele>3043.00199936</ele>
        <time>2013-07-27T09:09:48Z</time>
      </trkpt>
      <trkpt lat="45.49467" lon="6.77268">
        <ele>3042.00199936</ele>
        <time>2013-07-27T09:09:53Z</time>
      </trkpt>
      <trkpt lat="45.49494" lon="6.77254">
        <ele>3035.42699904</ele>
        <time>2013-07-27T09:10:05Z</time>
      </trkpt>
      <trkpt lat="45.49506" lon="6.77247">
        <ele>3033.92699904</ele>
        <time>2013-07-27T09:10:10Z</time>
      </trkpt>
      <trkpt lat="45.49518" lon="6.77238">
        <ele>3032.4264256492</ele>
        <time>2013-07-27T09:10:15Z</time>
      </trkpt>
      <trkpt lat="45.49525" lon="6.7723">
        <ele>3031.1951967343</ele>
        <time>2013-07-27T09:10:19Z</time>
      </trkpt>
      <trkpt lat="45.49532" lon="6.77221">
        <ele>3029.9860324063</ele>
        <time>2013-07-27T09:10:23Z</time>
      </trkpt>
      <trkpt lat="45.49546" lon="6.77204">
        <ele>3025.0958097219</ele>
        <time>2013-07-27T09:10:30Z</time>
      </trkpt>
      <trkpt lat="45.49555" lon="6.77195">
        <ele>3022.7995993269</ele>
        <time>2013-07-27T09:10:34Z</time>
      </trkpt>
      <trkpt lat="45.49563" lon="6.77185">
        <ele>3021.9979966345</ele>
        <time>2013-07-27T09:10:38Z</time>
      </trkpt>
      <trkpt lat="45.49572" lon="6.77177">
        <ele>3021.1963939422</ele>
        <time>2013-07-27T09:10:42Z</time>
      </trkpt>
      <trkpt lat="45.4958" lon="6.77169">
        <ele>3021.30999936</ele>
        <time>2013-07-27T09:10:46Z</time>
      </trkpt>
      <trkpt lat="45.49606" lon="6.77124">
        <ele>3020.89800064</ele>
        <time>2013-07-27T09:11:04Z</time>
      </trkpt>
      <trkpt lat="45.49612" lon="6.7712">
        <ele>3020.59800064</ele>
        <time>2013-07-27T09:11:07Z</time>
      </trkpt>
      <trkpt lat="45.49618" lon="6.77115">
        <ele>3020.29800064</ele>
        <time>2013-07-27T09:11:10Z</time>
      </trkpt>
      <trkpt lat="45.49629" lon="6.771">
        <ele>3019.70500096</ele>
        <time>2013-07-27T09:11:16Z</time>
      </trkpt>
      <trkpt lat="45.49635" lon="6.77096">
        <ele>3019.40499968</ele>
        <time>2013-07-27T09:11:19Z</time>
      </trkpt>
      <trkpt lat="45.49643" lon="6.77092">
        <ele>3019.10500096</ele>
        <time>2013-07-27T09:11:22Z</time>
      </trkpt>
      <trkpt lat="45.49651" lon="6.77086">
        <ele>3018.3599210816</ele>
        <time>2013-07-27T09:11:26Z</time>
      </trkpt>
      <trkpt lat="45.49656" lon="6.77079">
        <ele>3017.8075789248</ele>
        <time>2013-07-27T09:11:29Z</time>
      </trkpt>
      <trkpt lat="45.49668" lon="6.77053">
        <ele>3015.5300601395</ele>
        <time>2013-07-27T09:11:38Z</time>
      </trkpt>
      <trkpt lat="45.49672" lon="6.77041">
        <ele>3014.3276545588</ele>
        <time>2013-07-27T09:11:42Z</time>
      </trkpt>
      <trkpt lat="45.49677" lon="6.77029">
        <ele>3013.1021014288</ele>
        <time>2013-07-27T09:11:46Z</time>
      </trkpt>
      <trkpt lat="45.4968" lon="6.7702">
        <ele>3012.1711727179</ele>
        <time>2013-07-27T09:11:49Z</time>
      </trkpt>
      <trkpt lat="45.49682" lon="6.77011">
        <ele>3011.2702721056</ele>
        <time>2013-07-27T09:11:52Z</time>
      </trkpt>
      <trkpt lat="45.4969" lon="6.7699">
        <ele>3009.5828347036</ele>
        <time>2013-07-27T09:12:00Z</time>
      </trkpt>
      <trkpt lat="45.4969" lon="6.76979">
        <ele>3007.5</ele>
        <time>2013-07-27T09:12:08Z</time>
      </trkpt>
      <trkpt lat="45.49681" lon="6.76976">
        <ele>3005.21999872</ele>
        <time>2013-07-27T09:12:15Z</time>
      </trkpt>
      <trkpt lat="45.49675" lon="6.7698">
        <ele>3003.61999872</ele>
        <time>2013-07-27T09:12:19Z</time>
      </trkpt>
      <trkpt lat="45.49671" lon="6.76987">
        <ele>3002.42000384</ele>
        <time>2013-07-27T09:12:22Z</time>
      </trkpt>
      <trkpt lat="45.49665" lon="6.77003">
        <ele>2999.4550913885</ele>
        <time>2013-07-27T09:12:28Z</time>
      </trkpt>
      <trkpt lat="45.49641" lon="6.77024">
        <ele>2994.5951919229</ele>
        <time>2013-07-27T09:12:41Z</time>
      </trkpt>
      <trkpt lat="45.49629" lon="6.77028">
        <ele>2992.4500032</ele>
        <time>2013-07-27T09:12:46Z</time>
      </trkpt>
      <trkpt lat="45.49605" lon="6.77035">
        <ele>2987.4500032</ele>
        <time>2013-07-27T09:12:56Z</time>
      </trkpt>
      <trkpt lat="45.4959" lon="6.77042">
        <ele>2984.4500032</ele>
        <time>2013-07-27T09:13:02Z</time>
      </trkpt>
      <trkpt lat="45.49578" lon="6.77046">
        <ele>2982.77000192</ele>
        <time>2013-07-27T09:13:07Z</time>
      </trkpt>
      <trkpt lat="45.49564" lon="6.77048">
        <ele>2980.99200256</ele>
        <time>2013-07-27T09:13:13Z</time>
      </trkpt>
      <trkpt lat="45.49551" lon="6.77052">
        <ele>2978.99200256</ele>
        <time>2013-07-27T09:13:18Z</time>
      </trkpt>
      <trkpt lat="45.49527" lon="6.77069">
        <ele>2975.4970069442</ele>
        <time>2013-07-27T09:13:28Z</time>
      </trkpt>
      <trkpt lat="45.49517" lon="6.77075">
        <ele>2973.9969911041</ele>
        <time>2013-07-27T09:13:33Z</time>
      </trkpt>
      <trkpt lat="45.49508" lon="6.77077">
        <ele>2972.4969949518</ele>
        <time>2013-07-27T09:13:38Z</time>
      </trkpt>
      <trkpt lat="45.49497" lon="6.77082">
        <ele>2970.99000064</ele>
        <time>2013-07-27T09:13:43Z</time>
      </trkpt>
      <trkpt lat="45.49486" lon="6.77084">
        <ele>2970.49000064</ele>
        <time>2013-07-27T09:13:48Z</time>
      </trkpt>
      <trkpt lat="45.49462" lon="6.77088">
        <ele>2967.99200256</ele>
        <time>2013-07-27T09:13:58Z</time>
      </trkpt>
      <trkpt lat="45.49451" lon="6.7709">
        <ele>2966</ele>
        <time>2013-07-27T09:14:03Z</time>
      </trkpt>
      <trkpt lat="45.49441" lon="6.77093">
        <ele>2964.51500288</ele>
        <time>2013-07-27T09:14:08Z</time>
      </trkpt>
      <trkpt lat="45.4943" lon="6.77097">
        <ele>2962.99700096</ele>
        <time>2013-07-27T09:14:13Z</time>
      </trkpt>
      <trkpt lat="45.49418" lon="6.77099">
        <ele>2961.49700096</ele>
        <time>2013-07-27T09:14:18Z</time>
      </trkpt>
      <trkpt lat="45.49392" lon="6.77118">
        <ele>2959.0990099637</ele>
        <time>2013-07-27T09:14:32Z</time>
      </trkpt>
      <trkpt lat="45.49381" lon="6.77135">
        <ele>2958.2209891516</ele>
        <time>2013-07-27T09:14:41Z</time>
      </trkpt>
      <trkpt lat="45.49334" lon="6.77148">
        <ele>2954.0029960449</ele>
        <time>2013-07-27T09:15:08Z</time>
      </trkpt>
      <trkpt lat="45.49318" lon="6.77133">
        <ele>2951.5019960067</ele>
        <time>2013-07-27T09:15:28Z</time>
      </trkpt>
      <trkpt lat="45.4932" lon="6.77125">
        <ele>2949.5511031991</ele>
        <time>2013-07-27T09:15:38Z</time>
      </trkpt>
      <trkpt lat="45.49323" lon="6.77114">
        <ele>2947.10899712</ele>
        <time>2013-07-27T09:15:44Z</time>
      </trkpt>
      <trkpt lat="45.49323" lon="6.77109">
        <ele>2944.40899712</ele>
        <time>2013-07-27T09:15:47Z</time>
      </trkpt>
      <trkpt lat="45.49334" lon="6.77102">
        <ele>2938.23399936</ele>
        <time>2013-07-27T09:15:57Z</time>
      </trkpt>
      <trkpt lat="45.49351" lon="6.7709">
        <ele>2933.51800192</ele>
        <time>2013-07-27T09:16:18Z</time>
      </trkpt>
      <trkpt lat="45.49358" lon="6.7708">
        <ele>2929.2067910351</ele>
        <time>2013-07-27T09:16:30Z</time>
      </trkpt>
      <trkpt lat="45.49365" lon="6.77059">
        <ele>2925.69400192</ele>
        <time>2013-07-27T09:16:44Z</time>
      </trkpt>
      <trkpt lat="45.49368" lon="6.77054">
        <ele>2925.09400192</ele>
        <time>2013-07-27T09:16:46Z</time>
      </trkpt>
      <trkpt lat="45.49376" lon="6.77035">
        <ele>2923.05100288</ele>
        <time>2013-07-27T09:16:53Z</time>
      </trkpt>
      <trkpt lat="45.49386" lon="6.77015">
        <ele>2916.52000512</ele>
        <time>2013-07-27T09:17:01Z</time>
      </trkpt>
      <trkpt lat="45.49389" lon="6.7701">
        <ele>2914.97000192</ele>
        <time>2013-07-27T09:17:03Z</time>
      </trkpt>
      <trkpt lat="45.49396" lon="6.76999">
        <ele>2913.17000192</ele>
        <time>2013-07-27T09:17:09Z</time>
      </trkpt>
      <trkpt lat="45.49401" lon="6.76988">
        <ele>2911.96000256</ele>
        <time>2013-07-27T09:17:13Z</time>
      </trkpt>
      <trkpt lat="45.49406" lon="6.76976">
        <ele>2910.36000256</ele>
        <time>2013-07-27T09:17:17Z</time>
      </trkpt>
      <trkpt lat="45.49422" lon="6.76945">
        <ele>2903.7385247032</ele>
        <time>2013-07-27T09:17:29Z</time>
      </trkpt>
      <trkpt lat="45.49428" lon="6.76932">
        <ele>2900.6</ele>
        <time>2013-07-27T09:17:34Z</time>
      </trkpt>
      <trkpt lat="45.49435" lon="6.76921">
        <ele>2898.6</ele>
        <time>2013-07-27T09:17:39Z</time>
      </trkpt>
      <trkpt lat="45.4946" lon="6.76874">
        <ele>2892.9900032</ele>
        <time>2013-07-27T09:17:57Z</time>
      </trkpt>
      <trkpt lat="45.49463" lon="6.76868">
        <ele>2891.98</ele>
        <time>2013-07-27T09:17:59Z</time>
      </trkpt>
      <trkpt lat="45.49469" lon="6.76858">
        <ele>2889.99800064</ele>
        <time>2013-07-27T09:18:03Z</time>
      </trkpt>
      <trkpt lat="45.49477" lon="6.7685">
        <ele>2889.19800064</ele>
        <time>2013-07-27T09:18:07Z</time>
      </trkpt>
      <trkpt lat="45.49476" lon="6.76835">
        <ele>2886.44000256</ele>
        <time>2013-07-27T09:18:17Z</time>
      </trkpt>
      <trkpt lat="45.49469" lon="6.76817">
        <ele>2881.9682879582</ele>
        <time>2013-07-27T09:18:27Z</time>
      </trkpt>
      <trkpt lat="45.49465" lon="6.7681">
        <ele>2880.4816670705</ele>
        <time>2013-07-27T09:18:30Z</time>
      </trkpt>
      <trkpt lat="45.49462" lon="6.76801">
        <ele>2878.7184672554</ele>
        <time>2013-07-27T09:18:34Z</time>
      </trkpt>
      <trkpt lat="45.49458" lon="6.76793">
        <ele>2877.5075695637</ele>
        <time>2013-07-27T09:18:38Z</time>
      </trkpt>
      <trkpt lat="45.49454" lon="6.76784">
        <ele>2875.98600448</ele>
        <time>2013-07-27T09:18:43Z</time>
      </trkpt>
      <trkpt lat="45.49447" lon="6.76764">
        <ele>2869.68600448</ele>
        <time>2013-07-27T09:18:52Z</time>
      </trkpt>
      <trkpt lat="45.49448" lon="6.76752">
        <ele>2867.76000256</ele>
        <time>2013-07-27T09:18:56Z</time>
      </trkpt>
      <trkpt lat="45.49445" lon="6.7674">
        <ele>2865.76000256</ele>
        <time>2013-07-27T09:19:01Z</time>
      </trkpt>
      <trkpt lat="45.49442" lon="6.76729">
        <ele>2863.76000256</ele>
        <time>2013-07-27T09:19:06Z</time>
      </trkpt>
      <trkpt lat="45.4944" lon="6.76719">
        <ele>2861.36000256</ele>
        <time>2013-07-27T09:19:12Z</time>
      </trkpt>
      <trkpt lat="45.49444" lon="6.76696">
        <ele>2856.4500032</ele>
        <time>2013-07-27T09:19:22Z</time>
      </trkpt>
      <trkpt lat="45.49444" lon="6.76688">
        <ele>2854.7624768144</ele>
        <time>2013-07-27T09:19:26Z</time>
      </trkpt>
      <trkpt lat="45.49443" lon="6.76678">
        <ele>2853.1656694072</ele>
        <time>2013-07-27T09:19:30Z</time>
      </trkpt>
      <trkpt lat="45.49442" lon="6.7667">
        <ele>2852</ele>
        <time>2013-07-27T09:19:33Z</time>
      </trkpt>
      <trkpt lat="45.49417" lon="6.76636">
        <ele>2843.39200256</ele>
        <time>2013-07-27T09:19:52Z</time>
      </trkpt>
      <trkpt lat="45.49413" lon="6.76627">
        <ele>2841.4500032</ele>
        <time>2013-07-27T09:19:56Z</time>
      </trkpt>
      <trkpt lat="45.49408" lon="6.76616">
        <ele>2838.4500032</ele>
        <time>2013-07-27T09:20:02Z</time>
      </trkpt>
      <trkpt lat="45.49407" lon="6.76601">
        <ele>2835.87000192</ele>
        <time>2013-07-27T09:20:10Z</time>
      </trkpt>
      <trkpt lat="45.494" lon="6.76579">
        <ele>2827.5697236653</ele>
        <time>2013-07-27T09:20:29Z</time>
      </trkpt>
      <trkpt lat="45.49393" lon="6.76572">
        <ele>2823.5963874699</ele>
        <time>2013-07-27T09:20:41Z</time>
      </trkpt>
      <trkpt lat="45.49385" lon="6.76561">
        <ele>2819.36000256</ele>
        <time>2013-07-27T09:20:52Z</time>
      </trkpt>
      <trkpt lat="45.49378" lon="6.76549">
        <ele>2816.16000256</ele>
        <time>2013-07-27T09:21:00Z</time>
      </trkpt>
      <trkpt lat="45.49372" lon="6.7654">
        <ele>2814.376</ele>
        <time>2013-07-27T09:21:05Z</time>
      </trkpt>
      <trkpt lat="45.49357" lon="6.76524">
        <ele>2811.4500032</ele>
        <time>2013-07-27T09:21:14Z</time>
      </trkpt>
      <trkpt lat="45.49351" lon="6.76507">
        <ele>2807.4500032</ele>
        <time>2013-07-27T09:21:22Z</time>
      </trkpt>
      <trkpt lat="45.49345" lon="6.76513">
        <ele>2806.99400192</ele>
        <time>2013-07-27T09:21:43Z</time>
      </trkpt>
      <trkpt lat="45.49336" lon="6.76515">
        <ele>2805.55400192</ele>
        <time>2013-07-27T09:21:48Z</time>
      </trkpt>
      <trkpt lat="45.49325" lon="6.7651">
        <ele>2803.9900032</ele>
        <time>2013-07-27T09:21:53Z</time>
      </trkpt>
      <trkpt lat="45.49306" lon="6.765">
        <ele>2798.8901104943</ele>
        <time>2013-07-27T09:22:04Z</time>
      </trkpt>
      <trkpt lat="45.49298" lon="6.76498">
        <ele>2798.2907097033</ele>
        <time>2013-07-27T09:22:10Z</time>
      </trkpt>
      <trkpt lat="45.4929" lon="6.76494">
        <ele>2797.5635649846</ele>
        <time>2013-07-27T09:22:14Z</time>
      </trkpt>
      <trkpt lat="45.49281" lon="6.76488">
        <ele>2796.0420439505</ele>
        <time>2013-07-27T09:22:18Z</time>
      </trkpt>
      <trkpt lat="45.49272" lon="6.76485">
        <ele>2794.3603628075</ele>
        <time>2013-07-27T09:22:22Z</time>
      </trkpt>
      <trkpt lat="45.49241" lon="6.76447">
        <ele>2784.736</ele>
        <time>2013-07-27T09:22:47Z</time>
      </trkpt>
      <trkpt lat="45.49237" lon="6.76438">
        <ele>2780.736</ele>
        <time>2013-07-27T09:22:52Z</time>
      </trkpt>
      <trkpt lat="45.49233" lon="6.76419">
        <ele>2778.47000192</ele>
        <time>2013-07-27T09:22:58Z</time>
      </trkpt>
      <trkpt lat="45.49225" lon="6.76395">
        <ele>2774.3952111107</ele>
        <time>2013-07-27T09:23:15Z</time>
      </trkpt>
      <trkpt lat="45.49221" lon="6.76386">
        <ele>2770.5</ele>
        <time>2013-07-27T09:23:28Z</time>
      </trkpt>
      <trkpt lat="45.49217" lon="6.76376">
        <ele>2769</ele>
        <time>2013-07-27T09:23:33Z</time>
      </trkpt>
      <trkpt lat="45.49215" lon="6.76367">
        <ele>2767.3967946153</ele>
        <time>2013-07-27T09:23:37Z</time>
      </trkpt>
      <trkpt lat="45.49212" lon="6.76359">
        <ele>2766.1943905767</ele>
        <time>2013-07-27T09:23:40Z</time>
      </trkpt>
      <trkpt lat="45.49207" lon="6.76337">
        <ele>2761.9500032</ele>
        <time>2013-07-27T09:23:49Z</time>
      </trkpt>
      <trkpt lat="45.49205" lon="6.76327">
        <ele>2759.59200256</ele>
        <time>2013-07-27T09:23:54Z</time>
      </trkpt>
      <trkpt lat="45.492" lon="6.76321">
        <ele>2757.59200256</ele>
        <time>2013-07-27T09:23:59Z</time>
      </trkpt>
      <trkpt lat="45.49197" lon="6.76308">
        <ele>2755.78000128</ele>
        <time>2013-07-27T09:24:04Z</time>
      </trkpt>
      <trkpt lat="45.49196" lon="6.76299">
        <ele>2754.98000128</ele>
        <time>2013-07-27T09:24:08Z</time>
      </trkpt>
      <trkpt lat="45.49193" lon="6.76277">
        <ele>2751.57000192</ele>
        <time>2013-07-27T09:24:21Z</time>
      </trkpt>
      <trkpt lat="45.49192" lon="6.76267">
        <ele>2746.9920185179</ele>
        <time>2013-07-27T09:24:28Z</time>
      </trkpt>
      <trkpt lat="45.49189" lon="6.76259">
        <ele>2742.9969911041</ele>
        <time>2013-07-27T09:24:33Z</time>
      </trkpt>
      <trkpt lat="45.49183" lon="6.76254">
        <ele>2741.7975959615</ele>
        <time>2013-07-27T09:24:37Z</time>
      </trkpt>
      <trkpt lat="45.49177" lon="6.76247">
        <ele>2740.2945909133</ele>
        <time>2013-07-27T09:24:42Z</time>
      </trkpt>
      <trkpt lat="45.49177" lon="6.76223">
        <ele>2732.4900032</ele>
        <time>2013-07-27T09:25:02Z</time>
      </trkpt>
      <trkpt lat="45.49171" lon="6.76194">
        <ele>2721.7975959615</ele>
        <time>2013-07-27T09:25:36Z</time>
      </trkpt>
      <trkpt lat="45.49168" lon="6.76181">
        <ele>2717.39200256</ele>
        <time>2013-07-27T09:25:47Z</time>
      </trkpt>
      <trkpt lat="45.4917" lon="6.76151">
        <ele>2708.4730548331</ele>
        <time>2013-07-27T09:26:08Z</time>
      </trkpt>
      <trkpt lat="45.49175" lon="6.76146">
        <ele>2706.6993989904</ele>
        <time>2013-07-27T09:26:16Z</time>
      </trkpt>
      <trkpt lat="45.49178" lon="6.76137">
        <ele>2706.0981969711</ele>
        <time>2013-07-27T09:26:22Z</time>
      </trkpt>
      <trkpt lat="45.49179" lon="6.76123">
        <ele>2703.564871259</ele>
        <time>2013-07-27T09:26:29Z</time>
      </trkpt>
      <trkpt lat="45.49182" lon="6.76111">
        <ele>2700.6476413541</ele>
        <time>2013-07-27T09:26:35Z</time>
      </trkpt>
      <trkpt lat="45.49196" lon="6.76065">
        <ele>2683.73000192</ele>
        <time>2013-07-27T09:27:04Z</time>
      </trkpt>
      <trkpt lat="45.49201" lon="6.76038">
        <ele>2678.32600448</ele>
        <time>2013-07-27T09:27:17Z</time>
      </trkpt>
      <trkpt lat="45.49202" lon="6.76014">
        <ele>2672.480560086</ele>
        <time>2013-07-27T09:27:27Z</time>
      </trkpt>
      <trkpt lat="45.49198" lon="6.75998">
        <ele>2669.3099347033</ele>
        <time>2013-07-27T09:27:35Z</time>
      </trkpt>
      <trkpt lat="45.49191" lon="6.75986">
        <ele>2666.9027122657</ele>
        <time>2013-07-27T09:27:41Z</time>
      </trkpt>
      <trkpt lat="45.49185" lon="6.75932">
        <ele>2663.79400192</ele>
        <time>2013-07-27T09:27:57Z</time>
      </trkpt>
      <trkpt lat="45.49182" lon="6.75916">
        <ele>2662.35400192</ele>
        <time>2013-07-27T09:28:02Z</time>
      </trkpt>
      <trkpt lat="45.49176" lon="6.75901">
        <ele>2661.19600128</ele>
        <time>2013-07-27T09:28:07Z</time>
      </trkpt>
      <trkpt lat="45.49171" lon="6.75888">
        <ele>2659.99600128</ele>
        <time>2013-07-27T09:28:13Z</time>
      </trkpt>
      <trkpt lat="45.49168" lon="6.75877">
        <ele>2658.99600128</ele>
        <time>2013-07-27T09:28:18Z</time>
      </trkpt>
      <trkpt lat="45.49163" lon="6.75852">
        <ele>2657.3812384072</ele>
        <time>2013-07-27T09:28:26Z</time>
      </trkpt>
      <trkpt lat="45.49159" lon="6.7583">
        <ele>2656.1836328518</ele>
        <time>2013-07-27T09:28:32Z</time>
      </trkpt>
      <trkpt lat="45.49172" lon="6.75776">
        <ele>2655</ele>
        <time>2013-07-27T09:28:49Z</time>
      </trkpt>
      <trkpt lat="45.49183" lon="6.75736">
        <ele>2653.3848472551</ele>
        <time>2013-07-27T09:29:01Z</time>
      </trkpt>
      <trkpt lat="45.49186" lon="6.75714">
        <ele>2653</ele>
        <time>2013-07-27T09:29:07Z</time>
      </trkpt>
      <trkpt lat="45.49188" lon="6.75695">
        <ele>2653</ele>
        <time>2013-07-27T09:29:12Z</time>
      </trkpt>
      <trkpt lat="45.4919" lon="6.75671">
        <ele>2651.78000128</ele>
        <time>2013-07-27T09:29:19Z</time>
      </trkpt>
      <trkpt lat="45.49191" lon="6.7566">
        <ele>2650.9940138884</ele>
        <time>2013-07-27T09:29:23Z</time>
      </trkpt>
      <trkpt lat="45.49188" lon="6.75636">
        <ele>2648</ele>
        <time>2013-07-27T09:29:33Z</time>
      </trkpt>
      <trkpt lat="45.49185" lon="6.75625">
        <ele>2642.5891818266</ele>
        <time>2013-07-27T09:29:39Z</time>
      </trkpt>
      <trkpt lat="45.49184" lon="6.75613">
        <ele>2638.9500032</ele>
        <time>2013-07-27T09:29:43Z</time>
      </trkpt>
      <trkpt lat="45.49183" lon="6.75601">
        <ele>2636.4500032</ele>
        <time>2013-07-27T09:29:48Z</time>
      </trkpt>
      <trkpt lat="45.49182" lon="6.75591">
        <ele>2634.4500032</ele>
        <time>2013-07-27T09:29:52Z</time>
      </trkpt>
      <trkpt lat="45.49177" lon="6.75569">
        <ele>2630.76000256</ele>
        <time>2013-07-27T09:30:01Z</time>
      </trkpt>
      <trkpt lat="45.49174" lon="6.75559">
        <ele>2628.9900032</ele>
        <time>2013-07-27T09:30:05Z</time>
      </trkpt>
      <trkpt lat="45.49173" lon="6.75546">
        <ele>2626.4900032</ele>
        <time>2013-07-27T09:30:10Z</time>
      </trkpt>
      <trkpt lat="45.4917" lon="6.75532">
        <ele>2623.79400192</ele>
        <time>2013-07-27T09:30:17Z</time>
      </trkpt>
      <trkpt lat="45.49167" lon="6.75518">
        <ele>2621.6706603884</ele>
        <time>2013-07-27T09:30:24Z</time>
      </trkpt>
      <trkpt lat="45.49167" lon="6.75486">
        <ele>2619.2754492777</ele>
        <time>2013-07-27T09:30:32Z</time>
      </trkpt>
      <trkpt lat="45.49164" lon="6.75465">
        <ele>2618.5991986538</ele>
        <time>2013-07-27T09:30:37Z</time>
      </trkpt>
      <trkpt lat="45.4916" lon="6.75449">
        <ele>2618.218437375</ele>
        <time>2013-07-27T09:30:41Z</time>
      </trkpt>
      <trkpt lat="45.4914" lon="6.75397">
        <ele>2612.39200256</ele>
        <time>2013-07-27T09:30:57Z</time>
      </trkpt>
      <trkpt lat="45.49139" lon="6.7538">
        <ele>2610.79200256</ele>
        <time>2013-07-27T09:31:01Z</time>
      </trkpt>
      <trkpt lat="45.49138" lon="6.75371">
        <ele>2609.99200256</ele>
        <time>2013-07-27T09:31:03Z</time>
      </trkpt>
      <trkpt lat="45.49136" lon="6.75354">
        <ele>2608.39200256</ele>
        <time>2013-07-27T09:31:07Z</time>
      </trkpt>
      <trkpt lat="45.49135" lon="6.75333">
        <ele>2606.39200256</ele>
        <time>2013-07-27T09:31:12Z</time>
      </trkpt>
      <trkpt lat="45.49135" lon="6.75302">
        <ele>2603.16000256</ele>
        <time>2013-07-27T09:31:20Z</time>
      </trkpt>
      <trkpt lat="45.49136" lon="6.75286">
        <ele>2601.5808393331</ele>
        <time>2013-07-27T09:31:25Z</time>
      </trkpt>
      <trkpt lat="45.49139" lon="6.75267">
        <ele>2600.3832337777</ele>
        <time>2013-07-27T09:31:31Z</time>
      </trkpt>
      <trkpt lat="45.49141" lon="6.7525">
        <ele>2599.1012020193</ele>
        <time>2013-07-27T09:31:36Z</time>
      </trkpt>
      <trkpt lat="45.49144" lon="6.75235">
        <ele>2597.5981969711</ele>
        <time>2013-07-27T09:31:41Z</time>
      </trkpt>
      <trkpt lat="45.49152" lon="6.75206">
        <ele>2590.5329351109</ele>
        <time>2013-07-27T09:31:51Z</time>
      </trkpt>
      <trkpt lat="45.49155" lon="6.75193">
        <ele>2587.3967946153</ele>
        <time>2013-07-27T09:31:57Z</time>
      </trkpt>
      <trkpt lat="45.49158" lon="6.75178">
        <ele>2584.9900032</ele>
        <time>2013-07-27T09:32:03Z</time>
      </trkpt>
      <trkpt lat="45.4916" lon="6.75163">
        <ele>2581.9900032</ele>
        <time>2013-07-27T09:32:09Z</time>
      </trkpt>
      <trkpt lat="45.49162" lon="6.75147">
        <ele>2579.19600128</ele>
        <time>2013-07-27T09:32:15Z</time>
      </trkpt>
      <trkpt lat="45.4916" lon="6.75121">
        <ele>2575.4511006474</ele>
        <time>2013-07-27T09:32:24Z</time>
      </trkpt>
      <trkpt lat="45.49159" lon="6.75105">
        <ele>2573.4550913885</ele>
        <time>2013-07-27T09:32:28Z</time>
      </trkpt>
      <trkpt lat="45.49159" lon="6.75091">
        <ele>2571.4590821296</ele>
        <time>2013-07-27T09:32:32Z</time>
      </trkpt>
      <trkpt lat="45.49157" lon="6.75076">
        <ele>2570.0981969711</ele>
        <time>2013-07-27T09:32:36Z</time>
      </trkpt>
      <trkpt lat="45.49153" lon="6.75008">
        <ele>2560.56000256</ele>
        <time>2013-07-27T09:32:59Z</time>
      </trkpt>
      <trkpt lat="45.4915" lon="6.74998">
        <ele>2558.99600128</ele>
        <time>2013-07-27T09:33:03Z</time>
      </trkpt>
      <trkpt lat="45.49145" lon="6.74987">
        <ele>2558.19600128</ele>
        <time>2013-07-27T09:33:07Z</time>
      </trkpt>
      <trkpt lat="45.49139" lon="6.74982">
        <ele>2557.59600128</ele>
        <time>2013-07-27T09:33:10Z</time>
      </trkpt>
      <trkpt lat="45.49127" lon="6.74971">
        <ele>2556.38000128</ele>
        <time>2013-07-27T09:33:16Z</time>
      </trkpt>
      <trkpt lat="45.49124" lon="6.74961">
        <ele>2555.78000128</ele>
        <time>2013-07-27T09:33:19Z</time>
      </trkpt>
      <trkpt lat="45.4912" lon="6.74951">
        <ele>2555.18000128</ele>
        <time>2013-07-27T09:33:22Z</time>
      </trkpt>
      <trkpt lat="45.49116" lon="6.74937">
        <ele>2554.0718576108</ele>
        <time>2013-07-27T09:33:26Z</time>
      </trkpt>
      <trkpt lat="45.49113" lon="6.74926">
        <ele>2553.1736534442</ele>
        <time>2013-07-27T09:33:29Z</time>
      </trkpt>
      <trkpt lat="45.49106" lon="6.749">
        <ele>2550.7975959615</ele>
        <time>2013-07-27T09:33:37Z</time>
      </trkpt>
      <trkpt lat="45.49103" lon="6.74889">
        <ele>2549.5951919229</ele>
        <time>2013-07-27T09:33:41Z</time>
      </trkpt>
      <trkpt lat="45.49101" lon="6.74878">
        <ele>2548.71500288</ele>
        <time>2013-07-27T09:33:44Z</time>
      </trkpt>
      <trkpt lat="45.491" lon="6.7486">
        <ele>2547.51500288</ele>
        <time>2013-07-27T09:33:48Z</time>
      </trkpt>
      <trkpt lat="45.49101" lon="6.74844">
        <ele>2546.37499904</ele>
        <time>2013-07-27T09:33:52Z</time>
      </trkpt>
      <trkpt lat="45.4911" lon="6.74808">
        <ele>2543.29400192</ele>
        <time>2013-07-27T09:34:02Z</time>
      </trkpt>
      <trkpt lat="45.49115" lon="6.74798">
        <ele>2541.77000192</ele>
        <time>2013-07-27T09:34:07Z</time>
      </trkpt>
      <trkpt lat="45.49119" lon="6.74792">
        <ele>2540.57000192</ele>
        <time>2013-07-27T09:34:11Z</time>
      </trkpt>
      <trkpt lat="45.49124" lon="6.74793">
        <ele>2539</ele>
        <time>2013-07-27T09:34:25Z</time>
      </trkpt>
      <trkpt lat="45.49125" lon="6.74801">
        <ele>2538.3939397857</ele>
        <time>2013-07-27T09:35:39Z</time>
      </trkpt>
      <trkpt lat="45.49127" lon="6.74764">
        <ele>2534.4866492624</ele>
        <time>2013-07-27T09:37:28Z</time>
      </trkpt>
      <trkpt lat="45.49126" lon="6.7475">
        <ele>2533.2997060179</ele>
        <time>2013-07-27T09:37:32Z</time>
      </trkpt>
      <trkpt lat="45.49126" lon="6.74739">
        <ele>2532.4545489807</ele>
        <time>2013-07-27T09:37:35Z</time>
      </trkpt>
      <trkpt lat="45.4913" lon="6.74717">
        <ele>2530.3333316094</ele>
        <time>2013-07-27T09:37:42Z</time>
      </trkpt>
      <trkpt lat="45.49132" lon="6.74708">
        <ele>2529.40299904</ele>
        <time>2013-07-27T09:37:45Z</time>
      </trkpt>
      <trkpt lat="45.49135" lon="6.74698">
        <ele>2528.50299904</ele>
        <time>2013-07-27T09:37:48Z</time>
      </trkpt>
      <trkpt lat="45.49138" lon="6.74689">
        <ele>2527.60299904</ele>
        <time>2013-07-27T09:37:51Z</time>
      </trkpt>
      <trkpt lat="45.49142" lon="6.7468">
        <ele>2526.70299904</ele>
        <time>2013-07-27T09:37:54Z</time>
      </trkpt>
      <trkpt lat="45.49149" lon="6.74665">
        <ele>2524.30299904</ele>
        <time>2013-07-27T09:38:02Z</time>
      </trkpt>
      <trkpt lat="45.49156" lon="6.74659">
        <ele>2524</ele>
        <time>2013-07-27T09:38:32Z</time>
      </trkpt>
      <trkpt lat="45.49162" lon="6.74647">
        <ele>2523</ele>
        <time>2013-07-27T09:39:21Z</time>
      </trkpt>
      <trkpt lat="45.49169" lon="6.7464">
        <ele>2522.0199600671</ele>
        <time>2013-07-27T09:39:28Z</time>
      </trkpt>
      <trkpt lat="45.49179" lon="6.74632">
        <ele>2519.8502461638</ele>
        <time>2013-07-27T09:39:37Z</time>
      </trkpt>
      <trkpt lat="45.49192" lon="6.74608">
        <ele>2515.0272442293</ele>
        <time>2013-07-27T09:39:53Z</time>
      </trkpt>
      <trkpt lat="45.492" lon="6.74591">
        <ele>2510.8205625806</ele>
        <time>2013-07-27T09:40:00Z</time>
      </trkpt>
      <trkpt lat="45.49206" lon="6.74575">
        <ele>2508.40299904</ele>
        <time>2013-07-27T09:40:05Z</time>
      </trkpt>
      <trkpt lat="45.49212" lon="6.74563">
        <ele>2507.20299904</ele>
        <time>2013-07-27T09:40:09Z</time>
      </trkpt>
      <trkpt lat="45.49217" lon="6.74549">
        <ele>2506.00299904</ele>
        <time>2013-07-27T09:40:13Z</time>
      </trkpt>
      <trkpt lat="45.49233" lon="6.74522">
        <ele>2502.4111786595</ele>
        <time>2013-07-27T09:40:22Z</time>
      </trkpt>
      <trkpt lat="45.49264" lon="6.74487">
        <ele>2491.6909095376</ele>
        <time>2013-07-27T09:40:37Z</time>
      </trkpt>
      <trkpt lat="45.49274" lon="6.74477">
        <ele>2488.6606045483</ele>
        <time>2013-07-27T09:40:42Z</time>
      </trkpt>
      <trkpt lat="45.49294" lon="6.74457">
        <ele>2484.40399872</ele>
        <time>2013-07-27T09:40:52Z</time>
      </trkpt>
      <trkpt lat="45.49304" lon="6.74443">
        <ele>2482.40399872</ele>
        <time>2013-07-27T09:40:57Z</time>
      </trkpt>
      <trkpt lat="45.49313" lon="6.74427">
        <ele>2480.40399872</ele>
        <time>2013-07-27T09:41:02Z</time>
      </trkpt>
      <trkpt lat="45.4932" lon="6.74415">
        <ele>2479.10900096</ele>
        <time>2013-07-27T09:41:06Z</time>
      </trkpt>
      <trkpt lat="45.4933" lon="6.74402">
        <ele>2477.60900096</ele>
        <time>2013-07-27T09:41:11Z</time>
      </trkpt>
      <trkpt lat="45.49351" lon="6.74386">
        <ele>2474.0049984</ele>
        <time>2013-07-27T09:41:19Z</time>
      </trkpt>
      <trkpt lat="45.49362" lon="6.74377">
        <ele>2471.7485031546</ele>
        <time>2013-07-27T09:41:24Z</time>
      </trkpt>
      <trkpt lat="45.49372" lon="6.74368">
        <ele>2470.5508991292</ele>
        <time>2013-07-27T09:41:28Z</time>
      </trkpt>
      <trkpt lat="45.49379" lon="6.74361">
        <ele>2469.65269611</ele>
        <time>2013-07-27T09:41:31Z</time>
      </trkpt>
      <trkpt lat="45.49386" lon="6.74353">
        <ele>2468.7324657202</ele>
        <time>2013-07-27T09:41:34Z</time>
      </trkpt>
      <trkpt lat="45.49401" lon="6.74338">
        <ele>2466.9288573492</ele>
        <time>2013-07-27T09:41:40Z</time>
      </trkpt>
      <trkpt lat="45.49408" lon="6.74331">
        <ele>2466.0270531636</ele>
        <time>2013-07-27T09:41:43Z</time>
      </trkpt>
      <trkpt lat="45.49419" lon="6.74321">
        <ele>2462.0278568845</ele>
        <time>2013-07-27T09:41:48Z</time>
      </trkpt>
      <trkpt lat="45.4943" lon="6.74315">
        <ele>2458.1273632246</ele>
        <time>2013-07-27T09:41:53Z</time>
      </trkpt>
      <trkpt lat="45.49442" lon="6.74308">
        <ele>2455.5653939217</ele>
        <time>2013-07-27T09:41:58Z</time>
      </trkpt>
      <trkpt lat="45.49462" lon="6.74293">
        <ele>2452.13000192</ele>
        <time>2013-07-27T09:42:06Z</time>
      </trkpt>
      <trkpt lat="45.49469" lon="6.74287">
        <ele>2451.23000192</ele>
        <time>2013-07-27T09:42:09Z</time>
      </trkpt>
      <trkpt lat="45.49499" lon="6.74264">
        <ele>2441.6002036769</ele>
        <time>2013-07-27T09:42:30Z</time>
      </trkpt>
      <trkpt lat="45.49516" lon="6.7424">
        <ele>2430.5500032</ele>
        <time>2013-07-27T09:42:52Z</time>
      </trkpt>
      <trkpt lat="45.4952" lon="6.74228">
        <ele>2424.66000384</ele>
        <time>2013-07-27T09:43:02Z</time>
      </trkpt>
      <trkpt lat="45.49523" lon="6.74214">
        <ele>2421.2781708385</ele>
        <time>2013-07-27T09:43:07Z</time>
      </trkpt>
      <trkpt lat="45.49528" lon="6.74198">
        <ele>2415.9362574486</ele>
        <time>2013-07-27T09:43:15Z</time>
      </trkpt>
      <trkpt lat="45.49542" lon="6.74179">
        <ele>2408.9799209897</ele>
        <time>2013-07-27T09:43:28Z</time>
      </trkpt>
      <trkpt lat="45.4957" lon="6.74174">
        <ele>2403.5981990209</ele>
        <time>2013-07-27T09:43:40Z</time>
      </trkpt>
      <trkpt lat="45.49587" lon="6.74166">
        <ele>2398.5515542578</ele>
        <time>2013-07-27T09:43:50Z</time>
      </trkpt>
      <trkpt lat="45.49599" lon="6.74164">
        <ele>2395.30800384</ele>
        <time>2013-07-27T09:43:56Z</time>
      </trkpt>
      <trkpt lat="45.49608" lon="6.74163">
        <ele>2392.90800384</ele>
        <time>2013-07-27T09:44:00Z</time>
      </trkpt>
      <trkpt lat="45.49618" lon="6.74161">
        <ele>2390.7302715621</ele>
        <time>2013-07-27T09:44:04Z</time>
      </trkpt>
      <trkpt lat="45.49646" lon="6.74157">
        <ele>2387.2752767887</ele>
        <time>2013-07-27T09:44:15Z</time>
      </trkpt>
      <trkpt lat="45.4966" lon="6.74153">
        <ele>2384.8728751558</ele>
        <time>2013-07-27T09:44:21Z</time>
      </trkpt>
      <trkpt lat="45.49675" lon="6.7415">
        <ele>2382.4765733275</ele>
        <time>2013-07-27T09:44:27Z</time>
      </trkpt>
      <trkpt lat="45.4969" lon="6.74147">
        <ele>2380.0837525555</ele>
        <time>2013-07-27T09:44:33Z</time>
      </trkpt>
      <trkpt lat="45.49703" lon="6.74146">
        <ele>2378.5586784541</ele>
        <time>2013-07-27T09:44:38Z</time>
      </trkpt>
      <trkpt lat="45.49731" lon="6.74151">
        <ele>2374.64000256</ele>
        <time>2013-07-27T09:44:49Z</time>
      </trkpt>
      <trkpt lat="45.49745" lon="6.74159">
        <ele>2372.0900032</ele>
        <time>2013-07-27T09:44:55Z</time>
      </trkpt>
      <trkpt lat="45.49758" lon="6.74164">
        <ele>2368.9900032</ele>
        <time>2013-07-27T09:45:01Z</time>
      </trkpt>
      <trkpt lat="45.49798" lon="6.74174">
        <ele>2357.1036914525</ele>
        <time>2013-07-27T09:45:29Z</time>
      </trkpt>
      <trkpt lat="45.4981" lon="6.74182">
        <ele>2353.0411294816</ele>
        <time>2013-07-27T09:45:36Z</time>
      </trkpt>
      <trkpt lat="45.49822" lon="6.74188">
        <ele>2348.1263836715</ele>
        <time>2013-07-27T09:45:43Z</time>
      </trkpt>
      <trkpt lat="45.49836" lon="6.74192">
        <ele>2342.54000384</ele>
        <time>2013-07-27T09:45:52Z</time>
      </trkpt>
      <trkpt lat="45.4985" lon="6.74195">
        <ele>2337.1545417653</ele>
        <time>2013-07-27T09:46:01Z</time>
      </trkpt>
      <trkpt lat="45.49869" lon="6.74185">
        <ele>2332.0932834001</ele>
        <time>2013-07-27T09:46:11Z</time>
      </trkpt>
      <trkpt lat="45.4988" lon="6.74174">
        <ele>2329.50400256</ele>
        <time>2013-07-27T09:46:17Z</time>
      </trkpt>
      <trkpt lat="45.49889" lon="6.74164">
        <ele>2327.50400256</ele>
        <time>2013-07-27T09:46:22Z</time>
      </trkpt>
      <trkpt lat="45.49898" lon="6.7415">
        <ele>2325.8335017879</ele>
        <time>2013-07-27T09:46:27Z</time>
      </trkpt>
      <trkpt lat="45.49903" lon="6.74137">
        <ele>2324.3379888054</ele>
        <time>2013-07-27T09:46:32Z</time>
      </trkpt>
      <trkpt lat="45.49917" lon="6.74116">
        <ele>2321.61999872</ele>
        <time>2013-07-27T09:46:51Z</time>
      </trkpt>
      <trkpt lat="45.49931" lon="6.74112">
        <ele>2321.22000128</ele>
        <time>2013-07-27T09:46:57Z</time>
      </trkpt>
      <trkpt lat="45.49941" lon="6.74106">
        <ele>2320.42000128</ele>
        <time>2013-07-27T09:47:01Z</time>
      </trkpt>
      <trkpt lat="45.4995" lon="6.74097">
        <ele>2320</ele>
        <time>2013-07-27T09:47:05Z</time>
      </trkpt>
      <trkpt lat="45.4996" lon="6.74086">
        <ele>2320</ele>
        <time>2013-07-27T09:47:10Z</time>
      </trkpt>
      <trkpt lat="45.49981" lon="6.74077">
        <ele>2318.5554460117</ele>
        <time>2013-07-27T09:47:18Z</time>
      </trkpt>
      <trkpt lat="45.49992" lon="6.7407">
        <ele>2317.0569440342</ele>
        <time>2013-07-27T09:47:23Z</time>
      </trkpt>
      <trkpt lat="45.50001" lon="6.74062">
        <ele>2315.0588850722</ele>
        <time>2013-07-27T09:47:27Z</time>
      </trkpt>
      <trkpt lat="45.50013" lon="6.74052">
        <ele>2311.8438752175</ele>
        <time>2013-07-27T09:47:34Z</time>
      </trkpt>
      <trkpt lat="45.50066" lon="6.74035">
        <ele>2303.831833167</ele>
        <time>2013-07-27T09:48:17Z</time>
      </trkpt>
      <trkpt lat="45.50078" lon="6.74033">
        <ele>2300.2517351046</ele>
        <time>2013-07-27T09:48:32Z</time>
      </trkpt>
      <trkpt lat="45.50089" lon="6.74031">
        <ele>2297.6599411794</ele>
        <time>2013-07-27T09:48:41Z</time>
      </trkpt>
      <trkpt lat="45.501" lon="6.74021">
        <ele>2293.4606224652</ele>
        <time>2013-07-27T09:48:50Z</time>
      </trkpt>
      <trkpt lat="45.50119" lon="6.74011">
        <ele>2288.4734229804</ele>
        <time>2013-07-27T09:49:02Z</time>
      </trkpt>
      <trkpt lat="45.50125" lon="6.74003">
        <ele>2287.13000192</ele>
        <time>2013-07-27T09:49:06Z</time>
      </trkpt>
      <trkpt lat="45.5013" lon="6.73996">
        <ele>2285.86700288</ele>
        <time>2013-07-27T09:49:10Z</time>
      </trkpt>
      <trkpt lat="45.50136" lon="6.73986">
        <ele>2283.67000448</ele>
        <time>2013-07-27T09:49:15Z</time>
      </trkpt>
      <trkpt lat="45.50143" lon="6.73978">
        <ele>2280.17000448</ele>
        <time>2013-07-27T09:49:20Z</time>
      </trkpt>
      <trkpt lat="45.50158" lon="6.73964">
        <ele>2276.2253258703</ele>
        <time>2013-07-27T09:49:32Z</time>
      </trkpt>
      <trkpt lat="45.50167" lon="6.73961">
        <ele>2275.1815443712</ele>
        <time>2013-07-27T09:49:36Z</time>
      </trkpt>
      <trkpt lat="45.50174" lon="6.73959">
        <ele>2273.9779331524</ele>
        <time>2013-07-27T09:49:40Z</time>
      </trkpt>
      <trkpt lat="45.50183" lon="6.73957">
        <ele>2272.5500032</ele>
        <time>2013-07-27T09:49:44Z</time>
      </trkpt>
      <trkpt lat="45.50192" lon="6.73955">
        <ele>2270.5500032</ele>
        <time>2013-07-27T09:49:48Z</time>
      </trkpt>
      <trkpt lat="45.50209" lon="6.73949">
        <ele>2266.0900032</ele>
        <time>2013-07-27T09:49:57Z</time>
      </trkpt>
      <trkpt lat="45.50223" lon="6.73943">
        <ele>2261.84000256</ele>
        <time>2013-07-27T09:50:06Z</time>
      </trkpt>
      <trkpt lat="45.50234" lon="6.73939">
        <ele>2259.04000256</ele>
        <time>2013-07-27T09:50:13Z</time>
      </trkpt>
      <trkpt lat="45.50244" lon="6.73933">
        <ele>2256.24000256</ele>
        <time>2013-07-27T09:50:20Z</time>
      </trkpt>
      <trkpt lat="45.50255" lon="6.73941">
        <ele>2251.8494552026</ele>
        <time>2013-07-27T09:50:31Z</time>
      </trkpt>
      <trkpt lat="45.50292" lon="6.73938">
        <ele>2236.0900032</ele>
        <time>2013-07-27T09:51:03Z</time>
      </trkpt>
      <trkpt lat="45.50298" lon="6.73932">
        <ele>2233.27000448</ele>
        <time>2013-07-27T09:51:07Z</time>
      </trkpt>
      <trkpt lat="45.50308" lon="6.73925">
        <ele>2229.07000448</ele>
        <time>2013-07-27T09:51:13Z</time>
      </trkpt>
      <trkpt lat="45.50326" lon="6.73899">
        <ele>2219.6011990903</ele>
        <time>2013-07-27T09:51:27Z</time>
      </trkpt>
      <trkpt lat="45.50329" lon="6.73885">
        <ele>2216.729814164</ele>
        <time>2013-07-27T09:51:32Z</time>
      </trkpt>
      <trkpt lat="45.50338" lon="6.73865">
        <ele>2212.6050048</ele>
        <time>2013-07-27T09:51:40Z</time>
      </trkpt>
      <trkpt lat="45.50349" lon="6.73854">
        <ele>2209.4794416785</ele>
        <time>2013-07-27T09:51:47Z</time>
      </trkpt>
      <trkpt lat="45.50361" lon="6.73856">
        <ele>2207.3931822325</ele>
        <time>2013-07-27T09:51:52Z</time>
      </trkpt>
      <trkpt lat="45.50392" lon="6.73864">
        <ele>2199.91000064</ele>
        <time>2013-07-27T09:52:04Z</time>
      </trkpt>
      <trkpt lat="45.50407" lon="6.73863">
        <ele>2199.11000064</ele>
        <time>2013-07-27T09:52:12Z</time>
      </trkpt>
      <trkpt lat="45.50419" lon="6.73857">
        <ele>2197.38000128</ele>
        <time>2013-07-27T09:52:21Z</time>
      </trkpt>
      <trkpt lat="45.50427" lon="6.73846">
        <ele>2194.0763154256</ele>
        <time>2013-07-27T09:52:29Z</time>
      </trkpt>
      <trkpt lat="45.5044" lon="6.73836">
        <ele>2187.2462197389</ele>
        <time>2013-07-27T09:52:40Z</time>
      </trkpt>
      <trkpt lat="45.50461" lon="6.73823">
        <ele>2178.94000384</ele>
        <time>2013-07-27T09:52:58Z</time>
      </trkpt>
      <trkpt lat="45.50471" lon="6.73818">
        <ele>2175.19800064</ele>
        <time>2013-07-27T09:53:07Z</time>
      </trkpt>
      <trkpt lat="45.5048" lon="6.73807">
        <ele>2171.87000192</ele>
        <time>2013-07-27T09:53:20Z</time>
      </trkpt>
      <trkpt lat="45.50494" lon="6.73804">
        <ele>2167.3708910482</ele>
        <time>2013-07-27T09:53:32Z</time>
      </trkpt>
      <trkpt lat="45.50512" lon="6.73803">
        <ele>2160.7932089649</ele>
        <time>2013-07-27T09:53:46Z</time>
      </trkpt>
      <trkpt lat="45.50531" lon="6.73826">
        <ele>2152.60599808</ele>
        <time>2013-07-27T09:54:02Z</time>
      </trkpt>
      <trkpt lat="45.50564" lon="6.73833">
        <ele>2140.6244973494</ele>
        <time>2013-07-27T09:54:35Z</time>
      </trkpt>
      <trkpt lat="45.5057" lon="6.7384">
        <ele>2138.41799936</ele>
        <time>2013-07-27T09:54:46Z</time>
      </trkpt>
      <trkpt lat="45.50584" lon="6.73835">
        <ele>2131.80199936</ele>
        <time>2013-07-27T09:55:04Z</time>
      </trkpt>
      <trkpt lat="45.50586" lon="6.73817">
        <ele>2130.20199936</ele>
        <time>2013-07-27T09:55:12Z</time>
      </trkpt>
      <trkpt lat="45.50598" lon="6.73829">
        <ele>2124.40699776</ele>
        <time>2013-07-27T09:55:21Z</time>
      </trkpt>
      <trkpt lat="45.50611" lon="6.73821">
        <ele>2117.4408820463</ele>
        <time>2013-07-27T09:55:37Z</time>
      </trkpt>
      <trkpt lat="45.50627" lon="6.73815">
        <ele>2111.5049984</ele>
        <time>2013-07-27T09:55:50Z</time>
      </trkpt>
      <trkpt lat="45.50642" lon="6.73816">
        <ele>2105.45399808</ele>
        <time>2013-07-27T09:56:04Z</time>
      </trkpt>
      <trkpt lat="45.50641" lon="6.7379">
        <ele>2099.5049984</ele>
        <time>2013-07-27T09:56:14Z</time>
      </trkpt>
      <trkpt lat="45.50644" lon="6.73763">
        <ele>2094.4041910392</ele>
        <time>2013-07-27T09:56:25Z</time>
      </trkpt>
      <trkpt lat="45.5063" lon="6.73741">
        <ele>2091.9098202227</ele>
        <time>2013-07-27T09:56:34Z</time>
      </trkpt>
      <trkpt lat="45.50623" lon="6.73723">
        <ele>2089.0449984</ele>
        <time>2013-07-27T09:56:47Z</time>
      </trkpt>
      <trkpt lat="45.50622" lon="6.7368">
        <ele>2075.84200192</ele>
        <time>2013-07-27T09:57:24Z</time>
      </trkpt>
      <trkpt lat="45.5063" lon="6.73657">
        <ele>2073.7622896729</ele>
        <time>2013-07-27T09:57:34Z</time>
      </trkpt>
      <trkpt lat="45.50643" lon="6.73641">
        <ele>2071.65597004</ele>
        <time>2013-07-27T09:57:41Z</time>
      </trkpt>
      <trkpt lat="45.50654" lon="6.73618">
        <ele>2072.17999872</ele>
        <time>2013-07-27T09:57:49Z</time>
      </trkpt>
      <trkpt lat="45.50647" lon="6.7359">
        <ele>2071.87200256</ele>
        <time>2013-07-27T09:57:56Z</time>
      </trkpt>
      <trkpt lat="45.50659" lon="6.73544">
        <ele>2070</ele>
        <time>2013-07-27T09:58:17Z</time>
      </trkpt>
      <trkpt lat="45.50667" lon="6.73521">
        <ele>2070</ele>
        <time>2013-07-27T09:58:27Z</time>
      </trkpt>
      <trkpt lat="45.50696" lon="6.7345">
        <ele>2069</ele>
        <time>2013-07-27T09:58:52Z</time>
      </trkpt>
      <trkpt lat="45.50729" lon="6.73424">
        <ele>2065.9850594422</ele>
        <time>2013-07-27T09:59:13Z</time>
      </trkpt>
      <trkpt lat="45.5074" lon="6.73412">
        <ele>2065.2130652581</ele>
        <time>2013-07-27T09:59:21Z</time>
      </trkpt>
      <trkpt lat="45.5075" lon="6.73398">
        <ele>2064.3200407354</ele>
        <time>2013-07-27T09:59:30Z</time>
      </trkpt>
      <trkpt lat="45.50759" lon="6.73386">
        <ele>2064</ele>
        <time>2013-07-27T09:59:41Z</time>
      </trkpt>
      <trkpt lat="45.50767" lon="6.73374">
        <ele>2064.58999936</ele>
        <time>2013-07-27T09:59:49Z</time>
      </trkpt>
      <trkpt lat="45.50786" lon="6.73339">
        <ele>2062.9696963428</ele>
        <time>2013-07-27T10:00:18Z</time>
      </trkpt>
      <trkpt lat="45.50795" lon="6.73332">
        <ele>2065.1694738298</ele>
        <time>2013-07-27T10:00:29Z</time>
      </trkpt>
      <trkpt lat="45.50803" lon="6.73321">
        <ele>2066.6985883871</ele>
        <time>2013-07-27T10:00:40Z</time>
      </trkpt>
      <trkpt lat="45.5081" lon="6.7331">
        <ele>2067</ele>
        <time>2013-07-27T10:00:49Z</time>
      </trkpt>
      <trkpt lat="45.50818" lon="6.73297">
        <ele>2067.48999936</ele>
        <time>2013-07-27T10:00:58Z</time>
      </trkpt>
      <trkpt lat="45.5083" lon="6.73265">
        <ele>2065.8373028571</ele>
        <time>2013-07-27T10:01:14Z</time>
      </trkpt>
      <trkpt lat="45.50844" lon="6.73247">
        <ele>2064.1829138708</ele>
        <time>2013-07-27T10:01:25Z</time>
      </trkpt>
      <trkpt lat="45.5086" lon="6.73235">
        <ele>2065.4899799535</ele>
        <time>2013-07-27T10:01:38Z</time>
      </trkpt>
      <trkpt lat="45.50878" lon="6.73228">
        <ele>2068.37300096</ele>
        <time>2013-07-27T10:01:51Z</time>
      </trkpt>
      <trkpt lat="45.50895" lon="6.7322">
        <ele>2070.8167176046</ele>
        <time>2013-07-27T10:02:05Z</time>
      </trkpt>
      <trkpt lat="45.50929" lon="6.73196">
        <ele>2070</ele>
        <time>2013-07-27T10:02:29Z</time>
      </trkpt>
      <trkpt lat="45.50947" lon="6.73187">
        <ele>2070.6810423851</ele>
        <time>2013-07-27T10:02:40Z</time>
      </trkpt>
      <trkpt lat="45.50965" lon="6.73185">
        <ele>2071</ele>
        <time>2013-07-27T10:02:50Z</time>
      </trkpt>
      <trkpt lat="45.51027" lon="6.73161">
        <ele>2071.9108219067</ele>
        <time>2013-07-27T10:03:34Z</time>
      </trkpt>
      <trkpt lat="45.51042" lon="6.7317">
        <ele>2071</ele>
        <time>2013-07-27T10:03:46Z</time>
      </trkpt>
      <trkpt lat="45.5106" lon="6.73161">
        <ele>2071.7975833386</ele>
        <time>2013-07-27T10:04:01Z</time>
      </trkpt>
      <trkpt lat="45.51078" lon="6.73167">
        <ele>2072.4837440051</ele>
        <time>2013-07-27T10:04:18Z</time>
      </trkpt>
      <trkpt lat="45.51094" lon="6.73167">
        <ele>2074.5886519672</ele>
        <time>2013-07-27T10:04:31Z</time>
      </trkpt>
      <trkpt lat="45.51118" lon="6.73151">
        <ele>2076</ele>
        <time>2013-07-27T10:04:49Z</time>
      </trkpt>
      <trkpt lat="45.51135" lon="6.73145">
        <ele>2076.27500032</ele>
        <time>2013-07-27T10:04:56Z</time>
      </trkpt>
      <trkpt lat="45.51147" lon="6.73141">
        <ele>2076.87500032</ele>
        <time>2013-07-27T10:05:02Z</time>
      </trkpt>
      <trkpt lat="45.51162" lon="6.73134">
        <ele>2075.79600128</ele>
        <time>2013-07-27T10:05:09Z</time>
      </trkpt>
      <trkpt lat="45.51179" lon="6.73122">
        <ele>2074</ele>
        <time>2013-07-27T10:05:26Z</time>
      </trkpt>
      <trkpt lat="45.51204" lon="6.73124">
        <ele>2072.6262635143</ele>
        <time>2013-07-27T10:05:40Z</time>
      </trkpt>
      <trkpt lat="45.51216" lon="6.73112">
        <ele>2071.5936575916</ele>
        <time>2013-07-27T10:05:47Z</time>
      </trkpt>
      <trkpt lat="45.51229" lon="6.73106">
        <ele>2071.0188308484</ele>
        <time>2013-07-27T10:05:53Z</time>
      </trkpt>
      <trkpt lat="45.51243" lon="6.73101">
        <ele>2069.2368941936</ele>
        <time>2013-07-27T10:05:59Z</time>
      </trkpt>
      <trkpt lat="45.5126" lon="6.73099">
        <ele>2067.60899968</ele>
        <time>2013-07-27T10:06:07Z</time>
      </trkpt>
      <trkpt lat="45.51284" lon="6.73087">
        <ele>2066.8013970131</ele>
        <time>2013-07-27T10:06:25Z</time>
      </trkpt>
      <trkpt lat="45.51298" lon="6.7308">
        <ele>2065.4208419533</ele>
        <time>2013-07-27T10:06:36Z</time>
      </trkpt>
      <trkpt lat="45.51313" lon="6.73079">
        <ele>2064.79800064</ele>
        <time>2013-07-27T10:06:47Z</time>
      </trkpt>
      <trkpt lat="45.51329" lon="6.73076">
        <ele>2065.50899968</ele>
        <time>2013-07-27T10:06:58Z</time>
      </trkpt>
      <trkpt lat="45.51369" lon="6.73087">
        <ele>2067.65400192</ele>
        <time>2013-07-27T10:08:01Z</time>
      </trkpt>
      <trkpt lat="45.51378" lon="6.73093">
        <ele>2067</ele>
        <time>2013-07-27T10:08:10Z</time>
      </trkpt>
      <trkpt lat="45.51387" lon="6.73101">
        <ele>2068.4194183241</ele>
        <time>2013-07-27T10:08:20Z</time>
      </trkpt>
      <trkpt lat="45.51398" lon="6.73107">
        <ele>2073.1428567826</ele>
        <time>2013-07-27T10:08:39Z</time>
      </trkpt>
      <trkpt lat="45.51412" lon="6.73089">
        <ele>2081.29499904</ele>
        <time>2013-07-27T10:09:16Z</time>
      </trkpt>
      <trkpt lat="45.51421" lon="6.73087">
        <ele>2082.7085826482</ele>
        <time>2013-07-27T10:09:30Z</time>
      </trkpt>
      <trkpt lat="45.51431" lon="6.73085">
        <ele>2085.8</ele>
        <time>2013-07-27T10:09:40Z</time>
      </trkpt>
      <trkpt lat="45.51442" lon="6.73083">
        <ele>2089.20399872</ele>
        <time>2013-07-27T10:09:54Z</time>
      </trkpt>
      <trkpt lat="45.51452" lon="6.73086">
        <ele>2091.50199936</ele>
        <time>2013-07-27T10:10:08Z</time>
      </trkpt>
      <trkpt lat="45.51469" lon="6.73094">
        <ele>2093.1090182308</ele>
        <time>2013-07-27T10:10:24Z</time>
      </trkpt>
      <trkpt lat="45.51479" lon="6.73093">
        <ele>2093.8027746451</ele>
        <time>2013-07-27T10:10:31Z</time>
      </trkpt>
      <trkpt lat="45.51487" lon="6.73099">
        <ele>2094.3965686711</ele>
        <time>2013-07-27T10:10:37Z</time>
      </trkpt>
      <trkpt lat="45.51495" lon="6.73099">
        <ele>2095</ele>
        <time>2013-07-27T10:10:43Z</time>
      </trkpt>
      <trkpt lat="45.51503" lon="6.73104">
        <ele>2095</ele>
        <time>2013-07-27T10:10:47Z</time>
      </trkpt>
      <trkpt lat="45.51521" lon="6.73113">
        <ele>2094.57799936</ele>
        <time>2013-07-27T10:10:55Z</time>
      </trkpt>
      <trkpt lat="45.5153" lon="6.73114">
        <ele>2093.78000128</ele>
        <time>2013-07-27T10:10:59Z</time>
      </trkpt>
      <trkpt lat="45.5154" lon="6.73111">
        <ele>2092.89000064</ele>
        <time>2013-07-27T10:11:04Z</time>
      </trkpt>
      <trkpt lat="45.51547" lon="6.73107">
        <ele>2092.49000064</ele>
        <time>2013-07-27T10:11:08Z</time>
      </trkpt>
      <trkpt lat="45.51557" lon="6.73105">
        <ele>2091.98000128</ele>
        <time>2013-07-27T10:11:13Z</time>
      </trkpt>
      <trkpt lat="45.5159" lon="6.73122">
        <ele>2088.601005475</ele>
        <time>2013-07-27T10:11:37Z</time>
      </trkpt>
      <trkpt lat="45.51596" lon="6.73127">
        <ele>2088.2984933311</ele>
        <time>2013-07-27T10:11:40Z</time>
      </trkpt>
      <trkpt lat="45.51605" lon="6.73131">
        <ele>2088</ele>
        <time>2013-07-27T10:11:44Z</time>
      </trkpt>
      <trkpt lat="45.51622" lon="6.73136">
        <ele>2087.99200256</ele>
        <time>2013-07-27T10:11:53Z</time>
      </trkpt>
      <trkpt lat="45.5163" lon="6.73139">
        <ele>2086.39200256</ele>
        <time>2013-07-27T10:11:57Z</time>
      </trkpt>
      <trkpt lat="45.51637" lon="6.73144">
        <ele>2085.19200256</ele>
        <time>2013-07-27T10:12:00Z</time>
      </trkpt>
      <trkpt lat="45.51646" lon="6.73148">
        <ele>2083.89000064</ele>
        <time>2013-07-27T10:12:04Z</time>
      </trkpt>
      <trkpt lat="45.51652" lon="6.73156">
        <ele>2083.59000064</ele>
        <time>2013-07-27T10:12:07Z</time>
      </trkpt>
      <trkpt lat="45.51671" lon="6.73177">
        <ele>2083</ele>
        <time>2013-07-27T10:12:19Z</time>
      </trkpt>
      <trkpt lat="45.51685" lon="6.73182">
        <ele>2082.5944616912</ele>
        <time>2013-07-27T10:12:27Z</time>
      </trkpt>
      <trkpt lat="45.51695" lon="6.73181">
        <ele>2082.198813943</ele>
        <time>2013-07-27T10:12:31Z</time>
      </trkpt>
      <trkpt lat="45.51703" lon="6.73176">
        <ele>2081.2969718283</ele>
        <time>2013-07-27T10:12:35Z</time>
      </trkpt>
      <trkpt lat="45.51711" lon="6.7317">
        <ele>2079.6808091674</ele>
        <time>2013-07-27T10:12:39Z</time>
      </trkpt>
      <trkpt lat="45.51729" lon="6.73157">
        <ele>2075.0833295238</ele>
        <time>2013-07-27T10:12:48Z</time>
      </trkpt>
      <trkpt lat="45.51741" lon="6.73152">
        <ele>2072.1071466667</ele>
        <time>2013-07-27T10:12:53Z</time>
      </trkpt>
      <trkpt lat="45.51754" lon="6.73149">
        <ele>2072</ele>
        <time>2013-07-27T10:13:01Z</time>
      </trkpt>
      <trkpt lat="45.51767" lon="6.73148">
        <ele>2072</ele>
        <time>2013-07-27T10:13:10Z</time>
      </trkpt>
      <trkpt lat="45.51779" lon="6.73152">
        <ele>2073.19800064</ele>
        <time>2013-07-27T10:13:19Z</time>
      </trkpt>
      <trkpt lat="45.51805" lon="6.73152">
        <ele>2074.6297038031</ele>
        <time>2013-07-27T10:13:35Z</time>
      </trkpt>
      <trkpt lat="45.51843" lon="6.73142">
        <ele>2072</ele>
        <time>2013-07-27T10:13:55Z</time>
      </trkpt>
      <trkpt lat="45.51851" lon="6.7314">
        <ele>2072</ele>
        <time>2013-07-27T10:13:59Z</time>
      </trkpt>
      <trkpt lat="45.51869" lon="6.7314">
        <ele>2072</ele>
        <time>2013-07-27T10:14:08Z</time>
      </trkpt>
      <trkpt lat="45.51878" lon="6.73141">
        <ele>2072</ele>
        <time>2013-07-27T10:14:13Z</time>
      </trkpt>
      <trkpt lat="45.51889" lon="6.73139">
        <ele>2072</ele>
        <time>2013-07-27T10:14:19Z</time>
      </trkpt>
      <trkpt lat="45.51901" lon="6.73131">
        <ele>2072.5802958001</ele>
        <time>2013-07-27T10:14:29Z</time>
      </trkpt>
      <trkpt lat="45.51914" lon="6.73136">
        <ele>2074.1841311303</ele>
        <time>2013-07-27T10:14:39Z</time>
      </trkpt>
      <trkpt lat="45.51937" lon="6.7312">
        <ele>2072.41799936</ele>
        <time>2013-07-27T10:14:56Z</time>
      </trkpt>
      <trkpt lat="45.51949" lon="6.73119">
        <ele>2071.41799936</ele>
        <time>2013-07-27T10:15:01Z</time>
      </trkpt>
      <trkpt lat="45.51962" lon="6.7312">
        <ele>2071.58496125</ele>
        <time>2013-07-27T10:15:09Z</time>
      </trkpt>
      <trkpt lat="45.51969" lon="6.73119">
        <ele>2072</ele>
        <time>2013-07-27T10:15:15Z</time>
      </trkpt>
      <trkpt lat="45.51979" lon="6.73116">
        <ele>2072</ele>
        <time>2013-07-27T10:15:22Z</time>
      </trkpt>
      <trkpt lat="45.51994" lon="6.7311">
        <ele>2070.1836328518</ele>
        <time>2013-07-27T10:15:32Z</time>
      </trkpt>
      <trkpt lat="45.52001" lon="6.73107">
        <ele>2069.0981969711</ele>
        <time>2013-07-27T10:15:36Z</time>
      </trkpt>
      <trkpt lat="45.52013" lon="6.73107">
        <ele>2067.2945909133</ele>
        <time>2013-07-27T10:15:42Z</time>
      </trkpt>
      <trkpt lat="45.52021" lon="6.73113">
        <ele>2067</ele>
        <time>2013-07-27T10:15:49Z</time>
      </trkpt>
      <trkpt lat="45.52027" lon="6.73114">
        <ele>2067.0080160269</ele>
        <time>2013-07-27T10:15:53Z</time>
      </trkpt>
      <trkpt lat="45.52037" lon="6.73113">
        <ele>2067.8096187193</ele>
        <time>2013-07-27T10:16:01Z</time>
      </trkpt>
      <trkpt lat="45.52042" lon="6.73105">
        <ele>2069.21999872</ele>
        <time>2013-07-27T10:16:09Z</time>
      </trkpt>
      <trkpt lat="45.5204" lon="6.73078">
        <ele>2069.59900032</ele>
        <time>2013-07-27T10:16:47Z</time>
      </trkpt>
      <trkpt lat="45.52044" lon="6.73063">
        <ele>2069</ele>
        <time>2013-07-27T10:17:48Z</time>
      </trkpt>
      <trkpt lat="45.52048" lon="6.73059">
        <ele>2069</ele>
        <time>2013-07-27T10:17:52Z</time>
      </trkpt>
      <trkpt lat="45.52052" lon="6.73053">
        <ele>2069</ele>
        <time>2013-07-27T10:18:13Z</time>
      </trkpt>
      <trkpt lat="45.52053" lon="6.73044">
        <ele>2069</ele>
        <time>2013-07-27T10:18:19Z</time>
      </trkpt>
      <trkpt lat="45.52055" lon="6.73033">
        <ele>2069.9820353009</ele>
        <time>2013-07-27T10:18:28Z</time>
      </trkpt>
      <trkpt lat="45.52064" lon="6.73015">
        <ele>2075.47300096</ele>
        <time>2013-07-27T10:18:48Z</time>
      </trkpt>
      <trkpt lat="45.5207" lon="6.73007">
        <ele>2078.568</ele>
        <time>2013-07-27T10:19:01Z</time>
      </trkpt>
      <trkpt lat="45.52066" lon="6.72997">
        <ele>2080.79800064</ele>
        <time>2013-07-27T10:19:12Z</time>
      </trkpt>
      <trkpt lat="45.5207" lon="6.72985">
        <ele>2084.9800399329</ele>
        <time>2013-07-27T10:19:28Z</time>
      </trkpt>
      <trkpt lat="45.52074" lon="6.72975">
        <ele>2086</ele>
        <time>2013-07-27T10:19:37Z</time>
      </trkpt>
      <trkpt lat="45.52087" lon="6.72954">
        <ele>2090.3682629185</ele>
        <time>2013-07-27T10:20:01Z</time>
      </trkpt>
      <trkpt lat="45.52094" lon="6.72945">
        <ele>2091.5901804186</ele>
        <time>2013-07-27T10:20:09Z</time>
      </trkpt>
      <trkpt lat="45.52101" lon="6.72938">
        <ele>2092.2912915183</ele>
        <time>2013-07-27T10:20:16Z</time>
      </trkpt>
      <trkpt lat="45.52109" lon="6.72936">
        <ele>2093.0059801377</ele>
        <time>2013-07-27T10:20:23Z</time>
      </trkpt>
      <trkpt lat="45.52118" lon="6.72939">
        <ele>2095.6979035061</ele>
        <time>2013-07-27T10:20:32Z</time>
      </trkpt>
      <trkpt lat="45.52131" lon="6.72932">
        <ele>2098.4035952539</ele>
        <time>2013-07-27T10:20:45Z</time>
      </trkpt>
      <trkpt lat="45.52136" lon="6.72926">
        <ele>2099.782218352</ele>
        <time>2013-07-27T10:20:52Z</time>
      </trkpt>
      <trkpt lat="45.52139" lon="6.72917">
        <ele>2100.49900032</ele>
        <time>2013-07-27T10:20:58Z</time>
      </trkpt>
      <trkpt lat="45.52158" lon="6.72892">
        <ele>2101.884</ele>
        <time>2013-07-27T10:21:22Z</time>
      </trkpt>
      <trkpt lat="45.52164" lon="6.72889">
        <ele>2102.3982036578</ele>
        <time>2013-07-27T10:21:27Z</time>
      </trkpt>
      <trkpt lat="45.52169" lon="6.72884">
        <ele>2102.8972053351</ele>
        <time>2013-07-27T10:21:32Z</time>
      </trkpt>
      <trkpt lat="45.52173" lon="6.72877">
        <ele>2103.979959907</ele>
        <time>2013-07-27T10:21:38Z</time>
      </trkpt>
      <trkpt lat="45.52175" lon="6.72867">
        <ele>2105.89700096</ele>
        <time>2013-07-27T10:21:46Z</time>
      </trkpt>
      <trkpt lat="45.5218" lon="6.7285">
        <ele>2109.98200064</ele>
        <time>2013-07-27T10:22:08Z</time>
      </trkpt>
      <trkpt lat="45.52175" lon="6.72839">
        <ele>2112.7837851343</ele>
        <time>2013-07-27T10:22:19Z</time>
      </trkpt>
      <trkpt lat="45.52173" lon="6.72832">
        <ele>2114.2079202902</ele>
        <time>2013-07-27T10:22:25Z</time>
      </trkpt>
      <trkpt lat="45.52173" lon="6.72824">
        <ele>2114.8019800725</ele>
        <time>2013-07-27T10:22:31Z</time>
      </trkpt>
      <trkpt lat="45.52175" lon="6.72816">
        <ele>2115.4969693757</ele>
        <time>2013-07-27T10:22:38Z</time>
      </trkpt>
      <trkpt lat="45.52183" lon="6.72802">
        <ele>2117.8263465558</ele>
        <time>2013-07-27T10:22:49Z</time>
      </trkpt>
      <trkpt lat="45.5219" lon="6.72791">
        <ele>2119.5010016827</ele>
        <time>2013-07-27T10:22:58Z</time>
      </trkpt>
      <trkpt lat="45.52195" lon="6.72786">
        <ele>2120.00199936</ele>
        <time>2013-07-27T10:23:03Z</time>
      </trkpt>
      <trkpt lat="45.52201" lon="6.7278">
        <ele>2120.80199936</ele>
        <time>2013-07-27T10:23:11Z</time>
      </trkpt>
      <trkpt lat="45.52205" lon="6.72775">
        <ele>2121</ele>
        <time>2013-07-27T10:23:16Z</time>
      </trkpt>
      <trkpt lat="45.52216" lon="6.72768">
        <ele>2121.3072343492</ele>
        <time>2013-07-27T10:23:26Z</time>
      </trkpt>
      <trkpt lat="45.52221" lon="6.72766">
        <ele>2121.8027746451</ele>
        <time>2013-07-27T10:23:31Z</time>
      </trkpt>
      <trkpt lat="45.52228" lon="6.72766">
        <ele>2123.1897060134</ele>
        <time>2013-07-27T10:23:37Z</time>
      </trkpt>
      <trkpt lat="45.52235" lon="6.72765">
        <ele>2125</ele>
        <time>2013-07-27T10:23:44Z</time>
      </trkpt>
      <trkpt lat="45.52251" lon="6.72742">
        <ele>2127</ele>
        <time>2013-07-27T10:24:03Z</time>
      </trkpt>
      <trkpt lat="45.52256" lon="6.72738">
        <ele>2127</ele>
        <time>2013-07-27T10:24:08Z</time>
      </trkpt>
      <trkpt lat="45.52259" lon="6.72736">
        <ele>2127</ele>
        <time>2013-07-27T10:24:12Z</time>
      </trkpt>
      <trkpt lat="45.52264" lon="6.72734">
        <ele>2127.50999936</ele>
        <time>2013-07-27T10:24:18Z</time>
      </trkpt>
      <trkpt lat="45.52275" lon="6.72731">
        <ele>2129.2275437781</ele>
        <time>2013-07-27T10:24:27Z</time>
      </trkpt>
      <trkpt lat="45.5228" lon="6.72728">
        <ele>2130.7245507223</ele>
        <time>2013-07-27T10:24:32Z</time>
      </trkpt>
      <trkpt lat="45.52285" lon="6.72725">
        <ele>2131.8016026924</ele>
        <time>2013-07-27T10:24:37Z</time>
      </trkpt>
      <trkpt lat="45.52291" lon="6.72721">
        <ele>2132.99000064</ele>
        <time>2013-07-27T10:24:43Z</time>
      </trkpt>
      <trkpt lat="45.52298" lon="6.72717">
        <ele>2132.39000064</ele>
        <time>2013-07-27T10:24:49Z</time>
      </trkpt>
      <trkpt lat="45.5231" lon="6.7271">
        <ele>2133.40399872</ele>
        <time>2013-07-27T10:25:00Z</time>
      </trkpt>
      <trkpt lat="45.52316" lon="6.72706">
        <ele>2134.79000064</ele>
        <time>2013-07-27T10:25:07Z</time>
      </trkpt>
      <trkpt lat="45.52324" lon="6.72703">
        <ele>2136.80399872</ele>
        <time>2013-07-27T10:25:17Z</time>
      </trkpt>
      <trkpt lat="45.52329" lon="6.72699">
        <ele>2138.219559741</ele>
        <time>2013-07-27T10:25:24Z</time>
      </trkpt>
      <trkpt lat="45.52335" lon="6.72696">
        <ele>2139.6167662223</ele>
        <time>2013-07-27T10:25:31Z</time>
      </trkpt>
      <trkpt lat="45.52346" lon="6.72688">
        <ele>2144.1947523892</ele>
        <time>2013-07-27T10:25:45Z</time>
      </trkpt>
      <trkpt lat="45.5235" lon="6.72682">
        <ele>2144.9021181345</ele>
        <time>2013-07-27T10:25:52Z</time>
      </trkpt>
      <trkpt lat="45.52356" lon="6.72678">
        <ele>2146.80599808</ele>
        <time>2013-07-27T10:25:59Z</time>
      </trkpt>
      <trkpt lat="45.52362" lon="6.72676">
        <ele>2148.20999936</ele>
        <time>2013-07-27T10:26:05Z</time>
      </trkpt>
      <trkpt lat="45.52368" lon="6.72672">
        <ele>2149.00399872</ele>
        <time>2013-07-27T10:26:13Z</time>
      </trkpt>
      <trkpt lat="45.52376" lon="6.72646">
        <ele>2153.70999936</ele>
        <time>2013-07-27T10:26:50Z</time>
      </trkpt>
      <trkpt lat="45.52377" lon="6.72639">
        <ele>2154.80399872</ele>
        <time>2013-07-27T10:26:57Z</time>
      </trkpt>
      <trkpt lat="45.52378" lon="6.72631">
        <ele>2156.40399872</ele>
        <time>2013-07-27T10:27:05Z</time>
      </trkpt>
      <trkpt lat="45.52379" lon="6.72616">
        <ele>2158.50999936</ele>
        <time>2013-07-27T10:27:18Z</time>
      </trkpt>
      <trkpt lat="45.5238" lon="6.72608">
        <ele>2159</ele>
        <time>2013-07-27T10:27:25Z</time>
      </trkpt>
      <trkpt lat="45.5238" lon="6.72596">
        <ele>2159.3895047784</ele>
        <time>2013-07-27T10:27:35Z</time>
      </trkpt>
      <trkpt lat="45.5238" lon="6.72589">
        <ele>2160.8022187521</ele>
        <time>2013-07-27T10:27:42Z</time>
      </trkpt>
      <trkpt lat="45.5238" lon="6.72583">
        <ele>2162.01999872</ele>
        <time>2013-07-27T10:27:48Z</time>
      </trkpt>
      <trkpt lat="45.5238" lon="6.72566">
        <ele>2164</ele>
        <time>2013-07-27T10:28:03Z</time>
      </trkpt>
      <trkpt lat="45.5238" lon="6.72557">
        <ele>2164</ele>
        <time>2013-07-27T10:28:12Z</time>
      </trkpt>
      <trkpt lat="45.52379" lon="6.72549">
        <ele>2165.82999808</ele>
        <time>2013-07-27T10:28:19Z</time>
      </trkpt>
      <trkpt lat="45.52378" lon="6.72541">
        <ele>2168.8127477291</ele>
        <time>2013-07-27T10:28:32Z</time>
      </trkpt>
      <trkpt lat="45.52377" lon="6.72527">
        <ele>2170.20399872</ele>
        <time>2013-07-27T10:28:44Z</time>
      </trkpt>
      <trkpt lat="45.52373" lon="6.72503">
        <ele>2175.8116816322</ele>
        <time>2013-07-27T10:29:07Z</time>
      </trkpt>
      <trkpt lat="45.52371" lon="6.72493">
        <ele>2177.40399872</ele>
        <time>2013-07-27T10:29:15Z</time>
      </trkpt>
      <trkpt lat="45.5237" lon="6.72483">
        <ele>2178.80399872</ele>
        <time>2013-07-27T10:29:22Z</time>
      </trkpt>
      <trkpt lat="45.52369" lon="6.72477">
        <ele>2179</ele>
        <time>2013-07-27T10:29:26Z</time>
      </trkpt>
      <trkpt lat="45.52367" lon="6.72468">
        <ele>2179</ele>
        <time>2013-07-27T10:29:33Z</time>
      </trkpt>
      <trkpt lat="45.52361" lon="6.72457">
        <ele>2179</ele>
        <time>2013-07-27T10:29:42Z</time>
      </trkpt>
      <trkpt lat="45.52353" lon="6.72436">
        <ele>2180</ele>
        <time>2013-07-27T10:29:56Z</time>
      </trkpt>
      <trkpt lat="45.52348" lon="6.72429">
        <ele>2180</ele>
        <time>2013-07-27T10:30:02Z</time>
      </trkpt>
      <trkpt lat="45.52344" lon="6.72407">
        <ele>2181</ele>
        <time>2013-07-27T10:30:17Z</time>
      </trkpt>
      <trkpt lat="45.52341" lon="6.72388">
        <ele>2182.2175643705</ele>
        <time>2013-07-27T10:30:29Z</time>
      </trkpt>
      <trkpt lat="45.52334" lon="6.72374">
        <ele>2183.7014023558</ele>
        <time>2013-07-27T10:30:40Z</time>
      </trkpt>
      <trkpt lat="45.5233" lon="6.72363">
        <ele>2184.80399872</ele>
        <time>2013-07-27T10:30:47Z</time>
      </trkpt>
      <trkpt lat="45.52327" lon="6.72349">
        <ele>2187.5099968</ele>
        <time>2013-07-27T10:30:56Z</time>
      </trkpt>
      <trkpt lat="45.52327" lon="6.72325">
        <ele>2191.0019953705</ele>
        <time>2013-07-27T10:31:13Z</time>
      </trkpt>
      <trkpt lat="45.52325" lon="6.72318">
        <ele>2191.4011972223</ele>
        <time>2013-07-27T10:31:17Z</time>
      </trkpt>
      <trkpt lat="45.52324" lon="6.72311">
        <ele>2191.8003990741</ele>
        <time>2013-07-27T10:31:21Z</time>
      </trkpt>
      <trkpt lat="45.52322" lon="6.72305">
        <ele>2192.2</ele>
        <time>2013-07-27T10:31:25Z</time>
      </trkpt>
      <trkpt lat="45.5232" lon="6.723">
        <ele>2192.6</ele>
        <time>2013-07-27T10:31:29Z</time>
      </trkpt>
      <trkpt lat="45.52313" lon="6.72276">
        <ele>2193</ele>
        <time>2013-07-27T10:31:44Z</time>
      </trkpt>
      <trkpt lat="45.52317" lon="6.72269">
        <ele>2193.20199936</ele>
        <time>2013-07-27T10:31:55Z</time>
      </trkpt>
      <trkpt lat="45.52324" lon="6.72269">
        <ele>2193.80199936</ele>
        <time>2013-07-27T10:32:01Z</time>
      </trkpt>
      <trkpt lat="45.52332" lon="6.72271">
        <ele>2195.01999872</ele>
        <time>2013-07-27T10:32:08Z</time>
      </trkpt>
      <trkpt lat="45.5234" lon="6.72268">
        <ele>2195.78000128</ele>
        <time>2013-07-27T10:32:14Z</time>
      </trkpt>
      <trkpt lat="45.52355" lon="6.72265">
        <ele>2194</ele>
        <time>2013-07-27T10:32:26Z</time>
      </trkpt>
      <trkpt lat="45.52365" lon="6.72266">
        <ele>2194</ele>
        <time>2013-07-27T10:32:33Z</time>
      </trkpt>
      <trkpt lat="45.52385" lon="6.7226">
        <ele>2194</ele>
        <time>2013-07-27T10:32:48Z</time>
      </trkpt>
      <trkpt lat="45.52399" lon="6.72264">
        <ele>2194</ele>
        <time>2013-07-27T10:32:58Z</time>
      </trkpt>
      <trkpt lat="45.52407" lon="6.72265">
        <ele>2194</ele>
        <time>2013-07-27T10:33:04Z</time>
      </trkpt>
      <trkpt lat="45.52414" lon="6.72264">
        <ele>2194</ele>
        <time>2013-07-27T10:33:10Z</time>
      </trkpt>
      <trkpt lat="45.52424" lon="6.72258">
        <ele>2195.01999872</ele>
        <time>2013-07-27T10:33:18Z</time>
      </trkpt>
      <trkpt lat="45.52435" lon="6.72254">
        <ele>2196.8023944446</ele>
        <time>2013-07-27T10:33:27Z</time>
      </trkpt>
      <trkpt lat="45.52451" lon="6.72256">
        <ele>2199.20199936</ele>
        <time>2013-07-27T10:33:45Z</time>
      </trkpt>
      <trkpt lat="45.52461" lon="6.72257">
        <ele>2200.20399872</ele>
        <time>2013-07-27T10:33:54Z</time>
      </trkpt>
      <trkpt lat="45.5247" lon="6.72254">
        <ele>2202.0039630538</ele>
        <time>2013-07-27T10:34:03Z</time>
      </trkpt>
      <trkpt lat="45.5248" lon="6.72252">
        <ele>2204</ele>
        <time>2013-07-27T10:34:13Z</time>
      </trkpt>
      <trkpt lat="45.52489" lon="6.7225">
        <ele>2205.8022187521</ele>
        <time>2013-07-27T10:34:22Z</time>
      </trkpt>
      <trkpt lat="45.52503" lon="6.72264">
        <ele>2208.3867726578</ele>
        <time>2013-07-27T10:34:40Z</time>
      </trkpt>
      <trkpt lat="45.5251" lon="6.72271">
        <ele>2209.80999936</ele>
        <time>2013-07-27T10:34:51Z</time>
      </trkpt>
      <trkpt lat="45.52519" lon="6.72271">
        <ele>2212.72999808</ele>
        <time>2013-07-27T10:35:02Z</time>
      </trkpt>
      <trkpt lat="45.52528" lon="6.72273">
        <ele>2214.32999808</ele>
        <time>2013-07-27T10:35:14Z</time>
      </trkpt>
      <trkpt lat="45.52537" lon="6.72277">
        <ele>2218.5269451669</ele>
        <time>2013-07-27T10:35:28Z</time>
      </trkpt>
      <trkpt lat="45.52554" lon="6.72279">
        <ele>2225.21999872</ele>
        <time>2013-07-27T10:35:59Z</time>
      </trkpt>
      <trkpt lat="45.52562" lon="6.72282">
        <ele>2227.21999872</ele>
        <time>2013-07-27T10:36:09Z</time>
      </trkpt>
      <trkpt lat="45.5257" lon="6.72275">
        <ele>2231.7005986112</ele>
        <time>2013-07-27T10:36:30Z</time>
      </trkpt>
      <trkpt lat="45.52554" lon="6.72223">
        <ele>2242.50599808</ele>
        <time>2013-07-27T10:37:18Z</time>
      </trkpt>
      <trkpt lat="45.5255" lon="6.7221">
        <ele>2245.5896920007</ele>
        <time>2013-07-27T10:37:31Z</time>
      </trkpt>
      <trkpt lat="45.52547" lon="6.72197">
        <ele>2246.901109376</ele>
        <time>2013-07-27T10:37:42Z</time>
      </trkpt>
      <trkpt lat="45.52543" lon="6.72184">
        <ele>2249.02999808</ele>
        <time>2013-07-27T10:37:53Z</time>
      </trkpt>
      <trkpt lat="45.52538" lon="6.72173">
        <ele>2252.10199936</ele>
        <time>2013-07-27T10:38:04Z</time>
      </trkpt>
      <trkpt lat="45.52528" lon="6.72151">
        <ele>2254.203591667</ele>
        <time>2013-07-27T10:38:24Z</time>
      </trkpt>
      <trkpt lat="45.52522" lon="6.72141">
        <ele>2256.1963939422</ele>
        <time>2013-07-27T10:38:34Z</time>
      </trkpt>
      <trkpt lat="45.52517" lon="6.72133">
        <ele>2258.00199936</ele>
        <time>2013-07-27T10:38:43Z</time>
      </trkpt>
      <trkpt lat="45.52511" lon="6.72124">
        <ele>2258.80199936</ele>
        <time>2013-07-27T10:38:51Z</time>
      </trkpt>
      <trkpt lat="45.52507" lon="6.72116">
        <ele>2259.50999936</ele>
        <time>2013-07-27T10:38:58Z</time>
      </trkpt>
      <trkpt lat="45.52495" lon="6.72105">
        <ele>2260</ele>
        <time>2013-07-27T10:39:12Z</time>
      </trkpt>
      <trkpt lat="45.52491" lon="6.72092">
        <ele>2260.70999936</ele>
        <time>2013-07-27T10:39:20Z</time>
      </trkpt>
      <trkpt lat="45.52485" lon="6.72082">
        <ele>2261.988022667</ele>
        <time>2013-07-27T10:39:28Z</time>
      </trkpt>
      <trkpt lat="45.5248" lon="6.72072">
        <ele>2263</ele>
        <time>2013-07-27T10:39:35Z</time>
      </trkpt>
      <trkpt lat="45.52473" lon="6.72065">
        <ele>2263</ele>
        <time>2013-07-27T10:39:41Z</time>
      </trkpt>
      <trkpt lat="45.52462" lon="6.72053">
        <ele>2263</ele>
        <time>2013-07-27T10:39:51Z</time>
      </trkpt>
      <trkpt lat="45.52458" lon="6.72049">
        <ele>2263.3867752229</ele>
        <time>2013-07-27T10:39:55Z</time>
      </trkpt>
      <trkpt lat="45.52453" lon="6.72044">
        <ele>2264.3887760232</ele>
        <time>2013-07-27T10:40:00Z</time>
      </trkpt>
      <trkpt lat="45.52449" lon="6.72041">
        <ele>2265.20199936</ele>
        <time>2013-07-27T10:40:05Z</time>
      </trkpt>
      <trkpt lat="45.52434" lon="6.7202">
        <ele>2270.7934139998</ele>
        <time>2013-07-27T10:40:31Z</time>
      </trkpt>
      <trkpt lat="45.52429" lon="6.72017">
        <ele>2271.6012020193</ele>
        <time>2013-07-27T10:40:36Z</time>
      </trkpt>
      <trkpt lat="45.52425" lon="6.72012">
        <ele>2273.00599808</ele>
        <time>2013-07-27T10:40:43Z</time>
      </trkpt>
      <trkpt lat="45.52426" lon="6.72005">
        <ele>2274.80599808</ele>
        <time>2013-07-27T10:40:49Z</time>
      </trkpt>
      <trkpt lat="45.52422" lon="6.71991">
        <ele>2277.59000064</ele>
        <time>2013-07-27T10:41:01Z</time>
      </trkpt>
      <trkpt lat="45.52416" lon="6.71981">
        <ele>2279.40399872</ele>
        <time>2013-07-27T10:41:10Z</time>
      </trkpt>
      <trkpt lat="45.52412" lon="6.71974">
        <ele>2280</ele>
        <time>2013-07-27T10:41:16Z</time>
      </trkpt>
      <trkpt lat="45.52406" lon="6.71966">
        <ele>2281.789889646</ele>
        <time>2013-07-27T10:41:29Z</time>
      </trkpt>
      <trkpt lat="45.52402" lon="6.71955">
        <ele>2284.3945511541</ele>
        <time>2013-07-27T10:41:40Z</time>
      </trkpt>
      <trkpt lat="45.5239" lon="6.71941">
        <ele>2285.20399872</ele>
        <time>2013-07-27T10:41:54Z</time>
      </trkpt>
      <trkpt lat="45.52386" lon="6.71935">
        <ele>2286.20399872</ele>
        <time>2013-07-27T10:41:59Z</time>
      </trkpt>
      <trkpt lat="45.52381" lon="6.71929">
        <ele>2287.20199936</ele>
        <time>2013-07-27T10:42:05Z</time>
      </trkpt>
      <trkpt lat="45.52376" lon="6.71923">
        <ele>2287.80199936</ele>
        <time>2013-07-27T10:42:11Z</time>
      </trkpt>
      <trkpt lat="45.52374" lon="6.71913">
        <ele>2288.80999936</ele>
        <time>2013-07-27T10:42:21Z</time>
      </trkpt>
      <trkpt lat="45.52368" lon="6.71883">
        <ele>2301.60799744</ele>
        <time>2013-07-27T10:43:02Z</time>
      </trkpt>
      <trkpt lat="45.52369" lon="6.71871">
        <ele>2303.30199936</ele>
        <time>2013-07-27T10:43:16Z</time>
      </trkpt>
      <trkpt lat="45.5237" lon="6.71859">
        <ele>2304.2015962964</ele>
        <time>2013-07-27T10:43:25Z</time>
      </trkpt>
      <trkpt lat="45.52369" lon="6.71842">
        <ele>2305.5010016827</ele>
        <time>2013-07-27T10:43:38Z</time>
      </trkpt>
      <trkpt lat="45.52368" lon="6.71829">
        <ele>2306.9990013184</ele>
        <time>2013-07-27T10:43:48Z</time>
      </trkpt>
      <trkpt lat="45.52356" lon="6.71777">
        <ele>2313.780439262</ele>
        <time>2013-07-27T10:44:27Z</time>
      </trkpt>
      <trkpt lat="45.52349" lon="6.71767">
        <ele>2315.9809425014</ele>
        <time>2013-07-27T10:44:38Z</time>
      </trkpt>
      <trkpt lat="45.52345" lon="6.71757">
        <ele>2317.60199936</ele>
        <time>2013-07-27T10:44:46Z</time>
      </trkpt>
      <trkpt lat="45.52337" lon="6.71732">
        <ele>2322.9050932763</ele>
        <time>2013-07-27T10:45:06Z</time>
      </trkpt>
      <trkpt lat="45.5233" lon="6.7172">
        <ele>2326.99600128</ele>
        <time>2013-07-27T10:45:18Z</time>
      </trkpt>
      <trkpt lat="45.52324" lon="6.71711">
        <ele>2330.1837950988</ele>
        <time>2013-07-27T10:45:29Z</time>
      </trkpt>
      <trkpt lat="45.52316" lon="6.71704">
        <ele>2333.0556670445</ele>
        <time>2013-07-27T10:45:40Z</time>
      </trkpt>
      <trkpt lat="45.52308" lon="6.71695">
        <ele>2335.59800064</ele>
        <time>2013-07-27T10:45:51Z</time>
      </trkpt>
      <trkpt lat="45.52289" lon="6.71683">
        <ele>2340.39100032</ele>
        <time>2013-07-27T10:46:17Z</time>
      </trkpt>
      <trkpt lat="45.52279" lon="6.71681">
        <ele>2341.390219631</ele>
        <time>2013-07-27T10:46:27Z</time>
      </trkpt>
      <trkpt lat="45.52272" lon="6.71681">
        <ele>2342.4899799535</ele>
        <time>2013-07-27T10:46:38Z</time>
      </trkpt>
      <trkpt lat="45.52271" lon="6.71669">
        <ele>2343.49100032</ele>
        <time>2013-07-27T10:46:48Z</time>
      </trkpt>
      <trkpt lat="45.52269" lon="6.7168">
        <ele>2343.4084082776</ele>
        <time>2013-07-27T10:46:59Z</time>
      </trkpt>
      <trkpt lat="45.52254" lon="6.71688">
        <ele>2343</ele>
        <time>2013-07-27T10:47:19Z</time>
      </trkpt>
      <trkpt lat="45.52241" lon="6.71681">
        <ele>2342.3903648819</ele>
        <time>2013-07-27T10:47:26Z</time>
      </trkpt>
      <trkpt lat="45.5223" lon="6.71674">
        <ele>2341.4070804034</ele>
        <time>2013-07-27T10:47:31Z</time>
      </trkpt>
      <trkpt lat="45.52222" lon="6.71668">
        <ele>2340.4109879435</ele>
        <time>2013-07-27T10:47:35Z</time>
      </trkpt>
      <trkpt lat="45.52214" lon="6.71659">
        <ele>2339.1902355434</ele>
        <time>2013-07-27T10:47:39Z</time>
      </trkpt>
      <trkpt lat="45.52194" lon="6.71641">
        <ele>2336.59600128</ele>
        <time>2013-07-27T10:47:50Z</time>
      </trkpt>
      <trkpt lat="45.52163" lon="6.71615">
        <ele>2330.1718295055</ele>
        <time>2013-07-27T10:48:09Z</time>
      </trkpt>
      <trkpt lat="45.52153" lon="6.71605">
        <ele>2328.0739267369</ele>
        <time>2013-07-27T10:48:16Z</time>
      </trkpt>
      <trkpt lat="45.52139" lon="6.71587">
        <ele>2325.4</ele>
        <time>2013-07-27T10:48:25Z</time>
      </trkpt>
      <trkpt lat="45.52135" lon="6.71583">
        <ele>2324.8</ele>
        <time>2013-07-27T10:48:27Z</time>
      </trkpt>
      <trkpt lat="45.52129" lon="6.71576">
        <ele>2323.9</ele>
        <time>2013-07-27T10:48:30Z</time>
      </trkpt>
      <trkpt lat="45.52122" lon="6.71567">
        <ele>2322.1192400037</ele>
        <time>2013-07-27T10:48:36Z</time>
      </trkpt>
      <trkpt lat="45.52115" lon="6.71561">
        <ele>2319.99000064</ele>
        <time>2013-07-27T10:48:43Z</time>
      </trkpt>
      <trkpt lat="45.52107" lon="6.71549">
        <ele>2319</ele>
        <time>2013-07-27T10:48:54Z</time>
      </trkpt>
      <trkpt lat="45.52099" lon="6.71544">
        <ele>2319.69000064</ele>
        <time>2013-07-27T10:49:16Z</time>
      </trkpt>
      <trkpt lat="45.52094" lon="6.71537">
        <ele>2319.39000064</ele>
        <time>2013-07-27T10:49:19Z</time>
      </trkpt>
      <trkpt lat="45.52088" lon="6.7153">
        <ele>2319.09000064</ele>
        <time>2013-07-27T10:49:22Z</time>
      </trkpt>
      <trkpt lat="45.52083" lon="6.71524">
        <ele>2318.7808777689</ele>
        <time>2013-07-27T10:49:24Z</time>
      </trkpt>
      <trkpt lat="45.52072" lon="6.71515">
        <ele>2317.7848618327</ele>
        <time>2013-07-27T10:49:29Z</time>
      </trkpt>
      <trkpt lat="45.52066" lon="6.71511">
        <ele>2317.1872522709</ele>
        <time>2013-07-27T10:49:32Z</time>
      </trkpt>
      <trkpt lat="45.5206" lon="6.71506">
        <ele>2316.2048218474</ele>
        <time>2013-07-27T10:49:35Z</time>
      </trkpt>
      <trkpt lat="45.52054" lon="6.71499">
        <ele>2315.0000025703</ele>
        <time>2013-07-27T10:49:38Z</time>
      </trkpt>
      <trkpt lat="45.5205" lon="6.71492">
        <ele>2313.7951832932</ele>
        <time>2013-07-27T10:49:41Z</time>
      </trkpt>
      <trkpt lat="45.52031" lon="6.71477">
        <ele>2309.9500032</ele>
        <time>2013-07-27T10:49:49Z</time>
      </trkpt>
      <trkpt lat="45.5202" lon="6.71468">
        <ele>2307.4900032</ele>
        <time>2013-07-27T10:49:54Z</time>
      </trkpt>
      <trkpt lat="45.51988" lon="6.71431">
        <ele>2302.29000064</ele>
        <time>2013-07-27T10:50:10Z</time>
      </trkpt>
      <trkpt lat="45.51975" lon="6.71415">
        <ele>2301.69000064</ele>
        <time>2013-07-27T10:50:16Z</time>
      </trkpt>
      <trkpt lat="45.5197" lon="6.71408">
        <ele>2301.39000064</ele>
        <time>2013-07-27T10:50:19Z</time>
      </trkpt>
      <trkpt lat="45.51966" lon="6.71402">
        <ele>2301.19000064</ele>
        <time>2013-07-27T10:50:21Z</time>
      </trkpt>
      <trkpt lat="45.5196" lon="6.71391">
        <ele>2300.7856440963</ele>
        <time>2013-07-27T10:50:25Z</time>
      </trkpt>
      <trkpt lat="45.51956" lon="6.71386">
        <ele>2300.5094717417</ele>
        <time>2013-07-27T10:50:28Z</time>
      </trkpt>
      <trkpt lat="45.51948" lon="6.71375">
        <ele>2298.562128136</ele>
        <time>2013-07-27T10:50:36Z</time>
      </trkpt>
      <trkpt lat="45.51944" lon="6.71368">
        <ele>2296.5581188349</ele>
        <time>2013-07-27T10:50:40Z</time>
      </trkpt>
      <trkpt lat="45.51939" lon="6.71361">
        <ele>2294.27199744</ele>
        <time>2013-07-27T10:50:44Z</time>
      </trkpt>
      <trkpt lat="45.51934" lon="6.71354">
        <ele>2291.07199744</ele>
        <time>2013-07-27T10:50:48Z</time>
      </trkpt>
      <trkpt lat="45.51927" lon="6.71346">
        <ele>2287.87199744</ele>
        <time>2013-07-27T10:50:52Z</time>
      </trkpt>
      <trkpt lat="45.51916" lon="6.71331">
        <ele>2285.50299904</ele>
        <time>2013-07-27T10:50:58Z</time>
      </trkpt>
      <trkpt lat="45.51912" lon="6.71322">
        <ele>2284.6</ele>
        <time>2013-07-27T10:51:01Z</time>
      </trkpt>
      <trkpt lat="45.51907" lon="6.71313">
        <ele>2283.9013941036</ele>
        <time>2013-07-27T10:51:04Z</time>
      </trkpt>
      <trkpt lat="45.51901" lon="6.71308">
        <ele>2283.6025893227</ele>
        <time>2013-07-27T10:51:07Z</time>
      </trkpt>
      <trkpt lat="45.51895" lon="6.71306">
        <ele>2283.3037845418</ele>
        <time>2013-07-27T10:51:10Z</time>
      </trkpt>
      <trkpt lat="45.51881" lon="6.71303">
        <ele>2282.1355412048</ele>
        <time>2013-07-27T10:51:16Z</time>
      </trkpt>
      <trkpt lat="45.51876" lon="6.71304">
        <ele>2281.231926747</ele>
        <time>2013-07-27T10:51:19Z</time>
      </trkpt>
      <trkpt lat="45.51869" lon="6.71304">
        <ele>2280.3283122892</ele>
        <time>2013-07-27T10:51:22Z</time>
      </trkpt>
      <trkpt lat="45.51819" lon="6.71293">
        <ele>2267.42699904</ele>
        <time>2013-07-27T10:51:45Z</time>
      </trkpt>
      <trkpt lat="45.51807" lon="6.71289">
        <ele>2265.92699904</ele>
        <time>2013-07-27T10:51:50Z</time>
      </trkpt>
      <trkpt lat="45.51792" lon="6.71285">
        <ele>2262.096</ele>
        <time>2013-07-27T10:51:58Z</time>
      </trkpt>
      <trkpt lat="45.5178" lon="6.7128">
        <ele>2258.0049984</ele>
        <time>2013-07-27T10:52:05Z</time>
      </trkpt>
      <trkpt lat="45.51767" lon="6.71277">
        <ele>2254.5049984</ele>
        <time>2013-07-27T10:52:12Z</time>
      </trkpt>
      <trkpt lat="45.5174" lon="6.71269">
        <ele>2249.6646708729</ele>
        <time>2013-07-27T10:52:24Z</time>
      </trkpt>
      <trkpt lat="45.51729" lon="6.71254">
        <ele>2247.2694628219</ele>
        <time>2013-07-27T10:52:30Z</time>
      </trkpt>
      <trkpt lat="45.51722" lon="6.71239">
        <ele>2243.9729468364</ele>
        <time>2013-07-27T10:52:36Z</time>
      </trkpt>
      <trkpt lat="45.51714" lon="6.71226">
        <ele>2239.7645273039</ele>
        <time>2013-07-27T10:52:42Z</time>
      </trkpt>
      <trkpt lat="45.51707" lon="6.71209">
        <ele>2236.61200128</ele>
        <time>2013-07-27T10:52:49Z</time>
      </trkpt>
      <trkpt lat="45.51693" lon="6.71181">
        <ele>2231.864</ele>
        <time>2013-07-27T10:53:01Z</time>
      </trkpt>
      <trkpt lat="45.51684" lon="6.71166">
        <ele>2229.00399872</ele>
        <time>2013-07-27T10:53:08Z</time>
      </trkpt>
      <trkpt lat="45.51676" lon="6.7115">
        <ele>2226.60399872</ele>
        <time>2013-07-27T10:53:14Z</time>
      </trkpt>
      <trkpt lat="45.51669" lon="6.71136">
        <ele>2224.20399872</ele>
        <time>2013-07-27T10:53:20Z</time>
      </trkpt>
      <trkpt lat="45.51664" lon="6.7112">
        <ele>2222.4281431198</ele>
        <time>2013-07-27T10:53:25Z</time>
      </trkpt>
      <trkpt lat="45.51656" lon="6.71087">
        <ele>2219.431864325</ele>
        <time>2013-07-27T10:53:35Z</time>
      </trkpt>
      <trkpt lat="45.51655" lon="6.71071">
        <ele>2217.9288573492</ele>
        <time>2013-07-27T10:53:40Z</time>
      </trkpt>
      <trkpt lat="45.51655" lon="6.71054">
        <ele>2215.80399872</ele>
        <time>2013-07-27T10:53:46Z</time>
      </trkpt>
      <trkpt lat="45.51648" lon="6.71044">
        <ele>2213.40399872</ele>
        <time>2013-07-27T10:53:52Z</time>
      </trkpt>
      <trkpt lat="45.51598" lon="6.7102">
        <ele>2201.5049984</ele>
        <time>2013-07-27T10:54:20Z</time>
      </trkpt>
      <trkpt lat="45.51585" lon="6.71016">
        <ele>2198.048901845</ele>
        <time>2013-07-27T10:54:27Z</time>
      </trkpt>
      <trkpt lat="45.51573" lon="6.71012">
        <ele>2194.3757533472</ele>
        <time>2013-07-27T10:54:34Z</time>
      </trkpt>
      <trkpt lat="45.51563" lon="6.71013">
        <ele>2190.1673338147</ele>
        <time>2013-07-27T10:54:40Z</time>
      </trkpt>
      <trkpt lat="45.51536" lon="6.71017">
        <ele>2184.00399872</ele>
        <time>2013-07-27T10:54:53Z</time>
      </trkpt>
      <trkpt lat="45.51522" lon="6.71014">
        <ele>2180.41800192</ele>
        <time>2013-07-27T10:54:59Z</time>
      </trkpt>
      <trkpt lat="45.51511" lon="6.71006">
        <ele>2177.72699904</ele>
        <time>2013-07-27T10:55:04Z</time>
      </trkpt>
      <trkpt lat="45.515" lon="6.70998">
        <ele>2176.22699904</ele>
        <time>2013-07-27T10:55:09Z</time>
      </trkpt>
      <trkpt lat="45.51488" lon="6.70991">
        <ele>2174.81799936</ele>
        <time>2013-07-27T10:55:14Z</time>
      </trkpt>
      <trkpt lat="45.51465" lon="6.70979">
        <ele>2172.9011973485</ele>
        <time>2013-07-27T10:55:24Z</time>
      </trkpt>
      <trkpt lat="45.51451" lon="6.70972">
        <ele>2172.3023953358</ele>
        <time>2013-07-27T10:55:30Z</time>
      </trkpt>
      <trkpt lat="45.51438" lon="6.70964">
        <ele>2171.1312629299</ele>
        <time>2013-07-27T10:55:36Z</time>
      </trkpt>
      <trkpt lat="45.51425" lon="6.70957">
        <ele>2169.3276545588</ele>
        <time>2013-07-27T10:55:42Z</time>
      </trkpt>
      <trkpt lat="45.51418" lon="6.70947">
        <ele>2167.5049984</ele>
        <time>2013-07-27T10:55:46Z</time>
      </trkpt>
      <trkpt lat="45.51408" lon="6.70932">
        <ele>2164.5049984</ele>
        <time>2013-07-27T10:55:52Z</time>
      </trkpt>
      <trkpt lat="45.51403" lon="6.70925">
        <ele>2163.40299904</ele>
        <time>2013-07-27T10:55:55Z</time>
      </trkpt>
      <trkpt lat="45.51397" lon="6.70921">
        <ele>2162.50299904</ele>
        <time>2013-07-27T10:55:58Z</time>
      </trkpt>
      <trkpt lat="45.5139" lon="6.7092">
        <ele>2161.60299904</ele>
        <time>2013-07-27T10:56:01Z</time>
      </trkpt>
      <trkpt lat="45.51379" lon="6.70924">
        <ele>2161</ele>
        <time>2013-07-27T10:56:06Z</time>
      </trkpt>
      <trkpt lat="45.51351" lon="6.70914">
        <ele>2160.0406339871</ele>
        <time>2013-07-27T10:56:18Z</time>
      </trkpt>
      <trkpt lat="45.51345" lon="6.70899">
        <ele>2159.0495533953</ele>
        <time>2013-07-27T10:56:23Z</time>
      </trkpt>
      <trkpt lat="45.51341" lon="6.70889">
        <ele>2158.214500981</ele>
        <time>2013-07-27T10:56:27Z</time>
      </trkpt>
      <trkpt lat="45.51336" lon="6.70874">
        <ele>2157.2074526091</ele>
        <time>2013-07-27T10:56:32Z</time>
      </trkpt>
      <trkpt lat="45.51333" lon="6.70865">
        <ele>2156.431864325</ele>
        <time>2013-07-27T10:56:35Z</time>
      </trkpt>
      <trkpt lat="45.51329" lon="6.70852">
        <ele>2155.2294587443</ele>
        <time>2013-07-27T10:56:39Z</time>
      </trkpt>
      <trkpt lat="45.51327" lon="6.70843">
        <ele>2154.3276545588</ele>
        <time>2013-07-27T10:56:42Z</time>
      </trkpt>
      <trkpt lat="45.51325" lon="6.70832">
        <ele>2153.8019803235</ele>
        <time>2013-07-27T10:56:45Z</time>
      </trkpt>
      <trkpt lat="45.51321" lon="6.70815">
        <ele>2153.3079209138</ele>
        <time>2013-07-27T10:56:50Z</time>
      </trkpt>
      <trkpt lat="45.51317" lon="6.70807">
        <ele>2153.010891399</ele>
        <time>2013-07-27T10:56:53Z</time>
      </trkpt>
      <trkpt lat="45.51314" lon="6.70798">
        <ele>2152.4368740276</ele>
        <time>2013-07-27T10:56:56Z</time>
      </trkpt>
      <trkpt lat="45.51309" lon="6.70792">
        <ele>2151.8356712373</ele>
        <time>2013-07-27T10:56:59Z</time>
      </trkpt>
      <trkpt lat="45.51299" lon="6.7079">
        <ele>2151.0340675168</ele>
        <time>2013-07-27T10:57:03Z</time>
      </trkpt>
      <trkpt lat="45.51281" lon="6.70789">
        <ele>2150.30899968</ele>
        <time>2013-07-27T10:57:10Z</time>
      </trkpt>
      <trkpt lat="45.51274" lon="6.70788">
        <ele>2150.00899968</ele>
        <time>2013-07-27T10:57:13Z</time>
      </trkpt>
      <trkpt lat="45.51266" lon="6.70785">
        <ele>2149.4185805933</ele>
        <time>2013-07-27T10:57:16Z</time>
      </trkpt>
      <trkpt lat="45.51259" lon="6.70784">
        <ele>2148.8191798023</ele>
        <time>2013-07-27T10:57:19Z</time>
      </trkpt>
      <trkpt lat="45.51249" lon="6.70786">
        <ele>2148.0199787476</ele>
        <time>2013-07-27T10:57:23Z</time>
      </trkpt>
      <trkpt lat="45.51234" lon="6.70787">
        <ele>2146.8116816322</ele>
        <time>2013-07-27T10:57:29Z</time>
      </trkpt>
      <trkpt lat="45.51214" lon="6.70787">
        <ele>2145.2204410231</ele>
        <time>2013-07-27T10:57:37Z</time>
      </trkpt>
      <trkpt lat="45.51207" lon="6.70786">
        <ele>2144.6192382328</ele>
        <time>2013-07-27T10:57:40Z</time>
      </trkpt>
      <trkpt lat="45.51194" lon="6.70783">
        <ele>2143.80099968</ele>
        <time>2013-07-27T10:57:45Z</time>
      </trkpt>
      <trkpt lat="45.51189" lon="6.70783">
        <ele>2143.60099968</ele>
        <time>2013-07-27T10:57:47Z</time>
      </trkpt>
      <trkpt lat="45.51184" lon="6.70782">
        <ele>2143.40099968</ele>
        <time>2013-07-27T10:57:49Z</time>
      </trkpt>
      <trkpt lat="45.51176" lon="6.7078">
        <ele>2143.10099968</ele>
        <time>2013-07-27T10:57:52Z</time>
      </trkpt>
      <trkpt lat="45.51169" lon="6.70779">
        <ele>2142.40299904</ele>
        <time>2013-07-27T10:57:55Z</time>
      </trkpt>
      <trkpt lat="45.51154" lon="6.70778">
        <ele>2140.60299904</ele>
        <time>2013-07-27T10:58:01Z</time>
      </trkpt>
      <trkpt lat="45.51146" lon="6.70778">
        <ele>2139.81799936</ele>
        <time>2013-07-27T10:58:04Z</time>
      </trkpt>
      <trkpt lat="45.51141" lon="6.70778">
        <ele>2139.41799936</ele>
        <time>2013-07-27T10:58:06Z</time>
      </trkpt>
      <trkpt lat="45.51133" lon="6.70776">
        <ele>2138.81799936</ele>
        <time>2013-07-27T10:58:09Z</time>
      </trkpt>
      <trkpt lat="45.51126" lon="6.70774">
        <ele>2138.21799936</ele>
        <time>2013-07-27T10:58:12Z</time>
      </trkpt>
      <trkpt lat="45.51112" lon="6.70775">
        <ele>2136.50299904</ele>
        <time>2013-07-27T10:58:18Z</time>
      </trkpt>
      <trkpt lat="45.51105" lon="6.70776">
        <ele>2135.60299904</ele>
        <time>2013-07-27T10:58:21Z</time>
      </trkpt>
      <trkpt lat="45.51096" lon="6.7078">
        <ele>2134.2055880523</ele>
        <time>2013-07-27T10:58:25Z</time>
      </trkpt>
      <trkpt lat="45.51089" lon="6.70782">
        <ele>2133.0079840268</ele>
        <time>2013-07-27T10:58:28Z</time>
      </trkpt>
      <trkpt lat="45.51082" lon="6.70786">
        <ele>2131.8103800014</ele>
        <time>2013-07-27T10:58:31Z</time>
      </trkpt>
      <trkpt lat="45.51071" lon="6.70799">
        <ele>2130.2204410231</ele>
        <time>2013-07-27T10:58:37Z</time>
      </trkpt>
      <trkpt lat="45.51066" lon="6.7081">
        <ele>2129.4188373027</ele>
        <time>2013-07-27T10:58:41Z</time>
      </trkpt>
      <trkpt lat="45.51047" lon="6.70825">
        <ele>2126.9175766697</ele>
        <time>2013-07-27T10:58:50Z</time>
      </trkpt>
      <trkpt lat="45.51032" lon="6.70825">
        <ele>2125.4118829928</ele>
        <time>2013-07-27T10:58:56Z</time>
      </trkpt>
      <trkpt lat="45.51024" lon="6.70823">
        <ele>2124.8076531908</ele>
        <time>2013-07-27T10:58:59Z</time>
      </trkpt>
      <trkpt lat="45.51017" lon="6.70821">
        <ele>2124.2034233888</ele>
        <time>2013-07-27T10:59:02Z</time>
      </trkpt>
      <trkpt lat="45.51009" lon="6.70818">
        <ele>2123.61799936</ele>
        <time>2013-07-27T10:59:05Z</time>
      </trkpt>
      <trkpt lat="45.51002" lon="6.70817">
        <ele>2123.01799936</ele>
        <time>2013-07-27T10:59:08Z</time>
      </trkpt>
      <trkpt lat="45.50981" lon="6.70811">
        <ele>2121.41799936</ele>
        <time>2013-07-27T10:59:16Z</time>
      </trkpt>
      <trkpt lat="45.50972" lon="6.70811">
        <ele>2120.61799936</ele>
        <time>2013-07-27T10:59:20Z</time>
      </trkpt>
      <trkpt lat="45.50963" lon="6.70814">
        <ele>2119.902654522</ele>
        <time>2013-07-27T10:59:24Z</time>
      </trkpt>
      <trkpt lat="45.50954" lon="6.70816">
        <ele>2119.5093407306</ele>
        <time>2013-07-27T10:59:28Z</time>
      </trkpt>
      <trkpt lat="45.50943" lon="6.70814">
        <ele>2119.0176984913</ele>
        <time>2013-07-27T10:59:33Z</time>
      </trkpt>
      <trkpt lat="45.50923" lon="6.70816">
        <ele>2119.8983739837</ele>
        <time>2013-07-27T10:59:42Z</time>
      </trkpt>
      <trkpt lat="45.50907" lon="6.70825">
        <ele>2119.3987979807</ele>
        <time>2013-07-27T10:59:49Z</time>
      </trkpt>
      <trkpt lat="45.50889" lon="6.70834">
        <ele>2118.39600128</ele>
        <time>2013-07-27T10:59:56Z</time>
      </trkpt>
      <trkpt lat="45.50873" lon="6.70844">
        <ele>2116.99800064</ele>
        <time>2013-07-27T11:00:03Z</time>
      </trkpt>
      <trkpt lat="45.50862" lon="6.70848">
        <ele>2116.59800064</ele>
        <time>2013-07-27T11:00:07Z</time>
      </trkpt>
      <trkpt lat="45.50838" lon="6.70856">
        <ele>2114.98000128</ele>
        <time>2013-07-27T11:00:18Z</time>
      </trkpt>
      <trkpt lat="45.50829" lon="6.70859">
        <ele>2114.18000128</ele>
        <time>2013-07-27T11:00:22Z</time>
      </trkpt>
      <trkpt lat="45.50816" lon="6.70864">
        <ele>2113.1816374813</ele>
        <time>2013-07-27T11:00:27Z</time>
      </trkpt>
      <trkpt lat="45.50771" lon="6.70854">
        <ele>2109.37000192</ele>
        <time>2013-07-27T11:00:45Z</time>
      </trkpt>
      <trkpt lat="45.5076" lon="6.70851">
        <ele>2107.87000192</ele>
        <time>2013-07-27T11:00:50Z</time>
      </trkpt>
      <trkpt lat="45.50749" lon="6.70851">
        <ele>2105.58600448</ele>
        <time>2013-07-27T11:00:55Z</time>
      </trkpt>
      <trkpt lat="45.50738" lon="6.7085">
        <ele>2102.78600448</ele>
        <time>2013-07-27T11:00:59Z</time>
      </trkpt>
      <trkpt lat="45.5073" lon="6.70849">
        <ele>2100.68600448</ele>
        <time>2013-07-27T11:01:02Z</time>
      </trkpt>
      <trkpt lat="45.50707" lon="6.7086">
        <ele>2097.27000192</ele>
        <time>2013-07-27T11:01:12Z</time>
      </trkpt>
      <trkpt lat="45.50698" lon="6.70872">
        <ele>2096.59000064</ele>
        <time>2013-07-27T11:01:17Z</time>
      </trkpt>
      <trkpt lat="45.50691" lon="6.70877">
        <ele>2096.29000064</ele>
        <time>2013-07-27T11:01:20Z</time>
      </trkpt>
      <trkpt lat="45.50683" lon="6.70881">
        <ele>2095.780440259</ele>
        <time>2013-07-27T11:01:24Z</time>
      </trkpt>
      <trkpt lat="45.50674" lon="6.70878">
        <ele>2094.9820365554</ele>
        <time>2013-07-27T11:01:28Z</time>
      </trkpt>
      <trkpt lat="45.50673" lon="6.70857">
        <ele>2093.0981969711</ele>
        <time>2013-07-27T11:01:36Z</time>
      </trkpt>
      <trkpt lat="45.50675" lon="6.70846">
        <ele>2092.1963939422</ele>
        <time>2013-07-27T11:01:39Z</time>
      </trkpt>
      <trkpt lat="45.50676" lon="6.70836">
        <ele>2091.2945909133</ele>
        <time>2013-07-27T11:01:42Z</time>
      </trkpt>
      <trkpt lat="45.50677" lon="6.70825">
        <ele>2089.9500032</ele>
        <time>2013-07-27T11:01:45Z</time>
      </trkpt>
      <trkpt lat="45.50677" lon="6.70814">
        <ele>2088.4500032</ele>
        <time>2013-07-27T11:01:48Z</time>
      </trkpt>
      <trkpt lat="45.50667" lon="6.70789">
        <ele>2084.82000384</ele>
        <time>2013-07-27T11:01:56Z</time>
      </trkpt>
      <trkpt lat="45.50662" lon="6.70776">
        <ele>2083.22000384</ele>
        <time>2013-07-27T11:02:00Z</time>
      </trkpt>
      <trkpt lat="45.50658" lon="6.7076">
        <ele>2081.79600128</ele>
        <time>2013-07-27T11:02:04Z</time>
      </trkpt>
      <trkpt lat="45.50655" lon="6.70746">
        <ele>2080.99600128</ele>
        <time>2013-07-27T11:02:08Z</time>
      </trkpt>
      <trkpt lat="45.50643" lon="6.70705">
        <ele>2078.38000128</ele>
        <time>2013-07-27T11:02:21Z</time>
      </trkpt>
      <trkpt lat="45.50645" lon="6.70694">
        <ele>2077.6713166534</ele>
        <time>2013-07-27T11:02:24Z</time>
      </trkpt>
      <trkpt lat="45.50647" lon="6.70677">
        <ele>2076.4760975299</ele>
        <time>2013-07-27T11:02:28Z</time>
      </trkpt>
      <trkpt lat="45.50649" lon="6.70665">
        <ele>2075.5796831872</ele>
        <time>2013-07-27T11:02:31Z</time>
      </trkpt>
      <trkpt lat="45.50655" lon="6.70643">
        <ele>2073.801206747</ele>
        <time>2013-07-27T11:02:37Z</time>
      </trkpt>
      <trkpt lat="45.50657" lon="6.70632">
        <ele>2072.8975922892</ele>
        <time>2013-07-27T11:02:40Z</time>
      </trkpt>
      <trkpt lat="45.50659" lon="6.70622">
        <ele>2071.97000192</ele>
        <time>2013-07-27T11:02:43Z</time>
      </trkpt>
      <trkpt lat="45.50662" lon="6.70612">
        <ele>2071.07000192</ele>
        <time>2013-07-27T11:02:46Z</time>
      </trkpt>
      <trkpt lat="45.50667" lon="6.70598">
        <ele>2069.86700288</ele>
        <time>2013-07-27T11:02:50Z</time>
      </trkpt>
      <trkpt lat="45.50681" lon="6.70579">
        <ele>2066.9900032</ele>
        <time>2013-07-27T11:02:57Z</time>
      </trkpt>
      <trkpt lat="45.50688" lon="6.70572">
        <ele>2065.4900032</ele>
        <time>2013-07-27T11:03:00Z</time>
      </trkpt>
      <trkpt lat="45.50696" lon="6.70563">
        <ele>2063.5</ele>
        <time>2013-07-27T11:03:04Z</time>
      </trkpt>
      <trkpt lat="45.50704" lon="6.70554">
        <ele>2061.5</ele>
        <time>2013-07-27T11:03:08Z</time>
      </trkpt>
      <trkpt lat="45.50707" lon="6.70539">
        <ele>2058.99400192</ele>
        <time>2013-07-27T11:03:13Z</time>
      </trkpt>
      <trkpt lat="45.50715" lon="6.70517">
        <ele>2056.89400192</ele>
        <time>2013-07-27T11:03:20Z</time>
      </trkpt>
      <trkpt lat="45.5072" lon="6.70509">
        <ele>2055.9700617773</ele>
        <time>2013-07-27T11:03:23Z</time>
      </trkpt>
      <trkpt lat="45.50729" lon="6.70503">
        <ele>2054.7724562219</ele>
        <time>2013-07-27T11:03:27Z</time>
      </trkpt>
      <trkpt lat="45.50733" lon="6.70503">
        <ele>2054.1736534442</ele>
        <time>2013-07-27T11:03:29Z</time>
      </trkpt>
      <trkpt lat="45.50739" lon="6.70503">
        <ele>2053.2754492777</ele>
        <time>2013-07-27T11:03:32Z</time>
      </trkpt>
      <trkpt lat="45.50772" lon="6.70498">
        <ele>2043.39200256</ele>
        <time>2013-07-27T11:03:47Z</time>
      </trkpt>
      <trkpt lat="45.5078" lon="6.70494">
        <ele>2042.19200256</ele>
        <time>2013-07-27T11:03:50Z</time>
      </trkpt>
      <trkpt lat="45.50787" lon="6.70488">
        <ele>2040.98600448</ele>
        <time>2013-07-27T11:03:53Z</time>
      </trkpt>
      <trkpt lat="45.50799" lon="6.70478">
        <ele>2036.78600448</ele>
        <time>2013-07-27T11:03:59Z</time>
      </trkpt>
      <trkpt lat="45.50806" lon="6.70474">
        <ele>2034.68600448</ele>
        <time>2013-07-27T11:04:02Z</time>
      </trkpt>
      <trkpt lat="45.50812" lon="6.7047">
        <ele>2033.37000192</ele>
        <time>2013-07-27T11:04:05Z</time>
      </trkpt>
      <trkpt lat="45.50818" lon="6.70466">
        <ele>2032.47000192</ele>
        <time>2013-07-27T11:04:08Z</time>
      </trkpt>
      <trkpt lat="45.50824" lon="6.70462">
        <ele>2031.57000192</ele>
        <time>2013-07-27T11:04:11Z</time>
      </trkpt>
      <trkpt lat="45.50832" lon="6.70455">
        <ele>2029.9500032</ele>
        <time>2013-07-27T11:04:15Z</time>
      </trkpt>
      <trkpt lat="45.50836" lon="6.70451">
        <ele>2028.9500032</ele>
        <time>2013-07-27T11:04:17Z</time>
      </trkpt>
      <trkpt lat="45.5084" lon="6.70447">
        <ele>2027.9500032</ele>
        <time>2013-07-27T11:04:19Z</time>
      </trkpt>
      <trkpt lat="45.50848" lon="6.70437">
        <ele>2025.4610775001</ele>
        <time>2013-07-27T11:04:24Z</time>
      </trkpt>
      <trkpt lat="45.50857" lon="6.70427">
        <ele>2022.9660659264</ele>
        <time>2013-07-27T11:04:29Z</time>
      </trkpt>
      <trkpt lat="45.50873" lon="6.70407">
        <ele>2018.4949915864</ele>
        <time>2013-07-27T11:04:38Z</time>
      </trkpt>
      <trkpt lat="45.50877" lon="6.70399">
        <ele>2016.9919865382</ele>
        <time>2013-07-27T11:04:41Z</time>
      </trkpt>
      <trkpt lat="45.50883" lon="6.7039">
        <ele>2014.38400512</ele>
        <time>2013-07-27T11:04:45Z</time>
      </trkpt>
      <trkpt lat="45.50888" lon="6.70382">
        <ele>2011.98400512</ele>
        <time>2013-07-27T11:04:48Z</time>
      </trkpt>
      <trkpt lat="45.50894" lon="6.70373">
        <ele>2008.78400512</ele>
        <time>2013-07-27T11:04:52Z</time>
      </trkpt>
      <trkpt lat="45.50904" lon="6.70359">
        <ele>2005.96000256</ele>
        <time>2013-07-27T11:04:58Z</time>
      </trkpt>
      <trkpt lat="45.50928" lon="6.70335">
        <ele>2002.784</ele>
        <time>2013-07-27T11:05:09Z</time>
      </trkpt>
      <trkpt lat="45.50937" lon="6.70327">
        <ele>2001.9700617773</ele>
        <time>2013-07-27T11:05:13Z</time>
      </trkpt>
      <trkpt lat="45.50951" lon="6.70305">
        <ele>1999.5748506666</ele>
        <time>2013-07-27T11:05:21Z</time>
      </trkpt>
      <trkpt lat="45.50956" lon="6.70299">
        <ele>1998.8</ele>
        <time>2013-07-27T11:05:24Z</time>
      </trkpt>
      <trkpt lat="45.50961" lon="6.7029">
        <ele>1998.2</ele>
        <time>2013-07-27T11:05:27Z</time>
      </trkpt>
      <trkpt lat="45.50964" lon="6.70284">
        <ele>1997.8</ele>
        <time>2013-07-27T11:05:29Z</time>
      </trkpt>
      <trkpt lat="45.50967" lon="6.70278">
        <ele>1997.4</ele>
        <time>2013-07-27T11:05:31Z</time>
      </trkpt>
      <trkpt lat="45.50975" lon="6.70264">
        <ele>1996.1420104824</ele>
        <time>2013-07-27T11:05:36Z</time>
      </trkpt>
      <trkpt lat="45.50976" lon="6.7026">
        <ele>1995.8461526809</ele>
        <time>2013-07-27T11:05:37Z</time>
      </trkpt>
      <trkpt lat="45.50978" lon="6.70257">
        <ele>1995.5502948795</ele>
        <time>2013-07-27T11:05:38Z</time>
      </trkpt>
      <trkpt lat="45.50981" lon="6.70251">
        <ele>1994.9585792766</ele>
        <time>2013-07-27T11:05:40Z</time>
      </trkpt>
      <trkpt lat="45.50983" lon="6.70248">
        <ele>1994.6627214752</ele>
        <time>2013-07-27T11:05:41Z</time>
      </trkpt>
      <trkpt lat="45.50986" lon="6.70242">
        <ele>1994.0710058723</ele>
        <time>2013-07-27T11:05:43Z</time>
      </trkpt>
      <trkpt lat="45.50991" lon="6.70236">
        <ele>1993.6304580322</ele>
        <time>2013-07-27T11:05:45Z</time>
      </trkpt>
      <trkpt lat="45.50995" lon="6.70231">
        <ele>1993.2243665297</ele>
        <time>2013-07-27T11:05:47Z</time>
      </trkpt>
      <trkpt lat="45.50997" lon="6.70228">
        <ele>1993.0213207785</ele>
        <time>2013-07-27T11:05:48Z</time>
      </trkpt>
      <trkpt lat="45.51004" lon="6.70219">
        <ele>1992.4121835248</ele>
        <time>2013-07-27T11:05:51Z</time>
      </trkpt>
      <trkpt lat="45.51016" lon="6.70202">
        <ele>1990.40399872</ele>
        <time>2013-07-27T11:05:57Z</time>
      </trkpt>
      <trkpt lat="45.51023" lon="6.70195">
        <ele>1989.20399872</ele>
        <time>2013-07-27T11:06:00Z</time>
      </trkpt>
      <trkpt lat="45.51034" lon="6.7018">
        <ele>1987.80199936</ele>
        <time>2013-07-27T11:06:14Z</time>
      </trkpt>
      <trkpt lat="45.51039" lon="6.70172">
        <ele>1986.60199936</ele>
        <time>2013-07-27T11:06:20Z</time>
      </trkpt>
      <trkpt lat="45.51042" lon="6.70168">
        <ele>1985.9011973485</ele>
        <time>2013-07-27T11:06:24Z</time>
      </trkpt>
      <trkpt lat="45.51044" lon="6.70164">
        <ele>1985.6017963422</ele>
        <time>2013-07-27T11:06:27Z</time>
      </trkpt>
      <trkpt lat="45.5105" lon="6.70156">
        <ele>1984.9108219067</ele>
        <time>2013-07-27T11:06:34Z</time>
      </trkpt>
      <trkpt lat="45.51057" lon="6.7015">
        <ele>1984.4098195814</ele>
        <time>2013-07-27T11:06:39Z</time>
      </trkpt>
      <trkpt lat="45.51068" lon="6.70134">
        <ele>1982.832</ele>
        <time>2013-07-27T11:06:49Z</time>
      </trkpt>
      <trkpt lat="45.51074" lon="6.70124">
        <ele>1982.232</ele>
        <time>2013-07-27T11:06:52Z</time>
      </trkpt>
      <trkpt lat="45.51081" lon="6.70116">
        <ele>1981.60199936</ele>
        <time>2013-07-27T11:06:55Z</time>
      </trkpt>
      <trkpt lat="45.51087" lon="6.70106">
        <ele>1981.00199936</ele>
        <time>2013-07-27T11:06:58Z</time>
      </trkpt>
      <trkpt lat="45.51092" lon="6.70097">
        <ele>1980.40199936</ele>
        <time>2013-07-27T11:07:01Z</time>
      </trkpt>
      <trkpt lat="45.51103" lon="6.70076">
        <ele>1979.20199936</ele>
        <time>2013-07-27T11:07:07Z</time>
      </trkpt>
      <trkpt lat="45.51104" lon="6.70065">
        <ele>1978.60199936</ele>
        <time>2013-07-27T11:07:10Z</time>
      </trkpt>
      <trkpt lat="45.51106" lon="6.70052">
        <ele>1978.00199936</ele>
        <time>2013-07-27T11:07:13Z</time>
      </trkpt>
      <trkpt lat="45.51109" lon="6.70039">
        <ele>1977.10299904</ele>
        <time>2013-07-27T11:07:16Z</time>
      </trkpt>
      <trkpt lat="45.51112" lon="6.70028">
        <ele>1976.20299904</ele>
        <time>2013-07-27T11:07:19Z</time>
      </trkpt>
      <trkpt lat="45.51128" lon="6.70008">
        <ele>1973.8475242154</ele>
        <time>2013-07-27T11:07:26Z</time>
      </trkpt>
      <trkpt lat="45.51134" lon="6.7">
        <ele>1972.6594061564</ele>
        <time>2013-07-27T11:07:29Z</time>
      </trkpt>
      <trkpt lat="45.51141" lon="6.69988">
        <ele>1971.0752487444</ele>
        <time>2013-07-27T11:07:33Z</time>
      </trkpt>
      <trkpt lat="45.51164" lon="6.6994">
        <ele>1965.0449984</ele>
        <time>2013-07-27T11:07:49Z</time>
      </trkpt>
      <trkpt lat="45.51169" lon="6.6993">
        <ele>1963.5449984</ele>
        <time>2013-07-27T11:07:52Z</time>
      </trkpt>
      <trkpt lat="45.51175" lon="6.69917">
        <ele>1961.80399872</ele>
        <time>2013-07-27T11:07:56Z</time>
      </trkpt>
      <trkpt lat="45.51183" lon="6.69903">
        <ele>1959.80399872</ele>
        <time>2013-07-27T11:08:01Z</time>
      </trkpt>
      <trkpt lat="45.51188" lon="6.6989">
        <ele>1958.8013970131</ele>
        <time>2013-07-27T11:08:05Z</time>
      </trkpt>
      <trkpt lat="45.51194" lon="6.69859">
        <ele>1958.0029943294</ele>
        <time>2013-07-27T11:08:13Z</time>
      </trkpt>
      <trkpt lat="45.51196" lon="6.69844">
        <ele>1957.6098296842</ele>
        <time>2013-07-27T11:08:17Z</time>
      </trkpt>
      <trkpt lat="45.51202" lon="6.69832">
        <ele>1957.2086259446</ele>
        <time>2013-07-27T11:08:21Z</time>
      </trkpt>
      <trkpt lat="45.5121" lon="6.69823">
        <ele>1956.401794807</ele>
        <time>2013-07-27T11:08:25Z</time>
      </trkpt>
      <trkpt lat="45.51218" lon="6.69818">
        <ele>1955.5044870175</ele>
        <time>2013-07-27T11:08:28Z</time>
      </trkpt>
      <trkpt lat="45.51234" lon="6.69805">
        <ele>1952.8697413193</ele>
        <time>2013-07-27T11:08:36Z</time>
      </trkpt>
      <trkpt lat="45.51241" lon="6.698">
        <ele>1951.6673357386</ele>
        <time>2013-07-27T11:08:39Z</time>
      </trkpt>
      <trkpt lat="45.51249" lon="6.69799">
        <ele>1950.4649301579</ele>
        <time>2013-07-27T11:08:42Z</time>
      </trkpt>
      <trkpt lat="45.51256" lon="6.69797">
        <ele>1949.80099968</ele>
        <time>2013-07-27T11:08:45Z</time>
      </trkpt>
      <trkpt lat="45.51264" lon="6.69798">
        <ele>1949.50099968</ele>
        <time>2013-07-27T11:08:48Z</time>
      </trkpt>
      <trkpt lat="45.51276" lon="6.69801">
        <ele>1949</ele>
        <time>2013-07-27T11:09:18Z</time>
      </trkpt>
      <trkpt lat="45.51277" lon="6.69805">
        <ele>1949</ele>
        <time>2013-07-27T11:10:02Z</time>
      </trkpt>
      <trkpt lat="45.51275" lon="6.69801">
        <ele>1949</ele>
        <time>2013-07-27T11:10:40Z</time>
      </trkpt>
      <trkpt lat="45.51277" lon="6.69798">
        <ele>1949</ele>
        <time>2013-07-27T11:10:47Z</time>
      </trkpt>
      <trkpt lat="45.51296" lon="6.69779">
        <ele>1948</ele>
        <time>2013-07-27T11:11:53Z</time>
      </trkpt>
      <trkpt lat="45.513" lon="6.69777">
        <ele>1948</ele>
        <time>2013-07-27T11:11:58Z</time>
      </trkpt>
      <trkpt lat="45.51303" lon="6.69777">
        <ele>1948.50999936</ele>
        <time>2013-07-27T11:12:08Z</time>
      </trkpt>
      <trkpt lat="45.51313" lon="6.69764">
        <ele>1949</ele>
        <time>2013-07-27T11:12:18Z</time>
      </trkpt>
      <trkpt lat="45.51328" lon="6.69761">
        <ele>1948.0019953705</ele>
        <time>2013-07-27T11:12:28Z</time>
      </trkpt>
      <trkpt lat="45.51337" lon="6.69764">
        <ele>1947</ele>
        <time>2013-07-27T11:12:33Z</time>
      </trkpt>
      <trkpt lat="45.51344" lon="6.6977">
        <ele>1947</ele>
        <time>2013-07-27T11:12:36Z</time>
      </trkpt>
      <trkpt lat="45.51348" lon="6.69774">
        <ele>1947</ele>
        <time>2013-07-27T11:12:38Z</time>
      </trkpt>
      <trkpt lat="45.51353" lon="6.69777">
        <ele>1947</ele>
        <time>2013-07-27T11:12:40Z</time>
      </trkpt>
      <trkpt lat="45.5138" lon="6.69779">
        <ele>1947</ele>
        <time>2013-07-27T11:12:50Z</time>
      </trkpt>
      <trkpt lat="45.5139" lon="6.69776">
        <ele>1947.21999872</ele>
        <time>2013-07-27T11:12:54Z</time>
      </trkpt>
      <trkpt lat="45.51403" lon="6.69769">
        <ele>1948.41999872</ele>
        <time>2013-07-27T11:13:00Z</time>
      </trkpt>
      <trkpt lat="45.51416" lon="6.69758">
        <ele>1948.7996038095</ele>
        <time>2013-07-27T11:13:05Z</time>
      </trkpt>
      <trkpt lat="45.51426" lon="6.69749">
        <ele>1948.4027784127</ele>
        <time>2013-07-27T11:13:09Z</time>
      </trkpt>
      <trkpt lat="45.51451" lon="6.69741">
        <ele>1947.5947587097</ele>
        <time>2013-07-27T11:13:17Z</time>
      </trkpt>
      <trkpt lat="45.51466" lon="6.6975">
        <ele>1947</ele>
        <time>2013-07-27T11:13:23Z</time>
      </trkpt>
      <trkpt lat="45.51477" lon="6.6975">
        <ele>1946.605787852</ele>
        <time>2013-07-27T11:13:27Z</time>
      </trkpt>
      <trkpt lat="45.51492" lon="6.69746">
        <ele>1946</ele>
        <time>2013-07-27T11:13:33Z</time>
      </trkpt>
      <trkpt lat="45.51511" lon="6.69736">
        <ele>1944.6186177798</ele>
        <time>2013-07-27T11:13:40Z</time>
      </trkpt>
      <trkpt lat="45.51536" lon="6.69679">
        <ele>1940.2505018039</ele>
        <time>2013-07-27T11:13:59Z</time>
      </trkpt>
      <trkpt lat="45.51539" lon="6.69668">
        <ele>1939.3486976184</ele>
        <time>2013-07-27T11:14:02Z</time>
      </trkpt>
      <trkpt lat="45.51541" lon="6.69657">
        <ele>1938.8</ele>
        <time>2013-07-27T11:14:05Z</time>
      </trkpt>
      <trkpt lat="45.51545" lon="6.69637">
        <ele>1938.20099968</ele>
        <time>2013-07-27T11:14:11Z</time>
      </trkpt>
      <trkpt lat="45.51547" lon="6.69626">
        <ele>1937.81799936</ele>
        <time>2013-07-27T11:14:14Z</time>
      </trkpt>
      <trkpt lat="45.5155" lon="6.69612">
        <ele>1937.01799936</ele>
        <time>2013-07-27T11:14:18Z</time>
      </trkpt>
      <trkpt lat="45.51553" lon="6.69598">
        <ele>1936.21799936</ele>
        <time>2013-07-27T11:14:22Z</time>
      </trkpt>
      <trkpt lat="45.51555" lon="6.69583">
        <ele>1935.4031933553</ele>
        <time>2013-07-27T11:14:26Z</time>
      </trkpt>
      <trkpt lat="45.51562" lon="6.69557">
        <ele>1934.0059886588</ele>
        <time>2013-07-27T11:14:33Z</time>
      </trkpt>
      <trkpt lat="45.51564" lon="6.69546">
        <ele>1933.4208419532</ele>
        <time>2013-07-27T11:14:36Z</time>
      </trkpt>
      <trkpt lat="45.51567" lon="6.6953">
        <ele>1932.6192382328</ele>
        <time>2013-07-27T11:14:40Z</time>
      </trkpt>
      <trkpt lat="45.51567" lon="6.69519">
        <ele>1932.0180354424</ele>
        <time>2013-07-27T11:14:43Z</time>
      </trkpt>
      <trkpt lat="45.51567" lon="6.69506">
        <ele>1931.10299904</ele>
        <time>2013-07-27T11:14:46Z</time>
      </trkpt>
      <trkpt lat="45.51565" lon="6.69485">
        <ele>1929.30299904</ele>
        <time>2013-07-27T11:14:52Z</time>
      </trkpt>
      <trkpt lat="45.51561" lon="6.69476">
        <ele>1928.80099968</ele>
        <time>2013-07-27T11:14:55Z</time>
      </trkpt>
      <trkpt lat="45.51555" lon="6.69468">
        <ele>1928.50099968</ele>
        <time>2013-07-27T11:14:58Z</time>
      </trkpt>
      <trkpt lat="45.51539" lon="6.69457">
        <ele>1927.80199936</ele>
        <time>2013-07-27T11:15:04Z</time>
      </trkpt>
      <trkpt lat="45.51527" lon="6.69454">
        <ele>1927.00199936</ele>
        <time>2013-07-27T11:15:08Z</time>
      </trkpt>
      <trkpt lat="45.51502" lon="6.69462">
        <ele>1925.20199936</ele>
        <time>2013-07-27T11:15:17Z</time>
      </trkpt>
      <trkpt lat="45.51522" lon="6.69413">
        <ele>1919.4969949518</ele>
        <time>2013-07-27T11:15:36Z</time>
      </trkpt>
      <trkpt lat="45.51533" lon="6.69409">
        <ele>1916.9919865382</ele>
        <time>2013-07-27T11:15:41Z</time>
      </trkpt>
      <trkpt lat="45.51563" lon="6.69394">
        <ele>1910.4900032</ele>
        <time>2013-07-27T11:15:54Z</time>
      </trkpt>
      <trkpt lat="45.51574" lon="6.6939">
        <ele>1907.98</ele>
        <time>2013-07-27T11:15:59Z</time>
      </trkpt>
      <trkpt lat="45.51586" lon="6.69384">
        <ele>1905.99400192</ele>
        <time>2013-07-27T11:16:03Z</time>
      </trkpt>
      <trkpt lat="45.51596" lon="6.69378">
        <ele>1904.49400192</ele>
        <time>2013-07-27T11:16:08Z</time>
      </trkpt>
      <trkpt lat="45.51609" lon="6.69372">
        <ele>1902.98000128</ele>
        <time>2013-07-27T11:16:13Z</time>
      </trkpt>
      <trkpt lat="45.5163" lon="6.69359">
        <ele>1901.18000128</ele>
        <time>2013-07-27T11:16:22Z</time>
      </trkpt>
      <trkpt lat="45.51635" lon="6.69356">
        <ele>1900.780440259</ele>
        <time>2013-07-27T11:16:24Z</time>
      </trkpt>
      <trkpt lat="45.51639" lon="6.69355">
        <ele>1900.3812384072</ele>
        <time>2013-07-27T11:16:26Z</time>
      </trkpt>
      <trkpt lat="45.51658" lon="6.6935">
        <ele>1898.0009999591</ele>
        <time>2013-07-27T11:16:35Z</time>
      </trkpt>
      <trkpt lat="45.51678" lon="6.69346">
        <ele>1893.9819645576</ele>
        <time>2013-07-27T11:16:43Z</time>
      </trkpt>
      <trkpt lat="45.51714" lon="6.69325">
        <ele>1890.82699904</ele>
        <time>2013-07-27T11:16:57Z</time>
      </trkpt>
      <trkpt lat="45.51732" lon="6.69315">
        <ele>1888.90899968</ele>
        <time>2013-07-27T11:17:04Z</time>
      </trkpt>
      <trkpt lat="45.51749" lon="6.6931">
        <ele>1888.20899968</ele>
        <time>2013-07-27T11:17:11Z</time>
      </trkpt>
      <trkpt lat="45.51768" lon="6.69299">
        <ele>1886.20299904</ele>
        <time>2013-07-27T11:17:19Z</time>
      </trkpt>
      <trkpt lat="45.51785" lon="6.69288">
        <ele>1883.4071853687</ele>
        <time>2013-07-27T11:17:27Z</time>
      </trkpt>
      <trkpt lat="45.51819" lon="6.69265">
        <ele>1877.8376746053</ele>
        <time>2013-07-27T11:17:41Z</time>
      </trkpt>
      <trkpt lat="45.51832" lon="6.69253">
        <ele>1876.20199936</ele>
        <time>2013-07-27T11:17:47Z</time>
      </trkpt>
      <trkpt lat="45.51864" lon="6.69217">
        <ele>1877</ele>
        <time>2013-07-27T11:18:14Z</time>
      </trkpt>
      <trkpt lat="45.51881" lon="6.692">
        <ele>1877.4890222825</ele>
        <time>2013-07-27T11:18:28Z</time>
      </trkpt>
      <trkpt lat="45.51896" lon="6.69194">
        <ele>1879.1803608371</ele>
        <time>2013-07-27T11:18:39Z</time>
      </trkpt>
      <trkpt lat="45.51909" lon="6.69185">
        <ele>1881.168</ele>
        <time>2013-07-27T11:18:49Z</time>
      </trkpt>
      <trkpt lat="45.5192" lon="6.69181">
        <ele>1883.17300096</ele>
        <time>2013-07-27T11:18:57Z</time>
      </trkpt>
      <trkpt lat="45.51929" lon="6.69177">
        <ele>1885.19800064</ele>
        <time>2013-07-27T11:19:04Z</time>
      </trkpt>
      <trkpt lat="45.51939" lon="6.69166">
        <ele>1887.184</ele>
        <time>2013-07-27T11:19:15Z</time>
      </trkpt>
      <trkpt lat="45.51946" lon="6.6916">
        <ele>1887.784</ele>
        <time>2013-07-27T11:19:21Z</time>
      </trkpt>
      <trkpt lat="45.51953" lon="6.69156">
        <ele>1888.3970153702</ele>
        <time>2013-07-27T11:19:27Z</time>
      </trkpt>
      <trkpt lat="45.51964" lon="6.69152">
        <ele>1889.3686832487</ele>
        <time>2013-07-27T11:19:35Z</time>
      </trkpt>
      <trkpt lat="45.51971" lon="6.69147">
        <ele>1890.9544121957</ele>
        <time>2013-07-27T11:19:43Z</time>
      </trkpt>
      <trkpt lat="45.51981" lon="6.6913">
        <ele>1894.29100032</ele>
        <time>2013-07-27T11:19:56Z</time>
      </trkpt>
      <trkpt lat="45.51984" lon="6.6912">
        <ele>1894.89100032</ele>
        <time>2013-07-27T11:20:02Z</time>
      </trkpt>
      <trkpt lat="45.51989" lon="6.69107">
        <ele>1895.69900032</ele>
        <time>2013-07-27T11:20:10Z</time>
      </trkpt>
      <trkpt lat="45.51997" lon="6.69096">
        <ele>1896.7916673016</ele>
        <time>2013-07-27T11:20:17Z</time>
      </trkpt>
      <trkpt lat="45.52003" lon="6.69087">
        <ele>1897.9821434921</ele>
        <time>2013-07-27T11:20:23Z</time>
      </trkpt>
      <trkpt lat="45.52019" lon="6.6907">
        <ele>1898</ele>
        <time>2013-07-27T11:20:31Z</time>
      </trkpt>
      <trkpt lat="45.52029" lon="6.69055">
        <ele>1897.6133201516</ele>
        <time>2013-07-27T11:20:37Z</time>
      </trkpt>
      <trkpt lat="45.52036" lon="6.69037">
        <ele>1897.016898301</ele>
        <time>2013-07-27T11:20:43Z</time>
      </trkpt>
      <trkpt lat="45.52083" lon="6.68992">
        <ele>1899</ele>
        <time>2013-07-27T11:21:17Z</time>
      </trkpt>
      <trkpt lat="45.52095" lon="6.68985">
        <ele>1899.3982036578</ele>
        <time>2013-07-27T11:21:27Z</time>
      </trkpt>
      <trkpt lat="45.52104" lon="6.68975">
        <ele>1900.2825646702</ele>
        <time>2013-07-27T11:21:36Z</time>
      </trkpt>
      <trkpt lat="45.52111" lon="6.68958">
        <ele>1901.39100032</ele>
        <time>2013-07-27T11:21:47Z</time>
      </trkpt>
      <trkpt lat="45.52114" lon="6.6894">
        <ele>1902.58200064</ele>
        <time>2013-07-27T11:21:56Z</time>
      </trkpt>
      <trkpt lat="45.52134" lon="6.68914">
        <ele>1905</ele>
        <time>2013-07-27T11:22:14Z</time>
      </trkpt>
      <trkpt lat="45.52143" lon="6.68903">
        <ele>1905</ele>
        <time>2013-07-27T11:22:22Z</time>
      </trkpt>
      <trkpt lat="45.52152" lon="6.68888">
        <ele>1905.88899968</ele>
        <time>2013-07-27T11:22:32Z</time>
      </trkpt>
      <trkpt lat="45.5216" lon="6.6887">
        <ele>1906</ele>
        <time>2013-07-27T11:22:43Z</time>
      </trkpt>
      <trkpt lat="45.52165" lon="6.68847">
        <ele>1907.09900032</ele>
        <time>2013-07-27T11:22:54Z</time>
      </trkpt>
      <trkpt lat="45.52183" lon="6.68829">
        <ele>1908.59900032</ele>
        <time>2013-07-27T11:23:09Z</time>
      </trkpt>
      <trkpt lat="45.52196" lon="6.68834">
        <ele>1909.29900032</ele>
        <time>2013-07-27T11:23:16Z</time>
      </trkpt>
      <trkpt lat="45.52208" lon="6.68833">
        <ele>1909.89900032</ele>
        <time>2013-07-27T11:23:22Z</time>
      </trkpt>
      <trkpt lat="45.52223" lon="6.68825">
        <ele>1910</ele>
        <time>2013-07-27T11:23:29Z</time>
      </trkpt>
      <trkpt lat="45.52236" lon="6.68816">
        <ele>1910.1836534624</ele>
        <time>2013-07-27T11:23:35Z</time>
      </trkpt>
      <trkpt lat="45.52265" lon="6.68801">
        <ele>1911.39100032</ele>
        <time>2013-07-27T11:23:47Z</time>
      </trkpt>
      <trkpt lat="45.52275" lon="6.6878">
        <ele>1912.58200064</ele>
        <time>2013-07-27T11:23:56Z</time>
      </trkpt>
      <trkpt lat="45.52282" lon="6.68761">
        <ele>1913.784</ele>
        <time>2013-07-27T11:24:02Z</time>
      </trkpt>
      <trkpt lat="45.52289" lon="6.68741">
        <ele>1914</ele>
        <time>2013-07-27T11:24:08Z</time>
      </trkpt>
      <trkpt lat="45.52326" lon="6.68677">
        <ele>1913.0197823874</ele>
        <time>2013-07-27T11:24:33Z</time>
      </trkpt>
      <trkpt lat="45.52333" lon="6.68657">
        <ele>1911.8056693117</ele>
        <time>2013-07-27T11:24:39Z</time>
      </trkpt>
      <trkpt lat="45.52343" lon="6.68642">
        <ele>1911.4980152381</ele>
        <time>2013-07-27T11:24:48Z</time>
      </trkpt>
      <trkpt lat="45.52357" lon="6.68628">
        <ele>1911.2923393548</ele>
        <time>2013-07-27T11:25:00Z</time>
      </trkpt>
      <trkpt lat="45.52381" lon="6.68597">
        <ele>1911</ele>
        <time>2013-07-27T11:25:11Z</time>
      </trkpt>
      <trkpt lat="45.52392" lon="6.68592">
        <ele>1911</ele>
        <time>2013-07-27T11:25:18Z</time>
      </trkpt>
      <trkpt lat="45.52404" lon="6.68579">
        <ele>1911</ele>
        <time>2013-07-27T11:25:45Z</time>
      </trkpt>
      <trkpt lat="45.52413" lon="6.68556">
        <ele>1911</ele>
        <time>2013-07-27T11:25:52Z</time>
      </trkpt>
      <trkpt lat="45.52425" lon="6.6854">
        <ele>1910.40099968</ele>
        <time>2013-07-27T11:25:59Z</time>
      </trkpt>
      <trkpt lat="45.52451" lon="6.68524">
        <ele>1910.6848370061</ele>
        <time>2013-07-27T11:26:10Z</time>
      </trkpt>
      <trkpt lat="45.52463" lon="6.68513">
        <ele>1910.810292695</ele>
        <time>2013-07-27T11:26:15Z</time>
      </trkpt>
      <trkpt lat="45.52476" lon="6.68498">
        <ele>1910.1039357081</ele>
        <time>2013-07-27T11:26:22Z</time>
      </trkpt>
      <trkpt lat="45.52487" lon="6.68482">
        <ele>1909.5059405903</ele>
        <time>2013-07-27T11:26:28Z</time>
      </trkpt>
      <trkpt lat="45.52503" lon="6.68474">
        <ele>1909</ele>
        <time>2013-07-27T11:26:34Z</time>
      </trkpt>
      <trkpt lat="45.52534" lon="6.68475">
        <ele>1909</ele>
        <time>2013-07-27T11:26:47Z</time>
      </trkpt>
      <trkpt lat="45.52548" lon="6.68467">
        <ele>1908.832</ele>
        <time>2013-07-27T11:26:54Z</time>
      </trkpt>
      <trkpt lat="45.5256" lon="6.68459">
        <ele>1907.232</ele>
        <time>2013-07-27T11:27:02Z</time>
      </trkpt>
      <trkpt lat="45.52568" lon="6.68447">
        <ele>1907.79900032</ele>
        <time>2013-07-27T11:27:11Z</time>
      </trkpt>
      <trkpt lat="45.5258" lon="6.68428">
        <ele>1908</ele>
        <time>2013-07-27T11:27:21Z</time>
      </trkpt>
      <trkpt lat="45.52634" lon="6.68416">
        <ele>1906.4188373027</ele>
        <time>2013-07-27T11:27:41Z</time>
      </trkpt>
      <trkpt lat="45.52649" lon="6.68418">
        <ele>1905.70099968</ele>
        <time>2013-07-27T11:27:46Z</time>
      </trkpt>
      <trkpt lat="45.52664" lon="6.68431">
        <ele>1905.10099968</ele>
        <time>2013-07-27T11:27:52Z</time>
      </trkpt>
      <trkpt lat="45.52686" lon="6.68456">
        <ele>1901.8103800014</ele>
        <time>2013-07-27T11:28:01Z</time>
      </trkpt>
      <trkpt lat="45.52695" lon="6.68474">
        <ele>1900.1312629299</ele>
        <time>2013-07-27T11:28:06Z</time>
      </trkpt>
      <trkpt lat="45.527" lon="6.68494">
        <ele>1898.628255954</ele>
        <time>2013-07-27T11:28:11Z</time>
      </trkpt>
      <trkpt lat="45.52701" lon="6.68517">
        <ele>1897.7033726984</ele>
        <time>2013-07-27T11:28:16Z</time>
      </trkpt>
      <trkpt lat="45.527" lon="6.68546">
        <ele>1897.008928254</ele>
        <time>2013-07-27T11:28:23Z</time>
      </trkpt>
      <trkpt lat="45.52711" lon="6.68594">
        <ele>1895.2094186513</ele>
        <time>2013-07-27T11:28:41Z</time>
      </trkpt>
      <trkpt lat="45.52712" lon="6.68617">
        <ele>1895.79900032</ele>
        <time>2013-07-27T11:28:51Z</time>
      </trkpt>
      <trkpt lat="45.52721" lon="6.68632">
        <ele>1895.50300032</ele>
        <time>2013-07-27T11:28:58Z</time>
      </trkpt>
      <trkpt lat="45.52731" lon="6.68643">
        <ele>1895</ele>
        <time>2013-07-27T11:29:04Z</time>
      </trkpt>
      <trkpt lat="45.52742" lon="6.68658">
        <ele>1895</ele>
        <time>2013-07-27T11:29:11Z</time>
      </trkpt>
      <trkpt lat="45.5276" lon="6.68679">
        <ele>1895</ele>
        <time>2013-07-27T11:29:23Z</time>
      </trkpt>
      <trkpt lat="45.52771" lon="6.68691">
        <ele>1894.609780369</ele>
        <time>2013-07-27T11:29:27Z</time>
      </trkpt>
      <trkpt lat="45.5278" lon="6.68702">
        <ele>1894.2095813432</ele>
        <time>2013-07-27T11:29:31Z</time>
      </trkpt>
      <trkpt lat="45.52793" lon="6.68713">
        <ele>1894</ele>
        <time>2013-07-27T11:29:37Z</time>
      </trkpt>
      <trkpt lat="45.52805" lon="6.68733">
        <ele>1894</ele>
        <time>2013-07-27T11:29:43Z</time>
      </trkpt>
      <trkpt lat="45.52814" lon="6.68779">
        <ele>1888.80399872</ele>
        <time>2013-07-27T11:29:56Z</time>
      </trkpt>
      <trkpt lat="45.52814" lon="6.68847">
        <ele>1884.03600128</ele>
        <time>2013-07-27T11:30:13Z</time>
      </trkpt>
      <trkpt lat="45.52811" lon="6.68874">
        <ele>1883.20099968</ele>
        <time>2013-07-27T11:30:21Z</time>
      </trkpt>
      <trkpt lat="45.52803" lon="6.68916">
        <ele>1882.0188121861</ele>
        <time>2013-07-27T11:30:33Z</time>
      </trkpt>
      <trkpt lat="45.52801" lon="6.68935">
        <ele>1882</ele>
        <time>2013-07-27T11:30:39Z</time>
      </trkpt>
      <trkpt lat="45.52803" lon="6.68959">
        <ele>1882</ele>
        <time>2013-07-27T11:30:50Z</time>
      </trkpt>
      <trkpt lat="45.52802" lon="6.68976">
        <ele>1880.8196391629</ele>
        <time>2013-07-27T11:30:59Z</time>
      </trkpt>
      <trkpt lat="45.52799" lon="6.68993">
        <ele>1880.39900032</ele>
        <time>2013-07-27T11:31:07Z</time>
      </trkpt>
      <trkpt lat="45.52796" lon="6.6903">
        <ele>1883.4827929936</ele>
        <time>2013-07-27T11:31:28Z</time>
      </trkpt>
      <trkpt lat="45.52792" lon="6.6905">
        <ele>1885.4052957033</ele>
        <time>2013-07-27T11:31:40Z</time>
      </trkpt>
      <trkpt lat="45.52791" lon="6.69068">
        <ele>1886.70999936</ele>
        <time>2013-07-27T11:31:50Z</time>
      </trkpt>
      <trkpt lat="45.52799" lon="6.69087">
        <ele>1888.19800064</ele>
        <time>2013-07-27T11:32:04Z</time>
      </trkpt>
      <trkpt lat="45.52805" lon="6.691">
        <ele>1889.79800064</ele>
        <time>2013-07-27T11:32:12Z</time>
      </trkpt>
      <trkpt lat="45.52818" lon="6.69129">
        <ele>1892.5898203019</ele>
        <time>2013-07-27T11:32:29Z</time>
      </trkpt>
      <trkpt lat="45.52824" lon="6.69142">
        <ele>1893</ele>
        <time>2013-07-27T11:32:37Z</time>
      </trkpt>
      <trkpt lat="45.52831" lon="6.69155">
        <ele>1892.90899968</ele>
        <time>2013-07-27T11:32:44Z</time>
      </trkpt>
      <trkpt lat="45.5284" lon="6.69165">
        <ele>1892.408</ele>
        <time>2013-07-27T11:32:49Z</time>
      </trkpt>
      <trkpt lat="45.52851" lon="6.69175">
        <ele>1891.9089086178</ele>
        <time>2013-07-27T11:32:54Z</time>
      </trkpt>
      <trkpt lat="45.52871" lon="6.69192">
        <ele>1891</ele>
        <time>2013-07-27T11:33:05Z</time>
      </trkpt>
      <trkpt lat="45.52879" lon="6.69202">
        <ele>1891</ele>
        <time>2013-07-27T11:33:09Z</time>
      </trkpt>
      <trkpt lat="45.52908" lon="6.69228">
        <ele>1887.9900231473</ele>
        <time>2013-07-27T11:33:23Z</time>
      </trkpt>
      <trkpt lat="45.52928" lon="6.6924">
        <ele>1883.4990023147</ele>
        <time>2013-07-27T11:33:32Z</time>
      </trkpt>
      <trkpt lat="45.52938" lon="6.69249">
        <ele>1881.4126984127</ele>
        <time>2013-07-27T11:33:37Z</time>
      </trkpt>
      <trkpt lat="45.52947" lon="6.69255">
        <ele>1879.8253968254</ele>
        <time>2013-07-27T11:33:41Z</time>
      </trkpt>
      <trkpt lat="45.52956" lon="6.69262">
        <ele>1878.4181821943</ele>
        <time>2013-07-27T11:33:45Z</time>
      </trkpt>
      <trkpt lat="45.52967" lon="6.69267">
        <ele>1876.9030316586</ele>
        <time>2013-07-27T11:33:50Z</time>
      </trkpt>
      <trkpt lat="45.52991" lon="6.69282">
        <ele>1873.87000192</ele>
        <time>2013-07-27T11:34:00Z</time>
      </trkpt>
      <trkpt lat="45.52998" lon="6.6929">
        <ele>1872.98000128</ele>
        <time>2013-07-27T11:34:03Z</time>
      </trkpt>
      <trkpt lat="45.53007" lon="6.69299">
        <ele>1872.17799936</ele>
        <time>2013-07-27T11:34:07Z</time>
      </trkpt>
      <trkpt lat="45.53019" lon="6.69309">
        <ele>1870.96000256</ele>
        <time>2013-07-27T11:34:13Z</time>
      </trkpt>
      <trkpt lat="45.53032" lon="6.6932">
        <ele>1868.56000256</ele>
        <time>2013-07-27T11:34:19Z</time>
      </trkpt>
      <trkpt lat="45.5306" lon="6.6933">
        <ele>1863.4970069442</ele>
        <time>2013-07-27T11:34:30Z</time>
      </trkpt>
      <trkpt lat="45.53066" lon="6.69344">
        <ele>1862</ele>
        <time>2013-07-27T11:34:34Z</time>
      </trkpt>
      <trkpt lat="45.5307" lon="6.69359">
        <ele>1862</ele>
        <time>2013-07-27T11:34:38Z</time>
      </trkpt>
      <trkpt lat="45.53073" lon="6.6937">
        <ele>1862</ele>
        <time>2013-07-27T11:34:41Z</time>
      </trkpt>
      <trkpt lat="45.53077" lon="6.69382">
        <ele>1862</ele>
        <time>2013-07-27T11:34:45Z</time>
      </trkpt>
      <trkpt lat="45.53081" lon="6.69401">
        <ele>1862.0019973633</ele>
        <time>2013-07-27T11:34:53Z</time>
      </trkpt>
      <trkpt lat="45.53082" lon="6.69415">
        <ele>1862.6913089123</ele>
        <time>2013-07-27T11:35:00Z</time>
      </trkpt>
      <trkpt lat="45.53081" lon="6.69427">
        <ele>1863.2886907936</ele>
        <time>2013-07-27T11:35:06Z</time>
      </trkpt>
      <trkpt lat="45.531" lon="6.69449">
        <ele>1865.1828175609</ele>
        <time>2013-07-27T11:35:27Z</time>
      </trkpt>
      <trkpt lat="45.53107" lon="6.69453">
        <ele>1864</ele>
        <time>2013-07-27T11:35:33Z</time>
      </trkpt>
      <trkpt lat="45.53114" lon="6.69458">
        <ele>1864</ele>
        <time>2013-07-27T11:35:40Z</time>
      </trkpt>
      <trkpt lat="45.53125" lon="6.69464">
        <ele>1864</ele>
        <time>2013-07-27T11:35:46Z</time>
      </trkpt>
      <trkpt lat="45.53136" lon="6.69469">
        <ele>1864</ele>
        <time>2013-07-27T11:35:52Z</time>
      </trkpt>
      <trkpt lat="45.53161" lon="6.69486">
        <ele>1863.0109022037</ele>
        <time>2013-07-27T11:36:03Z</time>
      </trkpt>
      <trkpt lat="45.53171" lon="6.69494">
        <ele>1862.6093901648</ele>
        <time>2013-07-27T11:36:07Z</time>
      </trkpt>
      <trkpt lat="45.53178" lon="6.69501">
        <ele>1862.3096897693</ele>
        <time>2013-07-27T11:36:10Z</time>
      </trkpt>
      <trkpt lat="45.53185" lon="6.69512">
        <ele>1862.0099893738</ele>
        <time>2013-07-27T11:36:13Z</time>
      </trkpt>
      <trkpt lat="45.53192" lon="6.69519">
        <ele>1861.7073657453</ele>
        <time>2013-07-27T11:36:16Z</time>
      </trkpt>
      <trkpt lat="45.53206" lon="6.6954">
        <ele>1860.8029843751</ele>
        <time>2013-07-27T11:36:24Z</time>
      </trkpt>
      <trkpt lat="45.53214" lon="6.69549">
        <ele>1860.0069642211</ele>
        <time>2013-07-27T11:36:28Z</time>
      </trkpt>
      <trkpt lat="45.53224" lon="6.69555">
        <ele>1859.2109440672</ele>
        <time>2013-07-27T11:36:32Z</time>
      </trkpt>
      <trkpt lat="45.53235" lon="6.69562">
        <ele>1858.2221101597</ele>
        <time>2013-07-27T11:36:37Z</time>
      </trkpt>
      <trkpt lat="45.53245" lon="6.6957">
        <ele>1857.4200997242</ele>
        <time>2013-07-27T11:36:41Z</time>
      </trkpt>
      <trkpt lat="45.53264" lon="6.69589">
        <ele>1855.60199936</ele>
        <time>2013-07-27T11:36:50Z</time>
      </trkpt>
      <trkpt lat="45.53268" lon="6.69592">
        <ele>1855.20199936</ele>
        <time>2013-07-27T11:36:52Z</time>
      </trkpt>
      <trkpt lat="45.53276" lon="6.69599">
        <ele>1854.40199936</ele>
        <time>2013-07-27T11:36:56Z</time>
      </trkpt>
      <trkpt lat="45.53285" lon="6.696">
        <ele>1853</ele>
        <time>2013-07-27T11:37:12Z</time>
      </trkpt>
      <trkpt lat="45.53333" lon="6.69627">
        <ele>1845.4360729232</ele>
        <time>2013-07-27T11:37:32Z</time>
      </trkpt>
      <trkpt lat="45.53342" lon="6.69639">
        <ele>1843.843590767</ele>
        <time>2013-07-27T11:37:37Z</time>
      </trkpt>
      <trkpt lat="45.53351" lon="6.69655">
        <ele>1841.72699904</ele>
        <time>2013-07-27T11:37:44Z</time>
      </trkpt>
      <trkpt lat="45.53358" lon="6.69663">
        <ele>1840.22699904</ele>
        <time>2013-07-27T11:37:49Z</time>
      </trkpt>
      <trkpt lat="45.5338" lon="6.69667">
        <ele>1835.0752487444</ele>
        <time>2013-07-27T11:38:03Z</time>
      </trkpt>
      <trkpt lat="45.53392" lon="6.69671">
        <ele>1833.8101008873</ele>
        <time>2013-07-27T11:38:09Z</time>
      </trkpt>
      <trkpt lat="45.53407" lon="6.69676">
        <ele>1832.40299904</ele>
        <time>2013-07-27T11:38:15Z</time>
      </trkpt>
      <trkpt lat="45.53416" lon="6.69686">
        <ele>1831.20299904</ele>
        <time>2013-07-27T11:38:19Z</time>
      </trkpt>
      <trkpt lat="45.53425" lon="6.69693">
        <ele>1829.6047893941</ele>
        <time>2013-07-27T11:38:24Z</time>
      </trkpt>
      <trkpt lat="45.53443" lon="6.69712">
        <ele>1825.0531072084</ele>
        <time>2013-07-27T11:38:35Z</time>
      </trkpt>
      <trkpt lat="45.53455" lon="6.69723">
        <ele>1821.0450886061</ele>
        <time>2013-07-27T11:38:43Z</time>
      </trkpt>
      <trkpt lat="45.53467" lon="6.69734">
        <ele>1817.81200128</ele>
        <time>2013-07-27T11:38:51Z</time>
      </trkpt>
      <trkpt lat="45.53476" lon="6.69741">
        <ele>1816.0449984</ele>
        <time>2013-07-27T11:38:55Z</time>
      </trkpt>
      <trkpt lat="45.53486" lon="6.69746">
        <ele>1814.0449984</ele>
        <time>2013-07-27T11:38:59Z</time>
      </trkpt>
      <trkpt lat="45.53519" lon="6.69759">
        <ele>1812</ele>
        <time>2013-07-27T11:39:13Z</time>
      </trkpt>
      <trkpt lat="45.53525" lon="6.69775">
        <ele>1811.0039920134</ele>
        <time>2013-07-27T11:39:18Z</time>
      </trkpt>
      <trkpt lat="45.53533" lon="6.69792">
        <ele>1809.13300096</ele>
        <time>2013-07-27T11:39:26Z</time>
      </trkpt>
      <trkpt lat="45.53543" lon="6.69795">
        <ele>1806.4388773957</ele>
        <time>2013-07-27T11:39:34Z</time>
      </trkpt>
      <trkpt lat="45.53552" lon="6.69803">
        <ele>1802.9318700966</ele>
        <time>2013-07-27T11:39:39Z</time>
      </trkpt>
      <trkpt lat="45.53593" lon="6.69834">
        <ele>1792.4900032</ele>
        <time>2013-07-27T11:40:06Z</time>
      </trkpt>
      <trkpt lat="45.53603" lon="6.69841">
        <ele>1789.4900032</ele>
        <time>2013-07-27T11:40:12Z</time>
      </trkpt>
      <trkpt lat="45.53612" lon="6.6985">
        <ele>1786.96</ele>
        <time>2013-07-27T11:40:17Z</time>
      </trkpt>
      <trkpt lat="45.5363" lon="6.69859">
        <ele>1781.4550913885</ele>
        <time>2013-07-27T11:40:28Z</time>
      </trkpt>
      <trkpt lat="45.53641" lon="6.69874">
        <ele>1779</ele>
        <time>2013-07-27T11:40:33Z</time>
      </trkpt>
      <trkpt lat="45.53645" lon="6.69895">
        <ele>1776.4949915864</ele>
        <time>2013-07-27T11:40:38Z</time>
      </trkpt>
      <trkpt lat="45.5365" lon="6.69917">
        <ele>1773.7152875014</ele>
        <time>2013-07-27T11:40:44Z</time>
      </trkpt>
      <trkpt lat="45.53655" lon="6.69938">
        <ele>1772.2167816877</ele>
        <time>2013-07-27T11:40:49Z</time>
      </trkpt>
      <trkpt lat="45.53663" lon="6.69959">
        <ele>1770.5975983671</ele>
        <time>2013-07-27T11:40:55Z</time>
      </trkpt>
      <trkpt lat="45.53666" lon="6.69964">
        <ele>1770.197198095</ele>
        <time>2013-07-27T11:40:57Z</time>
      </trkpt>
      <trkpt lat="45.53669" lon="6.69968">
        <ele>1769.7967978229</ele>
        <time>2013-07-27T11:40:59Z</time>
      </trkpt>
      <trkpt lat="45.53672" lon="6.69971">
        <ele>1769.3963975507</ele>
        <time>2013-07-27T11:41:01Z</time>
      </trkpt>
      <trkpt lat="45.53676" lon="6.69974">
        <ele>1768.98000128</ele>
        <time>2013-07-27T11:41:03Z</time>
      </trkpt>
      <trkpt lat="45.53683" lon="6.69996">
        <ele>1767.78000128</ele>
        <time>2013-07-27T11:41:09Z</time>
      </trkpt>
      <trkpt lat="45.53686" lon="6.70007">
        <ele>1767.18000128</ele>
        <time>2013-07-27T11:41:12Z</time>
      </trkpt>
      <trkpt lat="45.53686" lon="6.70021">
        <ele>1766.38000128</ele>
        <time>2013-07-27T11:41:16Z</time>
      </trkpt>
      <trkpt lat="45.53687" lon="6.70038">
        <ele>1765.38000128</ele>
        <time>2013-07-27T11:41:21Z</time>
      </trkpt>
      <trkpt lat="45.53688" lon="6.70052">
        <ele>1765</ele>
        <time>2013-07-27T11:41:25Z</time>
      </trkpt>
      <trkpt lat="45.53697" lon="6.70075">
        <ele>1764.6034313289</ele>
        <time>2013-07-27T11:41:37Z</time>
      </trkpt>
      <trkpt lat="45.53726" lon="6.70096">
        <ele>1759.19200256</ele>
        <time>2013-07-27T11:42:00Z</time>
      </trkpt>
      <trkpt lat="45.53741" lon="6.70092">
        <ele>1757.1873151833</ele>
        <time>2013-07-27T11:42:07Z</time>
      </trkpt>
      <trkpt lat="45.53765" lon="6.7009">
        <ele>1755.6104952216</ele>
        <time>2013-07-27T11:42:15Z</time>
      </trkpt>
      <trkpt lat="45.53775" lon="6.70093">
        <ele>1754.8032300938</ele>
        <time>2013-07-27T11:42:19Z</time>
      </trkpt>
      <trkpt lat="45.53784" lon="6.70101">
        <ele>1753.9820365554</ele>
        <time>2013-07-27T11:42:23Z</time>
      </trkpt>
      <trkpt lat="45.53793" lon="6.70108">
        <ele>1753.1856282224</ele>
        <time>2013-07-27T11:42:27Z</time>
      </trkpt>
      <trkpt lat="45.53803" lon="6.70114">
        <ele>1752.3872245188</ele>
        <time>2013-07-27T11:42:31Z</time>
      </trkpt>
      <trkpt lat="45.53826" lon="6.70131">
        <ele>1748.99200256</ele>
        <time>2013-07-27T11:42:43Z</time>
      </trkpt>
      <trkpt lat="45.53837" lon="6.70127">
        <ele>1746.19200256</ele>
        <time>2013-07-27T11:42:50Z</time>
      </trkpt>
      <trkpt lat="45.5385" lon="6.70115">
        <ele>1740.18400512</ele>
        <time>2013-07-27T11:42:59Z</time>
      </trkpt>
      <trkpt lat="45.5386" lon="6.70121">
        <ele>1736.37000192</ele>
        <time>2013-07-27T11:43:05Z</time>
      </trkpt>
      <trkpt lat="45.53866" lon="6.7013">
        <ele>1735.17000192</ele>
        <time>2013-07-27T11:43:09Z</time>
      </trkpt>
      <trkpt lat="45.53882" lon="6.70144">
        <ele>1732.77000192</ele>
        <time>2013-07-27T11:43:17Z</time>
      </trkpt>
      <trkpt lat="45.53887" lon="6.70156">
        <ele>1731.57000192</ele>
        <time>2013-07-27T11:43:21Z</time>
      </trkpt>
      <trkpt lat="45.53892" lon="6.70175">
        <ele>1728.4550913885</ele>
        <time>2013-07-27T11:43:28Z</time>
      </trkpt>
      <trkpt lat="45.53893" lon="6.70198">
        <ele>1725.6272560306</ele>
        <time>2013-07-27T11:43:34Z</time>
      </trkpt>
      <trkpt lat="45.5389" lon="6.70224">
        <ele>1722.8176347462</ele>
        <time>2013-07-27T11:43:41Z</time>
      </trkpt>
      <trkpt lat="45.53882" lon="6.70274">
        <ele>1713.39200256</ele>
        <time>2013-07-27T11:43:57Z</time>
      </trkpt>
      <trkpt lat="45.53873" lon="6.70301">
        <ele>1710.4455552274</ele>
        <time>2013-07-27T11:44:05Z</time>
      </trkpt>
      <trkpt lat="45.53846" lon="6.70364">
        <ele>1701.4182341069</ele>
        <time>2013-07-27T11:44:27Z</time>
      </trkpt>
      <trkpt lat="45.5383" lon="6.70405">
        <ele>1696.6326930752</ele>
        <time>2013-07-27T11:44:41Z</time>
      </trkpt>
      <trkpt lat="45.53826" lon="6.70423">
        <ele>1695.20199936</ele>
        <time>2013-07-27T11:44:47Z</time>
      </trkpt>
      <trkpt lat="45.53825" lon="6.70445">
        <ele>1693.0609617498</ele>
        <time>2013-07-27T11:44:55Z</time>
      </trkpt>
      <trkpt lat="45.53824" lon="6.70467">
        <ele>1689.1278238357</ele>
        <time>2013-07-27T11:45:03Z</time>
      </trkpt>
      <trkpt lat="45.53818" lon="6.70483">
        <ele>1689.4928713692</ele>
        <time>2013-07-27T11:45:08Z</time>
      </trkpt>
      <trkpt lat="45.53803" lon="6.70517">
        <ele>1689.09000064</ele>
        <time>2013-07-27T11:45:22Z</time>
      </trkpt>
      <trkpt lat="45.53808" lon="6.70514">
        <ele>1687.7869173556</ele>
        <time>2013-07-27T11:45:27Z</time>
      </trkpt>
      <trkpt lat="45.53812" lon="6.70513">
        <ele>1687.1922690005</ele>
        <time>2013-07-27T11:45:29Z</time>
      </trkpt>
      <trkpt lat="45.53816" lon="6.70512">
        <ele>1686.5976206454</ele>
        <time>2013-07-27T11:45:31Z</time>
      </trkpt>
      <trkpt lat="45.53826" lon="6.7051">
        <ele>1685.6104952216</ele>
        <time>2013-07-27T11:45:35Z</time>
      </trkpt>
      <trkpt lat="45.53838" lon="6.70509">
        <ele>1684.6014138119</ele>
        <time>2013-07-27T11:45:40Z</time>
      </trkpt>
      <trkpt lat="45.53847" lon="6.70512">
        <ele>1683.69400192</ele>
        <time>2013-07-27T11:45:44Z</time>
      </trkpt>
      <trkpt lat="45.53859" lon="6.70511">
        <ele>1681.89400192</ele>
        <time>2013-07-27T11:45:50Z</time>
      </trkpt>
      <trkpt lat="45.5387" lon="6.70512">
        <ele>1680.58000128</ele>
        <time>2013-07-27T11:45:55Z</time>
      </trkpt>
      <trkpt lat="45.53879" lon="6.7051">
        <ele>1679.98000128</ele>
        <time>2013-07-27T11:45:58Z</time>
      </trkpt>
      <trkpt lat="45.53898" lon="6.70509">
        <ele>1678.38000128</ele>
        <time>2013-07-27T11:46:06Z</time>
      </trkpt>
      <trkpt lat="45.53907" lon="6.70512">
        <ele>1677.58000128</ele>
        <time>2013-07-27T11:46:10Z</time>
      </trkpt>
      <trkpt lat="45.53916" lon="6.70517">
        <ele>1676.5928166661</ele>
        <time>2013-07-27T11:46:14Z</time>
      </trkpt>
      <trkpt lat="45.53953" lon="6.70524">
        <ele>1670.6</ele>
        <time>2013-07-27T11:46:31Z</time>
      </trkpt>
      <trkpt lat="45.53964" lon="6.70527">
        <ele>1668.7975959615</ele>
        <time>2013-07-27T11:46:36Z</time>
      </trkpt>
      <trkpt lat="45.53978" lon="6.70532">
        <ele>1665.99200256</ele>
        <time>2013-07-27T11:46:43Z</time>
      </trkpt>
      <trkpt lat="45.53991" lon="6.70538">
        <ele>1663.19200256</ele>
        <time>2013-07-27T11:46:50Z</time>
      </trkpt>
      <trkpt lat="45.54006" lon="6.70545">
        <ele>1661.076</ele>
        <time>2013-07-27T11:46:56Z</time>
      </trkpt>
      <trkpt lat="45.54025" lon="6.70571">
        <ele>1657.9900032</ele>
        <time>2013-07-27T11:47:05Z</time>
      </trkpt>
      <trkpt lat="45.5403" lon="6.70585">
        <ele>1655.9900032</ele>
        <time>2013-07-27T11:47:09Z</time>
      </trkpt>
      <trkpt lat="45.5404" lon="6.70595">
        <ele>1653.07000192</ele>
        <time>2013-07-27T11:47:16Z</time>
      </trkpt>
      <trkpt lat="45.5405" lon="6.70596">
        <ele>1651.57000192</ele>
        <time>2013-07-27T11:47:21Z</time>
      </trkpt>
      <trkpt lat="45.54061" lon="6.70595">
        <ele>1650.1167687772</ele>
        <time>2013-07-27T11:47:26Z</time>
      </trkpt>
      <trkpt lat="45.54085" lon="6.70597">
        <ele>1646.7975959615</ele>
        <time>2013-07-27T11:47:39Z</time>
      </trkpt>
      <trkpt lat="45.54095" lon="6.7061">
        <ele>1645.3994070642</ele>
        <time>2013-07-27T11:47:45Z</time>
      </trkpt>
      <trkpt lat="45.54107" lon="6.70616">
        <ele>1643.615461999</ele>
        <time>2013-07-27T11:47:51Z</time>
      </trkpt>
      <trkpt lat="45.54116" lon="6.7063">
        <ele>1641.8870967742</ele>
        <time>2013-07-27T11:47:56Z</time>
      </trkpt>
      <trkpt lat="45.54127" lon="6.70641">
        <ele>1639.4677419355</ele>
        <time>2013-07-27T11:48:02Z</time>
      </trkpt>
      <trkpt lat="45.54158" lon="6.70676">
        <ele>1633.60399872</ele>
        <time>2013-07-27T11:48:19Z</time>
      </trkpt>
      <trkpt lat="45.54172" lon="6.70692">
        <ele>1630.5464540408</ele>
        <time>2013-07-27T11:48:28Z</time>
      </trkpt>
      <trkpt lat="45.54161" lon="6.70673">
        <ele>1625.3927878844</ele>
        <time>2013-07-27T11:48:42Z</time>
      </trkpt>
      <trkpt lat="45.54153" lon="6.70647">
        <ele>1622.27000192</ele>
        <time>2013-07-27T11:48:52Z</time>
      </trkpt>
      <trkpt lat="45.54205" lon="6.70634">
        <ele>1610.98000128</ele>
        <time>2013-07-27T11:49:18Z</time>
      </trkpt>
      <trkpt lat="45.54218" lon="6.70637">
        <ele>1609.9940138884</ele>
        <time>2013-07-27T11:49:23Z</time>
      </trkpt>
      <trkpt lat="45.54224" lon="6.70659">
        <ele>1607.8982041665</ele>
        <time>2013-07-27T11:49:30Z</time>
      </trkpt>
      <trkpt lat="45.54227" lon="6.70685">
        <ele>1604.9979986393</ele>
        <time>2013-07-27T11:49:37Z</time>
      </trkpt>
      <trkpt lat="45.54228" lon="6.70738">
        <ele>1598.4</ele>
        <time>2013-07-27T11:49:55Z</time>
      </trkpt>
      <trkpt lat="45.54227" lon="6.70765">
        <ele>1595.9940138884</ele>
        <time>2013-07-27T11:50:03Z</time>
      </trkpt>
      <trkpt lat="45.54227" lon="6.70792">
        <ele>1593.8982041665</ele>
        <time>2013-07-27T11:50:10Z</time>
      </trkpt>
      <trkpt lat="45.54231" lon="6.70813">
        <ele>1592.3987979807</ele>
        <time>2013-07-27T11:50:16Z</time>
      </trkpt>
      <trkpt lat="45.54237" lon="6.70831">
        <ele>1590.9960092589</ele>
        <time>2013-07-27T11:50:23Z</time>
      </trkpt>
      <trkpt lat="45.54229" lon="6.70877">
        <ele>1586.6166839748</ele>
        <time>2013-07-27T11:50:41Z</time>
      </trkpt>
      <trkpt lat="45.54226" lon="6.709">
        <ele>1579.5983901196</ele>
        <time>2013-07-27T11:50:51Z</time>
      </trkpt>
      <trkpt lat="45.54243" lon="6.70885">
        <ele>1564.89400192</ele>
        <time>2013-07-27T11:51:20Z</time>
      </trkpt>
      <trkpt lat="45.5426" lon="6.70885">
        <ele>1563.6986032406</ele>
        <time>2013-07-27T11:51:26Z</time>
      </trkpt>
      <trkpt lat="45.54272" lon="6.70879">
        <ele>1563</ele>
        <time>2013-07-27T11:51:34Z</time>
      </trkpt>
      <trkpt lat="45.54295" lon="6.70874">
        <ele>1563.80199936</ele>
        <time>2013-07-27T11:51:51Z</time>
      </trkpt>
      <trkpt lat="45.54302" lon="6.70872">
        <ele>1564.61999872</ele>
        <time>2013-07-27T11:51:56Z</time>
      </trkpt>
      <trkpt lat="45.54309" lon="6.70871">
        <ele>1565.41999872</ele>
        <time>2013-07-27T11:52:00Z</time>
      </trkpt>
      <trkpt lat="45.54316" lon="6.70872">
        <ele>1566</ele>
        <time>2013-07-27T11:52:04Z</time>
      </trkpt>
      <trkpt lat="45.54325" lon="6.70877">
        <ele>1566</ele>
        <time>2013-07-27T11:52:10Z</time>
      </trkpt>
      <trkpt lat="45.54361" lon="6.70909">
        <ele>1568</ele>
        <time>2013-07-27T11:52:35Z</time>
      </trkpt>
      <trkpt lat="45.54365" lon="6.70923">
        <ele>1568</ele>
        <time>2013-07-27T11:52:40Z</time>
      </trkpt>
      <trkpt lat="45.54369" lon="6.70938">
        <ele>1568.2817460317</ele>
        <time>2013-07-27T11:52:46Z</time>
      </trkpt>
      <trkpt lat="45.54385" lon="6.70964">
        <ele>1569</ele>
        <time>2013-07-27T11:53:01Z</time>
      </trkpt>
      <trkpt lat="45.54395" lon="6.70961">
        <ele>1569.51099904</ele>
        <time>2013-07-27T11:53:08Z</time>
      </trkpt>
      <trkpt lat="45.54404" lon="6.70953">
        <ele>1570.18999808</ele>
        <time>2013-07-27T11:53:14Z</time>
      </trkpt>
      <trkpt lat="45.54413" lon="6.70948">
        <ele>1571.59000064</ele>
        <time>2013-07-27T11:53:21Z</time>
      </trkpt>
      <trkpt lat="45.54425" lon="6.70942">
        <ele>1572</ele>
        <time>2013-07-27T11:53:28Z</time>
      </trkpt>
      <trkpt lat="45.54445" lon="6.70934">
        <ele>1572</ele>
        <time>2013-07-27T11:53:39Z</time>
      </trkpt>
      <trkpt lat="45.54458" lon="6.70935">
        <ele>1572</ele>
        <time>2013-07-27T11:53:45Z</time>
      </trkpt>
      <trkpt lat="45.54471" lon="6.70939">
        <ele>1572</ele>
        <time>2013-07-27T11:53:50Z</time>
      </trkpt>
      <trkpt lat="45.54489" lon="6.70951">
        <ele>1571.6041663492</ele>
        <time>2013-07-27T11:53:57Z</time>
      </trkpt>
      <trkpt lat="45.54506" lon="6.70963">
        <ele>1571.008928254</ele>
        <time>2013-07-27T11:54:03Z</time>
      </trkpt>
      <trkpt lat="45.54531" lon="6.70992">
        <ele>1569.4495987097</ele>
        <time>2013-07-27T11:54:15Z</time>
      </trkpt>
      <trkpt lat="45.54542" lon="6.70994">
        <ele>1567.3326593548</ele>
        <time>2013-07-27T11:54:22Z</time>
      </trkpt>
      <trkpt lat="45.54549" lon="6.7099">
        <ele>1565.7104209766</ele>
        <time>2013-07-27T11:54:36Z</time>
      </trkpt>
      <trkpt lat="45.54555" lon="6.70985">
        <ele>1561.4206349206</ele>
        <time>2013-07-27T11:56:09Z</time>
      </trkpt>
      <trkpt lat="45.54555" lon="6.70976">
        <ele>1560.8078468843</ele>
        <time>2013-07-27T11:56:15Z</time>
      </trkpt>
      <trkpt lat="45.54555" lon="6.70956">
        <ele>1559.31100032</ele>
        <time>2013-07-27T11:56:30Z</time>
      </trkpt>
      <trkpt lat="45.54579" lon="6.70938">
        <ele>1556</ele>
        <time>2013-07-27T11:57:12Z</time>
      </trkpt>
      <trkpt lat="45.54592" lon="6.7094">
        <ele>1554.4182341069</ele>
        <time>2013-07-27T11:57:17Z</time>
      </trkpt>
      <trkpt lat="45.54621" lon="6.7095">
        <ele>1550.03999744</ele>
        <time>2013-07-27T11:57:28Z</time>
      </trkpt>
      <trkpt lat="45.54637" lon="6.70958">
        <ele>1547.8345093572</ele>
        <time>2013-07-27T11:57:34Z</time>
      </trkpt>
      <trkpt lat="45.54647" lon="6.7097">
        <ele>1546.8254279474</ele>
        <time>2013-07-27T11:57:39Z</time>
      </trkpt>
      <trkpt lat="45.54656" lon="6.70986">
        <ele>1545.70299904</ele>
        <time>2013-07-27T11:57:44Z</time>
      </trkpt>
      <trkpt lat="45.54659" lon="6.70998">
        <ele>1544.80299904</ele>
        <time>2013-07-27T11:57:47Z</time>
      </trkpt>
      <trkpt lat="45.54642" lon="6.71044">
        <ele>1539.08</ele>
        <time>2013-07-27T11:58:01Z</time>
      </trkpt>
      <trkpt lat="45.54648" lon="6.71063">
        <ele>1537</ele>
        <time>2013-07-27T11:58:13Z</time>
      </trkpt>
      <trkpt lat="45.54662" lon="6.71059">
        <ele>1535.1157266498</ele>
        <time>2013-07-27T11:58:20Z</time>
      </trkpt>
      <trkpt lat="45.54675" lon="6.71054">
        <ele>1534.0474777298</ele>
        <time>2013-07-27T11:58:23Z</time>
      </trkpt>
      <trkpt lat="45.54689" lon="6.71049">
        <ele>1532.0385011425</ele>
        <time>2013-07-27T11:58:28Z</time>
      </trkpt>
      <trkpt lat="45.54712" lon="6.71081">
        <ele>1528.8276564827</ele>
        <time>2013-07-27T11:58:37Z</time>
      </trkpt>
      <trkpt lat="45.54713" lon="6.71104">
        <ele>1527.3276545588</ele>
        <time>2013-07-27T11:58:42Z</time>
      </trkpt>
      <trkpt lat="45.54711" lon="6.71126">
        <ele>1527.49900032</ele>
        <time>2013-07-27T11:58:48Z</time>
      </trkpt>
      <trkpt lat="45.54709" lon="6.7115">
        <ele>1527.58</ele>
        <time>2013-07-27T11:58:54Z</time>
      </trkpt>
      <trkpt lat="45.54712" lon="6.7117">
        <ele>1525.08</ele>
        <time>2013-07-27T11:58:59Z</time>
      </trkpt>
      <trkpt lat="45.54721" lon="6.7121">
        <ele>1523</ele>
        <time>2013-07-27T11:59:11Z</time>
      </trkpt>
      <trkpt lat="45.54716" lon="6.71235">
        <ele>1520.0490979072</ele>
        <time>2013-07-27T11:59:19Z</time>
      </trkpt>
      <trkpt lat="45.54723" lon="6.71289">
        <ele>1516.8018012247</ele>
        <time>2013-07-27T12:00:11Z</time>
      </trkpt>
      <trkpt lat="45.54749" lon="6.71306">
        <ele>1517</ele>
        <time>2013-07-27T12:00:23Z</time>
      </trkpt>
      <trkpt lat="45.54762" lon="6.71315">
        <ele>1517</ele>
        <time>2013-07-27T12:00:29Z</time>
      </trkpt>
      <trkpt lat="45.5477" lon="6.71325">
        <ele>1517</ele>
        <time>2013-07-27T12:00:34Z</time>
      </trkpt>
      <trkpt lat="45.5478" lon="6.71336">
        <ele>1517</ele>
        <time>2013-07-27T12:00:41Z</time>
      </trkpt>
      <trkpt lat="45.54787" lon="6.71349">
        <ele>1517.70199936</ele>
        <time>2013-07-27T12:00:50Z</time>
      </trkpt>
      <trkpt lat="45.54807" lon="6.71372">
        <ele>1520</ele>
        <time>2013-07-27T12:01:06Z</time>
      </trkpt>
      <trkpt lat="45.54819" lon="6.71383">
        <ele>1520</ele>
        <time>2013-07-27T12:01:12Z</time>
      </trkpt>
      <trkpt lat="45.54831" lon="6.71402">
        <ele>1519.49000064</ele>
        <time>2013-07-27T12:01:18Z</time>
      </trkpt>
      <trkpt lat="45.54831" lon="6.71432">
        <ele>1519</ele>
        <time>2013-07-27T12:01:25Z</time>
      </trkpt>
      <trkpt lat="45.54823" lon="6.71457">
        <ele>1519</ele>
        <time>2013-07-27T12:01:32Z</time>
      </trkpt>
      <trkpt lat="45.54841" lon="6.71487">
        <ele>1519.5972215873</ele>
        <time>2013-07-27T12:01:49Z</time>
      </trkpt>
      <trkpt lat="45.54853" lon="6.71503">
        <ele>1519.6058829804</ele>
        <time>2013-07-27T12:01:57Z</time>
      </trkpt>
      <trkpt lat="45.54865" lon="6.71517">
        <ele>1519</ele>
        <time>2013-07-27T12:02:03Z</time>
      </trkpt>
      <trkpt lat="45.54874" lon="6.71533">
        <ele>1519</ele>
        <time>2013-07-27T12:02:09Z</time>
      </trkpt>
      <trkpt lat="45.54888" lon="6.7154">
        <ele>1519</ele>
        <time>2013-07-27T12:02:15Z</time>
      </trkpt>
      <trkpt lat="45.54912" lon="6.71548">
        <ele>1519</ele>
        <time>2013-07-27T12:02:31Z</time>
      </trkpt>
      <trkpt lat="45.54925" lon="6.71557">
        <ele>1519.6842628644</ele>
        <time>2013-07-27T12:02:40Z</time>
      </trkpt>
      <trkpt lat="45.54934" lon="6.71561">
        <ele>1520.2900613127</ele>
        <time>2013-07-27T12:02:46Z</time>
      </trkpt>
      <trkpt lat="45.54955" lon="6.71608">
        <ele>1523</ele>
        <time>2013-07-27T12:03:10Z</time>
      </trkpt>
      <trkpt lat="45.54956" lon="6.71627">
        <ele>1523</ele>
        <time>2013-07-27T12:03:19Z</time>
      </trkpt>
      <trkpt lat="45.54958" lon="6.71646">
        <ele>1523.9960079866</ele>
        <time>2013-07-27T12:03:28Z</time>
      </trkpt>
      <trkpt lat="45.5496" lon="6.71662">
        <ele>1525</ele>
        <time>2013-07-27T12:03:36Z</time>
      </trkpt>
      <trkpt lat="45.54964" lon="6.71678">
        <ele>1524.916</ele>
        <time>2013-07-27T12:03:44Z</time>
      </trkpt>
      <trkpt lat="45.54975" lon="6.71698">
        <ele>1523.7007004762</ele>
        <time>2013-07-27T12:03:56Z</time>
      </trkpt>
      <trkpt lat="45.54981" lon="6.71708">
        <ele>1523.100100068</ele>
        <time>2013-07-27T12:04:02Z</time>
      </trkpt>
      <trkpt lat="45.54987" lon="6.71717">
        <ele>1523.4915086486</ele>
        <time>2013-07-27T12:04:08Z</time>
      </trkpt>
      <trkpt lat="45.5499" lon="6.71722">
        <ele>1523.7912090441</ele>
        <time>2013-07-27T12:04:11Z</time>
      </trkpt>
      <trkpt lat="45.54993" lon="6.71728">
        <ele>1524.5964047461</ele>
        <time>2013-07-27T12:04:15Z</time>
      </trkpt>
      <trkpt lat="45.54993" lon="6.71759">
        <ele>1529.9439519113</ele>
        <time>2013-07-27T12:04:33Z</time>
      </trkpt>
      <trkpt lat="45.54995" lon="6.71777">
        <ele>1530</ele>
        <time>2013-07-27T12:04:42Z</time>
      </trkpt>
      <trkpt lat="45.54998" lon="6.71793">
        <ele>1530</ele>
        <time>2013-07-27T12:04:47Z</time>
      </trkpt>
      <trkpt lat="45.55003" lon="6.71812">
        <ele>1530</ele>
        <time>2013-07-27T12:04:53Z</time>
      </trkpt>
      <trkpt lat="45.5501" lon="6.71825">
        <ele>1530</ele>
        <time>2013-07-27T12:04:58Z</time>
      </trkpt>
      <trkpt lat="45.55022" lon="6.71852">
        <ele>1529.59800064</ele>
        <time>2013-07-27T12:05:07Z</time>
      </trkpt>
      <trkpt lat="45.55024" lon="6.71871">
        <ele>1529.09800064</ele>
        <time>2013-07-27T12:05:12Z</time>
      </trkpt>
      <trkpt lat="45.55023" lon="6.71886">
        <ele>1528.4019810864</ele>
        <time>2013-07-27T12:05:16Z</time>
      </trkpt>
      <trkpt lat="45.5502" lon="6.71902">
        <ele>1527.4118814491</ele>
        <time>2013-07-27T12:05:21Z</time>
      </trkpt>
      <trkpt lat="45.55014" lon="6.71989">
        <ele>1525.79800064</ele>
        <time>2013-07-27T12:05:45Z</time>
      </trkpt>
      <trkpt lat="45.55022" lon="6.72003">
        <ele>1525.09800064</ele>
        <time>2013-07-27T12:05:52Z</time>
      </trkpt>
      <trkpt lat="45.55032" lon="6.72009">
        <ele>1524.384</ele>
        <time>2013-07-27T12:05:56Z</time>
      </trkpt>
      <trkpt lat="45.5504" lon="6.72016">
        <ele>1523.584</ele>
        <time>2013-07-27T12:06:00Z</time>
      </trkpt>
      <trkpt lat="45.55057" lon="6.72048">
        <ele>1518.96000256</ele>
        <time>2013-07-27T12:06:18Z</time>
      </trkpt>
      <trkpt lat="45.55067" lon="6.72046">
        <ele>1516.9900231473</ele>
        <time>2013-07-27T12:06:23Z</time>
      </trkpt>
      <trkpt lat="45.55071" lon="6.72033">
        <ele>1512</ele>
        <time>2013-07-27T12:06:33Z</time>
      </trkpt>
      <trkpt lat="45.5508" lon="6.72038">
        <ele>1510.4248468618</ele>
        <time>2013-07-27T12:06:37Z</time>
      </trkpt>
      <trkpt lat="45.55087" lon="6.72047">
        <ele>1508.8216414771</ele>
        <time>2013-07-27T12:06:41Z</time>
      </trkpt>
      <trkpt lat="45.55103" lon="6.72074">
        <ele>1507.09000064</ele>
        <time>2013-07-27T12:06:52Z</time>
      </trkpt>
      <trkpt lat="45.55108" lon="6.72096">
        <ele>1505.47000192</ele>
        <time>2013-07-27T12:06:58Z</time>
      </trkpt>
      <trkpt lat="45.55111" lon="6.72115">
        <ele>1504</ele>
        <time>2013-07-27T12:07:03Z</time>
      </trkpt>
      <trkpt lat="45.55115" lon="6.72136">
        <ele>1502.80999936</ele>
        <time>2013-07-27T12:07:09Z</time>
      </trkpt>
      <trkpt lat="45.55117" lon="6.7216">
        <ele>1501.78000128</ele>
        <time>2013-07-27T12:07:14Z</time>
      </trkpt>
      <trkpt lat="45.5513" lon="6.72193">
        <ele>1500</ele>
        <time>2013-07-27T12:07:26Z</time>
      </trkpt>
      <trkpt lat="45.55141" lon="6.72208">
        <ele>1500</ele>
        <time>2013-07-27T12:07:33Z</time>
      </trkpt>
      <trkpt lat="45.55148" lon="6.72224">
        <ele>1500</ele>
        <time>2013-07-27T12:07:39Z</time>
      </trkpt>
      <trkpt lat="45.55157" lon="6.72244">
        <ele>1499.8052476108</ele>
        <time>2013-07-27T12:07:45Z</time>
      </trkpt>
      <trkpt lat="45.55166" lon="6.72268">
        <ele>1499.098890624</ele>
        <time>2013-07-27T12:07:52Z</time>
      </trkpt>
      <trkpt lat="45.55193" lon="6.72373">
        <ele>1495.1963939422</ele>
        <time>2013-07-27T12:08:22Z</time>
      </trkpt>
      <trkpt lat="45.552" lon="6.724">
        <ele>1493.5828347036</ele>
        <time>2013-07-27T12:08:30Z</time>
      </trkpt>
      <trkpt lat="45.55207" lon="6.72422">
        <ele>1492.1983973076</ele>
        <time>2013-07-27T12:08:37Z</time>
      </trkpt>
      <trkpt lat="45.55212" lon="6.7247">
        <ele>1490.19800064</ele>
        <time>2013-07-27T12:08:51Z</time>
      </trkpt>
      <trkpt lat="45.55211" lon="6.72488">
        <ele>1488.76000256</ele>
        <time>2013-07-27T12:08:56Z</time>
      </trkpt>
      <trkpt lat="45.55215" lon="6.72512">
        <ele>1485.98000128</ele>
        <time>2013-07-27T12:09:03Z</time>
      </trkpt>
      <trkpt lat="45.55222" lon="6.72531">
        <ele>1484.78000128</ele>
        <time>2013-07-27T12:09:09Z</time>
      </trkpt>
      <trkpt lat="45.55229" lon="6.72549">
        <ele>1483.79800064</ele>
        <time>2013-07-27T12:09:15Z</time>
      </trkpt>
      <trkpt lat="45.55242" lon="6.72582">
        <ele>1482.5908187406</ele>
        <time>2013-07-27T12:09:27Z</time>
      </trkpt>
      <trkpt lat="45.55243" lon="6.72599">
        <ele>1482</ele>
        <time>2013-07-27T12:09:33Z</time>
      </trkpt>
      <trkpt lat="45.55252" lon="6.72593">
        <ele>1477.4859764419</ele>
        <time>2013-07-27T12:09:42Z</time>
      </trkpt>
      <trkpt lat="45.55259" lon="6.72584">
        <ele>1475.4500032</ele>
        <time>2013-07-27T12:09:46Z</time>
      </trkpt>
      <trkpt lat="45.55268" lon="6.72578">
        <ele>1473.4500032</ele>
        <time>2013-07-27T12:09:50Z</time>
      </trkpt>
      <trkpt lat="45.55284" lon="6.72583">
        <ele>1467.924079736</ele>
        <time>2013-07-27T12:09:58Z</time>
      </trkpt>
      <trkpt lat="45.55295" lon="6.72594">
        <ele>1463.63599872</ele>
        <time>2013-07-27T12:10:04Z</time>
      </trkpt>
      <trkpt lat="45.55307" lon="6.72601">
        <ele>1461.23599872</ele>
        <time>2013-07-27T12:10:10Z</time>
      </trkpt>
      <trkpt lat="45.55315" lon="6.72601">
        <ele>1459.63599872</ele>
        <time>2013-07-27T12:10:14Z</time>
      </trkpt>
      <trkpt lat="45.55324" lon="6.72606">
        <ele>1457.63599872</ele>
        <time>2013-07-27T12:10:19Z</time>
      </trkpt>
      <trkpt lat="45.55343" lon="6.72609">
        <ele>1452.1264822134</ele>
        <time>2013-07-27T12:10:31Z</time>
      </trkpt>
      <trkpt lat="45.55355" lon="6.72654">
        <ele>1448.07000192</ele>
        <time>2013-07-27T12:10:56Z</time>
      </trkpt>
      <trkpt lat="45.55357" lon="6.72673">
        <ele>1446.27000192</ele>
        <time>2013-07-27T12:11:02Z</time>
      </trkpt>
      <trkpt lat="45.55372" lon="6.72684">
        <ele>1443.16000256</ele>
        <time>2013-07-27T12:11:10Z</time>
      </trkpt>
      <trkpt lat="45.55376" lon="6.72699">
        <ele>1439.58400512</ele>
        <time>2013-07-27T12:11:16Z</time>
      </trkpt>
      <trkpt lat="45.55382" lon="6.72714">
        <ele>1434</ele>
        <time>2013-07-27T12:11:23Z</time>
      </trkpt>
      <trkpt lat="45.5539" lon="6.72724">
        <ele>1429.8383264436</ele>
        <time>2013-07-27T12:11:30Z</time>
      </trkpt>
      <trkpt lat="45.554" lon="6.72739">
        <ele>1425.1943905767</ele>
        <time>2013-07-27T12:11:40Z</time>
      </trkpt>
      <trkpt lat="45.55402" lon="6.72781">
        <ele>1421</ele>
        <time>2013-07-27T12:11:53Z</time>
      </trkpt>
      <trkpt lat="45.55401" lon="6.72805">
        <ele>1419.2185607783</ele>
        <time>2013-07-27T12:11:59Z</time>
      </trkpt>
      <trkpt lat="45.55403" lon="6.72829">
        <ele>1417.7995993269</ele>
        <time>2013-07-27T12:12:05Z</time>
      </trkpt>
      <trkpt lat="45.55407" lon="6.72851">
        <ele>1417.1983973076</ele>
        <time>2013-07-27T12:12:11Z</time>
      </trkpt>
      <trkpt lat="45.55409" lon="6.72874">
        <ele>1416.19600128</ele>
        <time>2013-07-27T12:12:17Z</time>
      </trkpt>
      <trkpt lat="45.55426" lon="6.72906">
        <ele>1413.7824356295</ele>
        <time>2013-07-27T12:12:29Z</time>
      </trkpt>
      <trkpt lat="45.55436" lon="6.72917">
        <ele>1412.7995993269</ele>
        <time>2013-07-27T12:12:34Z</time>
      </trkpt>
      <trkpt lat="45.55446" lon="6.72929">
        <ele>1411.7975959615</ele>
        <time>2013-07-27T12:12:39Z</time>
      </trkpt>
      <trkpt lat="45.55454" lon="6.72942">
        <ele>1410.8901104943</ele>
        <time>2013-07-27T12:12:44Z</time>
      </trkpt>
      <trkpt lat="45.55462" lon="6.72956">
        <ele>1410.3826178246</ele>
        <time>2013-07-27T12:12:49Z</time>
      </trkpt>
      <trkpt lat="45.55482" lon="6.72967">
        <ele>1407.9619638961</ele>
        <time>2013-07-27T12:12:58Z</time>
      </trkpt>
      <trkpt lat="45.555" lon="6.72966">
        <ele>1405.07000192</ele>
        <time>2013-07-27T12:13:06Z</time>
      </trkpt>
      <trkpt lat="45.55542" lon="6.72974">
        <ele>1400.73300096</ele>
        <time>2013-07-27T12:13:24Z</time>
      </trkpt>
      <trkpt lat="45.55556" lon="6.72979">
        <ele>1399.23300096</ele>
        <time>2013-07-27T12:13:29Z</time>
      </trkpt>
      <trkpt lat="45.55561" lon="6.72982">
        <ele>1398.63300096</ele>
        <time>2013-07-27T12:13:31Z</time>
      </trkpt>
      <trkpt lat="45.55567" lon="6.72984">
        <ele>1398.03300096</ele>
        <time>2013-07-27T12:13:33Z</time>
      </trkpt>
      <trkpt lat="45.55577" lon="6.72987">
        <ele>1396.8306615347</ele>
        <time>2013-07-27T12:13:37Z</time>
      </trkpt>
      <trkpt lat="45.55595" lon="6.72993">
        <ele>1394.9097219048</ele>
        <time>2013-07-27T12:13:44Z</time>
      </trkpt>
      <trkpt lat="45.5561" lon="6.7302">
        <ele>1394.0168647619</ele>
        <time>2013-07-27T12:13:53Z</time>
      </trkpt>
      <trkpt lat="45.55613" lon="6.73043">
        <ele>1394</ele>
        <time>2013-07-27T12:13:59Z</time>
      </trkpt>
      <trkpt lat="45.55614" lon="6.73068">
        <ele>1393.70899968</ele>
        <time>2013-07-27T12:14:06Z</time>
      </trkpt>
      <trkpt lat="45.55609" lon="6.73096">
        <ele>1390.8203593962</ele>
        <time>2013-07-27T12:14:29Z</time>
      </trkpt>
      <trkpt lat="45.55605" lon="6.73118">
        <ele>1389.8106214417</ele>
        <time>2013-07-27T12:14:35Z</time>
      </trkpt>
      <trkpt lat="45.55602" lon="6.73167">
        <ele>1387.80600064</ele>
        <time>2013-07-27T12:14:49Z</time>
      </trkpt>
      <trkpt lat="45.55602" lon="6.7319">
        <ele>1386.41799936</ele>
        <time>2013-07-27T12:14:56Z</time>
      </trkpt>
      <trkpt lat="45.55604" lon="6.73208">
        <ele>1385.416</ele>
        <time>2013-07-27T12:15:01Z</time>
      </trkpt>
      <trkpt lat="45.55607" lon="6.73226">
        <ele>1384.70899968</ele>
        <time>2013-07-27T12:15:06Z</time>
      </trkpt>
      <trkpt lat="45.55609" lon="6.73244">
        <ele>1384.20899968</ele>
        <time>2013-07-27T12:15:11Z</time>
      </trkpt>
      <trkpt lat="45.55618" lon="6.73279">
        <ele>1381.60299904</ele>
        <time>2013-07-27T12:15:21Z</time>
      </trkpt>
      <trkpt lat="45.55622" lon="6.73295">
        <ele>1380.4237621077</ele>
        <time>2013-07-27T12:15:26Z</time>
      </trkpt>
      <trkpt lat="45.55627" lon="6.73319">
        <ele>1379.0376243722</ele>
        <time>2013-07-27T12:15:33Z</time>
      </trkpt>
      <trkpt lat="45.55641" lon="6.734">
        <ele>1373.41799936</ele>
        <time>2013-07-27T12:15:56Z</time>
      </trkpt>
      <trkpt lat="45.5564" lon="6.73415">
        <ele>1372.61799936</ele>
        <time>2013-07-27T12:16:00Z</time>
      </trkpt>
      <trkpt lat="45.55641" lon="6.7343">
        <ele>1371.9105207978</ele>
        <time>2013-07-27T12:16:04Z</time>
      </trkpt>
      <trkpt lat="45.55642" lon="6.73448">
        <ele>1371.4188785585</ele>
        <time>2013-07-27T12:16:09Z</time>
      </trkpt>
      <trkpt lat="45.55642" lon="6.73463">
        <ele>1371.0255647671</ele>
        <time>2013-07-27T12:16:13Z</time>
      </trkpt>
      <trkpt lat="45.55642" lon="6.73488">
        <ele>1369.6069255515</ele>
        <time>2013-07-27T12:16:20Z</time>
      </trkpt>
      <trkpt lat="45.55642" lon="6.73495">
        <ele>1369.1995938414</ele>
        <time>2013-07-27T12:16:22Z</time>
      </trkpt>
      <trkpt lat="45.55641" lon="6.73511">
        <ele>1368.3812384072</ele>
        <time>2013-07-27T12:16:26Z</time>
      </trkpt>
      <trkpt lat="45.55639" lon="6.73526">
        <ele>1367.5828347036</ele>
        <time>2013-07-27T12:16:30Z</time>
      </trkpt>
      <trkpt lat="45.55638" lon="6.73537">
        <ele>1367</ele>
        <time>2013-07-27T12:16:33Z</time>
      </trkpt>
      <trkpt lat="45.55633" lon="6.7356">
        <ele>1365.5971952884</ele>
        <time>2013-07-27T12:16:40Z</time>
      </trkpt>
      <trkpt lat="45.55631" lon="6.73574">
        <ele>1364.78000128</ele>
        <time>2013-07-27T12:16:44Z</time>
      </trkpt>
      <trkpt lat="45.55627" lon="6.7359">
        <ele>1363.78000128</ele>
        <time>2013-07-27T12:16:49Z</time>
      </trkpt>
      <trkpt lat="45.55624" lon="6.73602">
        <ele>1362.99400192</ele>
        <time>2013-07-27T12:16:53Z</time>
      </trkpt>
      <trkpt lat="45.5562" lon="6.73617">
        <ele>1361.49400192</ele>
        <time>2013-07-27T12:16:58Z</time>
      </trkpt>
      <trkpt lat="45.55615" lon="6.73646">
        <ele>1359.19800064</ele>
        <time>2013-07-27T12:17:11Z</time>
      </trkpt>
      <trkpt lat="45.55626" lon="6.7364">
        <ele>1357.77000192</ele>
        <time>2013-07-27T12:17:17Z</time>
      </trkpt>
      <trkpt lat="45.55635" lon="6.73634">
        <ele>1356.27000192</ele>
        <time>2013-07-27T12:17:22Z</time>
      </trkpt>
      <trkpt lat="45.55644" lon="6.73626">
        <ele>1352.7265499251</ele>
        <time>2013-07-27T12:17:27Z</time>
      </trkpt>
      <trkpt lat="45.55682" lon="6.73595">
        <ele>1340.56000256</ele>
        <time>2013-07-27T12:17:49Z</time>
      </trkpt>
      <trkpt lat="45.55696" lon="6.73588">
        <ele>1335.4935085694</ele>
        <time>2013-07-27T12:18:00Z</time>
      </trkpt>
      <trkpt lat="45.55711" lon="6.73572">
        <ele>1330.5049984</ele>
        <time>2013-07-27T12:18:10Z</time>
      </trkpt>
      <trkpt lat="45.55725" lon="6.73559">
        <ele>1327.0449984</ele>
        <time>2013-07-27T12:18:17Z</time>
      </trkpt>
      <trkpt lat="45.55758" lon="6.73533">
        <ele>1318.0861743238</ele>
        <time>2013-07-27T12:18:37Z</time>
      </trkpt>
      <trkpt lat="45.55773" lon="6.73518">
        <ele>1314.23599872</ele>
        <time>2013-07-27T12:18:45Z</time>
      </trkpt>
      <trkpt lat="45.55788" lon="6.73502">
        <ele>1309.8374615144</ele>
        <time>2013-07-27T12:18:57Z</time>
      </trkpt>
      <trkpt lat="45.55803" lon="6.73485">
        <ele>1306.540866344</ele>
        <time>2013-07-27T12:19:08Z</time>
      </trkpt>
      <trkpt lat="45.55815" lon="6.73479">
        <ele>1305.3299686523</ele>
        <time>2013-07-27T12:19:12Z</time>
      </trkpt>
      <trkpt lat="45.55837" lon="6.73475">
        <ele>1301.80399872</ele>
        <time>2013-07-27T12:19:21Z</time>
      </trkpt>
      <trkpt lat="45.5585" lon="6.73473">
        <ele>1296.1167673506</ele>
        <time>2013-07-27T12:19:30Z</time>
      </trkpt>
      <trkpt lat="45.55861" lon="6.73474">
        <ele>1292.6346346038</ele>
        <time>2013-07-27T12:19:40Z</time>
      </trkpt>
      <trkpt lat="45.55867" lon="6.73461">
        <ele>1286.63599872</ele>
        <time>2013-07-27T12:19:59Z</time>
      </trkpt>
      <trkpt lat="45.55873" lon="6.73469">
        <ele>1284.01799936</ele>
        <time>2013-07-27T12:20:08Z</time>
      </trkpt>
      <trkpt lat="45.55889" lon="6.73497">
        <ele>1280.5163514026</ele>
        <time>2013-07-27T12:20:28Z</time>
      </trkpt>
      <trkpt lat="45.55896" lon="6.73506">
        <ele>1277.6236116654</ele>
        <time>2013-07-27T12:20:40Z</time>
      </trkpt>
      <trkpt lat="45.55907" lon="6.73515">
        <ele>1275.22699904</ele>
        <time>2013-07-27T12:20:49Z</time>
      </trkpt>
      <trkpt lat="45.5592" lon="6.73528">
        <ele>1270.99400192</ele>
        <time>2013-07-27T12:21:03Z</time>
      </trkpt>
      <trkpt lat="45.55933" lon="6.73539">
        <ele>1268.89400192</ele>
        <time>2013-07-27T12:21:10Z</time>
      </trkpt>
      <trkpt lat="45.55975" lon="6.73571">
        <ele>1261.2754492777</ele>
        <time>2013-07-27T12:21:32Z</time>
      </trkpt>
      <trkpt lat="45.55984" lon="6.73581">
        <ele>1257.0718576108</ele>
        <time>2013-07-27T12:21:46Z</time>
      </trkpt>
      <trkpt lat="45.55996" lon="6.73592">
        <ele>1255.2754492777</ele>
        <time>2013-07-27T12:21:52Z</time>
      </trkpt>
      <trkpt lat="45.56026" lon="6.73609">
        <ele>1250.79800064</ele>
        <time>2013-07-27T12:22:05Z</time>
      </trkpt>
      <trkpt lat="45.56044" lon="6.73606">
        <ele>1249.89000064</ele>
        <time>2013-07-27T12:22:14Z</time>
      </trkpt>
      <trkpt lat="45.56029" lon="6.73594">
        <ele>1249.9792698059</ele>
        <time>2013-07-27T12:22:33Z</time>
      </trkpt>
      <trkpt lat="45.56019" lon="6.73582">
        <ele>1251.1018974951</ele>
        <time>2013-07-27T12:22:44Z</time>
      </trkpt>
      <trkpt lat="45.56013" lon="6.73558">
        <ele>1252</ele>
        <time>2013-07-27T12:24:32Z</time>
      </trkpt>
      <trkpt lat="45.5601" lon="6.7351">
        <ele>1249.99400192</ele>
        <time>2013-07-27T12:24:53Z</time>
      </trkpt>
      <trkpt lat="45.56013" lon="6.73487">
        <ele>1248.19400192</ele>
        <time>2013-07-27T12:24:59Z</time>
      </trkpt>
      <trkpt lat="45.56018" lon="6.7346">
        <ele>1246.59000064</ele>
        <time>2013-07-27T12:25:07Z</time>
      </trkpt>
      <trkpt lat="45.56022" lon="6.73433">
        <ele>1245.98000128</ele>
        <time>2013-07-27T12:25:13Z</time>
      </trkpt>
      <trkpt lat="45.56026" lon="6.73405">
        <ele>1244.38000128</ele>
        <time>2013-07-27T12:25:21Z</time>
      </trkpt>
      <trkpt lat="45.56016" lon="6.73368">
        <ele>1242</ele>
        <time>2013-07-27T12:25:44Z</time>
      </trkpt>
      <trkpt lat="45.56013" lon="6.73346">
        <ele>1242.59100032</ele>
        <time>2013-07-27T12:25:59Z</time>
      </trkpt>
      <trkpt lat="45.56008" lon="6.73327">
        <ele>1243</ele>
        <time>2013-07-27T12:26:09Z</time>
      </trkpt>
      <trkpt lat="45.56003" lon="6.73304">
        <ele>1243.7797275819</ele>
        <time>2013-07-27T12:26:21Z</time>
      </trkpt>
      <trkpt lat="45.56006" lon="6.73277">
        <ele>1245</ele>
        <time>2013-07-27T12:26:34Z</time>
      </trkpt>
      <trkpt lat="45.55995" lon="6.73224">
        <ele>1243.58000128</ele>
        <time>2013-07-27T12:26:50Z</time>
      </trkpt>
      <trkpt lat="45.55975" lon="6.73144">
        <ele>1241.37000192</ele>
        <time>2013-07-27T12:27:15Z</time>
      </trkpt>
      <trkpt lat="45.55967" lon="6.7312">
        <ele>1239.27000192</ele>
        <time>2013-07-27T12:27:22Z</time>
      </trkpt>
      <trkpt lat="45.55953" lon="6.73071">
        <ele>1237.417086901</ele>
        <time>2013-07-27T12:27:36Z</time>
      </trkpt>
      <trkpt lat="45.55953" lon="6.73043">
        <ele>1235.99400192</ele>
        <time>2013-07-27T12:27:43Z</time>
      </trkpt>
      <trkpt lat="45.55955" lon="6.73015">
        <ele>1233.59400192</ele>
        <time>2013-07-27T12:27:51Z</time>
      </trkpt>
      <trkpt lat="45.55958" lon="6.72988">
        <ele>1231.981019934</ele>
        <time>2013-07-27T12:27:58Z</time>
      </trkpt>
      <trkpt lat="45.55959" lon="6.72962">
        <ele>1230.5824180883</ele>
        <time>2013-07-27T12:28:05Z</time>
      </trkpt>
      <trkpt lat="45.55947" lon="6.72913">
        <ele>1228</ele>
        <time>2013-07-27T12:28:27Z</time>
      </trkpt>
      <trkpt lat="45.55942" lon="6.72887">
        <ele>1228.6933863289</ele>
        <time>2013-07-27T12:28:40Z</time>
      </trkpt>
      <trkpt lat="45.55936" lon="6.72861">
        <ele>1229</ele>
        <time>2013-07-27T12:28:50Z</time>
      </trkpt>
      <trkpt lat="45.55933" lon="6.72832">
        <ele>1226.9901484045</ele>
        <time>2013-07-27T12:28:58Z</time>
      </trkpt>
      <trkpt lat="45.55934" lon="6.72803">
        <ele>1224.6040606498</ele>
        <time>2013-07-27T12:29:05Z</time>
      </trkpt>
      <trkpt lat="45.55928" lon="6.72752">
        <ele>1223</ele>
        <time>2013-07-27T12:29:22Z</time>
      </trkpt>
      <trkpt lat="45.55924" lon="6.72732">
        <ele>1223.9081835741</ele>
        <time>2013-07-27T12:29:32Z</time>
      </trkpt>
      <trkpt lat="45.55917" lon="6.72712">
        <ele>1224</ele>
        <time>2013-07-27T12:29:43Z</time>
      </trkpt>
      <trkpt lat="45.55904" lon="6.72693">
        <ele>1223.5943499191</ele>
        <time>2013-07-27T12:29:55Z</time>
      </trkpt>
      <trkpt lat="45.55895" lon="6.7267">
        <ele>1222</ele>
        <time>2013-07-27T12:30:07Z</time>
      </trkpt>
      <trkpt lat="45.55879" lon="6.72623">
        <ele>1220</ele>
        <time>2013-07-27T12:30:46Z</time>
      </trkpt>
      <trkpt lat="45.55871" lon="6.72599">
        <ele>1220</ele>
        <time>2013-07-27T12:30:54Z</time>
      </trkpt>
      <trkpt lat="45.55856" lon="6.72512">
        <ele>1217.60899968</ele>
        <time>2013-07-27T12:31:17Z</time>
      </trkpt>
      <trkpt lat="45.55838" lon="6.72463">
        <ele>1217</ele>
        <time>2013-07-27T12:31:33Z</time>
      </trkpt>
      <trkpt lat="45.55832" lon="6.72438">
        <ele>1216.2006084861</ele>
        <time>2013-07-27T12:31:41Z</time>
      </trkpt>
      <trkpt lat="45.55825" lon="6.72413">
        <ele>1216</ele>
        <time>2013-07-27T12:31:50Z</time>
      </trkpt>
      <trkpt lat="45.55814" lon="6.72392">
        <ele>1215.29000064</ele>
        <time>2013-07-27T12:32:00Z</time>
      </trkpt>
      <trkpt lat="45.55806" lon="6.72368">
        <ele>1215</ele>
        <time>2013-07-27T12:32:11Z</time>
      </trkpt>
      <trkpt lat="45.55778" lon="6.72333">
        <ele>1218.5943499191</ele>
        <time>2013-07-27T12:32:41Z</time>
      </trkpt>
      <trkpt lat="45.55768" lon="6.72312">
        <ele>1221.29699968</ele>
        <time>2013-07-27T12:32:56Z</time>
      </trkpt>
      <trkpt lat="45.55752" lon="6.723">
        <ele>1223.1796406038</ele>
        <time>2013-07-27T12:33:09Z</time>
      </trkpt>
      <trkpt lat="45.55737" lon="6.7229">
        <ele>1225.3807617672</ele>
        <time>2013-07-27T12:33:20Z</time>
      </trkpt>
      <trkpt lat="45.55725" lon="6.72269">
        <ele>1228.5791580468</ele>
        <time>2013-07-27T12:33:36Z</time>
      </trkpt>
      <trkpt lat="45.55707" lon="6.72224">
        <ele>1231</ele>
        <time>2013-07-27T12:34:00Z</time>
      </trkpt>
      <trkpt lat="45.55692" lon="6.72209">
        <ele>1232.9643223673</ele>
        <time>2013-07-27T12:34:13Z</time>
      </trkpt>
      <trkpt lat="45.55687" lon="6.72185">
        <ele>1234</ele>
        <time>2013-07-27T12:34:25Z</time>
      </trkpt>
      <trkpt lat="45.55683" lon="6.7216">
        <ele>1234.4879753029</ele>
        <time>2013-07-27T12:34:38Z</time>
      </trkpt>
      <trkpt lat="45.55674" lon="6.72137">
        <ele>1236.78200064</ele>
        <time>2013-07-27T12:34:52Z</time>
      </trkpt>
      <trkpt lat="45.55637" lon="6.72141">
        <ele>1239.4900199665</ele>
        <time>2013-07-27T12:35:28Z</time>
      </trkpt>
      <trkpt lat="45.5562" lon="6.72138">
        <ele>1240.7905813487</ele>
        <time>2013-07-27T12:35:41Z</time>
      </trkpt>
      <trkpt lat="45.5561" lon="6.72118">
        <ele>1241</ele>
        <time>2013-07-27T12:35:55Z</time>
      </trkpt>
      <trkpt lat="45.55603" lon="6.72038">
        <ele>1243.79187371</ele>
        <time>2013-07-27T12:36:31Z</time>
      </trkpt>
      <trkpt lat="45.55602" lon="6.72011">
        <ele>1244.19100032</ele>
        <time>2013-07-27T12:36:45Z</time>
      </trkpt>
      <trkpt lat="45.55598" lon="6.71985">
        <ele>1245</ele>
        <time>2013-07-27T12:37:00Z</time>
      </trkpt>
      <trkpt lat="45.55609" lon="6.7197">
        <ele>1244.232</ele>
        <time>2013-07-27T12:37:17Z</time>
      </trkpt>
      <trkpt lat="45.55618" lon="6.71945">
        <ele>1240.2316836552</ele>
        <time>2013-07-27T12:37:30Z</time>
      </trkpt>
      <trkpt lat="45.55612" lon="6.71893">
        <ele>1233.83600128</ele>
        <time>2013-07-27T12:37:49Z</time>
      </trkpt>
      <trkpt lat="45.55616" lon="6.71867">
        <ele>1230.60299904</ele>
        <time>2013-07-27T12:38:01Z</time>
      </trkpt>
      <trkpt lat="45.55627" lon="6.71846">
        <ele>1229.01799936</ele>
        <time>2013-07-27T12:38:08Z</time>
      </trkpt>
      <trkpt lat="45.55632" lon="6.71821">
        <ele>1227.448</ele>
        <time>2013-07-27T12:38:15Z</time>
      </trkpt>
      <trkpt lat="45.55639" lon="6.71796">
        <ele>1224.6047893941</ele>
        <time>2013-07-27T12:38:24Z</time>
      </trkpt>
      <trkpt lat="45.55648" lon="6.71742">
        <ele>1211.050694903</ele>
        <time>2013-07-27T12:39:03Z</time>
      </trkpt>
      <trkpt lat="45.55654" lon="6.71716">
        <ele>1209.2036283871</ele>
        <time>2013-07-27T12:39:12Z</time>
      </trkpt>
      <trkpt lat="45.55658" lon="6.7169">
        <ele>1208.30099968</ele>
        <time>2013-07-27T12:39:20Z</time>
      </trkpt>
      <trkpt lat="45.55675" lon="6.71673">
        <ele>1207.0039920134</ele>
        <time>2013-07-27T12:39:28Z</time>
      </trkpt>
      <trkpt lat="45.55688" lon="6.71655">
        <ele>1203.8194438095</ele>
        <time>2013-07-27T12:39:44Z</time>
      </trkpt>
      <trkpt lat="45.55707" lon="6.71615">
        <ele>1198.4072567742</ele>
        <time>2013-07-27T12:40:02Z</time>
      </trkpt>
      <trkpt lat="45.55708" lon="6.71589">
        <ele>1198.79100032</ele>
        <time>2013-07-27T12:40:21Z</time>
      </trkpt>
      <trkpt lat="45.55719" lon="6.71567">
        <ele>1199</ele>
        <time>2013-07-27T12:40:32Z</time>
      </trkpt>
      <trkpt lat="45.55733" lon="6.71546">
        <ele>1198.1162325395</ele>
        <time>2013-07-27T12:40:42Z</time>
      </trkpt>
      <trkpt lat="45.55752" lon="6.71457">
        <ele>1186.729434047</ele>
        <time>2013-07-27T12:41:24Z</time>
      </trkpt>
      <trkpt lat="45.55762" lon="6.7148">
        <ele>1184.6481648042</ele>
        <time>2013-07-27T12:41:31Z</time>
      </trkpt>
      <trkpt lat="45.55766" lon="6.71505">
        <ele>1183.2306137549</ele>
        <time>2013-07-27T12:41:37Z</time>
      </trkpt>
      <trkpt lat="45.55781" lon="6.7153">
        <ele>1174.20599808</ele>
        <time>2013-07-27T12:42:01Z</time>
      </trkpt>
      <trkpt lat="45.55791" lon="6.71481">
        <ele>1170.80399872</ele>
        <time>2013-07-27T12:42:16Z</time>
      </trkpt>
      <trkpt lat="45.55787" lon="6.71454">
        <ele>1167.7059398299</ele>
        <time>2013-07-27T12:42:24Z</time>
      </trkpt>
      <trkpt lat="45.55778" lon="6.71427">
        <ele>1165.6267332266</ele>
        <time>2013-07-27T12:42:31Z</time>
      </trkpt>
      <trkpt lat="45.55756" lon="6.71385">
        <ele>1162.3303022741</ele>
        <time>2013-07-27T12:42:42Z</time>
      </trkpt>
      <trkpt lat="45.55742" lon="6.7136">
        <ele>1159.60299904</ele>
        <time>2013-07-27T12:42:51Z</time>
      </trkpt>
      <trkpt lat="45.55742" lon="6.71321">
        <ele>1148.0674590476</ele>
        <time>2013-07-27T12:43:23Z</time>
      </trkpt>
      <trkpt lat="45.5576" lon="6.71328">
        <ele>1146.2072439712</ele>
        <time>2013-07-27T12:43:32Z</time>
      </trkpt>
      <trkpt lat="45.55792" lon="6.71361">
        <ele>1141.254920315</ele>
        <time>2013-07-27T12:43:49Z</time>
      </trkpt>
      <trkpt lat="45.55804" lon="6.71378">
        <ele>1140.0738179528</ele>
        <time>2013-07-27T12:43:53Z</time>
      </trkpt>
      <trkpt lat="45.55814" lon="6.71398">
        <ele>1136.4573190244</ele>
        <time>2013-07-27T12:43:59Z</time>
      </trkpt>
      <trkpt lat="45.55841" lon="6.71436">
        <ele>1132.20199936</ele>
        <time>2013-07-27T12:44:17Z</time>
      </trkpt>
      <trkpt lat="45.55862" lon="6.71484">
        <ele>1127.4537289405</ele>
        <time>2013-07-27T12:44:32Z</time>
      </trkpt>
      <trkpt lat="45.55868" lon="6.7151">
        <ele>1124.6442192903</ele>
        <time>2013-07-27T12:44:39Z</time>
      </trkpt>
      <trkpt lat="45.55866" lon="6.71537">
        <ele>1121.40399872</ele>
        <time>2013-07-27T12:44:47Z</time>
      </trkpt>
      <trkpt lat="45.55869" lon="6.71565">
        <ele>1118.42699904</ele>
        <time>2013-07-27T12:44:55Z</time>
      </trkpt>
      <trkpt lat="45.55885" lon="6.71485">
        <ele>1105.5188620653</ele>
        <time>2013-07-27T12:45:40Z</time>
      </trkpt>
      <trkpt lat="45.55888" lon="6.7146">
        <ele>1102.79400192</ele>
        <time>2013-07-27T12:45:47Z</time>
      </trkpt>
      <trkpt lat="45.5589" lon="6.71431">
        <ele>1099.79200256</ele>
        <time>2013-07-27T12:45:56Z</time>
      </trkpt>
      <trkpt lat="45.55868" lon="6.71359">
        <ele>1092.78000128</ele>
        <time>2013-07-27T12:46:19Z</time>
      </trkpt>
      <trkpt lat="45.55869" lon="6.71333">
        <ele>1090.4970069442</ele>
        <time>2013-07-27T12:46:28Z</time>
      </trkpt>
      <trkpt lat="45.55867" lon="6.71304">
        <ele>1087.3967946153</ele>
        <time>2013-07-27T12:46:37Z</time>
      </trkpt>
      <trkpt lat="45.55866" lon="6.71275">
        <ele>1084.59200256</ele>
        <time>2013-07-27T12:46:44Z</time>
      </trkpt>
      <trkpt lat="45.55863" lon="6.71221">
        <ele>1078</ele>
        <time>2013-07-27T12:47:03Z</time>
      </trkpt>
      <trkpt lat="45.55886" lon="6.71259">
        <ele>1070.6</ele>
        <time>2013-07-27T12:47:29Z</time>
      </trkpt>
      <trkpt lat="45.55899" lon="6.71278">
        <ele>1068.3987979807</ele>
        <time>2013-07-27T12:47:35Z</time>
      </trkpt>
      <trkpt lat="45.5591" lon="6.71298">
        <ele>1066.5951919229</ele>
        <time>2013-07-27T12:47:41Z</time>
      </trkpt>
      <trkpt lat="45.55936" lon="6.71332">
        <ele>1062.37000192</ele>
        <time>2013-07-27T12:47:55Z</time>
      </trkpt>
      <trkpt lat="45.55946" lon="6.71351">
        <ele>1060.57000192</ele>
        <time>2013-07-27T12:48:01Z</time>
      </trkpt>
      <trkpt lat="45.55961" lon="6.71391">
        <ele>1056.62000384</ele>
        <time>2013-07-27T12:48:14Z</time>
      </trkpt>
      <trkpt lat="45.55965" lon="6.71416">
        <ele>1053.42000384</ele>
        <time>2013-07-27T12:48:22Z</time>
      </trkpt>
      <trkpt lat="45.55974" lon="6.71471">
        <ele>1049.5971952884</ele>
        <time>2013-07-27T12:48:40Z</time>
      </trkpt>
      <trkpt lat="45.5598" lon="6.71487">
        <ele>1048.670331483</ele>
        <time>2013-07-27T12:48:44Z</time>
      </trkpt>
      <trkpt lat="45.55989" lon="6.71503">
        <ele>1047.1718295055</ele>
        <time>2013-07-27T12:48:49Z</time>
      </trkpt>
      <trkpt lat="45.56012" lon="6.71526">
        <ele>1040.5885922439</ele>
        <time>2013-07-27T12:49:02Z</time>
      </trkpt>
      <trkpt lat="45.56024" lon="6.71609">
        <ele>1032.9311380879</ele>
        <time>2013-07-27T12:49:30Z</time>
      </trkpt>
      <trkpt lat="45.56011" lon="6.71631">
        <ele>1030.8306615347</ele>
        <time>2013-07-27T12:49:37Z</time>
      </trkpt>
      <trkpt lat="45.55962" lon="6.71672">
        <ele>1023.23599872</ele>
        <time>2013-07-27T12:50:00Z</time>
      </trkpt>
      <trkpt lat="45.5597" lon="6.71697">
        <ele>1016.5050197526</ele>
        <time>2013-07-27T12:50:28Z</time>
      </trkpt>
      <trkpt lat="45.55988" lon="6.7171">
        <ele>1015.5386221187</ele>
        <time>2013-07-27T12:50:34Z</time>
      </trkpt>
      <trkpt lat="45.56006" lon="6.71723">
        <ele>1012.5295940717</ele>
        <time>2013-07-27T12:50:40Z</time>
      </trkpt>
      <trkpt lat="45.56022" lon="6.7174">
        <ele>1008.9500032</ele>
        <time>2013-07-27T12:50:47Z</time>
      </trkpt>
      <trkpt lat="45.56046" lon="6.71772">
        <ele>1003.56000256</ele>
        <time>2013-07-27T12:50:59Z</time>
      </trkpt>
      <trkpt lat="45.56055" lon="6.71777">
        <ele>1002</ele>
        <time>2013-07-27T12:51:03Z</time>
      </trkpt>
      <trkpt lat="45.56063" lon="6.71787">
        <ele>1001.20999936</ele>
        <time>2013-07-27T12:51:07Z</time>
      </trkpt>
      <trkpt lat="45.56081" lon="6.71798">
        <ele>998.59600128</ele>
        <time>2013-07-27T12:51:20Z</time>
      </trkpt>
      <trkpt lat="45.56114" lon="6.71807">
        <ele>995.62725603062</ele>
        <time>2013-07-27T12:51:34Z</time>
      </trkpt>
      <trkpt lat="45.56119" lon="6.71793">
        <ele>987.39200256</ele>
        <time>2013-07-27T12:51:57Z</time>
      </trkpt>
      <trkpt lat="45.56105" lon="6.71776">
        <ele>984.58000128</ele>
        <time>2013-07-27T12:52:05Z</time>
      </trkpt>
      <trkpt lat="45.561" lon="6.71751">
        <ele>983.18000128</ele>
        <time>2013-07-27T12:52:12Z</time>
      </trkpt>
      <trkpt lat="45.56094" lon="6.71698">
        <ele>979.39121781475</ele>
        <time>2013-07-27T12:52:29Z</time>
      </trkpt>
      <trkpt lat="45.56109" lon="6.71682">
        <ele>976.89579293256</ele>
        <time>2013-07-27T12:52:40Z</time>
      </trkpt>
      <trkpt lat="45.56136" lon="6.71645">
        <ele>970.19760555536</ele>
        <time>2013-07-27T12:52:57Z</time>
      </trkpt>
      <trkpt lat="45.56148" lon="6.71626">
        <ele>968.89979966346</ele>
        <time>2013-07-27T12:53:04Z</time>
      </trkpt>
      <trkpt lat="45.56154" lon="6.71533">
        <ele>965.89979966346</ele>
        <time>2013-07-27T12:53:34Z</time>
      </trkpt>
      <trkpt lat="45.56137" lon="6.71486">
        <ele>965.70999936</ele>
        <time>2013-07-27T12:53:50Z</time>
      </trkpt>
      <trkpt lat="45.56131" lon="6.71442">
        <ele>969.1944431746</ele>
        <time>2013-07-27T12:54:09Z</time>
      </trkpt>
      <trkpt lat="45.56128" lon="6.71422">
        <ele>970.60685419355</ele>
        <time>2013-07-27T12:54:19Z</time>
      </trkpt>
      <trkpt lat="45.56128" lon="6.71395">
        <ele>973</ele>
        <time>2013-07-27T12:54:33Z</time>
      </trkpt>
      <trkpt lat="45.56125" lon="6.71371">
        <ele>974.20199936</ele>
        <time>2013-07-27T12:54:45Z</time>
      </trkpt>
      <trkpt lat="45.56112" lon="6.71316">
        <ele>974.90999936</ele>
        <time>2013-07-27T12:55:12Z</time>
      </trkpt>
      <trkpt lat="45.56112" lon="6.71295">
        <ele>974</ele>
        <time>2013-07-27T12:55:23Z</time>
      </trkpt>
      <trkpt lat="45.56106" lon="6.71277">
        <ele>973.20658600021</ele>
        <time>2013-07-27T12:55:31Z</time>
      </trkpt>
      <trkpt lat="45.561" lon="6.7126">
        <ele>973.59642109174</ele>
        <time>2013-07-27T12:55:39Z</time>
      </trkpt>
      <trkpt lat="45.56096" lon="6.71244">
        <ele>974</ele>
        <time>2013-07-27T12:55:47Z</time>
      </trkpt>
      <trkpt lat="45.5609" lon="6.71184">
        <ele>971</ele>
        <time>2013-07-27T12:56:06Z</time>
      </trkpt>
      <trkpt lat="45.56086" lon="6.71155">
        <ele>970.69153419355</ele>
        <time>2013-07-27T12:56:14Z</time>
      </trkpt>
      <trkpt lat="45.56086" lon="6.71128">
        <ele>968.27217935484</ele>
        <time>2013-07-27T12:56:22Z</time>
      </trkpt>
      <trkpt lat="45.56073" lon="6.71106">
        <ele>966.38323377771</ele>
        <time>2013-07-27T12:56:31Z</time>
      </trkpt>
      <trkpt lat="45.56044" lon="6.7107">
        <ele>959.99600128</ele>
        <time>2013-07-27T12:56:48Z</time>
      </trkpt>
      <trkpt lat="45.56012" lon="6.71046">
        <ele>958.49000064</ele>
        <time>2013-07-27T12:57:18Z</time>
      </trkpt>
      <trkpt lat="45.56002" lon="6.71029">
        <ele>958</ele>
        <time>2013-07-27T12:57:26Z</time>
      </trkpt>
      <trkpt lat="45.56014" lon="6.71005">
        <ele>957</ele>
        <time>2013-07-27T12:57:43Z</time>
      </trkpt>
      <trkpt lat="45.56104" lon="6.70954">
        <ele>951</ele>
        <time>2013-07-27T12:58:22Z</time>
      </trkpt>
      <trkpt lat="45.56103" lon="6.70928">
        <ele>949.18363285182</ele>
        <time>2013-07-27T12:58:32Z</time>
      </trkpt>
      <trkpt lat="45.56078" lon="6.70889">
        <ele>947.50252318788</ele>
        <time>2013-07-27T12:58:48Z</time>
      </trkpt>
      <trkpt lat="45.56078" lon="6.70863">
        <ele>946.1</ele>
        <time>2013-07-27T12:58:56Z</time>
      </trkpt>
      <trkpt lat="45.56097" lon="6.70855">
        <ele>944.00999936</ele>
        <time>2013-07-27T12:59:03Z</time>
      </trkpt>
      <trkpt lat="45.56127" lon="6.70826">
        <ele>944.18000128</ele>
        <time>2013-07-27T12:59:17Z</time>
      </trkpt>
      <trkpt lat="45.56141" lon="6.70775">
        <ele>941</ele>
        <time>2013-07-27T12:59:33Z</time>
      </trkpt>
      <trkpt lat="45.56141" lon="6.70748">
        <ele>940.60399872</ele>
        <time>2013-07-27T12:59:46Z</time>
      </trkpt>
      <trkpt lat="45.56134" lon="6.70723">
        <ele>942</ele>
        <time>2013-07-27T12:59:59Z</time>
      </trkpt>
      <trkpt lat="45.5614" lon="6.70696">
        <ele>942.90909056035</ele>
        <time>2013-07-27T13:00:12Z</time>
      </trkpt>
      <trkpt lat="45.56145" lon="6.70617">
        <ele>944</ele>
        <time>2013-07-27T13:00:49Z</time>
      </trkpt>
      <trkpt lat="45.56144" lon="6.7059">
        <ele>946.008</ele>
        <time>2013-07-27T13:01:03Z</time>
      </trkpt>
      <trkpt lat="45.56134" lon="6.70569">
        <ele>948</ele>
        <time>2013-07-27T13:01:14Z</time>
      </trkpt>
      <trkpt lat="45.56127" lon="6.70542">
        <ele>948</ele>
        <time>2013-07-27T13:01:29Z</time>
      </trkpt>
      <trkpt lat="45.56116" lon="6.70522">
        <ele>948</ele>
        <time>2013-07-27T13:01:40Z</time>
      </trkpt>
      <trkpt lat="45.56078" lon="6.70472">
        <ele>950.81999872</ele>
        <time>2013-07-27T13:02:22Z</time>
      </trkpt>
      <trkpt lat="45.56064" lon="6.70453">
        <ele>952</ele>
        <time>2013-07-27T13:02:38Z</time>
      </trkpt>
      <trkpt lat="45.56066" lon="6.70427">
        <ele>952.90199936</ele>
        <time>2013-07-27T13:02:52Z</time>
      </trkpt>
      <trkpt lat="45.5606" lon="6.70402">
        <ele>953.69800064</ele>
        <time>2013-07-27T13:03:06Z</time>
      </trkpt>
      <trkpt lat="45.56053" lon="6.70274">
        <ele>931.9500032</ele>
        <time>2013-07-27T13:04:01Z</time>
      </trkpt>
      <trkpt lat="45.56049" lon="6.70247">
        <ele>930</ele>
        <time>2013-07-27T13:04:14Z</time>
      </trkpt>
      <trkpt lat="45.56046" lon="6.70201">
        <ele>935.40599808</ele>
        <time>2013-07-27T13:04:51Z</time>
      </trkpt>
      <trkpt lat="45.5605" lon="6.70174">
        <ele>935</ele>
        <time>2013-07-27T13:05:04Z</time>
      </trkpt>
      <trkpt lat="45.5606" lon="6.70121">
        <ele>933.59600128</ele>
        <time>2013-07-27T13:05:20Z</time>
      </trkpt>
      <trkpt lat="45.56065" lon="6.70096">
        <ele>932.2330086108</ele>
        <time>2013-07-27T13:05:27Z</time>
      </trkpt>
      <trkpt lat="45.56074" lon="6.70043">
        <ele>926</ele>
        <time>2013-07-27T13:05:46Z</time>
      </trkpt>
      <trkpt lat="45.5607" lon="6.70016">
        <ele>926</ele>
        <time>2013-07-27T13:06:01Z</time>
      </trkpt>
      <trkpt lat="45.56054" lon="6.70002">
        <ele>927.21999872</ele>
        <time>2013-07-27T13:06:09Z</time>
      </trkpt>
      <trkpt lat="45.56053" lon="6.69947">
        <ele>929.30232470854</ele>
        <time>2013-07-27T13:06:36Z</time>
      </trkpt>
      <trkpt lat="45.56045" lon="6.69901">
        <ele>930.23752415966</ele>
        <time>2013-07-27T13:07:05Z</time>
      </trkpt>
      <trkpt lat="45.56051" lon="6.69876">
        <ele>926.5536624445</ele>
        <time>2013-07-27T13:07:14Z</time>
      </trkpt>
      <trkpt lat="45.56054" lon="6.69849">
        <ele>922.49147779065</ele>
        <time>2013-07-27T13:07:22Z</time>
      </trkpt>
      <trkpt lat="45.56052" lon="6.69824">
        <ele>920.58283470361</ele>
        <time>2013-07-27T13:07:30Z</time>
      </trkpt>
      <trkpt lat="45.56034" lon="6.6975">
        <ele>921.98200064</ele>
        <time>2013-07-27T13:08:03Z</time>
      </trkpt>
      <trkpt lat="45.56027" lon="6.69724">
        <ele>921.70665290323</ele>
        <time>2013-07-27T13:08:16Z</time>
      </trkpt>
      <trkpt lat="45.56022" lon="6.69698">
        <ele>920.609780369</ele>
        <time>2013-07-27T13:08:27Z</time>
      </trkpt>
      <trkpt lat="45.56018" lon="6.69673">
        <ele>920.98310169899</ele>
        <time>2013-07-27T13:08:43Z</time>
      </trkpt>
      <trkpt lat="45.56022" lon="6.69648">
        <ele>920.31448380952</ele>
        <time>2013-07-27T13:09:00Z</time>
      </trkpt>
      <trkpt lat="45.56055" lon="6.6952">
        <ele>909.59680740714</ele>
        <time>2013-07-27T13:09:55Z</time>
      </trkpt>
      <trkpt lat="45.56055" lon="6.69494">
        <ele>908</ele>
        <time>2013-07-27T13:10:05Z</time>
      </trkpt>
      <trkpt lat="45.56049" lon="6.69443">
        <ele>906.40199936</ele>
        <time>2013-07-27T13:10:21Z</time>
      </trkpt>
      <trkpt lat="45.56056" lon="6.69387">
        <ele>906.42598049452</ele>
        <time>2013-07-27T13:10:36Z</time>
      </trkpt>
      <trkpt lat="45.56059" lon="6.69359">
        <ele>904.56000256</ele>
        <time>2013-07-27T13:10:44Z</time>
      </trkpt>
      <trkpt lat="45.5605" lon="6.69331">
        <ele>900.56000256</ele>
        <time>2013-07-27T13:10:54Z</time>
      </trkpt>
      <trkpt lat="45.56035" lon="6.69283">
        <ele>897</ele>
        <time>2013-07-27T13:11:09Z</time>
      </trkpt>
      <trkpt lat="45.56041" lon="6.69257">
        <ele>896.69800064</ele>
        <time>2013-07-27T13:11:16Z</time>
      </trkpt>
      <trkpt lat="45.56033" lon="6.69206">
        <ele>898</ele>
        <time>2013-07-27T13:11:35Z</time>
      </trkpt>
      <trkpt lat="45.56017" lon="6.69192">
        <ele>898</ele>
        <time>2013-07-27T13:11:40Z</time>
      </trkpt>
      <trkpt lat="45.56" lon="6.69151">
        <ele>897.3</ele>
        <time>2013-07-27T13:11:54Z</time>
      </trkpt>
      <trkpt lat="45.56005" lon="6.69125">
        <ele>891.7</ele>
        <time>2013-07-27T13:12:02Z</time>
      </trkpt>
      <trkpt lat="45.56013" lon="6.69101">
        <ele>890.39484190476</ele>
        <time>2013-07-27T13:12:09Z</time>
      </trkpt>
      <trkpt lat="45.56023" lon="6.69048">
        <ele>890</ele>
        <time>2013-07-27T13:12:27Z</time>
      </trkpt>
      <trkpt lat="45.56018" lon="6.68994">
        <ele>887</ele>
        <time>2013-07-27T13:12:43Z</time>
      </trkpt>
      <trkpt lat="45.56006" lon="6.68974">
        <ele>887</ele>
        <time>2013-07-27T13:12:50Z</time>
      </trkpt>
      <trkpt lat="45.55993" lon="6.68954">
        <ele>886.49899831728</ele>
        <time>2013-07-27T13:12:58Z</time>
      </trkpt>
      <trkpt lat="45.55982" lon="6.68931">
        <ele>885.70529557012</ele>
        <time>2013-07-27T13:13:06Z</time>
      </trkpt>
      <trkpt lat="45.55944" lon="6.68863">
        <ele>884.80838311114</ele>
        <time>2013-07-27T13:13:31Z</time>
      </trkpt>
      <trkpt lat="45.55906" lon="6.68806">
        <ele>882</ele>
        <time>2013-07-27T13:13:58Z</time>
      </trkpt>
      <trkpt lat="45.55893" lon="6.68787">
        <ele>881.01008</ele>
        <time>2013-07-27T13:14:08Z</time>
      </trkpt>
      <trkpt lat="45.5587" lon="6.68714">
        <ele>874.63527158975</ele>
        <time>2013-07-27T13:14:35Z</time>
      </trkpt>
      <trkpt lat="45.55852" lon="6.68698">
        <ele>873.43286600905</ele>
        <time>2013-07-27T13:14:41Z</time>
      </trkpt>
      <trkpt lat="45.5584" lon="6.68678">
        <ele>873.39100032</ele>
        <time>2013-07-27T13:14:47Z</time>
      </trkpt>
      <trkpt lat="45.55834" lon="6.68653">
        <ele>873.0449984</ele>
        <time>2013-07-27T13:14:55Z</time>
      </trkpt>
      <trkpt lat="45.55837" lon="6.68599">
        <ele>866.40299904</ele>
        <time>2013-07-27T13:15:15Z</time>
      </trkpt>
      <trkpt lat="45.55812" lon="6.68555">
        <ele>862.45454405958</ele>
        <time>2013-07-27T13:15:35Z</time>
      </trkpt>
      <trkpt lat="45.55804" lon="6.68528">
        <ele>860.05694396137</ele>
        <time>2013-07-27T13:15:43Z</time>
      </trkpt>
      <trkpt lat="45.5578" lon="6.68508">
        <ele>860.96392783258</ele>
        <time>2013-07-27T13:15:48Z</time>
      </trkpt>
      <trkpt lat="45.55751" lon="6.68468">
        <ele>861.50504</ele>
        <time>2013-07-27T13:15:58Z</time>
      </trkpt>
      <trkpt lat="45.5574" lon="6.68445">
        <ele>861</ele>
        <time>2013-07-27T13:16:04Z</time>
      </trkpt>
      <trkpt lat="45.5575" lon="6.68425">
        <ele>861.02973051488</ele>
        <time>2013-07-27T13:17:03Z</time>
      </trkpt>
      <trkpt lat="45.55766" lon="6.68435">
        <ele>858.61856528967</ele>
        <time>2013-07-27T13:17:09Z</time>
      </trkpt>
      <trkpt lat="45.55803" lon="6.68457">
        <ele>851.60279402616</ele>
        <time>2013-07-27T13:17:25Z</time>
      </trkpt>
      <trkpt lat="45.5582" lon="6.68466">
        <ele>850.20558932976</ele>
        <time>2013-07-27T13:17:32Z</time>
      </trkpt>
      <trkpt lat="45.55837" lon="6.68455">
        <ele>847.62825595399</ele>
        <time>2013-07-27T13:17:41Z</time>
      </trkpt>
      <trkpt lat="45.55863" lon="6.68423">
        <ele>841.26600192</ele>
        <time>2013-07-27T13:17:56Z</time>
      </trkpt>
      <trkpt lat="45.55894" lon="6.6841">
        <ele>832.30330224519</ele>
        <time>2013-07-27T13:18:22Z</time>
      </trkpt>
      <trkpt lat="45.55943" lon="6.68405">
        <ele>827.06779531237</ele>
        <time>2013-07-27T13:18:43Z</time>
      </trkpt>
      <trkpt lat="45.55991" lon="6.68414">
        <ele>819.80299904</ele>
        <time>2013-07-27T13:19:07Z</time>
      </trkpt>
      <trkpt lat="45.56009" lon="6.68417">
        <ele>817.41799936</ele>
        <time>2013-07-27T13:19:16Z</time>
      </trkpt>
      <trkpt lat="45.56021" lon="6.68402">
        <ele>815.11188080039</ele>
        <time>2013-07-27T13:19:26Z</time>
      </trkpt>
      <trkpt lat="45.56027" lon="6.6838">
        <ele>813.03267419712</ele>
        <time>2013-07-27T13:19:33Z</time>
      </trkpt>
      <trkpt lat="45.56029" lon="6.68359">
        <ele>812.41313125697</ele>
        <time>2013-07-27T13:19:39Z</time>
      </trkpt>
      <trkpt lat="45.56053" lon="6.68299">
        <ele>808.00399872</ele>
        <time>2013-07-27T13:19:58Z</time>
      </trkpt>
      <trkpt lat="45.56056" lon="6.68272">
        <ele>805.70070047625</ele>
        <time>2013-07-27T13:20:06Z</time>
      </trkpt>
      <trkpt lat="45.56063" lon="6.68246">
        <ele>804.6123887672</ele>
        <time>2013-07-27T13:20:15Z</time>
      </trkpt>
      <trkpt lat="45.56069" lon="6.68228">
        <ele>803.61738217539</ele>
        <time>2013-07-27T13:20:20Z</time>
      </trkpt>
      <trkpt lat="45.56093" lon="6.68201">
        <ele>799.05138213439</ele>
        <time>2013-07-27T13:20:33Z</time>
      </trkpt>
      <trkpt lat="45.56113" lon="6.6816">
        <ele>793.49000064</ele>
        <time>2013-07-27T13:20:48Z</time>
      </trkpt>
      <trkpt lat="45.56122" lon="6.68141">
        <ele>792.0249984</ele>
        <time>2013-07-27T13:20:55Z</time>
      </trkpt>
      <trkpt lat="45.56131" lon="6.68119">
        <ele>787.69400192</ele>
        <time>2013-07-27T13:21:04Z</time>
      </trkpt>
      <trkpt lat="45.56159" lon="6.68082">
        <ele>781.80788127642</ele>
        <time>2013-07-27T13:21:21Z</time>
      </trkpt>
      <trkpt lat="45.56168" lon="6.68061">
        <ele>779.24797506335</ele>
        <time>2013-07-27T13:21:29Z</time>
      </trkpt>
      <trkpt lat="45.56167" lon="6.6801">
        <ele>774.5449984</ele>
        <time>2013-07-27T13:21:44Z</time>
      </trkpt>
      <trkpt lat="45.56171" lon="6.67984">
        <ele>771.0449984</ele>
        <time>2013-07-27T13:21:51Z</time>
      </trkpt>
      <trkpt lat="45.56192" lon="6.67938">
        <ele>766.20199936</ele>
        <time>2013-07-27T13:22:07Z</time>
      </trkpt>
      <trkpt lat="45.56222" lon="6.67846">
        <ele>752.70299904</ele>
        <time>2013-07-27T13:22:44Z</time>
      </trkpt>
      <trkpt lat="45.56238" lon="6.67797">
        <ele>748.80199936</ele>
        <time>2013-07-27T13:22:59Z</time>
      </trkpt>
      <trkpt lat="45.56238" lon="6.67771">
        <ele>748</ele>
        <time>2013-07-27T13:23:07Z</time>
      </trkpt>
      <trkpt lat="45.56231" lon="6.67746">
        <ele>747.70099968</ele>
        <time>2013-07-27T13:23:16Z</time>
      </trkpt>
      <trkpt lat="45.56224" lon="6.67722">
        <ele>747</ele>
        <time>2013-07-27T13:23:24Z</time>
      </trkpt>
      <trkpt lat="45.5619" lon="6.67666">
        <ele>746.81107788373</ele>
        <time>2013-07-27T13:23:45Z</time>
      </trkpt>
      <trkpt lat="45.56174" lon="6.67651">
        <ele>746.01978238741</ele>
        <time>2013-07-27T13:23:53Z</time>
      </trkpt>
      <trkpt lat="45.56159" lon="6.67636">
        <ele>743.60970600112</ele>
        <time>2013-07-27T13:24:01Z</time>
      </trkpt>
      <trkpt lat="45.56144" lon="6.67619">
        <ele>743.6976046642</ele>
        <time>2013-07-27T13:24:10Z</time>
      </trkpt>
      <trkpt lat="45.56131" lon="6.67599">
        <ele>744</ele>
        <time>2013-07-27T13:24:19Z</time>
      </trkpt>
      <trkpt lat="45.56095" lon="6.67535">
        <ele>742.3036437247</ele>
        <time>2013-07-27T13:24:40Z</time>
      </trkpt>
      <trkpt lat="45.56086" lon="6.67512">
        <ele>741.59000064</ele>
        <time>2013-07-27T13:24:47Z</time>
      </trkpt>
      <trkpt lat="45.56079" lon="6.67486">
        <ele>741</ele>
        <time>2013-07-27T13:24:55Z</time>
      </trkpt>
      <trkpt lat="45.56071" lon="6.67461">
        <ele>741.10199936</ele>
        <time>2013-07-27T13:25:04Z</time>
      </trkpt>
      <trkpt lat="45.56059" lon="6.67409">
        <ele>742</ele>
        <time>2013-07-27T13:25:19Z</time>
      </trkpt>
      <trkpt lat="45.56043" lon="6.67357">
        <ele>741</ele>
        <time>2013-07-27T13:25:35Z</time>
      </trkpt>
      <trkpt lat="45.56037" lon="6.67332">
        <ele>741</ele>
        <time>2013-07-27T13:25:41Z</time>
      </trkpt>
      <trkpt lat="45.5603" lon="6.67305">
        <ele>739.81150730159</ele>
        <time>2013-07-27T13:25:49Z</time>
      </trkpt>
      <trkpt lat="45.56022" lon="6.67257">
        <ele>738.20463741935</ele>
        <time>2013-07-27T13:26:01Z</time>
      </trkpt>
      <trkpt lat="45.56029" lon="6.67168">
        <ele>737.40419103924</ele>
        <time>2013-07-27T13:26:25Z</time>
      </trkpt>
      <trkpt lat="45.56034" lon="6.67129">
        <ele>735</ele>
        <time>2013-07-27T13:26:37Z</time>
      </trkpt>
      <trkpt lat="45.56028" lon="6.67112">
        <ele>735</ele>
        <time>2013-07-27T13:26:42Z</time>
      </trkpt>
      <trkpt lat="45.56022" lon="6.67096">
        <ele>735</ele>
        <time>2013-07-27T13:26:47Z</time>
      </trkpt>
      <trkpt lat="45.56011" lon="6.67059">
        <ele>735.59456734354</ele>
        <time>2013-07-27T13:26:59Z</time>
      </trkpt>
      <trkpt lat="45.55997" lon="6.6702">
        <ele>736</ele>
        <time>2013-07-27T13:27:13Z</time>
      </trkpt>
      <trkpt lat="45.5599" lon="6.67001">
        <ele>735.40505044367</ele>
        <time>2013-07-27T13:27:19Z</time>
      </trkpt>
      <trkpt lat="45.55983" lon="6.66985">
        <ele>734.90918137537</ele>
        <time>2013-07-27T13:27:24Z</time>
      </trkpt>
      <trkpt lat="45.55978" lon="6.66967">
        <ele>734.41017969809</ele>
        <time>2013-07-27T13:27:29Z</time>
      </trkpt>
      <trkpt lat="45.55957" lon="6.66922">
        <ele>732.91818208852</ele>
        <time>2013-07-27T13:27:44Z</time>
      </trkpt>
      <trkpt lat="45.55951" lon="6.66909">
        <ele>732.51414142328</ele>
        <time>2013-07-27T13:27:48Z</time>
      </trkpt>
      <trkpt lat="45.55944" lon="6.66893">
        <ele>732.00909059174</ele>
        <time>2013-07-27T13:27:53Z</time>
      </trkpt>
      <trkpt lat="45.55937" lon="6.66876">
        <ele>730.80846709677</ele>
        <time>2013-07-27T13:27:59Z</time>
      </trkpt>
      <trkpt lat="45.55928" lon="6.66857">
        <ele>730</ele>
        <time>2013-07-27T13:28:06Z</time>
      </trkpt>
      <trkpt lat="45.55917" lon="6.66799">
        <ele>730.79100032</ele>
        <time>2013-07-27T13:28:21Z</time>
      </trkpt>
      <trkpt lat="45.55914" lon="6.66776">
        <ele>731</ele>
        <time>2013-07-27T13:28:28Z</time>
      </trkpt>
      <trkpt lat="45.5591" lon="6.66756">
        <ele>730.8214649778</ele>
        <time>2013-07-27T13:28:34Z</time>
      </trkpt>
      <trkpt lat="45.55908" lon="6.66739">
        <ele>729.79839672566</ele>
        <time>2013-07-27T13:28:39Z</time>
      </trkpt>
      <trkpt lat="45.55902" lon="6.66703">
        <ele>727.78000128</ele>
        <time>2013-07-27T13:28:49Z</time>
      </trkpt>
      <trkpt lat="45.5586" lon="6.66634">
        <ele>724</ele>
        <time>2013-07-27T13:29:17Z</time>
      </trkpt>
      <trkpt lat="45.55829" lon="6.66603">
        <ele>723.01097835626</ele>
        <time>2013-07-27T13:29:33Z</time>
      </trkpt>
      <trkpt lat="45.55819" lon="6.66582">
        <ele>721.81963916289</ele>
        <time>2013-07-27T13:29:39Z</time>
      </trkpt>
      <trkpt lat="45.55794" lon="6.66546">
        <ele>722</ele>
        <time>2013-07-27T13:29:53Z</time>
      </trkpt>
      <trkpt lat="45.55783" lon="6.66531">
        <ele>721.50151073368</ele>
        <time>2013-07-27T13:29:58Z</time>
      </trkpt>
      <trkpt lat="45.55763" lon="6.66502">
        <ele>721</ele>
        <time>2013-07-27T13:30:10Z</time>
      </trkpt>
      <trkpt lat="45.55752" lon="6.66484">
        <ele>721.30199936</ele>
        <time>2013-07-27T13:30:16Z</time>
      </trkpt>
      <trkpt lat="45.55744" lon="6.66471">
        <ele>721.70199936</ele>
        <time>2013-07-27T13:30:20Z</time>
      </trkpt>
      <trkpt lat="45.55726" lon="6.66439">
        <ele>721.20432232885</ele>
        <time>2013-07-27T13:30:31Z</time>
      </trkpt>
      <trkpt lat="45.55712" lon="6.66398">
        <ele>719.81799791887</ele>
        <time>2013-07-27T13:30:45Z</time>
      </trkpt>
      <trkpt lat="45.55728" lon="6.66381">
        <ele>718.8064516129</ele>
        <time>2013-07-27T13:30:55Z</time>
      </trkpt>
      <trkpt lat="45.55735" lon="6.66366">
        <ele>718.10181419355</ele>
        <time>2013-07-27T13:31:02Z</time>
      </trkpt>
      <trkpt lat="45.55729" lon="6.66347">
        <ele>718</ele>
        <time>2013-07-27T13:31:08Z</time>
      </trkpt>
      <trkpt lat="45.55714" lon="6.66292">
        <ele>715</ele>
        <time>2013-07-27T13:31:24Z</time>
      </trkpt>
      <trkpt lat="45.55709" lon="6.66276">
        <ele>715</ele>
        <time>2013-07-27T13:31:29Z</time>
      </trkpt>
      <trkpt lat="45.55704" lon="6.66259">
        <ele>715.08617175867</ele>
        <time>2013-07-27T13:31:34Z</time>
      </trkpt>
      <trkpt lat="45.55696" lon="6.66236">
        <ele>715.78757501408</ele>
        <time>2013-07-27T13:31:41Z</time>
      </trkpt>
      <trkpt lat="45.55694" lon="6.66217">
        <ele>715.70099968</ele>
        <time>2013-07-27T13:31:46Z</time>
      </trkpt>
      <trkpt lat="45.55681" lon="6.66159">
        <ele>712</ele>
        <time>2013-07-27T13:32:05Z</time>
      </trkpt>
      <trkpt lat="45.5567" lon="6.66107">
        <ele>712</ele>
        <time>2013-07-27T13:32:21Z</time>
      </trkpt>
      <trkpt lat="45.55661" lon="6.6607">
        <ele>712.99700567058</ele>
        <time>2013-07-27T13:32:33Z</time>
      </trkpt>
      <trkpt lat="45.55655" lon="6.66034">
        <ele>712</ele>
        <time>2013-07-27T13:32:44Z</time>
      </trkpt>
      <trkpt lat="45.55652" lon="6.66014">
        <ele>712</ele>
        <time>2013-07-27T13:32:50Z</time>
      </trkpt>
      <trkpt lat="45.55654" lon="6.65999">
        <ele>712.29100032</ele>
        <time>2013-07-27T13:32:56Z</time>
      </trkpt>
      <trkpt lat="45.55661" lon="6.65961">
        <ele>712</ele>
        <time>2013-07-27T13:33:20Z</time>
      </trkpt>
      <trkpt lat="45.55661" lon="6.65941">
        <ele>712</ele>
        <time>2013-07-27T13:33:25Z</time>
      </trkpt>
      <trkpt lat="45.55661" lon="6.65904">
        <ele>711.21643300453</ele>
        <time>2013-07-27T13:33:41Z</time>
      </trkpt>
      <trkpt lat="45.5566" lon="6.65889">
        <ele>711</ele>
        <time>2013-07-27T13:33:47Z</time>
      </trkpt>
      <trkpt lat="45.55661" lon="6.65864">
        <ele>710.41100032</ele>
        <time>2013-07-27T13:33:59Z</time>
      </trkpt>
      <trkpt lat="45.55661" lon="6.65856">
        <ele>710.01100032</ele>
        <time>2013-07-27T13:34:03Z</time>
      </trkpt>
      <trkpt lat="45.55661" lon="6.65847">
        <ele>710</ele>
        <time>2013-07-27T13:34:07Z</time>
      </trkpt>
      <trkpt lat="45.55663" lon="6.6583">
        <ele>710</ele>
        <time>2013-07-27T13:34:15Z</time>
      </trkpt>
      <trkpt lat="45.55664" lon="6.65813">
        <ele>710</ele>
        <time>2013-07-27T13:34:23Z</time>
      </trkpt>
      <trkpt lat="45.55664" lon="6.65804">
        <ele>710.388132607</ele>
        <time>2013-07-27T13:34:27Z</time>
      </trkpt>
      <trkpt lat="45.55665" lon="6.65795">
        <ele>710.77723766537</ele>
        <time>2013-07-27T13:34:31Z</time>
      </trkpt>
      <trkpt lat="45.55667" lon="6.65782">
        <ele>711.78314451244</ele>
        <time>2013-07-27T13:34:37Z</time>
      </trkpt>
      <trkpt lat="45.55674" lon="6.65738">
        <ele>714</ele>
        <time>2013-07-27T13:34:59Z</time>
      </trkpt>
      <trkpt lat="45.55676" lon="6.65724">
        <ele>714</ele>
        <time>2013-07-27T13:35:05Z</time>
      </trkpt>
      <trkpt lat="45.55705" lon="6.65676">
        <ele>716.50604774194</ele>
        <time>2013-07-27T13:35:48Z</time>
      </trkpt>
      <trkpt lat="45.55734" lon="6.65605">
        <ele>721.80799744</ele>
        <time>2013-07-27T13:36:10Z</time>
      </trkpt>
      <trkpt lat="45.5574" lon="6.65579">
        <ele>723.40999936</ele>
        <time>2013-07-27T13:36:17Z</time>
      </trkpt>
      <trkpt lat="45.55747" lon="6.65555">
        <ele>724.21955974104</ele>
        <time>2013-07-27T13:36:24Z</time>
      </trkpt>
      <trkpt lat="45.55749" lon="6.6553">
        <ele>725.61676622229</ele>
        <time>2013-07-27T13:36:31Z</time>
      </trkpt>
      <trkpt lat="45.55751" lon="6.65474">
        <ele>726.30199936</ele>
        <time>2013-07-27T13:36:46Z</time>
      </trkpt>
      <trkpt lat="45.55745" lon="6.65423">
        <ele>727</ele>
        <time>2013-07-27T13:37:00Z</time>
      </trkpt>
      <trkpt lat="45.55738" lon="6.65395">
        <ele>727.50999936</ele>
        <time>2013-07-27T13:37:08Z</time>
      </trkpt>
      <trkpt lat="45.55732" lon="6.65374">
        <ele>728.10999936</ele>
        <time>2013-07-27T13:37:14Z</time>
      </trkpt>
      <trkpt lat="45.55727" lon="6.65361">
        <ele>728.50999936</ele>
        <time>2013-07-27T13:37:18Z</time>
      </trkpt>
      <trkpt lat="45.55725" lon="6.65355">
        <ele>728.70999936</ele>
        <time>2013-07-27T13:37:20Z</time>
      </trkpt>
      <trkpt lat="45.55718" lon="6.65337">
        <ele>729.2991025965</ele>
        <time>2013-07-27T13:37:26Z</time>
      </trkpt>
      <trkpt lat="45.5571" lon="6.65321">
        <ele>729.79760692399</ele>
        <time>2013-07-27T13:37:31Z</time>
      </trkpt>
      <trkpt lat="45.55692" lon="6.65301">
        <ele>729.41509409979</ele>
        <time>2013-07-27T13:37:39Z</time>
      </trkpt>
      <trkpt lat="45.55682" lon="6.6529">
        <ele>729.01787425736</ele>
        <time>2013-07-27T13:37:43Z</time>
      </trkpt>
      <trkpt lat="45.55671" lon="6.65278">
        <ele>728.61232565419</ele>
        <time>2013-07-27T13:37:47Z</time>
      </trkpt>
      <trkpt lat="45.55655" lon="6.65259">
        <ele>728.01590456245</ele>
        <time>2013-07-27T13:37:53Z</time>
      </trkpt>
      <trkpt lat="45.55637" lon="6.65237">
        <ele>729.1845849474</ele>
        <time>2013-07-27T13:37:59Z</time>
      </trkpt>
      <trkpt lat="45.55629" lon="6.65225">
        <ele>729.79310461216</ele>
        <time>2013-07-27T13:38:02Z</time>
      </trkpt>
      <trkpt lat="45.55597" lon="6.6517">
        <ele>728</ele>
        <time>2013-07-27T13:38:20Z</time>
      </trkpt>
    </trkseg>
  </trk>
</gpx>